<?xml version="1.0" encoding="UTF-8" standalone="no" ?>
<gpx xmlns="http://www.topografix.com/GPX/1/1" xmlns:xsi="http://www.w3.org/2001/XMLSchema-instance" xsi:schemaLocation="http://www.topografix.com/GPX/1/1 http://www.topografix.com/GPX/1/1/gpx.xsd" version="1.1" creator="VisuGPX - https://www.visugpx.com">
  <metadata>
    <name>Course matinale</name>
  </metadata>
  <trk>
    <name><![CDATA[Course matinale]]></name>
    <trkseg>
      <trkpt lat="46.14412" lon="6.07649">
        <ele>457.8</ele>
        <time>2019-09-13T05:37:50Z</time>
      </trkpt>
      <trkpt lat="46.14416" lon="6.07647">
        <ele>457.5</ele>
        <time>2019-09-13T05:37:54Z</time>
      </trkpt>
      <trkpt lat="46.14419" lon="6.07645">
        <ele>457.3</ele>
        <time>2019-09-13T05:37:56Z</time>
      </trkpt>
      <trkpt lat="46.14422" lon="6.07643">
        <ele>457</ele>
        <time>2019-09-13T05:37:58Z</time>
      </trkpt>
      <trkpt lat="46.14425" lon="6.07641">
        <ele>456.8</ele>
        <time>2019-09-13T05:38:00Z</time>
      </trkpt>
      <trkpt lat="46.1443" lon="6.07638">
        <ele>456.5</ele>
        <time>2019-09-13T05:38:02Z</time>
      </trkpt>
      <trkpt lat="46.14434" lon="6.07636">
        <ele>456.3</ele>
        <time>2019-09-13T05:38:04Z</time>
      </trkpt>
      <trkpt lat="46.14437" lon="6.07635">
        <ele>456.1</ele>
        <time>2019-09-13T05:38:05Z</time>
      </trkpt>
      <trkpt lat="46.1444" lon="6.07633">
        <ele>456</ele>
        <time>2019-09-13T05:38:06Z</time>
      </trkpt>
      <trkpt lat="46.14442" lon="6.07632">
        <ele>455.8</ele>
        <time>2019-09-13T05:38:07Z</time>
      </trkpt>
      <trkpt lat="46.14445" lon="6.07631">
        <ele>455.6</ele>
        <time>2019-09-13T05:38:08Z</time>
      </trkpt>
      <trkpt lat="46.14448" lon="6.07629">
        <ele>455.5</ele>
        <time>2019-09-13T05:38:09Z</time>
      </trkpt>
      <trkpt lat="46.14451" lon="6.07628">
        <ele>455.3</ele>
        <time>2019-09-13T05:38:10Z</time>
      </trkpt>
      <trkpt lat="46.14454" lon="6.07626">
        <ele>455.1</ele>
        <time>2019-09-13T05:38:11Z</time>
      </trkpt>
      <trkpt lat="46.14457" lon="6.07625">
        <ele>455</ele>
        <time>2019-09-13T05:38:12Z</time>
      </trkpt>
      <trkpt lat="46.1446" lon="6.07624">
        <ele>454.8</ele>
        <time>2019-09-13T05:38:13Z</time>
      </trkpt>
      <trkpt lat="46.14463" lon="6.07622">
        <ele>454.6</ele>
        <time>2019-09-13T05:38:14Z</time>
      </trkpt>
      <trkpt lat="46.14466" lon="6.0762">
        <ele>454.4</ele>
        <time>2019-09-13T05:38:15Z</time>
      </trkpt>
      <trkpt lat="46.1447" lon="6.07618">
        <ele>454.1</ele>
        <time>2019-09-13T05:38:17Z</time>
      </trkpt>
      <trkpt lat="46.14474" lon="6.07613">
        <ele>453.8</ele>
        <time>2019-09-13T05:38:19Z</time>
      </trkpt>
      <trkpt lat="46.14477" lon="6.07611">
        <ele>453.6</ele>
        <time>2019-09-13T05:38:20Z</time>
      </trkpt>
      <trkpt lat="46.14481" lon="6.07608">
        <ele>453.3</ele>
        <time>2019-09-13T05:38:22Z</time>
      </trkpt>
      <trkpt lat="46.14486" lon="6.07605">
        <ele>453</ele>
        <time>2019-09-13T05:38:24Z</time>
      </trkpt>
      <trkpt lat="46.14491" lon="6.076">
        <ele>452.6</ele>
        <time>2019-09-13T05:38:26Z</time>
      </trkpt>
      <trkpt lat="46.14494" lon="6.07598">
        <ele>452.5</ele>
        <time>2019-09-13T05:38:27Z</time>
      </trkpt>
      <trkpt lat="46.14496" lon="6.07595">
        <ele>452.3</ele>
        <time>2019-09-13T05:38:28Z</time>
      </trkpt>
      <trkpt lat="46.14498" lon="6.07592">
        <ele>452.2</ele>
        <time>2019-09-13T05:38:29Z</time>
      </trkpt>
      <trkpt lat="46.14501" lon="6.07589">
        <ele>452.1</ele>
        <time>2019-09-13T05:38:30Z</time>
      </trkpt>
      <trkpt lat="46.14503" lon="6.07586">
        <ele>451.9</ele>
        <time>2019-09-13T05:38:31Z</time>
      </trkpt>
      <trkpt lat="46.14507" lon="6.07581">
        <ele>451.7</ele>
        <time>2019-09-13T05:38:33Z</time>
      </trkpt>
      <trkpt lat="46.14509" lon="6.07578">
        <ele>451.5</ele>
        <time>2019-09-13T05:38:34Z</time>
      </trkpt>
      <trkpt lat="46.14512" lon="6.07572">
        <ele>451.1</ele>
        <time>2019-09-13T05:38:36Z</time>
      </trkpt>
      <trkpt lat="46.14515" lon="6.07567">
        <ele>450.7</ele>
        <time>2019-09-13T05:38:38Z</time>
      </trkpt>
      <trkpt lat="46.14518" lon="6.07565">
        <ele>450.4</ele>
        <time>2019-09-13T05:38:39Z</time>
      </trkpt>
      <trkpt lat="46.14521" lon="6.07563">
        <ele>450.2</ele>
        <time>2019-09-13T05:38:40Z</time>
      </trkpt>
      <trkpt lat="46.14524" lon="6.07562">
        <ele>450</ele>
        <time>2019-09-13T05:38:41Z</time>
      </trkpt>
      <trkpt lat="46.14527" lon="6.0756">
        <ele>449.7</ele>
        <time>2019-09-13T05:38:42Z</time>
      </trkpt>
      <trkpt lat="46.1453" lon="6.07559">
        <ele>449.5</ele>
        <time>2019-09-13T05:38:43Z</time>
      </trkpt>
      <trkpt lat="46.14533" lon="6.07559">
        <ele>449.3</ele>
        <time>2019-09-13T05:38:44Z</time>
      </trkpt>
      <trkpt lat="46.14537" lon="6.07559">
        <ele>449</ele>
        <time>2019-09-13T05:38:45Z</time>
      </trkpt>
      <trkpt lat="46.1454" lon="6.07559">
        <ele>448.7</ele>
        <time>2019-09-13T05:38:46Z</time>
      </trkpt>
      <trkpt lat="46.14543" lon="6.07559">
        <ele>448.5</ele>
        <time>2019-09-13T05:38:47Z</time>
      </trkpt>
      <trkpt lat="46.14548" lon="6.07561">
        <ele>447.9</ele>
        <time>2019-09-13T05:38:49Z</time>
      </trkpt>
      <trkpt lat="46.14553" lon="6.07563">
        <ele>447.4</ele>
        <time>2019-09-13T05:38:51Z</time>
      </trkpt>
      <trkpt lat="46.14557" lon="6.07565">
        <ele>446.8</ele>
        <time>2019-09-13T05:38:53Z</time>
      </trkpt>
      <trkpt lat="46.14561" lon="6.07568">
        <ele>446.3</ele>
        <time>2019-09-13T05:38:55Z</time>
      </trkpt>
      <trkpt lat="46.14566" lon="6.07571">
        <ele>445.9</ele>
        <time>2019-09-13T05:38:57Z</time>
      </trkpt>
      <trkpt lat="46.1457" lon="6.07574">
        <ele>445.5</ele>
        <time>2019-09-13T05:38:59Z</time>
      </trkpt>
      <trkpt lat="46.14574" lon="6.07577">
        <ele>445</ele>
        <time>2019-09-13T05:39:01Z</time>
      </trkpt>
      <trkpt lat="46.14579" lon="6.0758">
        <ele>444.5</ele>
        <time>2019-09-13T05:39:03Z</time>
      </trkpt>
      <trkpt lat="46.14583" lon="6.07583">
        <ele>444</ele>
        <time>2019-09-13T05:39:05Z</time>
      </trkpt>
      <trkpt lat="46.14588" lon="6.07586">
        <ele>443.4</ele>
        <time>2019-09-13T05:39:07Z</time>
      </trkpt>
      <trkpt lat="46.14591" lon="6.07586">
        <ele>443.1</ele>
        <time>2019-09-13T05:39:08Z</time>
      </trkpt>
      <trkpt lat="46.14594" lon="6.07586">
        <ele>442.7</ele>
        <time>2019-09-13T05:39:09Z</time>
      </trkpt>
      <trkpt lat="46.14598" lon="6.07587">
        <ele>442.3</ele>
        <time>2019-09-13T05:39:11Z</time>
      </trkpt>
      <trkpt lat="46.14603" lon="6.07587">
        <ele>441.7</ele>
        <time>2019-09-13T05:39:13Z</time>
      </trkpt>
      <trkpt lat="46.14606" lon="6.07588">
        <ele>441.4</ele>
        <time>2019-09-13T05:39:14Z</time>
      </trkpt>
      <trkpt lat="46.14611" lon="6.0759">
        <ele>440.8</ele>
        <time>2019-09-13T05:39:16Z</time>
      </trkpt>
      <trkpt lat="46.14616" lon="6.07591">
        <ele>440.3</ele>
        <time>2019-09-13T05:39:18Z</time>
      </trkpt>
      <trkpt lat="46.1462" lon="6.07593">
        <ele>439.8</ele>
        <time>2019-09-13T05:39:20Z</time>
      </trkpt>
      <trkpt lat="46.14624" lon="6.07596">
        <ele>439.4</ele>
        <time>2019-09-13T05:39:22Z</time>
      </trkpt>
      <trkpt lat="46.14629" lon="6.07598">
        <ele>438.9</ele>
        <time>2019-09-13T05:39:24Z</time>
      </trkpt>
      <trkpt lat="46.14633" lon="6.07599">
        <ele>438.6</ele>
        <time>2019-09-13T05:39:26Z</time>
      </trkpt>
      <trkpt lat="46.14638" lon="6.07601">
        <ele>438.4</ele>
        <time>2019-09-13T05:39:28Z</time>
      </trkpt>
      <trkpt lat="46.14643" lon="6.07603">
        <ele>438.2</ele>
        <time>2019-09-13T05:39:30Z</time>
      </trkpt>
      <trkpt lat="46.14647" lon="6.07605">
        <ele>438</ele>
        <time>2019-09-13T05:39:32Z</time>
      </trkpt>
      <trkpt lat="46.14651" lon="6.07607">
        <ele>437.8</ele>
        <time>2019-09-13T05:39:34Z</time>
      </trkpt>
      <trkpt lat="46.14655" lon="6.07608">
        <ele>437.6</ele>
        <time>2019-09-13T05:39:36Z</time>
      </trkpt>
      <trkpt lat="46.1466" lon="6.0761">
        <ele>437.4</ele>
        <time>2019-09-13T05:39:38Z</time>
      </trkpt>
      <trkpt lat="46.14665" lon="6.07612">
        <ele>437.2</ele>
        <time>2019-09-13T05:39:40Z</time>
      </trkpt>
      <trkpt lat="46.1467" lon="6.07614">
        <ele>436.9</ele>
        <time>2019-09-13T05:39:42Z</time>
      </trkpt>
      <trkpt lat="46.14676" lon="6.07616">
        <ele>436.5</ele>
        <time>2019-09-13T05:39:44Z</time>
      </trkpt>
      <trkpt lat="46.14678" lon="6.07617">
        <ele>436.3</ele>
        <time>2019-09-13T05:39:45Z</time>
      </trkpt>
      <trkpt lat="46.14683" lon="6.07619">
        <ele>435.9</ele>
        <time>2019-09-13T05:39:47Z</time>
      </trkpt>
      <trkpt lat="46.14686" lon="6.07621">
        <ele>435.7</ele>
        <time>2019-09-13T05:39:48Z</time>
      </trkpt>
      <trkpt lat="46.1469" lon="6.07624">
        <ele>435.4</ele>
        <time>2019-09-13T05:39:50Z</time>
      </trkpt>
      <trkpt lat="46.14693" lon="6.07628">
        <ele>435.1</ele>
        <time>2019-09-13T05:39:52Z</time>
      </trkpt>
      <trkpt lat="46.14698" lon="6.0763">
        <ele>434.8</ele>
        <time>2019-09-13T05:39:54Z</time>
      </trkpt>
      <trkpt lat="46.14703" lon="6.07633">
        <ele>434.5</ele>
        <time>2019-09-13T05:39:56Z</time>
      </trkpt>
      <trkpt lat="46.14705" lon="6.07634">
        <ele>434.3</ele>
        <time>2019-09-13T05:39:57Z</time>
      </trkpt>
      <trkpt lat="46.14709" lon="6.07636">
        <ele>434.2</ele>
        <time>2019-09-13T05:39:59Z</time>
      </trkpt>
      <trkpt lat="46.14714" lon="6.07638">
        <ele>434</ele>
        <time>2019-09-13T05:40:01Z</time>
      </trkpt>
      <trkpt lat="46.14716" lon="6.07639">
        <ele>434</ele>
        <time>2019-09-13T05:40:02Z</time>
      </trkpt>
      <trkpt lat="46.14719" lon="6.07639">
        <ele>433.9</ele>
        <time>2019-09-13T05:40:03Z</time>
      </trkpt>
      <trkpt lat="46.14724" lon="6.0764">
        <ele>433.7</ele>
        <time>2019-09-13T05:40:05Z</time>
      </trkpt>
      <trkpt lat="46.14729" lon="6.07638">
        <ele>433.6</ele>
        <time>2019-09-13T05:40:07Z</time>
      </trkpt>
      <trkpt lat="46.14731" lon="6.07637">
        <ele>433.6</ele>
        <time>2019-09-13T05:40:08Z</time>
      </trkpt>
      <trkpt lat="46.14734" lon="6.07637">
        <ele>433.5</ele>
        <time>2019-09-13T05:40:09Z</time>
      </trkpt>
      <trkpt lat="46.14737" lon="6.07637">
        <ele>433.4</ele>
        <time>2019-09-13T05:40:10Z</time>
      </trkpt>
      <trkpt lat="46.1474" lon="6.07638">
        <ele>433.3</ele>
        <time>2019-09-13T05:40:11Z</time>
      </trkpt>
      <trkpt lat="46.14745" lon="6.07641">
        <ele>433.1</ele>
        <time>2019-09-13T05:40:13Z</time>
      </trkpt>
      <trkpt lat="46.1475" lon="6.07643">
        <ele>433</ele>
        <time>2019-09-13T05:40:15Z</time>
      </trkpt>
      <trkpt lat="46.14754" lon="6.07645">
        <ele>432.9</ele>
        <time>2019-09-13T05:40:17Z</time>
      </trkpt>
      <trkpt lat="46.14757" lon="6.07646">
        <ele>432.8</ele>
        <time>2019-09-13T05:40:18Z</time>
      </trkpt>
      <trkpt lat="46.1476" lon="6.07647">
        <ele>432.7</ele>
        <time>2019-09-13T05:40:19Z</time>
      </trkpt>
      <trkpt lat="46.14763" lon="6.07647">
        <ele>432.7</ele>
        <time>2019-09-13T05:40:20Z</time>
      </trkpt>
      <trkpt lat="46.14768" lon="6.07648">
        <ele>432.6</ele>
        <time>2019-09-13T05:40:22Z</time>
      </trkpt>
      <trkpt lat="46.14773" lon="6.07648">
        <ele>432.4</ele>
        <time>2019-09-13T05:40:24Z</time>
      </trkpt>
      <trkpt lat="46.14776" lon="6.07647">
        <ele>432.3</ele>
        <time>2019-09-13T05:40:25Z</time>
      </trkpt>
      <trkpt lat="46.14779" lon="6.07646">
        <ele>432.2</ele>
        <time>2019-09-13T05:40:26Z</time>
      </trkpt>
      <trkpt lat="46.14782" lon="6.07645">
        <ele>432.1</ele>
        <time>2019-09-13T05:40:27Z</time>
      </trkpt>
      <trkpt lat="46.14785" lon="6.07644">
        <ele>432</ele>
        <time>2019-09-13T05:40:28Z</time>
      </trkpt>
      <trkpt lat="46.14788" lon="6.07644">
        <ele>431.9</ele>
        <time>2019-09-13T05:40:29Z</time>
      </trkpt>
      <trkpt lat="46.14791" lon="6.07645">
        <ele>430.6</ele>
        <time>2019-09-13T05:40:30Z</time>
      </trkpt>
      <trkpt lat="46.14794" lon="6.07645">
        <ele>430.3</ele>
        <time>2019-09-13T05:40:31Z</time>
      </trkpt>
      <trkpt lat="46.14797" lon="6.07645">
        <ele>430</ele>
        <time>2019-09-13T05:40:32Z</time>
      </trkpt>
      <trkpt lat="46.14801" lon="6.07641">
        <ele>429.5</ele>
        <time>2019-09-13T05:40:34Z</time>
      </trkpt>
      <trkpt lat="46.14804" lon="6.07635">
        <ele>429.1</ele>
        <time>2019-09-13T05:40:36Z</time>
      </trkpt>
      <trkpt lat="46.14805" lon="6.07631">
        <ele>428.9</ele>
        <time>2019-09-13T05:40:37Z</time>
      </trkpt>
      <trkpt lat="46.14806" lon="6.07627">
        <ele>428.7</ele>
        <time>2019-09-13T05:40:38Z</time>
      </trkpt>
      <trkpt lat="46.14806" lon="6.07623">
        <ele>428.6</ele>
        <time>2019-09-13T05:40:39Z</time>
      </trkpt>
      <trkpt lat="46.14807" lon="6.07619">
        <ele>428.4</ele>
        <time>2019-09-13T05:40:40Z</time>
      </trkpt>
      <trkpt lat="46.14808" lon="6.07615">
        <ele>428.2</ele>
        <time>2019-09-13T05:40:41Z</time>
      </trkpt>
      <trkpt lat="46.1481" lon="6.07609">
        <ele>428</ele>
        <time>2019-09-13T05:40:43Z</time>
      </trkpt>
      <trkpt lat="46.14813" lon="6.07603">
        <ele>427.8</ele>
        <time>2019-09-13T05:40:45Z</time>
      </trkpt>
      <trkpt lat="46.14815" lon="6.07599">
        <ele>427.6</ele>
        <time>2019-09-13T05:40:46Z</time>
      </trkpt>
      <trkpt lat="46.14816" lon="6.07596">
        <ele>427.5</ele>
        <time>2019-09-13T05:40:47Z</time>
      </trkpt>
      <trkpt lat="46.14819" lon="6.07589">
        <ele>427.2</ele>
        <time>2019-09-13T05:40:49Z</time>
      </trkpt>
      <trkpt lat="46.14821" lon="6.07583">
        <ele>426.8</ele>
        <time>2019-09-13T05:40:51Z</time>
      </trkpt>
      <trkpt lat="46.14824" lon="6.07577">
        <ele>426.7</ele>
        <time>2019-09-13T05:40:53Z</time>
      </trkpt>
      <trkpt lat="46.14827" lon="6.07574">
        <ele>426.6</ele>
        <time>2019-09-13T05:40:54Z</time>
      </trkpt>
      <trkpt lat="46.14829" lon="6.07571">
        <ele>426.4</ele>
        <time>2019-09-13T05:40:55Z</time>
      </trkpt>
      <trkpt lat="46.14831" lon="6.07568">
        <ele>426.4</ele>
        <time>2019-09-13T05:40:56Z</time>
      </trkpt>
      <trkpt lat="46.14833" lon="6.07565">
        <ele>426.3</ele>
        <time>2019-09-13T05:40:57Z</time>
      </trkpt>
      <trkpt lat="46.14835" lon="6.07562">
        <ele>426.2</ele>
        <time>2019-09-13T05:40:58Z</time>
      </trkpt>
      <trkpt lat="46.14837" lon="6.07559">
        <ele>426.1</ele>
        <time>2019-09-13T05:40:59Z</time>
      </trkpt>
      <trkpt lat="46.14839" lon="6.07556">
        <ele>425.9</ele>
        <time>2019-09-13T05:41:00Z</time>
      </trkpt>
      <trkpt lat="46.14841" lon="6.07553">
        <ele>425.8</ele>
        <time>2019-09-13T05:41:01Z</time>
      </trkpt>
      <trkpt lat="46.14843" lon="6.0755">
        <ele>425.7</ele>
        <time>2019-09-13T05:41:02Z</time>
      </trkpt>
      <trkpt lat="46.14847" lon="6.07546">
        <ele>425.7</ele>
        <time>2019-09-13T05:41:04Z</time>
      </trkpt>
      <trkpt lat="46.14851" lon="6.07541">
        <ele>425.6</ele>
        <time>2019-09-13T05:41:06Z</time>
      </trkpt>
      <trkpt lat="46.14854" lon="6.07537">
        <ele>425.5</ele>
        <time>2019-09-13T05:41:08Z</time>
      </trkpt>
      <trkpt lat="46.14858" lon="6.07532">
        <ele>425.4</ele>
        <time>2019-09-13T05:41:10Z</time>
      </trkpt>
      <trkpt lat="46.14861" lon="6.07527">
        <ele>425.3</ele>
        <time>2019-09-13T05:41:12Z</time>
      </trkpt>
      <trkpt lat="46.14864" lon="6.07521">
        <ele>425.3</ele>
        <time>2019-09-13T05:41:14Z</time>
      </trkpt>
      <trkpt lat="46.14866" lon="6.07516">
        <ele>425.3</ele>
        <time>2019-09-13T05:41:16Z</time>
      </trkpt>
      <trkpt lat="46.14869" lon="6.0751">
        <ele>425.3</ele>
        <time>2019-09-13T05:41:18Z</time>
      </trkpt>
      <trkpt lat="46.14872" lon="6.07505">
        <ele>425.3</ele>
        <time>2019-09-13T05:41:20Z</time>
      </trkpt>
      <trkpt lat="46.14875" lon="6.07499">
        <ele>425.6</ele>
        <time>2019-09-13T05:41:22Z</time>
      </trkpt>
      <trkpt lat="46.14878" lon="6.07494">
        <ele>425.6</ele>
        <time>2019-09-13T05:41:24Z</time>
      </trkpt>
      <trkpt lat="46.14882" lon="6.07488">
        <ele>425.6</ele>
        <time>2019-09-13T05:41:26Z</time>
      </trkpt>
      <trkpt lat="46.14885" lon="6.07483">
        <ele>425.6</ele>
        <time>2019-09-13T05:41:28Z</time>
      </trkpt>
      <trkpt lat="46.14887" lon="6.07479">
        <ele>425.6</ele>
        <time>2019-09-13T05:41:30Z</time>
      </trkpt>
      <trkpt lat="46.14891" lon="6.07477">
        <ele>425.5</ele>
        <time>2019-09-13T05:41:32Z</time>
      </trkpt>
      <trkpt lat="46.14895" lon="6.07474">
        <ele>425.5</ele>
        <time>2019-09-13T05:41:34Z</time>
      </trkpt>
      <trkpt lat="46.14898" lon="6.07472">
        <ele>425.4</ele>
        <time>2019-09-13T05:41:35Z</time>
      </trkpt>
      <trkpt lat="46.14902" lon="6.0747">
        <ele>425.4</ele>
        <time>2019-09-13T05:41:37Z</time>
      </trkpt>
      <trkpt lat="46.14907" lon="6.07468">
        <ele>425.3</ele>
        <time>2019-09-13T05:41:39Z</time>
      </trkpt>
      <trkpt lat="46.14911" lon="6.07467">
        <ele>425.2</ele>
        <time>2019-09-13T05:41:41Z</time>
      </trkpt>
      <trkpt lat="46.14915" lon="6.07467">
        <ele>425.2</ele>
        <time>2019-09-13T05:41:43Z</time>
      </trkpt>
      <trkpt lat="46.14918" lon="6.07469">
        <ele>425.2</ele>
        <time>2019-09-13T05:41:45Z</time>
      </trkpt>
      <trkpt lat="46.14922" lon="6.07471">
        <ele>425.2</ele>
        <time>2019-09-13T05:41:47Z</time>
      </trkpt>
      <trkpt lat="46.14926" lon="6.07472">
        <ele>425.1</ele>
        <time>2019-09-13T05:41:49Z</time>
      </trkpt>
      <trkpt lat="46.14929" lon="6.07474">
        <ele>425.1</ele>
        <time>2019-09-13T05:41:52Z</time>
      </trkpt>
      <trkpt lat="46.14933" lon="6.07476">
        <ele>425.1</ele>
        <time>2019-09-13T05:41:54Z</time>
      </trkpt>
      <trkpt lat="46.14937" lon="6.0748">
        <ele>425.1</ele>
        <time>2019-09-13T05:41:56Z</time>
      </trkpt>
      <trkpt lat="46.14941" lon="6.07484">
        <ele>425</ele>
        <time>2019-09-13T05:41:58Z</time>
      </trkpt>
      <trkpt lat="46.14944" lon="6.07489">
        <ele>425</ele>
        <time>2019-09-13T05:42:00Z</time>
      </trkpt>
      <trkpt lat="46.14948" lon="6.07493">
        <ele>424.9</ele>
        <time>2019-09-13T05:42:02Z</time>
      </trkpt>
      <trkpt lat="46.14951" lon="6.07496">
        <ele>424.9</ele>
        <time>2019-09-13T05:42:04Z</time>
      </trkpt>
      <trkpt lat="46.14956" lon="6.075">
        <ele>424.8</ele>
        <time>2019-09-13T05:42:06Z</time>
      </trkpt>
      <trkpt lat="46.14959" lon="6.07502">
        <ele>424.8</ele>
        <time>2019-09-13T05:42:07Z</time>
      </trkpt>
      <trkpt lat="46.14963" lon="6.07505">
        <ele>424.7</ele>
        <time>2019-09-13T05:42:09Z</time>
      </trkpt>
      <trkpt lat="46.14965" lon="6.07509">
        <ele>424.7</ele>
        <time>2019-09-13T05:42:11Z</time>
      </trkpt>
      <trkpt lat="46.14967" lon="6.07514">
        <ele>424.6</ele>
        <time>2019-09-13T05:42:13Z</time>
      </trkpt>
      <trkpt lat="46.14971" lon="6.07517">
        <ele>424.6</ele>
        <time>2019-09-13T05:42:15Z</time>
      </trkpt>
      <trkpt lat="46.14974" lon="6.07518">
        <ele>424.5</ele>
        <time>2019-09-13T05:42:16Z</time>
      </trkpt>
      <trkpt lat="46.14978" lon="6.07522">
        <ele>424.5</ele>
        <time>2019-09-13T05:42:18Z</time>
      </trkpt>
      <trkpt lat="46.14982" lon="6.07526">
        <ele>424.5</ele>
        <time>2019-09-13T05:42:20Z</time>
      </trkpt>
      <trkpt lat="46.14984" lon="6.0753">
        <ele>424.4</ele>
        <time>2019-09-13T05:42:23Z</time>
      </trkpt>
      <trkpt lat="46.14985" lon="6.07534">
        <ele>424.4</ele>
        <time>2019-09-13T05:42:25Z</time>
      </trkpt>
      <trkpt lat="46.14988" lon="6.07538">
        <ele>424.3</ele>
        <time>2019-09-13T05:42:27Z</time>
      </trkpt>
      <trkpt lat="46.14992" lon="6.07541">
        <ele>424.1</ele>
        <time>2019-09-13T05:42:29Z</time>
      </trkpt>
      <trkpt lat="46.14996" lon="6.07544">
        <ele>424</ele>
        <time>2019-09-13T05:42:31Z</time>
      </trkpt>
      <trkpt lat="46.15001" lon="6.07547">
        <ele>423.8</ele>
        <time>2019-09-13T05:42:33Z</time>
      </trkpt>
      <trkpt lat="46.15005" lon="6.0755">
        <ele>423.7</ele>
        <time>2019-09-13T05:42:35Z</time>
      </trkpt>
      <trkpt lat="46.15008" lon="6.07553">
        <ele>423.7</ele>
        <time>2019-09-13T05:42:37Z</time>
      </trkpt>
      <trkpt lat="46.15012" lon="6.07557">
        <ele>423.6</ele>
        <time>2019-09-13T05:42:39Z</time>
      </trkpt>
      <trkpt lat="46.15015" lon="6.07559">
        <ele>423.5</ele>
        <time>2019-09-13T05:42:40Z</time>
      </trkpt>
      <trkpt lat="46.15018" lon="6.0756">
        <ele>423.5</ele>
        <time>2019-09-13T05:42:41Z</time>
      </trkpt>
      <trkpt lat="46.15021" lon="6.07561">
        <ele>423.4</ele>
        <time>2019-09-13T05:42:42Z</time>
      </trkpt>
      <trkpt lat="46.15024" lon="6.07563">
        <ele>423.4</ele>
        <time>2019-09-13T05:42:43Z</time>
      </trkpt>
      <trkpt lat="46.15026" lon="6.07564">
        <ele>423.3</ele>
        <time>2019-09-13T05:42:44Z</time>
      </trkpt>
      <trkpt lat="46.1503" lon="6.07565">
        <ele>423.3</ele>
        <time>2019-09-13T05:42:45Z</time>
      </trkpt>
      <trkpt lat="46.15033" lon="6.07566">
        <ele>423.2</ele>
        <time>2019-09-13T05:42:46Z</time>
      </trkpt>
      <trkpt lat="46.15036" lon="6.07567">
        <ele>423.2</ele>
        <time>2019-09-13T05:42:47Z</time>
      </trkpt>
      <trkpt lat="46.15039" lon="6.07567">
        <ele>423.1</ele>
        <time>2019-09-13T05:42:48Z</time>
      </trkpt>
      <trkpt lat="46.15042" lon="6.07567">
        <ele>423.1</ele>
        <time>2019-09-13T05:42:49Z</time>
      </trkpt>
      <trkpt lat="46.15044" lon="6.07568">
        <ele>423</ele>
        <time>2019-09-13T05:42:50Z</time>
      </trkpt>
      <trkpt lat="46.15047" lon="6.07568">
        <ele>422.9</ele>
        <time>2019-09-13T05:42:51Z</time>
      </trkpt>
      <trkpt lat="46.1505" lon="6.07569">
        <ele>422.8</ele>
        <time>2019-09-13T05:42:52Z</time>
      </trkpt>
      <trkpt lat="46.15053" lon="6.0757">
        <ele>422.7</ele>
        <time>2019-09-13T05:42:53Z</time>
      </trkpt>
      <trkpt lat="46.15058" lon="6.07571">
        <ele>422.5</ele>
        <time>2019-09-13T05:42:55Z</time>
      </trkpt>
      <trkpt lat="46.15063" lon="6.07573">
        <ele>422.2</ele>
        <time>2019-09-13T05:42:57Z</time>
      </trkpt>
      <trkpt lat="46.15067" lon="6.07575">
        <ele>421.9</ele>
        <time>2019-09-13T05:42:59Z</time>
      </trkpt>
      <trkpt lat="46.15072" lon="6.07577">
        <ele>422</ele>
        <time>2019-09-13T05:43:01Z</time>
      </trkpt>
      <trkpt lat="46.15076" lon="6.07579">
        <ele>422</ele>
        <time>2019-09-13T05:43:03Z</time>
      </trkpt>
      <trkpt lat="46.15081" lon="6.0758">
        <ele>422</ele>
        <time>2019-09-13T05:43:05Z</time>
      </trkpt>
      <trkpt lat="46.15086" lon="6.07582">
        <ele>422</ele>
        <time>2019-09-13T05:43:07Z</time>
      </trkpt>
      <trkpt lat="46.1509" lon="6.07583">
        <ele>422.1</ele>
        <time>2019-09-13T05:43:09Z</time>
      </trkpt>
      <trkpt lat="46.15095" lon="6.07585">
        <ele>422.1</ele>
        <time>2019-09-13T05:43:11Z</time>
      </trkpt>
      <trkpt lat="46.151" lon="6.07588">
        <ele>422.2</ele>
        <time>2019-09-13T05:43:13Z</time>
      </trkpt>
      <trkpt lat="46.15103" lon="6.07589">
        <ele>422.2</ele>
        <time>2019-09-13T05:43:14Z</time>
      </trkpt>
      <trkpt lat="46.15107" lon="6.07592">
        <ele>422.3</ele>
        <time>2019-09-13T05:43:16Z</time>
      </trkpt>
      <trkpt lat="46.15111" lon="6.07595">
        <ele>422.5</ele>
        <time>2019-09-13T05:43:18Z</time>
      </trkpt>
      <trkpt lat="46.15113" lon="6.07597">
        <ele>422.5</ele>
        <time>2019-09-13T05:43:19Z</time>
      </trkpt>
      <trkpt lat="46.15116" lon="6.07598">
        <ele>422.6</ele>
        <time>2019-09-13T05:43:20Z</time>
      </trkpt>
      <trkpt lat="46.15119" lon="6.07601">
        <ele>422.7</ele>
        <time>2019-09-13T05:43:22Z</time>
      </trkpt>
      <trkpt lat="46.15124" lon="6.07602">
        <ele>422.9</ele>
        <time>2019-09-13T05:43:24Z</time>
      </trkpt>
      <trkpt lat="46.15129" lon="6.07605">
        <ele>423</ele>
        <time>2019-09-13T05:43:26Z</time>
      </trkpt>
      <trkpt lat="46.15133" lon="6.07608">
        <ele>423.2</ele>
        <time>2019-09-13T05:43:28Z</time>
      </trkpt>
      <trkpt lat="46.15138" lon="6.07612">
        <ele>423.3</ele>
        <time>2019-09-13T05:43:30Z</time>
      </trkpt>
      <trkpt lat="46.1514" lon="6.07613">
        <ele>423.4</ele>
        <time>2019-09-13T05:43:31Z</time>
      </trkpt>
      <trkpt lat="46.15143" lon="6.07614">
        <ele>423.5</ele>
        <time>2019-09-13T05:43:32Z</time>
      </trkpt>
      <trkpt lat="46.15147" lon="6.07616">
        <ele>423.5</ele>
        <time>2019-09-13T05:43:34Z</time>
      </trkpt>
      <trkpt lat="46.15151" lon="6.07619">
        <ele>423.5</ele>
        <time>2019-09-13T05:43:36Z</time>
      </trkpt>
      <trkpt lat="46.15156" lon="6.07622">
        <ele>423.4</ele>
        <time>2019-09-13T05:43:38Z</time>
      </trkpt>
      <trkpt lat="46.1516" lon="6.07624">
        <ele>423.4</ele>
        <time>2019-09-13T05:43:40Z</time>
      </trkpt>
      <trkpt lat="46.15164" lon="6.07627">
        <ele>423.4</ele>
        <time>2019-09-13T05:43:42Z</time>
      </trkpt>
      <trkpt lat="46.15169" lon="6.07629">
        <ele>423.3</ele>
        <time>2019-09-13T05:43:44Z</time>
      </trkpt>
      <trkpt lat="46.15172" lon="6.0763">
        <ele>423.3</ele>
        <time>2019-09-13T05:43:45Z</time>
      </trkpt>
      <trkpt lat="46.15177" lon="6.07632">
        <ele>423.3</ele>
        <time>2019-09-13T05:43:47Z</time>
      </trkpt>
      <trkpt lat="46.15182" lon="6.07634">
        <ele>423.3</ele>
        <time>2019-09-13T05:43:49Z</time>
      </trkpt>
      <trkpt lat="46.15186" lon="6.07638">
        <ele>423.3</ele>
        <time>2019-09-13T05:43:51Z</time>
      </trkpt>
      <trkpt lat="46.1519" lon="6.07641">
        <ele>423.3</ele>
        <time>2019-09-13T05:43:53Z</time>
      </trkpt>
      <trkpt lat="46.15195" lon="6.07643">
        <ele>423.4</ele>
        <time>2019-09-13T05:43:55Z</time>
      </trkpt>
      <trkpt lat="46.152" lon="6.07646">
        <ele>423.4</ele>
        <time>2019-09-13T05:43:57Z</time>
      </trkpt>
      <trkpt lat="46.15204" lon="6.07648">
        <ele>423.3</ele>
        <time>2019-09-13T05:43:59Z</time>
      </trkpt>
      <trkpt lat="46.15208" lon="6.07651">
        <ele>423.3</ele>
        <time>2019-09-13T05:44:01Z</time>
      </trkpt>
      <trkpt lat="46.15211" lon="6.07655">
        <ele>423.3</ele>
        <time>2019-09-13T05:44:03Z</time>
      </trkpt>
      <trkpt lat="46.15215" lon="6.0766">
        <ele>423.2</ele>
        <time>2019-09-13T05:44:05Z</time>
      </trkpt>
      <trkpt lat="46.15218" lon="6.07661">
        <ele>423.2</ele>
        <time>2019-09-13T05:44:06Z</time>
      </trkpt>
      <trkpt lat="46.15221" lon="6.07662">
        <ele>423.1</ele>
        <time>2019-09-13T05:44:07Z</time>
      </trkpt>
      <trkpt lat="46.15224" lon="6.07663">
        <ele>423.1</ele>
        <time>2019-09-13T05:44:08Z</time>
      </trkpt>
      <trkpt lat="46.1523" lon="6.07665">
        <ele>423</ele>
        <time>2019-09-13T05:44:10Z</time>
      </trkpt>
      <trkpt lat="46.15233" lon="6.07666">
        <ele>422.9</ele>
        <time>2019-09-13T05:44:11Z</time>
      </trkpt>
      <trkpt lat="46.15237" lon="6.07667">
        <ele>422.8</ele>
        <time>2019-09-13T05:44:12Z</time>
      </trkpt>
      <trkpt lat="46.1524" lon="6.07667">
        <ele>422.8</ele>
        <time>2019-09-13T05:44:13Z</time>
      </trkpt>
      <trkpt lat="46.15242" lon="6.07667">
        <ele>422.7</ele>
        <time>2019-09-13T05:44:14Z</time>
      </trkpt>
      <trkpt lat="46.15245" lon="6.07666">
        <ele>422.6</ele>
        <time>2019-09-13T05:44:15Z</time>
      </trkpt>
      <trkpt lat="46.1525" lon="6.07666">
        <ele>422.5</ele>
        <time>2019-09-13T05:44:17Z</time>
      </trkpt>
      <trkpt lat="46.15254" lon="6.07665">
        <ele>422.4</ele>
        <time>2019-09-13T05:44:18Z</time>
      </trkpt>
      <trkpt lat="46.15257" lon="6.07664">
        <ele>422.4</ele>
        <time>2019-09-13T05:44:19Z</time>
      </trkpt>
      <trkpt lat="46.15262" lon="6.07662">
        <ele>422.2</ele>
        <time>2019-09-13T05:44:21Z</time>
      </trkpt>
      <trkpt lat="46.15267" lon="6.0766">
        <ele>422.1</ele>
        <time>2019-09-13T05:44:23Z</time>
      </trkpt>
      <trkpt lat="46.15272" lon="6.07659">
        <ele>422</ele>
        <time>2019-09-13T05:44:25Z</time>
      </trkpt>
      <trkpt lat="46.15277" lon="6.07658">
        <ele>421.8</ele>
        <time>2019-09-13T05:44:27Z</time>
      </trkpt>
      <trkpt lat="46.15282" lon="6.07656">
        <ele>421.7</ele>
        <time>2019-09-13T05:44:29Z</time>
      </trkpt>
      <trkpt lat="46.15286" lon="6.07656">
        <ele>421.6</ele>
        <time>2019-09-13T05:44:31Z</time>
      </trkpt>
      <trkpt lat="46.15289" lon="6.07655">
        <ele>421.5</ele>
        <time>2019-09-13T05:44:33Z</time>
      </trkpt>
      <trkpt lat="46.15292" lon="6.07655">
        <ele>421.3</ele>
        <time>2019-09-13T05:44:34Z</time>
      </trkpt>
      <trkpt lat="46.15295" lon="6.07656">
        <ele>421.2</ele>
        <time>2019-09-13T05:44:35Z</time>
      </trkpt>
      <trkpt lat="46.15301" lon="6.07657">
        <ele>421</ele>
        <time>2019-09-13T05:44:37Z</time>
      </trkpt>
      <trkpt lat="46.15304" lon="6.07658">
        <ele>420.9</ele>
        <time>2019-09-13T05:44:38Z</time>
      </trkpt>
      <trkpt lat="46.15306" lon="6.07658">
        <ele>420.8</ele>
        <time>2019-09-13T05:44:39Z</time>
      </trkpt>
      <trkpt lat="46.15311" lon="6.07659">
        <ele>420.6</ele>
        <time>2019-09-13T05:44:41Z</time>
      </trkpt>
      <trkpt lat="46.15316" lon="6.0766">
        <ele>420.4</ele>
        <time>2019-09-13T05:44:43Z</time>
      </trkpt>
      <trkpt lat="46.15321" lon="6.0766">
        <ele>420.2</ele>
        <time>2019-09-13T05:44:45Z</time>
      </trkpt>
      <trkpt lat="46.15326" lon="6.0766">
        <ele>420</ele>
        <time>2019-09-13T05:44:47Z</time>
      </trkpt>
      <trkpt lat="46.15331" lon="6.07661">
        <ele>419.8</ele>
        <time>2019-09-13T05:44:49Z</time>
      </trkpt>
      <trkpt lat="46.15333" lon="6.07662">
        <ele>419.7</ele>
        <time>2019-09-13T05:44:51Z</time>
      </trkpt>
      <trkpt lat="46.15338" lon="6.07664">
        <ele>419.4</ele>
        <time>2019-09-13T05:44:54Z</time>
      </trkpt>
      <trkpt lat="46.15341" lon="6.07663">
        <ele>419.3</ele>
        <time>2019-09-13T05:44:55Z</time>
      </trkpt>
      <trkpt lat="46.15345" lon="6.07663">
        <ele>419.1</ele>
        <time>2019-09-13T05:44:56Z</time>
      </trkpt>
      <trkpt lat="46.15348" lon="6.07663">
        <ele>419</ele>
        <time>2019-09-13T05:44:57Z</time>
      </trkpt>
      <trkpt lat="46.15351" lon="6.07663">
        <ele>418.9</ele>
        <time>2019-09-13T05:44:58Z</time>
      </trkpt>
      <trkpt lat="46.15354" lon="6.07664">
        <ele>418.9</ele>
        <time>2019-09-13T05:44:59Z</time>
      </trkpt>
      <trkpt lat="46.15357" lon="6.07665">
        <ele>418.8</ele>
        <time>2019-09-13T05:45:00Z</time>
      </trkpt>
      <trkpt lat="46.1536" lon="6.07666">
        <ele>418.8</ele>
        <time>2019-09-13T05:45:01Z</time>
      </trkpt>
      <trkpt lat="46.15363" lon="6.07666">
        <ele>418.7</ele>
        <time>2019-09-13T05:45:02Z</time>
      </trkpt>
      <trkpt lat="46.15366" lon="6.07666">
        <ele>418.7</ele>
        <time>2019-09-13T05:45:03Z</time>
      </trkpt>
      <trkpt lat="46.15369" lon="6.07667">
        <ele>418.7</ele>
        <time>2019-09-13T05:45:04Z</time>
      </trkpt>
      <trkpt lat="46.15374" lon="6.07668">
        <ele>418.7</ele>
        <time>2019-09-13T05:45:06Z</time>
      </trkpt>
      <trkpt lat="46.15377" lon="6.07669">
        <ele>418.7</ele>
        <time>2019-09-13T05:45:07Z</time>
      </trkpt>
      <trkpt lat="46.1538" lon="6.07669">
        <ele>418.7</ele>
        <time>2019-09-13T05:45:08Z</time>
      </trkpt>
      <trkpt lat="46.15383" lon="6.0767">
        <ele>418.7</ele>
        <time>2019-09-13T05:45:09Z</time>
      </trkpt>
      <trkpt lat="46.15386" lon="6.07671">
        <ele>418.7</ele>
        <time>2019-09-13T05:45:10Z</time>
      </trkpt>
      <trkpt lat="46.15388" lon="6.07671">
        <ele>418.7</ele>
        <time>2019-09-13T05:45:11Z</time>
      </trkpt>
      <trkpt lat="46.15391" lon="6.07672">
        <ele>418.7</ele>
        <time>2019-09-13T05:45:12Z</time>
      </trkpt>
      <trkpt lat="46.15396" lon="6.07673">
        <ele>418.7</ele>
        <time>2019-09-13T05:45:14Z</time>
      </trkpt>
      <trkpt lat="46.154" lon="6.07674">
        <ele>418.7</ele>
        <time>2019-09-13T05:45:16Z</time>
      </trkpt>
      <trkpt lat="46.15405" lon="6.07675">
        <ele>418.7</ele>
        <time>2019-09-13T05:45:18Z</time>
      </trkpt>
      <trkpt lat="46.1541" lon="6.07675">
        <ele>418.7</ele>
        <time>2019-09-13T05:45:20Z</time>
      </trkpt>
      <trkpt lat="46.15415" lon="6.07676">
        <ele>418.7</ele>
        <time>2019-09-13T05:45:22Z</time>
      </trkpt>
      <trkpt lat="46.15421" lon="6.07677">
        <ele>418.7</ele>
        <time>2019-09-13T05:45:24Z</time>
      </trkpt>
      <trkpt lat="46.15423" lon="6.07677">
        <ele>418.7</ele>
        <time>2019-09-13T05:45:25Z</time>
      </trkpt>
      <trkpt lat="46.15426" lon="6.07677">
        <ele>418.7</ele>
        <time>2019-09-13T05:45:26Z</time>
      </trkpt>
      <trkpt lat="46.15429" lon="6.07678">
        <ele>418.7</ele>
        <time>2019-09-13T05:45:27Z</time>
      </trkpt>
      <trkpt lat="46.15432" lon="6.07678">
        <ele>418.7</ele>
        <time>2019-09-13T05:45:28Z</time>
      </trkpt>
      <trkpt lat="46.15437" lon="6.07679">
        <ele>418.8</ele>
        <time>2019-09-13T05:45:30Z</time>
      </trkpt>
      <trkpt lat="46.15442" lon="6.07679">
        <ele>418.8</ele>
        <time>2019-09-13T05:45:32Z</time>
      </trkpt>
      <trkpt lat="46.15445" lon="6.07679">
        <ele>418.8</ele>
        <time>2019-09-13T05:45:33Z</time>
      </trkpt>
      <trkpt lat="46.15448" lon="6.07678">
        <ele>418.8</ele>
        <time>2019-09-13T05:45:34Z</time>
      </trkpt>
      <trkpt lat="46.15451" lon="6.07678">
        <ele>418.8</ele>
        <time>2019-09-13T05:45:35Z</time>
      </trkpt>
      <trkpt lat="46.15454" lon="6.07678">
        <ele>418.8</ele>
        <time>2019-09-13T05:45:36Z</time>
      </trkpt>
      <trkpt lat="46.15457" lon="6.07678">
        <ele>418.8</ele>
        <time>2019-09-13T05:45:37Z</time>
      </trkpt>
      <trkpt lat="46.1546" lon="6.07679">
        <ele>418.8</ele>
        <time>2019-09-13T05:45:38Z</time>
      </trkpt>
      <trkpt lat="46.15464" lon="6.0768">
        <ele>418.8</ele>
        <time>2019-09-13T05:45:40Z</time>
      </trkpt>
      <trkpt lat="46.1547" lon="6.0768">
        <ele>418.8</ele>
        <time>2019-09-13T05:45:42Z</time>
      </trkpt>
      <trkpt lat="46.15475" lon="6.0768">
        <ele>418.8</ele>
        <time>2019-09-13T05:45:44Z</time>
      </trkpt>
      <trkpt lat="46.15478" lon="6.0768">
        <ele>418.4</ele>
        <time>2019-09-13T05:45:45Z</time>
      </trkpt>
      <trkpt lat="46.15481" lon="6.0768">
        <ele>418.2</ele>
        <time>2019-09-13T05:45:46Z</time>
      </trkpt>
      <trkpt lat="46.15484" lon="6.07681">
        <ele>418</ele>
        <time>2019-09-13T05:45:47Z</time>
      </trkpt>
      <trkpt lat="46.15487" lon="6.07681">
        <ele>417.8</ele>
        <time>2019-09-13T05:45:48Z</time>
      </trkpt>
      <trkpt lat="46.15491" lon="6.07681">
        <ele>417.7</ele>
        <time>2019-09-13T05:45:49Z</time>
      </trkpt>
      <trkpt lat="46.15494" lon="6.07682">
        <ele>417.6</ele>
        <time>2019-09-13T05:45:50Z</time>
      </trkpt>
      <trkpt lat="46.15499" lon="6.07682">
        <ele>417.5</ele>
        <time>2019-09-13T05:45:52Z</time>
      </trkpt>
      <trkpt lat="46.15504" lon="6.07682">
        <ele>417.4</ele>
        <time>2019-09-13T05:45:54Z</time>
      </trkpt>
      <trkpt lat="46.15508" lon="6.07683">
        <ele>417.4</ele>
        <time>2019-09-13T05:45:55Z</time>
      </trkpt>
      <trkpt lat="46.15511" lon="6.07683">
        <ele>417.3</ele>
        <time>2019-09-13T05:45:56Z</time>
      </trkpt>
      <trkpt lat="46.15515" lon="6.07683">
        <ele>417.3</ele>
        <time>2019-09-13T05:45:58Z</time>
      </trkpt>
      <trkpt lat="46.15519" lon="6.07684">
        <ele>417.2</ele>
        <time>2019-09-13T05:46:00Z</time>
      </trkpt>
      <trkpt lat="46.15524" lon="6.07685">
        <ele>417.2</ele>
        <time>2019-09-13T05:46:02Z</time>
      </trkpt>
      <trkpt lat="46.15527" lon="6.07685">
        <ele>417.1</ele>
        <time>2019-09-13T05:46:03Z</time>
      </trkpt>
      <trkpt lat="46.1553" lon="6.07685">
        <ele>417.1</ele>
        <time>2019-09-13T05:46:04Z</time>
      </trkpt>
      <trkpt lat="46.15533" lon="6.07685">
        <ele>417.1</ele>
        <time>2019-09-13T05:46:05Z</time>
      </trkpt>
      <trkpt lat="46.15536" lon="6.07685">
        <ele>417.1</ele>
        <time>2019-09-13T05:46:06Z</time>
      </trkpt>
      <trkpt lat="46.15539" lon="6.07685">
        <ele>417</ele>
        <time>2019-09-13T05:46:07Z</time>
      </trkpt>
      <trkpt lat="46.15542" lon="6.07685">
        <ele>417</ele>
        <time>2019-09-13T05:46:08Z</time>
      </trkpt>
      <trkpt lat="46.15545" lon="6.07685">
        <ele>417</ele>
        <time>2019-09-13T05:46:09Z</time>
      </trkpt>
      <trkpt lat="46.15548" lon="6.07686">
        <ele>417</ele>
        <time>2019-09-13T05:46:10Z</time>
      </trkpt>
      <trkpt lat="46.15551" lon="6.07687">
        <ele>417</ele>
        <time>2019-09-13T05:46:11Z</time>
      </trkpt>
      <trkpt lat="46.15554" lon="6.07687">
        <ele>416.9</ele>
        <time>2019-09-13T05:46:12Z</time>
      </trkpt>
      <trkpt lat="46.15557" lon="6.07688">
        <ele>416.9</ele>
        <time>2019-09-13T05:46:13Z</time>
      </trkpt>
      <trkpt lat="46.15562" lon="6.0769">
        <ele>416.9</ele>
        <time>2019-09-13T05:46:15Z</time>
      </trkpt>
      <trkpt lat="46.15564" lon="6.07691">
        <ele>416.9</ele>
        <time>2019-09-13T05:46:16Z</time>
      </trkpt>
      <trkpt lat="46.15567" lon="6.07691">
        <ele>416.9</ele>
        <time>2019-09-13T05:46:17Z</time>
      </trkpt>
      <trkpt lat="46.15571" lon="6.07691">
        <ele>416.8</ele>
        <time>2019-09-13T05:46:18Z</time>
      </trkpt>
      <trkpt lat="46.15574" lon="6.07691">
        <ele>416.8</ele>
        <time>2019-09-13T05:46:19Z</time>
      </trkpt>
      <trkpt lat="46.15578" lon="6.07691">
        <ele>416.8</ele>
        <time>2019-09-13T05:46:20Z</time>
      </trkpt>
      <trkpt lat="46.15582" lon="6.0769">
        <ele>416.7</ele>
        <time>2019-09-13T05:46:21Z</time>
      </trkpt>
      <trkpt lat="46.15585" lon="6.0769">
        <ele>416.7</ele>
        <time>2019-09-13T05:46:22Z</time>
      </trkpt>
      <trkpt lat="46.15589" lon="6.0769">
        <ele>416.7</ele>
        <time>2019-09-13T05:46:24Z</time>
      </trkpt>
      <trkpt lat="46.15593" lon="6.07691">
        <ele>416.6</ele>
        <time>2019-09-13T05:46:26Z</time>
      </trkpt>
      <trkpt lat="46.15596" lon="6.07692">
        <ele>416.6</ele>
        <time>2019-09-13T05:46:27Z</time>
      </trkpt>
      <trkpt lat="46.15599" lon="6.07692">
        <ele>416.6</ele>
        <time>2019-09-13T05:46:28Z</time>
      </trkpt>
      <trkpt lat="46.15602" lon="6.07693">
        <ele>416.6</ele>
        <time>2019-09-13T05:46:29Z</time>
      </trkpt>
      <trkpt lat="46.15605" lon="6.07693">
        <ele>416.5</ele>
        <time>2019-09-13T05:46:30Z</time>
      </trkpt>
      <trkpt lat="46.15608" lon="6.07693">
        <ele>416.5</ele>
        <time>2019-09-13T05:46:31Z</time>
      </trkpt>
      <trkpt lat="46.15611" lon="6.07693">
        <ele>416.4</ele>
        <time>2019-09-13T05:46:32Z</time>
      </trkpt>
      <trkpt lat="46.15616" lon="6.07693">
        <ele>416.3</ele>
        <time>2019-09-13T05:46:34Z</time>
      </trkpt>
      <trkpt lat="46.15621" lon="6.07693">
        <ele>416.3</ele>
        <time>2019-09-13T05:46:36Z</time>
      </trkpt>
      <trkpt lat="46.15626" lon="6.07695">
        <ele>416.2</ele>
        <time>2019-09-13T05:46:38Z</time>
      </trkpt>
      <trkpt lat="46.15631" lon="6.07697">
        <ele>416.1</ele>
        <time>2019-09-13T05:46:40Z</time>
      </trkpt>
      <trkpt lat="46.15635" lon="6.07697">
        <ele>415.9</ele>
        <time>2019-09-13T05:46:41Z</time>
      </trkpt>
      <trkpt lat="46.15638" lon="6.07698">
        <ele>415.8</ele>
        <time>2019-09-13T05:46:42Z</time>
      </trkpt>
      <trkpt lat="46.15643" lon="6.07698">
        <ele>415.5</ele>
        <time>2019-09-13T05:46:44Z</time>
      </trkpt>
      <trkpt lat="46.15647" lon="6.07698">
        <ele>415.3</ele>
        <time>2019-09-13T05:46:46Z</time>
      </trkpt>
      <trkpt lat="46.15651" lon="6.07699">
        <ele>415.2</ele>
        <time>2019-09-13T05:46:48Z</time>
      </trkpt>
      <trkpt lat="46.15656" lon="6.07698">
        <ele>415</ele>
        <time>2019-09-13T05:46:50Z</time>
      </trkpt>
      <trkpt lat="46.15659" lon="6.07697">
        <ele>414.9</ele>
        <time>2019-09-13T05:46:51Z</time>
      </trkpt>
      <trkpt lat="46.15662" lon="6.07697">
        <ele>414.9</ele>
        <time>2019-09-13T05:46:52Z</time>
      </trkpt>
      <trkpt lat="46.15665" lon="6.07697">
        <ele>414.8</ele>
        <time>2019-09-13T05:46:53Z</time>
      </trkpt>
      <trkpt lat="46.15668" lon="6.07698">
        <ele>414.8</ele>
        <time>2019-09-13T05:46:54Z</time>
      </trkpt>
      <trkpt lat="46.15671" lon="6.07698">
        <ele>414.7</ele>
        <time>2019-09-13T05:46:55Z</time>
      </trkpt>
      <trkpt lat="46.15674" lon="6.07698">
        <ele>414.7</ele>
        <time>2019-09-13T05:46:56Z</time>
      </trkpt>
      <trkpt lat="46.15677" lon="6.07699">
        <ele>414.7</ele>
        <time>2019-09-13T05:46:57Z</time>
      </trkpt>
      <trkpt lat="46.1568" lon="6.07699">
        <ele>414.6</ele>
        <time>2019-09-13T05:46:58Z</time>
      </trkpt>
      <trkpt lat="46.15683" lon="6.077">
        <ele>414.6</ele>
        <time>2019-09-13T05:46:59Z</time>
      </trkpt>
      <trkpt lat="46.15686" lon="6.077">
        <ele>414.6</ele>
        <time>2019-09-13T05:47:00Z</time>
      </trkpt>
      <trkpt lat="46.15688" lon="6.077">
        <ele>414.6</ele>
        <time>2019-09-13T05:47:01Z</time>
      </trkpt>
      <trkpt lat="46.15691" lon="6.077">
        <ele>414.5</ele>
        <time>2019-09-13T05:47:02Z</time>
      </trkpt>
      <trkpt lat="46.15696" lon="6.077">
        <ele>414.5</ele>
        <time>2019-09-13T05:47:04Z</time>
      </trkpt>
      <trkpt lat="46.15701" lon="6.07699">
        <ele>414.5</ele>
        <time>2019-09-13T05:47:06Z</time>
      </trkpt>
      <trkpt lat="46.15706" lon="6.07699">
        <ele>414.4</ele>
        <time>2019-09-13T05:47:08Z</time>
      </trkpt>
      <trkpt lat="46.15711" lon="6.07705">
        <ele>414.4</ele>
        <time>2019-09-13T05:47:10Z</time>
      </trkpt>
      <trkpt lat="46.15713" lon="6.07708">
        <ele>414.3</ele>
        <time>2019-09-13T05:47:11Z</time>
      </trkpt>
      <trkpt lat="46.15715" lon="6.07711">
        <ele>414.3</ele>
        <time>2019-09-13T05:47:12Z</time>
      </trkpt>
      <trkpt lat="46.15717" lon="6.07714">
        <ele>414.3</ele>
        <time>2019-09-13T05:47:13Z</time>
      </trkpt>
      <trkpt lat="46.1572" lon="6.07716">
        <ele>414.3</ele>
        <time>2019-09-13T05:47:14Z</time>
      </trkpt>
      <trkpt lat="46.15722" lon="6.07719">
        <ele>414.3</ele>
        <time>2019-09-13T05:47:15Z</time>
      </trkpt>
      <trkpt lat="46.15725" lon="6.07721">
        <ele>414.2</ele>
        <time>2019-09-13T05:47:16Z</time>
      </trkpt>
      <trkpt lat="46.1573" lon="6.07724">
        <ele>414.2</ele>
        <time>2019-09-13T05:47:18Z</time>
      </trkpt>
      <trkpt lat="46.15735" lon="6.07725">
        <ele>414.2</ele>
        <time>2019-09-13T05:47:20Z</time>
      </trkpt>
      <trkpt lat="46.1574" lon="6.07726">
        <ele>414.2</ele>
        <time>2019-09-13T05:47:22Z</time>
      </trkpt>
      <trkpt lat="46.15743" lon="6.07726">
        <ele>414.2</ele>
        <time>2019-09-13T05:47:23Z</time>
      </trkpt>
      <trkpt lat="46.15748" lon="6.07725">
        <ele>414.2</ele>
        <time>2019-09-13T05:47:25Z</time>
      </trkpt>
      <trkpt lat="46.15752" lon="6.07725">
        <ele>414.1</ele>
        <time>2019-09-13T05:47:27Z</time>
      </trkpt>
      <trkpt lat="46.15755" lon="6.07724">
        <ele>414.1</ele>
        <time>2019-09-13T05:47:28Z</time>
      </trkpt>
      <trkpt lat="46.15758" lon="6.07724">
        <ele>414.1</ele>
        <time>2019-09-13T05:47:29Z</time>
      </trkpt>
      <trkpt lat="46.15763" lon="6.07724">
        <ele>414.1</ele>
        <time>2019-09-13T05:47:31Z</time>
      </trkpt>
      <trkpt lat="46.15767" lon="6.07723">
        <ele>414</ele>
        <time>2019-09-13T05:47:33Z</time>
      </trkpt>
      <trkpt lat="46.15773" lon="6.07723">
        <ele>414</ele>
        <time>2019-09-13T05:47:35Z</time>
      </trkpt>
      <trkpt lat="46.15776" lon="6.07724">
        <ele>414</ele>
        <time>2019-09-13T05:47:36Z</time>
      </trkpt>
      <trkpt lat="46.15779" lon="6.07724">
        <ele>413.9</ele>
        <time>2019-09-13T05:47:37Z</time>
      </trkpt>
      <trkpt lat="46.15782" lon="6.07724">
        <ele>413.9</ele>
        <time>2019-09-13T05:47:38Z</time>
      </trkpt>
      <trkpt lat="46.15785" lon="6.07725">
        <ele>413.9</ele>
        <time>2019-09-13T05:47:39Z</time>
      </trkpt>
      <trkpt lat="46.15788" lon="6.07725">
        <ele>413.9</ele>
        <time>2019-09-13T05:47:40Z</time>
      </trkpt>
      <trkpt lat="46.15791" lon="6.07725">
        <ele>413.9</ele>
        <time>2019-09-13T05:47:41Z</time>
      </trkpt>
      <trkpt lat="46.15794" lon="6.07725">
        <ele>413.8</ele>
        <time>2019-09-13T05:47:42Z</time>
      </trkpt>
      <trkpt lat="46.15797" lon="6.07725">
        <ele>413.8</ele>
        <time>2019-09-13T05:47:43Z</time>
      </trkpt>
      <trkpt lat="46.158" lon="6.07725">
        <ele>413.8</ele>
        <time>2019-09-13T05:47:44Z</time>
      </trkpt>
      <trkpt lat="46.15803" lon="6.07725">
        <ele>413.8</ele>
        <time>2019-09-13T05:47:45Z</time>
      </trkpt>
      <trkpt lat="46.15806" lon="6.07725">
        <ele>413.7</ele>
        <time>2019-09-13T05:47:46Z</time>
      </trkpt>
      <trkpt lat="46.15808" lon="6.07725">
        <ele>413.7</ele>
        <time>2019-09-13T05:47:47Z</time>
      </trkpt>
      <trkpt lat="46.15811" lon="6.07726">
        <ele>413.7</ele>
        <time>2019-09-13T05:47:48Z</time>
      </trkpt>
      <trkpt lat="46.15814" lon="6.07726">
        <ele>413.7</ele>
        <time>2019-09-13T05:47:49Z</time>
      </trkpt>
      <trkpt lat="46.15819" lon="6.07727">
        <ele>413.7</ele>
        <time>2019-09-13T05:47:51Z</time>
      </trkpt>
      <trkpt lat="46.15823" lon="6.07727">
        <ele>413.6</ele>
        <time>2019-09-13T05:47:53Z</time>
      </trkpt>
      <trkpt lat="46.15829" lon="6.07728">
        <ele>413.5</ele>
        <time>2019-09-13T05:47:55Z</time>
      </trkpt>
      <trkpt lat="46.15832" lon="6.07728">
        <ele>413.5</ele>
        <time>2019-09-13T05:47:56Z</time>
      </trkpt>
      <trkpt lat="46.15835" lon="6.07728">
        <ele>413.4</ele>
        <time>2019-09-13T05:47:57Z</time>
      </trkpt>
      <trkpt lat="46.15838" lon="6.07728">
        <ele>413.4</ele>
        <time>2019-09-13T05:47:58Z</time>
      </trkpt>
      <trkpt lat="46.15841" lon="6.07728">
        <ele>413.4</ele>
        <time>2019-09-13T05:47:59Z</time>
      </trkpt>
      <trkpt lat="46.15844" lon="6.07729">
        <ele>413.3</ele>
        <time>2019-09-13T05:48:00Z</time>
      </trkpt>
      <trkpt lat="46.15847" lon="6.07729">
        <ele>413.3</ele>
        <time>2019-09-13T05:48:01Z</time>
      </trkpt>
      <trkpt lat="46.1585" lon="6.0773">
        <ele>413.2</ele>
        <time>2019-09-13T05:48:02Z</time>
      </trkpt>
      <trkpt lat="46.15853" lon="6.0773">
        <ele>413.2</ele>
        <time>2019-09-13T05:48:03Z</time>
      </trkpt>
      <trkpt lat="46.15856" lon="6.0773">
        <ele>413.2</ele>
        <time>2019-09-13T05:48:04Z</time>
      </trkpt>
      <trkpt lat="46.15858" lon="6.0773">
        <ele>413.1</ele>
        <time>2019-09-13T05:48:05Z</time>
      </trkpt>
      <trkpt lat="46.15863" lon="6.0773">
        <ele>413</ele>
        <time>2019-09-13T05:48:07Z</time>
      </trkpt>
      <trkpt lat="46.15867" lon="6.07729">
        <ele>412.9</ele>
        <time>2019-09-13T05:48:09Z</time>
      </trkpt>
      <trkpt lat="46.1587" lon="6.07724">
        <ele>412.9</ele>
        <time>2019-09-13T05:48:11Z</time>
      </trkpt>
      <trkpt lat="46.15872" lon="6.07718">
        <ele>412.8</ele>
        <time>2019-09-13T05:48:13Z</time>
      </trkpt>
      <trkpt lat="46.15872" lon="6.07714">
        <ele>412.8</ele>
        <time>2019-09-13T05:48:14Z</time>
      </trkpt>
      <trkpt lat="46.15871" lon="6.0771">
        <ele>412.7</ele>
        <time>2019-09-13T05:48:15Z</time>
      </trkpt>
      <trkpt lat="46.15871" lon="6.07705">
        <ele>412.7</ele>
        <time>2019-09-13T05:48:16Z</time>
      </trkpt>
      <trkpt lat="46.15871" lon="6.07701">
        <ele>412.7</ele>
        <time>2019-09-13T05:48:17Z</time>
      </trkpt>
      <trkpt lat="46.1587" lon="6.07696">
        <ele>412.6</ele>
        <time>2019-09-13T05:48:18Z</time>
      </trkpt>
      <trkpt lat="46.1587" lon="6.07691">
        <ele>412.6</ele>
        <time>2019-09-13T05:48:19Z</time>
      </trkpt>
      <trkpt lat="46.1587" lon="6.07687">
        <ele>412.5</ele>
        <time>2019-09-13T05:48:20Z</time>
      </trkpt>
      <trkpt lat="46.1587" lon="6.0768">
        <ele>412.5</ele>
        <time>2019-09-13T05:48:22Z</time>
      </trkpt>
      <trkpt lat="46.15873" lon="6.07674">
        <ele>412.4</ele>
        <time>2019-09-13T05:48:24Z</time>
      </trkpt>
      <trkpt lat="46.15876" lon="6.07673">
        <ele>412.4</ele>
        <time>2019-09-13T05:48:25Z</time>
      </trkpt>
      <trkpt lat="46.1588" lon="6.07673">
        <ele>412.3</ele>
        <time>2019-09-13T05:48:26Z</time>
      </trkpt>
      <trkpt lat="46.15883" lon="6.07673">
        <ele>412.3</ele>
        <time>2019-09-13T05:48:27Z</time>
      </trkpt>
      <trkpt lat="46.15886" lon="6.07674">
        <ele>412.3</ele>
        <time>2019-09-13T05:48:28Z</time>
      </trkpt>
      <trkpt lat="46.15889" lon="6.07676">
        <ele>412.3</ele>
        <time>2019-09-13T05:48:29Z</time>
      </trkpt>
      <trkpt lat="46.15891" lon="6.07678">
        <ele>412.2</ele>
        <time>2019-09-13T05:48:30Z</time>
      </trkpt>
      <trkpt lat="46.15896" lon="6.07679">
        <ele>412.2</ele>
        <time>2019-09-13T05:48:32Z</time>
      </trkpt>
      <trkpt lat="46.15899" lon="6.0768">
        <ele>412.2</ele>
        <time>2019-09-13T05:48:33Z</time>
      </trkpt>
      <trkpt lat="46.15902" lon="6.0768">
        <ele>412.1</ele>
        <time>2019-09-13T05:48:34Z</time>
      </trkpt>
      <trkpt lat="46.15905" lon="6.0768">
        <ele>412.1</ele>
        <time>2019-09-13T05:48:35Z</time>
      </trkpt>
      <trkpt lat="46.15907" lon="6.0768">
        <ele>412.1</ele>
        <time>2019-09-13T05:48:36Z</time>
      </trkpt>
      <trkpt lat="46.1591" lon="6.0768">
        <ele>412.1</ele>
        <time>2019-09-13T05:48:37Z</time>
      </trkpt>
      <trkpt lat="46.15916" lon="6.07681">
        <ele>412.1</ele>
        <time>2019-09-13T05:48:39Z</time>
      </trkpt>
      <trkpt lat="46.1592" lon="6.07681">
        <ele>412.2</ele>
        <time>2019-09-13T05:48:41Z</time>
      </trkpt>
      <trkpt lat="46.15925" lon="6.0768">
        <ele>412.2</ele>
        <time>2019-09-13T05:48:43Z</time>
      </trkpt>
      <trkpt lat="46.1593" lon="6.07679">
        <ele>412.2</ele>
        <time>2019-09-13T05:48:45Z</time>
      </trkpt>
      <trkpt lat="46.15933" lon="6.07679">
        <ele>412.2</ele>
        <time>2019-09-13T05:48:46Z</time>
      </trkpt>
      <trkpt lat="46.15936" lon="6.07679">
        <ele>412.2</ele>
        <time>2019-09-13T05:48:47Z</time>
      </trkpt>
      <trkpt lat="46.15941" lon="6.07679">
        <ele>412.2</ele>
        <time>2019-09-13T05:48:49Z</time>
      </trkpt>
      <trkpt lat="46.15946" lon="6.07679">
        <ele>412.2</ele>
        <time>2019-09-13T05:48:51Z</time>
      </trkpt>
      <trkpt lat="46.15949" lon="6.07679">
        <ele>412.2</ele>
        <time>2019-09-13T05:48:52Z</time>
      </trkpt>
      <trkpt lat="46.15955" lon="6.07679">
        <ele>412.2</ele>
        <time>2019-09-13T05:48:54Z</time>
      </trkpt>
      <trkpt lat="46.1596" lon="6.07678">
        <ele>412.1</ele>
        <time>2019-09-13T05:48:56Z</time>
      </trkpt>
      <trkpt lat="46.15963" lon="6.07677">
        <ele>412.1</ele>
        <time>2019-09-13T05:48:57Z</time>
      </trkpt>
      <trkpt lat="46.15965" lon="6.07677">
        <ele>412.1</ele>
        <time>2019-09-13T05:48:58Z</time>
      </trkpt>
      <trkpt lat="46.15968" lon="6.07676">
        <ele>412</ele>
        <time>2019-09-13T05:48:59Z</time>
      </trkpt>
      <trkpt lat="46.15972" lon="6.07676">
        <ele>412</ele>
        <time>2019-09-13T05:49:00Z</time>
      </trkpt>
      <trkpt lat="46.15975" lon="6.07675">
        <ele>412</ele>
        <time>2019-09-13T05:49:01Z</time>
      </trkpt>
      <trkpt lat="46.15978" lon="6.07675">
        <ele>411.9</ele>
        <time>2019-09-13T05:49:02Z</time>
      </trkpt>
      <trkpt lat="46.15983" lon="6.07675">
        <ele>411.9</ele>
        <time>2019-09-13T05:49:04Z</time>
      </trkpt>
      <trkpt lat="46.15989" lon="6.07675">
        <ele>411.8</ele>
        <time>2019-09-13T05:49:06Z</time>
      </trkpt>
      <trkpt lat="46.15992" lon="6.07675">
        <ele>411.8</ele>
        <time>2019-09-13T05:49:07Z</time>
      </trkpt>
      <trkpt lat="46.15997" lon="6.07676">
        <ele>411.7</ele>
        <time>2019-09-13T05:49:09Z</time>
      </trkpt>
      <trkpt lat="46.16002" lon="6.07676">
        <ele>411.6</ele>
        <time>2019-09-13T05:49:11Z</time>
      </trkpt>
      <trkpt lat="46.16005" lon="6.07675">
        <ele>411.6</ele>
        <time>2019-09-13T05:49:12Z</time>
      </trkpt>
      <trkpt lat="46.16008" lon="6.07675">
        <ele>411.5</ele>
        <time>2019-09-13T05:49:13Z</time>
      </trkpt>
      <trkpt lat="46.16012" lon="6.07674">
        <ele>411.5</ele>
        <time>2019-09-13T05:49:14Z</time>
      </trkpt>
      <trkpt lat="46.16015" lon="6.07674">
        <ele>411.4</ele>
        <time>2019-09-13T05:49:15Z</time>
      </trkpt>
      <trkpt lat="46.1602" lon="6.07672">
        <ele>411.4</ele>
        <time>2019-09-13T05:49:17Z</time>
      </trkpt>
      <trkpt lat="46.16025" lon="6.07671">
        <ele>411.4</ele>
        <time>2019-09-13T05:49:19Z</time>
      </trkpt>
      <trkpt lat="46.1603" lon="6.0767">
        <ele>411.5</ele>
        <time>2019-09-13T05:49:21Z</time>
      </trkpt>
      <trkpt lat="46.16034" lon="6.0767">
        <ele>411.5</ele>
        <time>2019-09-13T05:49:22Z</time>
      </trkpt>
      <trkpt lat="46.16037" lon="6.07669">
        <ele>411.5</ele>
        <time>2019-09-13T05:49:23Z</time>
      </trkpt>
      <trkpt lat="46.16041" lon="6.07668">
        <ele>411.4</ele>
        <time>2019-09-13T05:49:25Z</time>
      </trkpt>
      <trkpt lat="46.16044" lon="6.07667">
        <ele>411.4</ele>
        <time>2019-09-13T05:49:26Z</time>
      </trkpt>
      <trkpt lat="46.16047" lon="6.07667">
        <ele>411.4</ele>
        <time>2019-09-13T05:49:27Z</time>
      </trkpt>
      <trkpt lat="46.16052" lon="6.07667">
        <ele>411.3</ele>
        <time>2019-09-13T05:49:29Z</time>
      </trkpt>
      <trkpt lat="46.16057" lon="6.07667">
        <ele>411.2</ele>
        <time>2019-09-13T05:49:31Z</time>
      </trkpt>
      <trkpt lat="46.16061" lon="6.07667">
        <ele>411.2</ele>
        <time>2019-09-13T05:49:33Z</time>
      </trkpt>
      <trkpt lat="46.16067" lon="6.07667">
        <ele>411.1</ele>
        <time>2019-09-13T05:49:35Z</time>
      </trkpt>
      <trkpt lat="46.1607" lon="6.07667">
        <ele>411</ele>
        <time>2019-09-13T05:49:36Z</time>
      </trkpt>
      <trkpt lat="46.16076" lon="6.07666">
        <ele>410.9</ele>
        <time>2019-09-13T05:49:38Z</time>
      </trkpt>
      <trkpt lat="46.16079" lon="6.07666">
        <ele>410.9</ele>
        <time>2019-09-13T05:49:39Z</time>
      </trkpt>
      <trkpt lat="46.16082" lon="6.07665">
        <ele>410.9</ele>
        <time>2019-09-13T05:49:40Z</time>
      </trkpt>
      <trkpt lat="46.16085" lon="6.07665">
        <ele>410.8</ele>
        <time>2019-09-13T05:49:41Z</time>
      </trkpt>
      <trkpt lat="46.1609" lon="6.07664">
        <ele>410.8</ele>
        <time>2019-09-13T05:49:43Z</time>
      </trkpt>
      <trkpt lat="46.16093" lon="6.07663">
        <ele>410.8</ele>
        <time>2019-09-13T05:49:44Z</time>
      </trkpt>
      <trkpt lat="46.16096" lon="6.07663">
        <ele>410.8</ele>
        <time>2019-09-13T05:49:45Z</time>
      </trkpt>
      <trkpt lat="46.16101" lon="6.07663">
        <ele>410.7</ele>
        <time>2019-09-13T05:49:47Z</time>
      </trkpt>
      <trkpt lat="46.16106" lon="6.07662">
        <ele>410.7</ele>
        <time>2019-09-13T05:49:49Z</time>
      </trkpt>
      <trkpt lat="46.16109" lon="6.07661">
        <ele>410.7</ele>
        <time>2019-09-13T05:49:50Z</time>
      </trkpt>
      <trkpt lat="46.16114" lon="6.07659">
        <ele>410.6</ele>
        <time>2019-09-13T05:49:52Z</time>
      </trkpt>
      <trkpt lat="46.16119" lon="6.07658">
        <ele>410.6</ele>
        <time>2019-09-13T05:49:54Z</time>
      </trkpt>
      <trkpt lat="46.16124" lon="6.07657">
        <ele>410.6</ele>
        <time>2019-09-13T05:49:56Z</time>
      </trkpt>
      <trkpt lat="46.16128" lon="6.07655">
        <ele>410.6</ele>
        <time>2019-09-13T05:49:58Z</time>
      </trkpt>
      <trkpt lat="46.16132" lon="6.07653">
        <ele>410.6</ele>
        <time>2019-09-13T05:50:00Z</time>
      </trkpt>
      <trkpt lat="46.16137" lon="6.07651">
        <ele>410.6</ele>
        <time>2019-09-13T05:50:02Z</time>
      </trkpt>
      <trkpt lat="46.1614" lon="6.07651">
        <ele>410.6</ele>
        <time>2019-09-13T05:50:03Z</time>
      </trkpt>
      <trkpt lat="46.16145" lon="6.07649">
        <ele>410.6</ele>
        <time>2019-09-13T05:50:05Z</time>
      </trkpt>
      <trkpt lat="46.16148" lon="6.07648">
        <ele>410.6</ele>
        <time>2019-09-13T05:50:06Z</time>
      </trkpt>
      <trkpt lat="46.1615" lon="6.07647">
        <ele>410.7</ele>
        <time>2019-09-13T05:50:07Z</time>
      </trkpt>
      <trkpt lat="46.16153" lon="6.07646">
        <ele>410.7</ele>
        <time>2019-09-13T05:50:08Z</time>
      </trkpt>
      <trkpt lat="46.16158" lon="6.07645">
        <ele>410.8</ele>
        <time>2019-09-13T05:50:10Z</time>
      </trkpt>
      <trkpt lat="46.16163" lon="6.07643">
        <ele>411</ele>
        <time>2019-09-13T05:50:12Z</time>
      </trkpt>
      <trkpt lat="46.16168" lon="6.07641">
        <ele>411.3</ele>
        <time>2019-09-13T05:50:14Z</time>
      </trkpt>
      <trkpt lat="46.16171" lon="6.0764">
        <ele>411.4</ele>
        <time>2019-09-13T05:50:15Z</time>
      </trkpt>
      <trkpt lat="46.16174" lon="6.07639">
        <ele>411.6</ele>
        <time>2019-09-13T05:50:16Z</time>
      </trkpt>
      <trkpt lat="46.16177" lon="6.07639">
        <ele>411.7</ele>
        <time>2019-09-13T05:50:17Z</time>
      </trkpt>
      <trkpt lat="46.16182" lon="6.0764">
        <ele>412</ele>
        <time>2019-09-13T05:50:19Z</time>
      </trkpt>
      <trkpt lat="46.16186" lon="6.07642">
        <ele>412.3</ele>
        <time>2019-09-13T05:50:21Z</time>
      </trkpt>
      <trkpt lat="46.16189" lon="6.07642">
        <ele>412.3</ele>
        <time>2019-09-13T05:50:22Z</time>
      </trkpt>
      <trkpt lat="46.16192" lon="6.07643">
        <ele>412.4</ele>
        <time>2019-09-13T05:50:23Z</time>
      </trkpt>
      <trkpt lat="46.16197" lon="6.07642">
        <ele>412.5</ele>
        <time>2019-09-13T05:50:25Z</time>
      </trkpt>
      <trkpt lat="46.16202" lon="6.0764">
        <ele>412.5</ele>
        <time>2019-09-13T05:50:27Z</time>
      </trkpt>
      <trkpt lat="46.16207" lon="6.07638">
        <ele>412.4</ele>
        <time>2019-09-13T05:50:29Z</time>
      </trkpt>
      <trkpt lat="46.16211" lon="6.07636">
        <ele>412.4</ele>
        <time>2019-09-13T05:50:31Z</time>
      </trkpt>
      <trkpt lat="46.16214" lon="6.07635">
        <ele>412.4</ele>
        <time>2019-09-13T05:50:32Z</time>
      </trkpt>
      <trkpt lat="46.16216" lon="6.07634">
        <ele>412.4</ele>
        <time>2019-09-13T05:50:33Z</time>
      </trkpt>
      <trkpt lat="46.16222" lon="6.07631">
        <ele>412.3</ele>
        <time>2019-09-13T05:50:35Z</time>
      </trkpt>
      <trkpt lat="46.16225" lon="6.0763">
        <ele>412.3</ele>
        <time>2019-09-13T05:50:36Z</time>
      </trkpt>
      <trkpt lat="46.16228" lon="6.07629">
        <ele>412.3</ele>
        <time>2019-09-13T05:50:37Z</time>
      </trkpt>
      <trkpt lat="46.16231" lon="6.07628">
        <ele>412.3</ele>
        <time>2019-09-13T05:50:38Z</time>
      </trkpt>
      <trkpt lat="46.16234" lon="6.07627">
        <ele>412.3</ele>
        <time>2019-09-13T05:50:39Z</time>
      </trkpt>
      <trkpt lat="46.16237" lon="6.07626">
        <ele>412.3</ele>
        <time>2019-09-13T05:50:40Z</time>
      </trkpt>
      <trkpt lat="46.1624" lon="6.07626">
        <ele>412.3</ele>
        <time>2019-09-13T05:50:41Z</time>
      </trkpt>
      <trkpt lat="46.16243" lon="6.07625">
        <ele>412.3</ele>
        <time>2019-09-13T05:50:42Z</time>
      </trkpt>
      <trkpt lat="46.16246" lon="6.07625">
        <ele>412.3</ele>
        <time>2019-09-13T05:50:43Z</time>
      </trkpt>
      <trkpt lat="46.16249" lon="6.07624">
        <ele>412.3</ele>
        <time>2019-09-13T05:50:44Z</time>
      </trkpt>
      <trkpt lat="46.16254" lon="6.07624">
        <ele>412.3</ele>
        <time>2019-09-13T05:50:46Z</time>
      </trkpt>
      <trkpt lat="46.16257" lon="6.07623">
        <ele>412.3</ele>
        <time>2019-09-13T05:50:47Z</time>
      </trkpt>
      <trkpt lat="46.16262" lon="6.07622">
        <ele>412.3</ele>
        <time>2019-09-13T05:50:49Z</time>
      </trkpt>
      <trkpt lat="46.16266" lon="6.0762">
        <ele>412.3</ele>
        <time>2019-09-13T05:50:51Z</time>
      </trkpt>
      <trkpt lat="46.16271" lon="6.07617">
        <ele>412.3</ele>
        <time>2019-09-13T05:50:53Z</time>
      </trkpt>
      <trkpt lat="46.16274" lon="6.07615">
        <ele>412.3</ele>
        <time>2019-09-13T05:50:54Z</time>
      </trkpt>
      <trkpt lat="46.16278" lon="6.07612">
        <ele>412.3</ele>
        <time>2019-09-13T05:50:56Z</time>
      </trkpt>
      <trkpt lat="46.16282" lon="6.0761">
        <ele>412.3</ele>
        <time>2019-09-13T05:50:58Z</time>
      </trkpt>
      <trkpt lat="46.16287" lon="6.07608">
        <ele>412.2</ele>
        <time>2019-09-13T05:51:00Z</time>
      </trkpt>
      <trkpt lat="46.16291" lon="6.07607">
        <ele>412.1</ele>
        <time>2019-09-13T05:51:02Z</time>
      </trkpt>
      <trkpt lat="46.16296" lon="6.07606">
        <ele>412.1</ele>
        <time>2019-09-13T05:51:04Z</time>
      </trkpt>
      <trkpt lat="46.163" lon="6.07605">
        <ele>412</ele>
        <time>2019-09-13T05:51:06Z</time>
      </trkpt>
      <trkpt lat="46.16303" lon="6.07605">
        <ele>412</ele>
        <time>2019-09-13T05:51:07Z</time>
      </trkpt>
      <trkpt lat="46.16306" lon="6.07604">
        <ele>412</ele>
        <time>2019-09-13T05:51:08Z</time>
      </trkpt>
      <trkpt lat="46.16309" lon="6.07603">
        <ele>411.9</ele>
        <time>2019-09-13T05:51:09Z</time>
      </trkpt>
      <trkpt lat="46.16314" lon="6.07602">
        <ele>411.9</ele>
        <time>2019-09-13T05:51:11Z</time>
      </trkpt>
      <trkpt lat="46.16317" lon="6.07601">
        <ele>411.8</ele>
        <time>2019-09-13T05:51:12Z</time>
      </trkpt>
      <trkpt lat="46.1632" lon="6.076">
        <ele>411.8</ele>
        <time>2019-09-13T05:51:13Z</time>
      </trkpt>
      <trkpt lat="46.16323" lon="6.07599">
        <ele>411.7</ele>
        <time>2019-09-13T05:51:14Z</time>
      </trkpt>
      <trkpt lat="46.16328" lon="6.07598">
        <ele>411.7</ele>
        <time>2019-09-13T05:51:16Z</time>
      </trkpt>
      <trkpt lat="46.16331" lon="6.07597">
        <ele>411.7</ele>
        <time>2019-09-13T05:51:17Z</time>
      </trkpt>
      <trkpt lat="46.16335" lon="6.07596">
        <ele>411.7</ele>
        <time>2019-09-13T05:51:19Z</time>
      </trkpt>
      <trkpt lat="46.1634" lon="6.07595">
        <ele>411.7</ele>
        <time>2019-09-13T05:51:21Z</time>
      </trkpt>
      <trkpt lat="46.16343" lon="6.07594">
        <ele>411.7</ele>
        <time>2019-09-13T05:51:22Z</time>
      </trkpt>
      <trkpt lat="46.16348" lon="6.07593">
        <ele>411.7</ele>
        <time>2019-09-13T05:51:24Z</time>
      </trkpt>
      <trkpt lat="46.16351" lon="6.07592">
        <ele>411.7</ele>
        <time>2019-09-13T05:51:25Z</time>
      </trkpt>
      <trkpt lat="46.16356" lon="6.07592">
        <ele>411.8</ele>
        <time>2019-09-13T05:51:27Z</time>
      </trkpt>
      <trkpt lat="46.16361" lon="6.07594">
        <ele>411.9</ele>
        <time>2019-09-13T05:51:29Z</time>
      </trkpt>
      <trkpt lat="46.16366" lon="6.07597">
        <ele>412</ele>
        <time>2019-09-13T05:51:31Z</time>
      </trkpt>
      <trkpt lat="46.16369" lon="6.07598">
        <ele>412.1</ele>
        <time>2019-09-13T05:51:32Z</time>
      </trkpt>
      <trkpt lat="46.16371" lon="6.07599">
        <ele>412.1</ele>
        <time>2019-09-13T05:51:33Z</time>
      </trkpt>
      <trkpt lat="46.16377" lon="6.07601">
        <ele>412.2</ele>
        <time>2019-09-13T05:51:35Z</time>
      </trkpt>
      <trkpt lat="46.16381" lon="6.07603">
        <ele>412.3</ele>
        <time>2019-09-13T05:51:37Z</time>
      </trkpt>
      <trkpt lat="46.16386" lon="6.07606">
        <ele>412.4</ele>
        <time>2019-09-13T05:51:39Z</time>
      </trkpt>
      <trkpt lat="46.16389" lon="6.07607">
        <ele>412.4</ele>
        <time>2019-09-13T05:51:40Z</time>
      </trkpt>
      <trkpt lat="46.16393" lon="6.0761">
        <ele>412.5</ele>
        <time>2019-09-13T05:51:42Z</time>
      </trkpt>
      <trkpt lat="46.16398" lon="6.07613">
        <ele>412.6</ele>
        <time>2019-09-13T05:51:44Z</time>
      </trkpt>
      <trkpt lat="46.16403" lon="6.07614">
        <ele>412.7</ele>
        <time>2019-09-13T05:51:46Z</time>
      </trkpt>
      <trkpt lat="46.16406" lon="6.07615">
        <ele>412.7</ele>
        <time>2019-09-13T05:51:47Z</time>
      </trkpt>
      <trkpt lat="46.16411" lon="6.07617">
        <ele>412.8</ele>
        <time>2019-09-13T05:51:49Z</time>
      </trkpt>
      <trkpt lat="46.16415" lon="6.07619">
        <ele>412.8</ele>
        <time>2019-09-13T05:51:51Z</time>
      </trkpt>
      <trkpt lat="46.1642" lon="6.07621">
        <ele>412.9</ele>
        <time>2019-09-13T05:51:53Z</time>
      </trkpt>
      <trkpt lat="46.16425" lon="6.07624">
        <ele>413</ele>
        <time>2019-09-13T05:51:55Z</time>
      </trkpt>
      <trkpt lat="46.16429" lon="6.07628">
        <ele>413</ele>
        <time>2019-09-13T05:51:57Z</time>
      </trkpt>
      <trkpt lat="46.16434" lon="6.07631">
        <ele>413</ele>
        <time>2019-09-13T05:51:59Z</time>
      </trkpt>
      <trkpt lat="46.16439" lon="6.07634">
        <ele>413</ele>
        <time>2019-09-13T05:52:01Z</time>
      </trkpt>
      <trkpt lat="46.16441" lon="6.07636">
        <ele>413</ele>
        <time>2019-09-13T05:52:02Z</time>
      </trkpt>
      <trkpt lat="46.16444" lon="6.07638">
        <ele>413</ele>
        <time>2019-09-13T05:52:03Z</time>
      </trkpt>
      <trkpt lat="46.16448" lon="6.07643">
        <ele>413</ele>
        <time>2019-09-13T05:52:05Z</time>
      </trkpt>
      <trkpt lat="46.16452" lon="6.07647">
        <ele>413</ele>
        <time>2019-09-13T05:52:07Z</time>
      </trkpt>
      <trkpt lat="46.16456" lon="6.07652">
        <ele>413</ele>
        <time>2019-09-13T05:52:09Z</time>
      </trkpt>
      <trkpt lat="46.16458" lon="6.07656">
        <ele>413</ele>
        <time>2019-09-13T05:52:10Z</time>
      </trkpt>
      <trkpt lat="46.1646" lon="6.07658">
        <ele>413</ele>
        <time>2019-09-13T05:52:11Z</time>
      </trkpt>
      <trkpt lat="46.16463" lon="6.07663">
        <ele>413</ele>
        <time>2019-09-13T05:52:13Z</time>
      </trkpt>
      <trkpt lat="46.16467" lon="6.07669">
        <ele>413</ele>
        <time>2019-09-13T05:52:15Z</time>
      </trkpt>
      <trkpt lat="46.1647" lon="6.07675">
        <ele>413</ele>
        <time>2019-09-13T05:52:17Z</time>
      </trkpt>
      <trkpt lat="46.16473" lon="6.07681">
        <ele>413</ele>
        <time>2019-09-13T05:52:19Z</time>
      </trkpt>
      <trkpt lat="46.16474" lon="6.07685">
        <ele>413</ele>
        <time>2019-09-13T05:52:20Z</time>
      </trkpt>
      <trkpt lat="46.16478" lon="6.0769">
        <ele>413</ele>
        <time>2019-09-13T05:52:22Z</time>
      </trkpt>
      <trkpt lat="46.16481" lon="6.07695">
        <ele>413</ele>
        <time>2019-09-13T05:52:24Z</time>
      </trkpt>
      <trkpt lat="46.16483" lon="6.07699">
        <ele>413</ele>
        <time>2019-09-13T05:52:25Z</time>
      </trkpt>
      <trkpt lat="46.16484" lon="6.07702">
        <ele>413</ele>
        <time>2019-09-13T05:52:26Z</time>
      </trkpt>
      <trkpt lat="46.16487" lon="6.07708">
        <ele>413</ele>
        <time>2019-09-13T05:52:28Z</time>
      </trkpt>
      <trkpt lat="46.1649" lon="6.07714">
        <ele>412.9</ele>
        <time>2019-09-13T05:52:30Z</time>
      </trkpt>
      <trkpt lat="46.16493" lon="6.0772">
        <ele>412.9</ele>
        <time>2019-09-13T05:52:32Z</time>
      </trkpt>
      <trkpt lat="46.16495" lon="6.07727">
        <ele>412.9</ele>
        <time>2019-09-13T05:52:34Z</time>
      </trkpt>
      <trkpt lat="46.16498" lon="6.07733">
        <ele>412.8</ele>
        <time>2019-09-13T05:52:36Z</time>
      </trkpt>
      <trkpt lat="46.165" lon="6.07738">
        <ele>412.8</ele>
        <time>2019-09-13T05:52:38Z</time>
      </trkpt>
      <trkpt lat="46.16503" lon="6.07744">
        <ele>412.7</ele>
        <time>2019-09-13T05:52:40Z</time>
      </trkpt>
      <trkpt lat="46.16506" lon="6.0775">
        <ele>412.6</ele>
        <time>2019-09-13T05:52:42Z</time>
      </trkpt>
      <trkpt lat="46.16509" lon="6.07756">
        <ele>412.5</ele>
        <time>2019-09-13T05:52:44Z</time>
      </trkpt>
      <trkpt lat="46.16511" lon="6.07763">
        <ele>412.4</ele>
        <time>2019-09-13T05:52:46Z</time>
      </trkpt>
      <trkpt lat="46.16512" lon="6.07767">
        <ele>412.3</ele>
        <time>2019-09-13T05:52:47Z</time>
      </trkpt>
      <trkpt lat="46.16514" lon="6.0777">
        <ele>412.3</ele>
        <time>2019-09-13T05:52:48Z</time>
      </trkpt>
      <trkpt lat="46.16515" lon="6.07775">
        <ele>412.2</ele>
        <time>2019-09-13T05:52:49Z</time>
      </trkpt>
      <trkpt lat="46.16516" lon="6.07779">
        <ele>412.2</ele>
        <time>2019-09-13T05:52:50Z</time>
      </trkpt>
      <trkpt lat="46.16518" lon="6.07783">
        <ele>412.1</ele>
        <time>2019-09-13T05:52:51Z</time>
      </trkpt>
      <trkpt lat="46.16519" lon="6.07787">
        <ele>412.1</ele>
        <time>2019-09-13T05:52:52Z</time>
      </trkpt>
      <trkpt lat="46.16522" lon="6.07793">
        <ele>412</ele>
        <time>2019-09-13T05:52:54Z</time>
      </trkpt>
      <trkpt lat="46.16525" lon="6.07799">
        <ele>412</ele>
        <time>2019-09-13T05:52:56Z</time>
      </trkpt>
      <trkpt lat="46.16528" lon="6.07804">
        <ele>412</ele>
        <time>2019-09-13T05:52:58Z</time>
      </trkpt>
      <trkpt lat="46.16531" lon="6.07809">
        <ele>412</ele>
        <time>2019-09-13T05:53:00Z</time>
      </trkpt>
      <trkpt lat="46.16533" lon="6.07815">
        <ele>412</ele>
        <time>2019-09-13T05:53:02Z</time>
      </trkpt>
      <trkpt lat="46.16534" lon="6.07819">
        <ele>412</ele>
        <time>2019-09-13T05:53:03Z</time>
      </trkpt>
      <trkpt lat="46.16537" lon="6.07826">
        <ele>411.9</ele>
        <time>2019-09-13T05:53:05Z</time>
      </trkpt>
      <trkpt lat="46.16538" lon="6.0783">
        <ele>411.9</ele>
        <time>2019-09-13T05:53:06Z</time>
      </trkpt>
      <trkpt lat="46.1654" lon="6.07836">
        <ele>411.9</ele>
        <time>2019-09-13T05:53:08Z</time>
      </trkpt>
      <trkpt lat="46.16543" lon="6.07843">
        <ele>411.9</ele>
        <time>2019-09-13T05:53:10Z</time>
      </trkpt>
      <trkpt lat="46.16544" lon="6.07846">
        <ele>411.8</ele>
        <time>2019-09-13T05:53:11Z</time>
      </trkpt>
      <trkpt lat="46.16546" lon="6.07853">
        <ele>411.7</ele>
        <time>2019-09-13T05:53:13Z</time>
      </trkpt>
      <trkpt lat="46.16549" lon="6.07859">
        <ele>411.6</ele>
        <time>2019-09-13T05:53:15Z</time>
      </trkpt>
      <trkpt lat="46.16551" lon="6.07865">
        <ele>411.5</ele>
        <time>2019-09-13T05:53:17Z</time>
      </trkpt>
      <trkpt lat="46.16554" lon="6.07871">
        <ele>411.3</ele>
        <time>2019-09-13T05:53:19Z</time>
      </trkpt>
      <trkpt lat="46.16557" lon="6.07878">
        <ele>411</ele>
        <time>2019-09-13T05:53:21Z</time>
      </trkpt>
      <trkpt lat="46.1656" lon="6.07884">
        <ele>410.9</ele>
        <time>2019-09-13T05:53:23Z</time>
      </trkpt>
      <trkpt lat="46.16562" lon="6.07886">
        <ele>410.8</ele>
        <time>2019-09-13T05:53:24Z</time>
      </trkpt>
      <trkpt lat="46.16565" lon="6.07889">
        <ele>410.8</ele>
        <time>2019-09-13T05:53:25Z</time>
      </trkpt>
      <trkpt lat="46.16567" lon="6.07892">
        <ele>410.7</ele>
        <time>2019-09-13T05:53:26Z</time>
      </trkpt>
      <trkpt lat="46.16569" lon="6.07894">
        <ele>410.7</ele>
        <time>2019-09-13T05:53:27Z</time>
      </trkpt>
      <trkpt lat="46.16572" lon="6.07899">
        <ele>410.6</ele>
        <time>2019-09-13T05:53:29Z</time>
      </trkpt>
      <trkpt lat="46.16576" lon="6.07904">
        <ele>410.6</ele>
        <time>2019-09-13T05:53:31Z</time>
      </trkpt>
      <trkpt lat="46.16579" lon="6.07909">
        <ele>410.7</ele>
        <time>2019-09-13T05:53:33Z</time>
      </trkpt>
      <trkpt lat="46.16582" lon="6.07915">
        <ele>410.7</ele>
        <time>2019-09-13T05:53:35Z</time>
      </trkpt>
      <trkpt lat="46.16583" lon="6.07919">
        <ele>410.7</ele>
        <time>2019-09-13T05:53:36Z</time>
      </trkpt>
      <trkpt lat="46.16586" lon="6.07925">
        <ele>410.6</ele>
        <time>2019-09-13T05:53:38Z</time>
      </trkpt>
      <trkpt lat="46.16587" lon="6.07929">
        <ele>410.5</ele>
        <time>2019-09-13T05:53:39Z</time>
      </trkpt>
      <trkpt lat="46.16589" lon="6.07932">
        <ele>410.4</ele>
        <time>2019-09-13T05:53:40Z</time>
      </trkpt>
      <trkpt lat="46.1659" lon="6.07936">
        <ele>410.3</ele>
        <time>2019-09-13T05:53:41Z</time>
      </trkpt>
      <trkpt lat="46.16592" lon="6.07939">
        <ele>410.2</ele>
        <time>2019-09-13T05:53:42Z</time>
      </trkpt>
      <trkpt lat="46.16594" lon="6.07946">
        <ele>410.1</ele>
        <time>2019-09-13T05:53:44Z</time>
      </trkpt>
      <trkpt lat="46.16596" lon="6.07952">
        <ele>409.9</ele>
        <time>2019-09-13T05:53:46Z</time>
      </trkpt>
      <trkpt lat="46.16598" lon="6.07959">
        <ele>409.7</ele>
        <time>2019-09-13T05:53:48Z</time>
      </trkpt>
      <trkpt lat="46.166" lon="6.07962">
        <ele>409.7</ele>
        <time>2019-09-13T05:53:49Z</time>
      </trkpt>
      <trkpt lat="46.16602" lon="6.07969">
        <ele>409.4</ele>
        <time>2019-09-13T05:53:51Z</time>
      </trkpt>
      <trkpt lat="46.16605" lon="6.07974">
        <ele>409.2</ele>
        <time>2019-09-13T05:53:53Z</time>
      </trkpt>
      <trkpt lat="46.16607" lon="6.07981">
        <ele>408.9</ele>
        <time>2019-09-13T05:53:55Z</time>
      </trkpt>
      <trkpt lat="46.16609" lon="6.07989">
        <ele>408.7</ele>
        <time>2019-09-13T05:53:57Z</time>
      </trkpt>
      <trkpt lat="46.1661" lon="6.07993">
        <ele>408.6</ele>
        <time>2019-09-13T05:53:58Z</time>
      </trkpt>
      <trkpt lat="46.1661" lon="6.07997">
        <ele>408.4</ele>
        <time>2019-09-13T05:53:59Z</time>
      </trkpt>
      <trkpt lat="46.16611" lon="6.08">
        <ele>408.3</ele>
        <time>2019-09-13T05:54:00Z</time>
      </trkpt>
      <trkpt lat="46.16613" lon="6.08007">
        <ele>408.1</ele>
        <time>2019-09-13T05:54:02Z</time>
      </trkpt>
      <trkpt lat="46.16615" lon="6.08014">
        <ele>407.8</ele>
        <time>2019-09-13T05:54:04Z</time>
      </trkpt>
      <trkpt lat="46.16618" lon="6.0802">
        <ele>407.7</ele>
        <time>2019-09-13T05:54:06Z</time>
      </trkpt>
      <trkpt lat="46.16619" lon="6.08024">
        <ele>407.7</ele>
        <time>2019-09-13T05:54:07Z</time>
      </trkpt>
      <trkpt lat="46.16622" lon="6.0803">
        <ele>407.6</ele>
        <time>2019-09-13T05:54:09Z</time>
      </trkpt>
      <trkpt lat="46.16625" lon="6.08036">
        <ele>407.5</ele>
        <time>2019-09-13T05:54:11Z</time>
      </trkpt>
      <trkpt lat="46.16627" lon="6.0804">
        <ele>407.5</ele>
        <time>2019-09-13T05:54:12Z</time>
      </trkpt>
      <trkpt lat="46.16628" lon="6.08043">
        <ele>407.5</ele>
        <time>2019-09-13T05:54:13Z</time>
      </trkpt>
      <trkpt lat="46.1663" lon="6.08046">
        <ele>407.4</ele>
        <time>2019-09-13T05:54:14Z</time>
      </trkpt>
      <trkpt lat="46.16631" lon="6.0805">
        <ele>407.4</ele>
        <time>2019-09-13T05:54:15Z</time>
      </trkpt>
      <trkpt lat="46.16633" lon="6.08053">
        <ele>407.4</ele>
        <time>2019-09-13T05:54:16Z</time>
      </trkpt>
      <trkpt lat="46.16634" lon="6.08057">
        <ele>407.5</ele>
        <time>2019-09-13T05:54:17Z</time>
      </trkpt>
      <trkpt lat="46.16635" lon="6.08061">
        <ele>407.6</ele>
        <time>2019-09-13T05:54:18Z</time>
      </trkpt>
      <trkpt lat="46.16637" lon="6.08064">
        <ele>407.6</ele>
        <time>2019-09-13T05:54:19Z</time>
      </trkpt>
      <trkpt lat="46.16638" lon="6.08068">
        <ele>407.7</ele>
        <time>2019-09-13T05:54:20Z</time>
      </trkpt>
      <trkpt lat="46.1664" lon="6.08074">
        <ele>407.8</ele>
        <time>2019-09-13T05:54:22Z</time>
      </trkpt>
      <trkpt lat="46.16642" lon="6.08078">
        <ele>407.9</ele>
        <time>2019-09-13T05:54:23Z</time>
      </trkpt>
      <trkpt lat="46.16643" lon="6.08081">
        <ele>408</ele>
        <time>2019-09-13T05:54:24Z</time>
      </trkpt>
      <trkpt lat="46.16645" lon="6.08084">
        <ele>408</ele>
        <time>2019-09-13T05:54:25Z</time>
      </trkpt>
      <trkpt lat="46.16647" lon="6.08091">
        <ele>408.1</ele>
        <time>2019-09-13T05:54:27Z</time>
      </trkpt>
      <trkpt lat="46.16649" lon="6.08094">
        <ele>408.1</ele>
        <time>2019-09-13T05:54:28Z</time>
      </trkpt>
      <trkpt lat="46.1665" lon="6.08098">
        <ele>408.1</ele>
        <time>2019-09-13T05:54:29Z</time>
      </trkpt>
      <trkpt lat="46.16652" lon="6.08102">
        <ele>408.1</ele>
        <time>2019-09-13T05:54:30Z</time>
      </trkpt>
      <trkpt lat="46.16653" lon="6.08105">
        <ele>408.1</ele>
        <time>2019-09-13T05:54:31Z</time>
      </trkpt>
      <trkpt lat="46.16654" lon="6.08109">
        <ele>408.1</ele>
        <time>2019-09-13T05:54:32Z</time>
      </trkpt>
      <trkpt lat="46.16656" lon="6.08113">
        <ele>408.1</ele>
        <time>2019-09-13T05:54:33Z</time>
      </trkpt>
      <trkpt lat="46.16657" lon="6.08116">
        <ele>408.1</ele>
        <time>2019-09-13T05:54:34Z</time>
      </trkpt>
      <trkpt lat="46.1666" lon="6.08122">
        <ele>408.1</ele>
        <time>2019-09-13T05:54:36Z</time>
      </trkpt>
      <trkpt lat="46.16662" lon="6.08125">
        <ele>408.1</ele>
        <time>2019-09-13T05:54:37Z</time>
      </trkpt>
      <trkpt lat="46.16664" lon="6.08128">
        <ele>408.1</ele>
        <time>2019-09-13T05:54:38Z</time>
      </trkpt>
      <trkpt lat="46.16668" lon="6.08134">
        <ele>408.3</ele>
        <time>2019-09-13T05:54:40Z</time>
      </trkpt>
      <trkpt lat="46.1667" lon="6.08137">
        <ele>408.4</ele>
        <time>2019-09-13T05:54:41Z</time>
      </trkpt>
      <trkpt lat="46.16671" lon="6.0814">
        <ele>408.6</ele>
        <time>2019-09-13T05:54:42Z</time>
      </trkpt>
      <trkpt lat="46.16675" lon="6.08146">
        <ele>408.6</ele>
        <time>2019-09-13T05:54:44Z</time>
      </trkpt>
      <trkpt lat="46.16677" lon="6.08148">
        <ele>408.7</ele>
        <time>2019-09-13T05:54:45Z</time>
      </trkpt>
      <trkpt lat="46.16681" lon="6.08154">
        <ele>408.9</ele>
        <time>2019-09-13T05:54:47Z</time>
      </trkpt>
      <trkpt lat="46.16684" lon="6.08159">
        <ele>408.9</ele>
        <time>2019-09-13T05:54:49Z</time>
      </trkpt>
      <trkpt lat="46.16688" lon="6.08164">
        <ele>408.9</ele>
        <time>2019-09-13T05:54:51Z</time>
      </trkpt>
      <trkpt lat="46.1669" lon="6.0817">
        <ele>408.9</ele>
        <time>2019-09-13T05:54:53Z</time>
      </trkpt>
      <trkpt lat="46.16693" lon="6.08176">
        <ele>408.9</ele>
        <time>2019-09-13T05:54:55Z</time>
      </trkpt>
      <trkpt lat="46.16694" lon="6.0818">
        <ele>409</ele>
        <time>2019-09-13T05:54:56Z</time>
      </trkpt>
      <trkpt lat="46.16696" lon="6.08183">
        <ele>409</ele>
        <time>2019-09-13T05:54:57Z</time>
      </trkpt>
      <trkpt lat="46.16697" lon="6.08187">
        <ele>409</ele>
        <time>2019-09-13T05:54:58Z</time>
      </trkpt>
      <trkpt lat="46.16698" lon="6.08191">
        <ele>409</ele>
        <time>2019-09-13T05:54:59Z</time>
      </trkpt>
      <trkpt lat="46.167" lon="6.08194">
        <ele>409</ele>
        <time>2019-09-13T05:55:00Z</time>
      </trkpt>
      <trkpt lat="46.16701" lon="6.08197">
        <ele>409</ele>
        <time>2019-09-13T05:55:01Z</time>
      </trkpt>
      <trkpt lat="46.16704" lon="6.08203">
        <ele>409</ele>
        <time>2019-09-13T05:55:03Z</time>
      </trkpt>
      <trkpt lat="46.16706" lon="6.08207">
        <ele>409</ele>
        <time>2019-09-13T05:55:04Z</time>
      </trkpt>
      <trkpt lat="46.16708" lon="6.0821">
        <ele>409</ele>
        <time>2019-09-13T05:55:05Z</time>
      </trkpt>
      <trkpt lat="46.16709" lon="6.08213">
        <ele>409</ele>
        <time>2019-09-13T05:55:06Z</time>
      </trkpt>
      <trkpt lat="46.16711" lon="6.08217">
        <ele>409</ele>
        <time>2019-09-13T05:55:07Z</time>
      </trkpt>
      <trkpt lat="46.16712" lon="6.0822">
        <ele>409</ele>
        <time>2019-09-13T05:55:08Z</time>
      </trkpt>
      <trkpt lat="46.16713" lon="6.08224">
        <ele>409</ele>
        <time>2019-09-13T05:55:09Z</time>
      </trkpt>
      <trkpt lat="46.16714" lon="6.08228">
        <ele>409</ele>
        <time>2019-09-13T05:55:10Z</time>
      </trkpt>
      <trkpt lat="46.16716" lon="6.08232">
        <ele>409</ele>
        <time>2019-09-13T05:55:11Z</time>
      </trkpt>
      <trkpt lat="46.16717" lon="6.08235">
        <ele>409</ele>
        <time>2019-09-13T05:55:12Z</time>
      </trkpt>
      <trkpt lat="46.16719" lon="6.08241">
        <ele>409</ele>
        <time>2019-09-13T05:55:14Z</time>
      </trkpt>
      <trkpt lat="46.16721" lon="6.08246">
        <ele>409</ele>
        <time>2019-09-13T05:55:16Z</time>
      </trkpt>
      <trkpt lat="46.16723" lon="6.08252">
        <ele>409.1</ele>
        <time>2019-09-13T05:55:18Z</time>
      </trkpt>
      <trkpt lat="46.16724" lon="6.08257">
        <ele>409.1</ele>
        <time>2019-09-13T05:55:20Z</time>
      </trkpt>
      <trkpt lat="46.16726" lon="6.08264">
        <ele>409.2</ele>
        <time>2019-09-13T05:55:22Z</time>
      </trkpt>
      <trkpt lat="46.16729" lon="6.0827">
        <ele>409.2</ele>
        <time>2019-09-13T05:55:24Z</time>
      </trkpt>
      <trkpt lat="46.16731" lon="6.08273">
        <ele>409.3</ele>
        <time>2019-09-13T05:55:25Z</time>
      </trkpt>
      <trkpt lat="46.16733" lon="6.0828">
        <ele>409.3</ele>
        <time>2019-09-13T05:55:27Z</time>
      </trkpt>
      <trkpt lat="46.16734" lon="6.08283">
        <ele>409.4</ele>
        <time>2019-09-13T05:55:28Z</time>
      </trkpt>
      <trkpt lat="46.16736" lon="6.08287">
        <ele>409.4</ele>
        <time>2019-09-13T05:55:29Z</time>
      </trkpt>
      <trkpt lat="46.16737" lon="6.0829">
        <ele>409.4</ele>
        <time>2019-09-13T05:55:30Z</time>
      </trkpt>
      <trkpt lat="46.16738" lon="6.08294">
        <ele>409.5</ele>
        <time>2019-09-13T05:55:31Z</time>
      </trkpt>
      <trkpt lat="46.16741" lon="6.08301">
        <ele>409.6</ele>
        <time>2019-09-13T05:55:33Z</time>
      </trkpt>
      <trkpt lat="46.16742" lon="6.08304">
        <ele>409.6</ele>
        <time>2019-09-13T05:55:34Z</time>
      </trkpt>
      <trkpt lat="46.16744" lon="6.08308">
        <ele>409.6</ele>
        <time>2019-09-13T05:55:35Z</time>
      </trkpt>
      <trkpt lat="46.16745" lon="6.08311">
        <ele>409.8</ele>
        <time>2019-09-13T05:55:36Z</time>
      </trkpt>
      <trkpt lat="46.16749" lon="6.08318">
        <ele>409.9</ele>
        <time>2019-09-13T05:55:38Z</time>
      </trkpt>
      <trkpt lat="46.16751" lon="6.08322">
        <ele>410</ele>
        <time>2019-09-13T05:55:39Z</time>
      </trkpt>
      <trkpt lat="46.16753" lon="6.08325">
        <ele>410.2</ele>
        <time>2019-09-13T05:55:40Z</time>
      </trkpt>
      <trkpt lat="46.16756" lon="6.08331">
        <ele>410.1</ele>
        <time>2019-09-13T05:55:42Z</time>
      </trkpt>
      <trkpt lat="46.16759" lon="6.08337">
        <ele>410.1</ele>
        <time>2019-09-13T05:55:44Z</time>
      </trkpt>
      <trkpt lat="46.1676" lon="6.0834">
        <ele>410.1</ele>
        <time>2019-09-13T05:55:45Z</time>
      </trkpt>
      <trkpt lat="46.16762" lon="6.08344">
        <ele>410.1</ele>
        <time>2019-09-13T05:55:46Z</time>
      </trkpt>
      <trkpt lat="46.16763" lon="6.08347">
        <ele>410.1</ele>
        <time>2019-09-13T05:55:47Z</time>
      </trkpt>
      <trkpt lat="46.16766" lon="6.08354">
        <ele>410</ele>
        <time>2019-09-13T05:55:49Z</time>
      </trkpt>
      <trkpt lat="46.16768" lon="6.0836">
        <ele>410</ele>
        <time>2019-09-13T05:55:51Z</time>
      </trkpt>
      <trkpt lat="46.16772" lon="6.08365">
        <ele>410</ele>
        <time>2019-09-13T05:55:53Z</time>
      </trkpt>
      <trkpt lat="46.16773" lon="6.08368">
        <ele>409.9</ele>
        <time>2019-09-13T05:55:54Z</time>
      </trkpt>
      <trkpt lat="46.16775" lon="6.08372">
        <ele>409.9</ele>
        <time>2019-09-13T05:55:55Z</time>
      </trkpt>
      <trkpt lat="46.16777" lon="6.08375">
        <ele>409.9</ele>
        <time>2019-09-13T05:55:56Z</time>
      </trkpt>
      <trkpt lat="46.1678" lon="6.08381">
        <ele>409.5</ele>
        <time>2019-09-13T05:55:58Z</time>
      </trkpt>
      <trkpt lat="46.16782" lon="6.08387">
        <ele>409.1</ele>
        <time>2019-09-13T05:56:00Z</time>
      </trkpt>
      <trkpt lat="46.16785" lon="6.08393">
        <ele>408.8</ele>
        <time>2019-09-13T05:56:02Z</time>
      </trkpt>
      <trkpt lat="46.16788" lon="6.084">
        <ele>408.5</ele>
        <time>2019-09-13T05:56:04Z</time>
      </trkpt>
      <trkpt lat="46.16791" lon="6.08406">
        <ele>408.2</ele>
        <time>2019-09-13T05:56:06Z</time>
      </trkpt>
      <trkpt lat="46.16793" lon="6.08412">
        <ele>407.9</ele>
        <time>2019-09-13T05:56:08Z</time>
      </trkpt>
      <trkpt lat="46.16796" lon="6.08418">
        <ele>407.6</ele>
        <time>2019-09-13T05:56:10Z</time>
      </trkpt>
      <trkpt lat="46.16799" lon="6.08425">
        <ele>407.4</ele>
        <time>2019-09-13T05:56:12Z</time>
      </trkpt>
      <trkpt lat="46.16801" lon="6.08429">
        <ele>407.3</ele>
        <time>2019-09-13T05:56:13Z</time>
      </trkpt>
      <trkpt lat="46.16802" lon="6.08433">
        <ele>407.2</ele>
        <time>2019-09-13T05:56:14Z</time>
      </trkpt>
      <trkpt lat="46.16803" lon="6.08437">
        <ele>407.1</ele>
        <time>2019-09-13T05:56:15Z</time>
      </trkpt>
      <trkpt lat="46.16805" lon="6.08442">
        <ele>407</ele>
        <time>2019-09-13T05:56:17Z</time>
      </trkpt>
      <trkpt lat="46.16808" lon="6.08447">
        <ele>407</ele>
        <time>2019-09-13T05:56:19Z</time>
      </trkpt>
      <trkpt lat="46.1681" lon="6.0845">
        <ele>406.9</ele>
        <time>2019-09-13T05:56:20Z</time>
      </trkpt>
      <trkpt lat="46.16812" lon="6.08453">
        <ele>406.9</ele>
        <time>2019-09-13T05:56:21Z</time>
      </trkpt>
      <trkpt lat="46.16814" lon="6.08456">
        <ele>406.9</ele>
        <time>2019-09-13T05:56:22Z</time>
      </trkpt>
      <trkpt lat="46.16816" lon="6.08459">
        <ele>406.9</ele>
        <time>2019-09-13T05:56:23Z</time>
      </trkpt>
      <trkpt lat="46.16818" lon="6.08462">
        <ele>406.9</ele>
        <time>2019-09-13T05:56:24Z</time>
      </trkpt>
      <trkpt lat="46.16822" lon="6.08467">
        <ele>406.9</ele>
        <time>2019-09-13T05:56:26Z</time>
      </trkpt>
      <trkpt lat="46.16824" lon="6.08472">
        <ele>406.9</ele>
        <time>2019-09-13T05:56:28Z</time>
      </trkpt>
      <trkpt lat="46.16824" lon="6.08478">
        <ele>406.9</ele>
        <time>2019-09-13T05:56:39Z</time>
      </trkpt>
      <trkpt lat="46.16826" lon="6.08485">
        <ele>406.7</ele>
        <time>2019-09-13T05:56:41Z</time>
      </trkpt>
      <trkpt lat="46.16827" lon="6.08489">
        <ele>406.7</ele>
        <time>2019-09-13T05:56:42Z</time>
      </trkpt>
      <trkpt lat="46.16828" lon="6.08493">
        <ele>406.6</ele>
        <time>2019-09-13T05:56:43Z</time>
      </trkpt>
      <trkpt lat="46.1683" lon="6.08496">
        <ele>406.5</ele>
        <time>2019-09-13T05:56:44Z</time>
      </trkpt>
      <trkpt lat="46.16833" lon="6.08502">
        <ele>406.3</ele>
        <time>2019-09-13T05:56:46Z</time>
      </trkpt>
      <trkpt lat="46.16835" lon="6.08505">
        <ele>406.3</ele>
        <time>2019-09-13T05:56:47Z</time>
      </trkpt>
      <trkpt lat="46.16837" lon="6.08509">
        <ele>406.2</ele>
        <time>2019-09-13T05:56:48Z</time>
      </trkpt>
      <trkpt lat="46.16838" lon="6.08512">
        <ele>406.1</ele>
        <time>2019-09-13T05:56:49Z</time>
      </trkpt>
      <trkpt lat="46.1684" lon="6.08518">
        <ele>406</ele>
        <time>2019-09-13T05:56:51Z</time>
      </trkpt>
      <trkpt lat="46.16843" lon="6.08525">
        <ele>405.8</ele>
        <time>2019-09-13T05:56:53Z</time>
      </trkpt>
      <trkpt lat="46.16845" lon="6.08528">
        <ele>405.8</ele>
        <time>2019-09-13T05:56:54Z</time>
      </trkpt>
      <trkpt lat="46.16846" lon="6.08532">
        <ele>405.7</ele>
        <time>2019-09-13T05:56:55Z</time>
      </trkpt>
      <trkpt lat="46.16847" lon="6.08536">
        <ele>405.6</ele>
        <time>2019-09-13T05:56:56Z</time>
      </trkpt>
      <trkpt lat="46.1685" lon="6.08541">
        <ele>405.5</ele>
        <time>2019-09-13T05:56:58Z</time>
      </trkpt>
      <trkpt lat="46.16852" lon="6.08547">
        <ele>405.5</ele>
        <time>2019-09-13T05:57:00Z</time>
      </trkpt>
      <trkpt lat="46.16855" lon="6.08552">
        <ele>405.4</ele>
        <time>2019-09-13T05:57:02Z</time>
      </trkpt>
      <trkpt lat="46.16857" lon="6.08557">
        <ele>405.3</ele>
        <time>2019-09-13T05:57:04Z</time>
      </trkpt>
      <trkpt lat="46.16859" lon="6.08562">
        <ele>405.2</ele>
        <time>2019-09-13T05:57:06Z</time>
      </trkpt>
      <trkpt lat="46.16862" lon="6.08569">
        <ele>405.1</ele>
        <time>2019-09-13T05:57:08Z</time>
      </trkpt>
      <trkpt lat="46.16864" lon="6.08576">
        <ele>405</ele>
        <time>2019-09-13T05:57:10Z</time>
      </trkpt>
      <trkpt lat="46.16867" lon="6.08582">
        <ele>404.9</ele>
        <time>2019-09-13T05:57:12Z</time>
      </trkpt>
      <trkpt lat="46.16869" lon="6.08589">
        <ele>404.8</ele>
        <time>2019-09-13T05:57:14Z</time>
      </trkpt>
      <trkpt lat="46.16871" lon="6.08596">
        <ele>404.7</ele>
        <time>2019-09-13T05:57:16Z</time>
      </trkpt>
      <trkpt lat="46.16873" lon="6.08603">
        <ele>404.6</ele>
        <time>2019-09-13T05:57:18Z</time>
      </trkpt>
      <trkpt lat="46.16874" lon="6.08606">
        <ele>404.5</ele>
        <time>2019-09-13T05:57:19Z</time>
      </trkpt>
      <trkpt lat="46.16875" lon="6.0861">
        <ele>404.5</ele>
        <time>2019-09-13T05:57:20Z</time>
      </trkpt>
      <trkpt lat="46.16877" lon="6.08613">
        <ele>404.4</ele>
        <time>2019-09-13T05:57:21Z</time>
      </trkpt>
      <trkpt lat="46.16878" lon="6.08617">
        <ele>404.3</ele>
        <time>2019-09-13T05:57:22Z</time>
      </trkpt>
      <trkpt lat="46.1688" lon="6.08622">
        <ele>404.3</ele>
        <time>2019-09-13T05:57:23Z</time>
      </trkpt>
      <trkpt lat="46.16881" lon="6.08627">
        <ele>404.2</ele>
        <time>2019-09-13T05:57:24Z</time>
      </trkpt>
      <trkpt lat="46.16882" lon="6.08631">
        <ele>404.2</ele>
        <time>2019-09-13T05:57:25Z</time>
      </trkpt>
      <trkpt lat="46.16884" lon="6.08638">
        <ele>404.1</ele>
        <time>2019-09-13T05:57:27Z</time>
      </trkpt>
      <trkpt lat="46.16886" lon="6.08645">
        <ele>404.1</ele>
        <time>2019-09-13T05:57:29Z</time>
      </trkpt>
      <trkpt lat="46.16888" lon="6.08651">
        <ele>404</ele>
        <time>2019-09-13T05:57:31Z</time>
      </trkpt>
      <trkpt lat="46.1689" lon="6.08657">
        <ele>404</ele>
        <time>2019-09-13T05:57:33Z</time>
      </trkpt>
      <trkpt lat="46.16894" lon="6.08662">
        <ele>404</ele>
        <time>2019-09-13T05:57:35Z</time>
      </trkpt>
      <trkpt lat="46.16898" lon="6.08667">
        <ele>404</ele>
        <time>2019-09-13T05:57:37Z</time>
      </trkpt>
      <trkpt lat="46.16901" lon="6.08672">
        <ele>403.9</ele>
        <time>2019-09-13T05:57:39Z</time>
      </trkpt>
      <trkpt lat="46.16904" lon="6.08678">
        <ele>403.9</ele>
        <time>2019-09-13T05:57:41Z</time>
      </trkpt>
      <trkpt lat="46.16906" lon="6.08683">
        <ele>403.9</ele>
        <time>2019-09-13T05:57:43Z</time>
      </trkpt>
      <trkpt lat="46.16909" lon="6.08688">
        <ele>403.9</ele>
        <time>2019-09-13T05:57:45Z</time>
      </trkpt>
      <trkpt lat="46.16912" lon="6.08694">
        <ele>403.9</ele>
        <time>2019-09-13T05:57:47Z</time>
      </trkpt>
      <trkpt lat="46.16915" lon="6.087">
        <ele>403.9</ele>
        <time>2019-09-13T05:57:49Z</time>
      </trkpt>
      <trkpt lat="46.16917" lon="6.08703">
        <ele>403.8</ele>
        <time>2019-09-13T05:57:50Z</time>
      </trkpt>
      <trkpt lat="46.16919" lon="6.08707">
        <ele>403.8</ele>
        <time>2019-09-13T05:57:51Z</time>
      </trkpt>
      <trkpt lat="46.1692" lon="6.0871">
        <ele>403.7</ele>
        <time>2019-09-13T05:57:52Z</time>
      </trkpt>
      <trkpt lat="46.16923" lon="6.08716">
        <ele>403.6</ele>
        <time>2019-09-13T05:57:54Z</time>
      </trkpt>
      <trkpt lat="46.16926" lon="6.08723">
        <ele>403.5</ele>
        <time>2019-09-13T05:57:56Z</time>
      </trkpt>
      <trkpt lat="46.16928" lon="6.08729">
        <ele>403.4</ele>
        <time>2019-09-13T05:57:58Z</time>
      </trkpt>
      <trkpt lat="46.16931" lon="6.08736">
        <ele>403.3</ele>
        <time>2019-09-13T05:58:00Z</time>
      </trkpt>
      <trkpt lat="46.16934" lon="6.08742">
        <ele>403.2</ele>
        <time>2019-09-13T05:58:02Z</time>
      </trkpt>
      <trkpt lat="46.16937" lon="6.08749">
        <ele>403.1</ele>
        <time>2019-09-13T05:58:04Z</time>
      </trkpt>
      <trkpt lat="46.1694" lon="6.08755">
        <ele>403</ele>
        <time>2019-09-13T05:58:06Z</time>
      </trkpt>
      <trkpt lat="46.16941" lon="6.08759">
        <ele>402.9</ele>
        <time>2019-09-13T05:58:07Z</time>
      </trkpt>
      <trkpt lat="46.16942" lon="6.08763">
        <ele>402.8</ele>
        <time>2019-09-13T05:58:08Z</time>
      </trkpt>
      <trkpt lat="46.16944" lon="6.08767">
        <ele>402.8</ele>
        <time>2019-09-13T05:58:09Z</time>
      </trkpt>
      <trkpt lat="46.16945" lon="6.0877">
        <ele>402.7</ele>
        <time>2019-09-13T05:58:10Z</time>
      </trkpt>
      <trkpt lat="46.16947" lon="6.08774">
        <ele>402.7</ele>
        <time>2019-09-13T05:58:11Z</time>
      </trkpt>
      <trkpt lat="46.16948" lon="6.08777">
        <ele>402.6</ele>
        <time>2019-09-13T05:58:12Z</time>
      </trkpt>
      <trkpt lat="46.16951" lon="6.08783">
        <ele>402.5</ele>
        <time>2019-09-13T05:58:14Z</time>
      </trkpt>
      <trkpt lat="46.16953" lon="6.08789">
        <ele>402.4</ele>
        <time>2019-09-13T05:58:16Z</time>
      </trkpt>
      <trkpt lat="46.16956" lon="6.08795">
        <ele>402.3</ele>
        <time>2019-09-13T05:58:18Z</time>
      </trkpt>
      <trkpt lat="46.16959" lon="6.08802">
        <ele>402.2</ele>
        <time>2019-09-13T05:58:20Z</time>
      </trkpt>
      <trkpt lat="46.16961" lon="6.08807">
        <ele>402</ele>
        <time>2019-09-13T05:58:22Z</time>
      </trkpt>
      <trkpt lat="46.16964" lon="6.08813">
        <ele>401.9</ele>
        <time>2019-09-13T05:58:24Z</time>
      </trkpt>
      <trkpt lat="46.16966" lon="6.08819">
        <ele>401.7</ele>
        <time>2019-09-13T05:58:26Z</time>
      </trkpt>
      <trkpt lat="46.16968" lon="6.08823">
        <ele>401.7</ele>
        <time>2019-09-13T05:58:27Z</time>
      </trkpt>
      <trkpt lat="46.16969" lon="6.08826">
        <ele>401.6</ele>
        <time>2019-09-13T05:58:28Z</time>
      </trkpt>
      <trkpt lat="46.1697" lon="6.0883">
        <ele>401.5</ele>
        <time>2019-09-13T05:58:29Z</time>
      </trkpt>
      <trkpt lat="46.16972" lon="6.08833">
        <ele>401.4</ele>
        <time>2019-09-13T05:58:30Z</time>
      </trkpt>
      <trkpt lat="46.16974" lon="6.0884">
        <ele>401.3</ele>
        <time>2019-09-13T05:58:32Z</time>
      </trkpt>
      <trkpt lat="46.16977" lon="6.08846">
        <ele>401</ele>
        <time>2019-09-13T05:58:34Z</time>
      </trkpt>
      <trkpt lat="46.1698" lon="6.08852">
        <ele>400.8</ele>
        <time>2019-09-13T05:58:36Z</time>
      </trkpt>
      <trkpt lat="46.16981" lon="6.08855">
        <ele>400.7</ele>
        <time>2019-09-13T05:58:37Z</time>
      </trkpt>
      <trkpt lat="46.16985" lon="6.08862">
        <ele>400.5</ele>
        <time>2019-09-13T05:58:39Z</time>
      </trkpt>
      <trkpt lat="46.16987" lon="6.08865">
        <ele>400.4</ele>
        <time>2019-09-13T05:58:40Z</time>
      </trkpt>
      <trkpt lat="46.16988" lon="6.08869">
        <ele>400.3</ele>
        <time>2019-09-13T05:58:41Z</time>
      </trkpt>
      <trkpt lat="46.1699" lon="6.08872">
        <ele>400.2</ele>
        <time>2019-09-13T05:58:42Z</time>
      </trkpt>
      <trkpt lat="46.16992" lon="6.08875">
        <ele>400</ele>
        <time>2019-09-13T05:58:43Z</time>
      </trkpt>
      <trkpt lat="46.16993" lon="6.08879">
        <ele>399.9</ele>
        <time>2019-09-13T05:58:44Z</time>
      </trkpt>
      <trkpt lat="46.16995" lon="6.08883">
        <ele>399.8</ele>
        <time>2019-09-13T05:58:45Z</time>
      </trkpt>
      <trkpt lat="46.16997" lon="6.08886">
        <ele>399.7</ele>
        <time>2019-09-13T05:58:46Z</time>
      </trkpt>
      <trkpt lat="46.16998" lon="6.08889">
        <ele>399.7</ele>
        <time>2019-09-13T05:58:47Z</time>
      </trkpt>
      <trkpt lat="46.17001" lon="6.08896">
        <ele>399.6</ele>
        <time>2019-09-13T05:58:49Z</time>
      </trkpt>
      <trkpt lat="46.17004" lon="6.08902">
        <ele>399.6</ele>
        <time>2019-09-13T05:58:51Z</time>
      </trkpt>
      <trkpt lat="46.17006" lon="6.08905">
        <ele>399.7</ele>
        <time>2019-09-13T05:58:52Z</time>
      </trkpt>
      <trkpt lat="46.17008" lon="6.08908">
        <ele>399.8</ele>
        <time>2019-09-13T05:58:53Z</time>
      </trkpt>
      <trkpt lat="46.17011" lon="6.08914">
        <ele>400.1</ele>
        <time>2019-09-13T05:58:55Z</time>
      </trkpt>
      <trkpt lat="46.17014" lon="6.0892">
        <ele>400.4</ele>
        <time>2019-09-13T05:58:57Z</time>
      </trkpt>
      <trkpt lat="46.17017" lon="6.08924">
        <ele>400.8</ele>
        <time>2019-09-13T05:58:59Z</time>
      </trkpt>
      <trkpt lat="46.1702" lon="6.08929">
        <ele>401.1</ele>
        <time>2019-09-13T05:59:01Z</time>
      </trkpt>
      <trkpt lat="46.17023" lon="6.08933">
        <ele>401.5</ele>
        <time>2019-09-13T05:59:03Z</time>
      </trkpt>
      <trkpt lat="46.17025" lon="6.08939">
        <ele>401.8</ele>
        <time>2019-09-13T05:59:05Z</time>
      </trkpt>
      <trkpt lat="46.17026" lon="6.08945">
        <ele>402.2</ele>
        <time>2019-09-13T05:59:07Z</time>
      </trkpt>
      <trkpt lat="46.17026" lon="6.08951">
        <ele>402.6</ele>
        <time>2019-09-13T05:59:09Z</time>
      </trkpt>
      <trkpt lat="46.17024" lon="6.08956">
        <ele>402.6</ele>
        <time>2019-09-13T05:59:11Z</time>
      </trkpt>
      <trkpt lat="46.17021" lon="6.08961">
        <ele>402.7</ele>
        <time>2019-09-13T05:59:13Z</time>
      </trkpt>
      <trkpt lat="46.17018" lon="6.08963">
        <ele>402.7</ele>
        <time>2019-09-13T05:59:15Z</time>
      </trkpt>
      <trkpt lat="46.17016" lon="6.08959">
        <ele>402.8</ele>
        <time>2019-09-13T05:59:21Z</time>
      </trkpt>
      <trkpt lat="46.17016" lon="6.08963">
        <ele>402.8</ele>
        <time>2019-09-13T05:59:30Z</time>
      </trkpt>
      <trkpt lat="46.17012" lon="6.08966">
        <ele>402.8</ele>
        <time>2019-09-13T05:59:32Z</time>
      </trkpt>
      <trkpt lat="46.17008" lon="6.08968">
        <ele>403</ele>
        <time>2019-09-13T05:59:34Z</time>
      </trkpt>
      <trkpt lat="46.17004" lon="6.08971">
        <ele>403.1</ele>
        <time>2019-09-13T05:59:36Z</time>
      </trkpt>
      <trkpt lat="46.17" lon="6.08975">
        <ele>403.1</ele>
        <time>2019-09-13T05:59:38Z</time>
      </trkpt>
      <trkpt lat="46.16996" lon="6.08978">
        <ele>403.2</ele>
        <time>2019-09-13T05:59:40Z</time>
      </trkpt>
      <trkpt lat="46.16993" lon="6.08983">
        <ele>403.3</ele>
        <time>2019-09-13T05:59:42Z</time>
      </trkpt>
      <trkpt lat="46.16993" lon="6.08989">
        <ele>403.3</ele>
        <time>2019-09-13T05:59:44Z</time>
      </trkpt>
      <trkpt lat="46.16993" lon="6.08993">
        <ele>403.3</ele>
        <time>2019-09-13T05:59:45Z</time>
      </trkpt>
      <trkpt lat="46.16995" lon="6.08997">
        <ele>403.3</ele>
        <time>2019-09-13T05:59:46Z</time>
      </trkpt>
      <trkpt lat="46.16996" lon="6.09">
        <ele>403.4</ele>
        <time>2019-09-13T05:59:47Z</time>
      </trkpt>
      <trkpt lat="46.16998" lon="6.09003">
        <ele>403.4</ele>
        <time>2019-09-13T05:59:48Z</time>
      </trkpt>
      <trkpt lat="46.17001" lon="6.09006">
        <ele>403.4</ele>
        <time>2019-09-13T05:59:49Z</time>
      </trkpt>
      <trkpt lat="46.17003" lon="6.0901">
        <ele>403.4</ele>
        <time>2019-09-13T05:59:50Z</time>
      </trkpt>
      <trkpt lat="46.17005" lon="6.09013">
        <ele>403.4</ele>
        <time>2019-09-13T05:59:51Z</time>
      </trkpt>
      <trkpt lat="46.17007" lon="6.09016">
        <ele>403.4</ele>
        <time>2019-09-13T05:59:52Z</time>
      </trkpt>
      <trkpt lat="46.17009" lon="6.09019">
        <ele>403.4</ele>
        <time>2019-09-13T05:59:53Z</time>
      </trkpt>
      <trkpt lat="46.17011" lon="6.09022">
        <ele>403.5</ele>
        <time>2019-09-13T05:59:54Z</time>
      </trkpt>
      <trkpt lat="46.17012" lon="6.09025">
        <ele>403.5</ele>
        <time>2019-09-13T05:59:55Z</time>
      </trkpt>
      <trkpt lat="46.17015" lon="6.09031">
        <ele>403.5</ele>
        <time>2019-09-13T05:59:57Z</time>
      </trkpt>
      <trkpt lat="46.17019" lon="6.09035">
        <ele>403.5</ele>
        <time>2019-09-13T05:59:59Z</time>
      </trkpt>
      <trkpt lat="46.17022" lon="6.09033">
        <ele>403.5</ele>
        <time>2019-09-13T06:00:01Z</time>
      </trkpt>
      <trkpt lat="46.17024" lon="6.0903">
        <ele>403.4</ele>
        <time>2019-09-13T06:00:03Z</time>
      </trkpt>
      <trkpt lat="46.17027" lon="6.09028">
        <ele>403.3</ele>
        <time>2019-09-13T06:00:05Z</time>
      </trkpt>
      <trkpt lat="46.17031" lon="6.09029">
        <ele>403.1</ele>
        <time>2019-09-13T06:00:07Z</time>
      </trkpt>
      <trkpt lat="46.17035" lon="6.09035">
        <ele>403.1</ele>
        <time>2019-09-13T06:00:09Z</time>
      </trkpt>
      <trkpt lat="46.17038" lon="6.09041">
        <ele>403.1</ele>
        <time>2019-09-13T06:00:11Z</time>
      </trkpt>
      <trkpt lat="46.1704" lon="6.09045">
        <ele>403.1</ele>
        <time>2019-09-13T06:00:12Z</time>
      </trkpt>
      <trkpt lat="46.17041" lon="6.09048">
        <ele>403.1</ele>
        <time>2019-09-13T06:00:13Z</time>
      </trkpt>
      <trkpt lat="46.17043" lon="6.09056">
        <ele>403.1</ele>
        <time>2019-09-13T06:00:15Z</time>
      </trkpt>
      <trkpt lat="46.17044" lon="6.09059">
        <ele>403.1</ele>
        <time>2019-09-13T06:00:16Z</time>
      </trkpt>
      <trkpt lat="46.17045" lon="6.09064">
        <ele>403.1</ele>
        <time>2019-09-13T06:00:17Z</time>
      </trkpt>
      <trkpt lat="46.17046" lon="6.09067">
        <ele>403.2</ele>
        <time>2019-09-13T06:00:18Z</time>
      </trkpt>
      <trkpt lat="46.17048" lon="6.09071">
        <ele>403.2</ele>
        <time>2019-09-13T06:00:19Z</time>
      </trkpt>
      <trkpt lat="46.17049" lon="6.09074">
        <ele>403.2</ele>
        <time>2019-09-13T06:00:20Z</time>
      </trkpt>
      <trkpt lat="46.17051" lon="6.09078">
        <ele>403.2</ele>
        <time>2019-09-13T06:00:21Z</time>
      </trkpt>
      <trkpt lat="46.17052" lon="6.09082">
        <ele>403.2</ele>
        <time>2019-09-13T06:00:22Z</time>
      </trkpt>
      <trkpt lat="46.17053" lon="6.09085">
        <ele>403.2</ele>
        <time>2019-09-13T06:00:23Z</time>
      </trkpt>
      <trkpt lat="46.17055" lon="6.09089">
        <ele>403.1</ele>
        <time>2019-09-13T06:00:24Z</time>
      </trkpt>
      <trkpt lat="46.17056" lon="6.09092">
        <ele>403.1</ele>
        <time>2019-09-13T06:00:25Z</time>
      </trkpt>
      <trkpt lat="46.17059" lon="6.09098">
        <ele>403</ele>
        <time>2019-09-13T06:00:27Z</time>
      </trkpt>
      <trkpt lat="46.17062" lon="6.09105">
        <ele>402.8</ele>
        <time>2019-09-13T06:00:29Z</time>
      </trkpt>
      <trkpt lat="46.17064" lon="6.09111">
        <ele>402.7</ele>
        <time>2019-09-13T06:00:31Z</time>
      </trkpt>
      <trkpt lat="46.17066" lon="6.09114">
        <ele>402.7</ele>
        <time>2019-09-13T06:00:32Z</time>
      </trkpt>
      <trkpt lat="46.17067" lon="6.09118">
        <ele>402.6</ele>
        <time>2019-09-13T06:00:33Z</time>
      </trkpt>
      <trkpt lat="46.17068" lon="6.09122">
        <ele>402.5</ele>
        <time>2019-09-13T06:00:34Z</time>
      </trkpt>
      <trkpt lat="46.1707" lon="6.09129">
        <ele>402.3</ele>
        <time>2019-09-13T06:00:36Z</time>
      </trkpt>
      <trkpt lat="46.17072" lon="6.09132">
        <ele>402.1</ele>
        <time>2019-09-13T06:00:37Z</time>
      </trkpt>
      <trkpt lat="46.17073" lon="6.09135">
        <ele>402</ele>
        <time>2019-09-13T06:00:38Z</time>
      </trkpt>
      <trkpt lat="46.17075" lon="6.09139">
        <ele>401.9</ele>
        <time>2019-09-13T06:00:39Z</time>
      </trkpt>
      <trkpt lat="46.17078" lon="6.09144">
        <ele>401.6</ele>
        <time>2019-09-13T06:00:41Z</time>
      </trkpt>
      <trkpt lat="46.17081" lon="6.0915">
        <ele>401.4</ele>
        <time>2019-09-13T06:00:43Z</time>
      </trkpt>
      <trkpt lat="46.17082" lon="6.09154">
        <ele>401.3</ele>
        <time>2019-09-13T06:00:44Z</time>
      </trkpt>
      <trkpt lat="46.17084" lon="6.09157">
        <ele>401.2</ele>
        <time>2019-09-13T06:00:45Z</time>
      </trkpt>
      <trkpt lat="46.17087" lon="6.09164">
        <ele>400.9</ele>
        <time>2019-09-13T06:00:47Z</time>
      </trkpt>
      <trkpt lat="46.17089" lon="6.0917">
        <ele>400.8</ele>
        <time>2019-09-13T06:00:49Z</time>
      </trkpt>
      <trkpt lat="46.17092" lon="6.09176">
        <ele>400.4</ele>
        <time>2019-09-13T06:00:51Z</time>
      </trkpt>
      <trkpt lat="46.17095" lon="6.09181">
        <ele>400.3</ele>
        <time>2019-09-13T06:00:53Z</time>
      </trkpt>
      <trkpt lat="46.17097" lon="6.09184">
        <ele>400.3</ele>
        <time>2019-09-13T06:00:54Z</time>
      </trkpt>
      <trkpt lat="46.17098" lon="6.09188">
        <ele>400.2</ele>
        <time>2019-09-13T06:00:55Z</time>
      </trkpt>
      <trkpt lat="46.171" lon="6.09192">
        <ele>400.1</ele>
        <time>2019-09-13T06:00:56Z</time>
      </trkpt>
      <trkpt lat="46.17101" lon="6.09195">
        <ele>400</ele>
        <time>2019-09-13T06:00:57Z</time>
      </trkpt>
      <trkpt lat="46.17102" lon="6.09202">
        <ele>399.8</ele>
        <time>2019-09-13T06:00:59Z</time>
      </trkpt>
      <trkpt lat="46.17104" lon="6.09206">
        <ele>399.7</ele>
        <time>2019-09-13T06:01:00Z</time>
      </trkpt>
      <trkpt lat="46.17105" lon="6.0921">
        <ele>399.6</ele>
        <time>2019-09-13T06:01:01Z</time>
      </trkpt>
      <trkpt lat="46.17108" lon="6.09215">
        <ele>399.3</ele>
        <time>2019-09-13T06:01:03Z</time>
      </trkpt>
      <trkpt lat="46.17111" lon="6.0922">
        <ele>399</ele>
        <time>2019-09-13T06:01:05Z</time>
      </trkpt>
      <trkpt lat="46.17115" lon="6.09226">
        <ele>398.7</ele>
        <time>2019-09-13T06:01:07Z</time>
      </trkpt>
      <trkpt lat="46.17117" lon="6.09229">
        <ele>398.6</ele>
        <time>2019-09-13T06:01:08Z</time>
      </trkpt>
      <trkpt lat="46.17118" lon="6.09232">
        <ele>398.5</ele>
        <time>2019-09-13T06:01:09Z</time>
      </trkpt>
      <trkpt lat="46.1712" lon="6.09236">
        <ele>398.4</ele>
        <time>2019-09-13T06:01:10Z</time>
      </trkpt>
      <trkpt lat="46.17123" lon="6.09242">
        <ele>398.3</ele>
        <time>2019-09-13T06:01:12Z</time>
      </trkpt>
      <trkpt lat="46.17125" lon="6.09246">
        <ele>398.3</ele>
        <time>2019-09-13T06:01:14Z</time>
      </trkpt>
      <trkpt lat="46.17128" lon="6.09251">
        <ele>398.3</ele>
        <time>2019-09-13T06:01:16Z</time>
      </trkpt>
      <trkpt lat="46.17131" lon="6.09256">
        <ele>398.3</ele>
        <time>2019-09-13T06:01:18Z</time>
      </trkpt>
      <trkpt lat="46.17132" lon="6.09262">
        <ele>398.3</ele>
        <time>2019-09-13T06:01:20Z</time>
      </trkpt>
      <trkpt lat="46.17134" lon="6.09268">
        <ele>398.3</ele>
        <time>2019-09-13T06:01:22Z</time>
      </trkpt>
      <trkpt lat="46.17137" lon="6.09276">
        <ele>398.2</ele>
        <time>2019-09-13T06:01:24Z</time>
      </trkpt>
      <trkpt lat="46.17138" lon="6.09283">
        <ele>398.1</ele>
        <time>2019-09-13T06:01:26Z</time>
      </trkpt>
      <trkpt lat="46.1714" lon="6.0929">
        <ele>398.2</ele>
        <time>2019-09-13T06:01:28Z</time>
      </trkpt>
      <trkpt lat="46.17143" lon="6.09296">
        <ele>398.3</ele>
        <time>2019-09-13T06:01:30Z</time>
      </trkpt>
      <trkpt lat="46.17144" lon="6.093">
        <ele>398.3</ele>
        <time>2019-09-13T06:01:31Z</time>
      </trkpt>
      <trkpt lat="46.17147" lon="6.09306">
        <ele>398.4</ele>
        <time>2019-09-13T06:01:33Z</time>
      </trkpt>
      <trkpt lat="46.1715" lon="6.09311">
        <ele>398.5</ele>
        <time>2019-09-13T06:01:35Z</time>
      </trkpt>
      <trkpt lat="46.17153" lon="6.09317">
        <ele>398.6</ele>
        <time>2019-09-13T06:01:37Z</time>
      </trkpt>
      <trkpt lat="46.17156" lon="6.09323">
        <ele>398.7</ele>
        <time>2019-09-13T06:01:39Z</time>
      </trkpt>
      <trkpt lat="46.17158" lon="6.09326">
        <ele>398.8</ele>
        <time>2019-09-13T06:01:40Z</time>
      </trkpt>
      <trkpt lat="46.17161" lon="6.09333">
        <ele>399</ele>
        <time>2019-09-13T06:01:42Z</time>
      </trkpt>
      <trkpt lat="46.17163" lon="6.09339">
        <ele>399.2</ele>
        <time>2019-09-13T06:01:44Z</time>
      </trkpt>
      <trkpt lat="46.17166" lon="6.09344">
        <ele>399.4</ele>
        <time>2019-09-13T06:01:46Z</time>
      </trkpt>
      <trkpt lat="46.1717" lon="6.0935">
        <ele>399.6</ele>
        <time>2019-09-13T06:01:48Z</time>
      </trkpt>
      <trkpt lat="46.17173" lon="6.09356">
        <ele>399.7</ele>
        <time>2019-09-13T06:01:50Z</time>
      </trkpt>
      <trkpt lat="46.17175" lon="6.09362">
        <ele>399.8</ele>
        <time>2019-09-13T06:01:52Z</time>
      </trkpt>
      <trkpt lat="46.17177" lon="6.09369">
        <ele>399.9</ele>
        <time>2019-09-13T06:01:54Z</time>
      </trkpt>
      <trkpt lat="46.17178" lon="6.09372">
        <ele>399.9</ele>
        <time>2019-09-13T06:01:55Z</time>
      </trkpt>
      <trkpt lat="46.17181" lon="6.09378">
        <ele>400</ele>
        <time>2019-09-13T06:01:57Z</time>
      </trkpt>
      <trkpt lat="46.17184" lon="6.09384">
        <ele>400.1</ele>
        <time>2019-09-13T06:01:59Z</time>
      </trkpt>
      <trkpt lat="46.17187" lon="6.0939">
        <ele>400.2</ele>
        <time>2019-09-13T06:02:01Z</time>
      </trkpt>
      <trkpt lat="46.17189" lon="6.09393">
        <ele>400.2</ele>
        <time>2019-09-13T06:02:02Z</time>
      </trkpt>
      <trkpt lat="46.17191" lon="6.094">
        <ele>400.3</ele>
        <time>2019-09-13T06:02:04Z</time>
      </trkpt>
      <trkpt lat="46.17193" lon="6.09407">
        <ele>400.4</ele>
        <time>2019-09-13T06:02:06Z</time>
      </trkpt>
      <trkpt lat="46.17193" lon="6.09412">
        <ele>400.3</ele>
        <time>2019-09-13T06:02:08Z</time>
      </trkpt>
      <trkpt lat="46.17189" lon="6.09416">
        <ele>400.3</ele>
        <time>2019-09-13T06:02:10Z</time>
      </trkpt>
      <trkpt lat="46.17186" lon="6.09418">
        <ele>400.2</ele>
        <time>2019-09-13T06:02:12Z</time>
      </trkpt>
      <trkpt lat="46.17181" lon="6.09422">
        <ele>400.2</ele>
        <time>2019-09-13T06:02:14Z</time>
      </trkpt>
      <trkpt lat="46.17178" lon="6.09426">
        <ele>400.1</ele>
        <time>2019-09-13T06:02:16Z</time>
      </trkpt>
      <trkpt lat="46.17174" lon="6.09431">
        <ele>400</ele>
        <time>2019-09-13T06:02:18Z</time>
      </trkpt>
      <trkpt lat="46.17172" lon="6.09436">
        <ele>400</ele>
        <time>2019-09-13T06:02:20Z</time>
      </trkpt>
      <trkpt lat="46.17172" lon="6.09442">
        <ele>399.9</ele>
        <time>2019-09-13T06:02:22Z</time>
      </trkpt>
      <trkpt lat="46.17174" lon="6.09449">
        <ele>399.8</ele>
        <time>2019-09-13T06:02:24Z</time>
      </trkpt>
      <trkpt lat="46.17177" lon="6.09455">
        <ele>399.7</ele>
        <time>2019-09-13T06:02:26Z</time>
      </trkpt>
      <trkpt lat="46.17181" lon="6.0946">
        <ele>399.6</ele>
        <time>2019-09-13T06:02:28Z</time>
      </trkpt>
      <trkpt lat="46.17183" lon="6.09464">
        <ele>399.5</ele>
        <time>2019-09-13T06:02:29Z</time>
      </trkpt>
      <trkpt lat="46.17185" lon="6.09471">
        <ele>399.4</ele>
        <time>2019-09-13T06:02:31Z</time>
      </trkpt>
      <trkpt lat="46.17187" lon="6.09475">
        <ele>399.3</ele>
        <time>2019-09-13T06:02:32Z</time>
      </trkpt>
      <trkpt lat="46.17188" lon="6.09478">
        <ele>399.3</ele>
        <time>2019-09-13T06:02:33Z</time>
      </trkpt>
      <trkpt lat="46.17191" lon="6.09485">
        <ele>399.2</ele>
        <time>2019-09-13T06:02:35Z</time>
      </trkpt>
      <trkpt lat="46.17193" lon="6.09491">
        <ele>399.1</ele>
        <time>2019-09-13T06:02:37Z</time>
      </trkpt>
      <trkpt lat="46.17195" lon="6.09494">
        <ele>399.1</ele>
        <time>2019-09-13T06:02:38Z</time>
      </trkpt>
      <trkpt lat="46.17198" lon="6.09501">
        <ele>399</ele>
        <time>2019-09-13T06:02:40Z</time>
      </trkpt>
      <trkpt lat="46.17201" lon="6.09507">
        <ele>398.9</ele>
        <time>2019-09-13T06:02:42Z</time>
      </trkpt>
      <trkpt lat="46.17204" lon="6.09512">
        <ele>398.8</ele>
        <time>2019-09-13T06:02:44Z</time>
      </trkpt>
      <trkpt lat="46.17207" lon="6.09519">
        <ele>398.7</ele>
        <time>2019-09-13T06:02:46Z</time>
      </trkpt>
      <trkpt lat="46.1721" lon="6.09525">
        <ele>398.7</ele>
        <time>2019-09-13T06:02:48Z</time>
      </trkpt>
      <trkpt lat="46.17211" lon="6.09529">
        <ele>398.6</ele>
        <time>2019-09-13T06:02:49Z</time>
      </trkpt>
      <trkpt lat="46.17213" lon="6.09532">
        <ele>398.6</ele>
        <time>2019-09-13T06:02:50Z</time>
      </trkpt>
      <trkpt lat="46.17216" lon="6.09539">
        <ele>398.5</ele>
        <time>2019-09-13T06:02:52Z</time>
      </trkpt>
      <trkpt lat="46.17218" lon="6.09542">
        <ele>398.4</ele>
        <time>2019-09-13T06:02:53Z</time>
      </trkpt>
      <trkpt lat="46.17221" lon="6.09548">
        <ele>398.4</ele>
        <time>2019-09-13T06:02:55Z</time>
      </trkpt>
      <trkpt lat="46.17223" lon="6.09551">
        <ele>398.3</ele>
        <time>2019-09-13T06:02:56Z</time>
      </trkpt>
      <trkpt lat="46.17226" lon="6.09557">
        <ele>398.2</ele>
        <time>2019-09-13T06:02:58Z</time>
      </trkpt>
      <trkpt lat="46.17228" lon="6.09559">
        <ele>398.2</ele>
        <time>2019-09-13T06:02:59Z</time>
      </trkpt>
      <trkpt lat="46.1723" lon="6.09562">
        <ele>398.1</ele>
        <time>2019-09-13T06:03:00Z</time>
      </trkpt>
      <trkpt lat="46.17233" lon="6.09568">
        <ele>398</ele>
        <time>2019-09-13T06:03:02Z</time>
      </trkpt>
      <trkpt lat="46.17236" lon="6.09575">
        <ele>397.9</ele>
        <time>2019-09-13T06:03:04Z</time>
      </trkpt>
      <trkpt lat="46.17237" lon="6.09579">
        <ele>397.9</ele>
        <time>2019-09-13T06:03:05Z</time>
      </trkpt>
      <trkpt lat="46.17239" lon="6.09583">
        <ele>397.8</ele>
        <time>2019-09-13T06:03:06Z</time>
      </trkpt>
      <trkpt lat="46.1724" lon="6.09587">
        <ele>397.8</ele>
        <time>2019-09-13T06:03:07Z</time>
      </trkpt>
      <trkpt lat="46.17242" lon="6.0959">
        <ele>397.7</ele>
        <time>2019-09-13T06:03:08Z</time>
      </trkpt>
      <trkpt lat="46.17244" lon="6.09594">
        <ele>397.7</ele>
        <time>2019-09-13T06:03:09Z</time>
      </trkpt>
      <trkpt lat="46.17246" lon="6.09598">
        <ele>397.6</ele>
        <time>2019-09-13T06:03:10Z</time>
      </trkpt>
      <trkpt lat="46.17248" lon="6.09601">
        <ele>397.6</ele>
        <time>2019-09-13T06:03:11Z</time>
      </trkpt>
      <trkpt lat="46.17249" lon="6.09604">
        <ele>397.5</ele>
        <time>2019-09-13T06:03:12Z</time>
      </trkpt>
      <trkpt lat="46.17251" lon="6.09607">
        <ele>397.5</ele>
        <time>2019-09-13T06:03:13Z</time>
      </trkpt>
      <trkpt lat="46.17253" lon="6.09611">
        <ele>397.4</ele>
        <time>2019-09-13T06:03:14Z</time>
      </trkpt>
      <trkpt lat="46.17256" lon="6.09616">
        <ele>397.4</ele>
        <time>2019-09-13T06:03:16Z</time>
      </trkpt>
      <trkpt lat="46.17259" lon="6.09622">
        <ele>397.3</ele>
        <time>2019-09-13T06:03:18Z</time>
      </trkpt>
      <trkpt lat="46.17261" lon="6.09625">
        <ele>397.2</ele>
        <time>2019-09-13T06:03:19Z</time>
      </trkpt>
      <trkpt lat="46.17262" lon="6.09629">
        <ele>397.2</ele>
        <time>2019-09-13T06:03:20Z</time>
      </trkpt>
      <trkpt lat="46.17265" lon="6.09635">
        <ele>397.1</ele>
        <time>2019-09-13T06:03:22Z</time>
      </trkpt>
      <trkpt lat="46.17268" lon="6.0964">
        <ele>397</ele>
        <time>2019-09-13T06:03:24Z</time>
      </trkpt>
      <trkpt lat="46.17271" lon="6.09646">
        <ele>396.9</ele>
        <time>2019-09-13T06:03:26Z</time>
      </trkpt>
      <trkpt lat="46.17274" lon="6.09652">
        <ele>396.9</ele>
        <time>2019-09-13T06:03:28Z</time>
      </trkpt>
      <trkpt lat="46.17277" lon="6.09658">
        <ele>396.8</ele>
        <time>2019-09-13T06:03:30Z</time>
      </trkpt>
      <trkpt lat="46.17281" lon="6.09664">
        <ele>396.7</ele>
        <time>2019-09-13T06:03:32Z</time>
      </trkpt>
      <trkpt lat="46.17282" lon="6.09667">
        <ele>396.7</ele>
        <time>2019-09-13T06:03:33Z</time>
      </trkpt>
      <trkpt lat="46.17283" lon="6.09671">
        <ele>396.7</ele>
        <time>2019-09-13T06:03:34Z</time>
      </trkpt>
      <trkpt lat="46.17285" lon="6.09678">
        <ele>396.6</ele>
        <time>2019-09-13T06:03:36Z</time>
      </trkpt>
      <trkpt lat="46.17288" lon="6.09684">
        <ele>396.6</ele>
        <time>2019-09-13T06:03:38Z</time>
      </trkpt>
      <trkpt lat="46.1729" lon="6.09687">
        <ele>396.6</ele>
        <time>2019-09-13T06:03:39Z</time>
      </trkpt>
      <trkpt lat="46.17292" lon="6.09693">
        <ele>396.6</ele>
        <time>2019-09-13T06:03:41Z</time>
      </trkpt>
      <trkpt lat="46.17294" lon="6.097">
        <ele>396.6</ele>
        <time>2019-09-13T06:03:43Z</time>
      </trkpt>
      <trkpt lat="46.17293" lon="6.09707">
        <ele>396.7</ele>
        <time>2019-09-13T06:03:45Z</time>
      </trkpt>
      <trkpt lat="46.17292" lon="6.09711">
        <ele>396.7</ele>
        <time>2019-09-13T06:03:46Z</time>
      </trkpt>
      <trkpt lat="46.17289" lon="6.09717">
        <ele>396.7</ele>
        <time>2019-09-13T06:03:48Z</time>
      </trkpt>
      <trkpt lat="46.17287" lon="6.09724">
        <ele>396.8</ele>
        <time>2019-09-13T06:03:50Z</time>
      </trkpt>
      <trkpt lat="46.17285" lon="6.09727">
        <ele>396.9</ele>
        <time>2019-09-13T06:03:51Z</time>
      </trkpt>
      <trkpt lat="46.17283" lon="6.09733">
        <ele>397</ele>
        <time>2019-09-13T06:03:53Z</time>
      </trkpt>
      <trkpt lat="46.1728" lon="6.09738">
        <ele>397.1</ele>
        <time>2019-09-13T06:03:55Z</time>
      </trkpt>
      <trkpt lat="46.17279" lon="6.09742">
        <ele>397.2</ele>
        <time>2019-09-13T06:03:56Z</time>
      </trkpt>
      <trkpt lat="46.17279" lon="6.09746">
        <ele>397.3</ele>
        <time>2019-09-13T06:03:57Z</time>
      </trkpt>
      <trkpt lat="46.17279" lon="6.09753">
        <ele>397.6</ele>
        <time>2019-09-13T06:03:59Z</time>
      </trkpt>
      <trkpt lat="46.17277" lon="6.0976">
        <ele>397.9</ele>
        <time>2019-09-13T06:04:01Z</time>
      </trkpt>
      <trkpt lat="46.17275" lon="6.09767">
        <ele>398.3</ele>
        <time>2019-09-13T06:04:03Z</time>
      </trkpt>
      <trkpt lat="46.17273" lon="6.0977">
        <ele>398.3</ele>
        <time>2019-09-13T06:04:04Z</time>
      </trkpt>
      <trkpt lat="46.17271" lon="6.09773">
        <ele>398.4</ele>
        <time>2019-09-13T06:04:05Z</time>
      </trkpt>
      <trkpt lat="46.17269" lon="6.09776">
        <ele>398.4</ele>
        <time>2019-09-13T06:04:06Z</time>
      </trkpt>
      <trkpt lat="46.17266" lon="6.09778">
        <ele>398.5</ele>
        <time>2019-09-13T06:04:07Z</time>
      </trkpt>
      <trkpt lat="46.17262" lon="6.09781">
        <ele>398.5</ele>
        <time>2019-09-13T06:04:09Z</time>
      </trkpt>
      <trkpt lat="46.17259" lon="6.09783">
        <ele>398.5</ele>
        <time>2019-09-13T06:04:11Z</time>
      </trkpt>
      <trkpt lat="46.17265" lon="6.09784">
        <ele>398.6</ele>
        <time>2019-09-13T06:04:14Z</time>
      </trkpt>
      <trkpt lat="46.17268" lon="6.09783">
        <ele>398.4</ele>
        <time>2019-09-13T06:04:15Z</time>
      </trkpt>
      <trkpt lat="46.17271" lon="6.09783">
        <ele>398.5</ele>
        <time>2019-09-13T06:04:16Z</time>
      </trkpt>
      <trkpt lat="46.17275" lon="6.09784">
        <ele>398.5</ele>
        <time>2019-09-13T06:04:17Z</time>
      </trkpt>
      <trkpt lat="46.17277" lon="6.09785">
        <ele>398.5</ele>
        <time>2019-09-13T06:04:18Z</time>
      </trkpt>
      <trkpt lat="46.1728" lon="6.09787">
        <ele>398.6</ele>
        <time>2019-09-13T06:04:19Z</time>
      </trkpt>
      <trkpt lat="46.17282" lon="6.0979">
        <ele>398.6</ele>
        <time>2019-09-13T06:04:20Z</time>
      </trkpt>
      <trkpt lat="46.17285" lon="6.09797">
        <ele>398.7</ele>
        <time>2019-09-13T06:04:22Z</time>
      </trkpt>
      <trkpt lat="46.17288" lon="6.09804">
        <ele>398.9</ele>
        <time>2019-09-13T06:04:24Z</time>
      </trkpt>
      <trkpt lat="46.1729" lon="6.09807">
        <ele>399</ele>
        <time>2019-09-13T06:04:25Z</time>
      </trkpt>
      <trkpt lat="46.17292" lon="6.09811">
        <ele>399</ele>
        <time>2019-09-13T06:04:26Z</time>
      </trkpt>
      <trkpt lat="46.17293" lon="6.09814">
        <ele>399.1</ele>
        <time>2019-09-13T06:04:27Z</time>
      </trkpt>
      <trkpt lat="46.17295" lon="6.09817">
        <ele>399.2</ele>
        <time>2019-09-13T06:04:28Z</time>
      </trkpt>
      <trkpt lat="46.17297" lon="6.09821">
        <ele>399.2</ele>
        <time>2019-09-13T06:04:29Z</time>
      </trkpt>
      <trkpt lat="46.17299" lon="6.09827">
        <ele>399.2</ele>
        <time>2019-09-13T06:04:31Z</time>
      </trkpt>
      <trkpt lat="46.17301" lon="6.09833">
        <ele>399.2</ele>
        <time>2019-09-13T06:04:33Z</time>
      </trkpt>
      <trkpt lat="46.17304" lon="6.09839">
        <ele>399.2</ele>
        <time>2019-09-13T06:04:35Z</time>
      </trkpt>
      <trkpt lat="46.17307" lon="6.09845">
        <ele>399.2</ele>
        <time>2019-09-13T06:04:37Z</time>
      </trkpt>
      <trkpt lat="46.1731" lon="6.09851">
        <ele>399.2</ele>
        <time>2019-09-13T06:04:39Z</time>
      </trkpt>
      <trkpt lat="46.17313" lon="6.09857">
        <ele>399.2</ele>
        <time>2019-09-13T06:04:41Z</time>
      </trkpt>
      <trkpt lat="46.17315" lon="6.09863">
        <ele>399.2</ele>
        <time>2019-09-13T06:04:43Z</time>
      </trkpt>
      <trkpt lat="46.17317" lon="6.09869">
        <ele>399.2</ele>
        <time>2019-09-13T06:04:45Z</time>
      </trkpt>
      <trkpt lat="46.1732" lon="6.09874">
        <ele>399.2</ele>
        <time>2019-09-13T06:04:47Z</time>
      </trkpt>
      <trkpt lat="46.17322" lon="6.09877">
        <ele>399.2</ele>
        <time>2019-09-13T06:04:48Z</time>
      </trkpt>
      <trkpt lat="46.17325" lon="6.09883">
        <ele>399.2</ele>
        <time>2019-09-13T06:04:50Z</time>
      </trkpt>
      <trkpt lat="46.17329" lon="6.09889">
        <ele>399.2</ele>
        <time>2019-09-13T06:04:52Z</time>
      </trkpt>
      <trkpt lat="46.17331" lon="6.09894">
        <ele>399.3</ele>
        <time>2019-09-13T06:04:54Z</time>
      </trkpt>
      <trkpt lat="46.17335" lon="6.099">
        <ele>399.3</ele>
        <time>2019-09-13T06:04:56Z</time>
      </trkpt>
      <trkpt lat="46.17337" lon="6.09903">
        <ele>399.3</ele>
        <time>2019-09-13T06:04:57Z</time>
      </trkpt>
      <trkpt lat="46.17341" lon="6.09908">
        <ele>399.4</ele>
        <time>2019-09-13T06:04:59Z</time>
      </trkpt>
      <trkpt lat="46.17344" lon="6.09913">
        <ele>399.4</ele>
        <time>2019-09-13T06:05:01Z</time>
      </trkpt>
      <trkpt lat="46.17347" lon="6.09918">
        <ele>399.5</ele>
        <time>2019-09-13T06:05:03Z</time>
      </trkpt>
      <trkpt lat="46.17351" lon="6.09922">
        <ele>399.5</ele>
        <time>2019-09-13T06:05:05Z</time>
      </trkpt>
      <trkpt lat="46.17354" lon="6.09924">
        <ele>399.6</ele>
        <time>2019-09-13T06:05:07Z</time>
      </trkpt>
      <trkpt lat="46.17359" lon="6.09927">
        <ele>399.7</ele>
        <time>2019-09-13T06:05:09Z</time>
      </trkpt>
      <trkpt lat="46.17362" lon="6.09932">
        <ele>399.8</ele>
        <time>2019-09-13T06:05:11Z</time>
      </trkpt>
      <trkpt lat="46.17366" lon="6.09937">
        <ele>399.8</ele>
        <time>2019-09-13T06:05:13Z</time>
      </trkpt>
      <trkpt lat="46.1737" lon="6.09941">
        <ele>399.8</ele>
        <time>2019-09-13T06:05:15Z</time>
      </trkpt>
      <trkpt lat="46.17374" lon="6.09945">
        <ele>399.8</ele>
        <time>2019-09-13T06:05:17Z</time>
      </trkpt>
      <trkpt lat="46.17379" lon="6.09947">
        <ele>399.7</ele>
        <time>2019-09-13T06:05:19Z</time>
      </trkpt>
      <trkpt lat="46.17381" lon="6.09947">
        <ele>399.7</ele>
        <time>2019-09-13T06:05:20Z</time>
      </trkpt>
      <trkpt lat="46.17387" lon="6.09949">
        <ele>399.7</ele>
        <time>2019-09-13T06:05:22Z</time>
      </trkpt>
      <trkpt lat="46.17389" lon="6.0995">
        <ele>399.6</ele>
        <time>2019-09-13T06:05:23Z</time>
      </trkpt>
      <trkpt lat="46.17394" lon="6.09952">
        <ele>399.6</ele>
        <time>2019-09-13T06:05:25Z</time>
      </trkpt>
      <trkpt lat="46.17397" lon="6.09952">
        <ele>399.6</ele>
        <time>2019-09-13T06:05:26Z</time>
      </trkpt>
      <trkpt lat="46.174" lon="6.09953">
        <ele>399.6</ele>
        <time>2019-09-13T06:05:27Z</time>
      </trkpt>
      <trkpt lat="46.17405" lon="6.09956">
        <ele>399.5</ele>
        <time>2019-09-13T06:05:29Z</time>
      </trkpt>
      <trkpt lat="46.17407" lon="6.09958">
        <ele>399.4</ele>
        <time>2019-09-13T06:05:30Z</time>
      </trkpt>
      <trkpt lat="46.1741" lon="6.09959">
        <ele>399.3</ele>
        <time>2019-09-13T06:05:31Z</time>
      </trkpt>
      <trkpt lat="46.17412" lon="6.09961">
        <ele>399.2</ele>
        <time>2019-09-13T06:05:32Z</time>
      </trkpt>
      <trkpt lat="46.17415" lon="6.09963">
        <ele>399.1</ele>
        <time>2019-09-13T06:05:33Z</time>
      </trkpt>
      <trkpt lat="46.17417" lon="6.09965">
        <ele>399</ele>
        <time>2019-09-13T06:05:34Z</time>
      </trkpt>
      <trkpt lat="46.17421" lon="6.09971">
        <ele>398.8</ele>
        <time>2019-09-13T06:05:36Z</time>
      </trkpt>
      <trkpt lat="46.17423" lon="6.09974">
        <ele>398.7</ele>
        <time>2019-09-13T06:05:37Z</time>
      </trkpt>
      <trkpt lat="46.17425" lon="6.0998">
        <ele>398.6</ele>
        <time>2019-09-13T06:05:39Z</time>
      </trkpt>
      <trkpt lat="46.17427" lon="6.09986">
        <ele>398.4</ele>
        <time>2019-09-13T06:05:41Z</time>
      </trkpt>
      <trkpt lat="46.17428" lon="6.0999">
        <ele>398.3</ele>
        <time>2019-09-13T06:05:42Z</time>
      </trkpt>
      <trkpt lat="46.17431" lon="6.09996">
        <ele>398.2</ele>
        <time>2019-09-13T06:05:44Z</time>
      </trkpt>
      <trkpt lat="46.17434" lon="6.10002">
        <ele>398.2</ele>
        <time>2019-09-13T06:05:46Z</time>
      </trkpt>
      <trkpt lat="46.17436" lon="6.10006">
        <ele>398.2</ele>
        <time>2019-09-13T06:05:47Z</time>
      </trkpt>
      <trkpt lat="46.17437" lon="6.10009">
        <ele>398.2</ele>
        <time>2019-09-13T06:05:48Z</time>
      </trkpt>
      <trkpt lat="46.17438" lon="6.10013">
        <ele>398.3</ele>
        <time>2019-09-13T06:05:49Z</time>
      </trkpt>
      <trkpt lat="46.1744" lon="6.10017">
        <ele>398.3</ele>
        <time>2019-09-13T06:05:50Z</time>
      </trkpt>
      <trkpt lat="46.17443" lon="6.10023">
        <ele>398.3</ele>
        <time>2019-09-13T06:05:52Z</time>
      </trkpt>
      <trkpt lat="46.17446" lon="6.10029">
        <ele>398.3</ele>
        <time>2019-09-13T06:05:54Z</time>
      </trkpt>
      <trkpt lat="46.17449" lon="6.10034">
        <ele>398.3</ele>
        <time>2019-09-13T06:05:56Z</time>
      </trkpt>
      <trkpt lat="46.17451" lon="6.1004">
        <ele>398.3</ele>
        <time>2019-09-13T06:05:58Z</time>
      </trkpt>
      <trkpt lat="46.17454" lon="6.10046">
        <ele>398.3</ele>
        <time>2019-09-13T06:06:00Z</time>
      </trkpt>
      <trkpt lat="46.17456" lon="6.10052">
        <ele>398.4</ele>
        <time>2019-09-13T06:06:02Z</time>
      </trkpt>
      <trkpt lat="46.17458" lon="6.10059">
        <ele>398.5</ele>
        <time>2019-09-13T06:06:04Z</time>
      </trkpt>
      <trkpt lat="46.1746" lon="6.10063">
        <ele>398.5</ele>
        <time>2019-09-13T06:06:05Z</time>
      </trkpt>
      <trkpt lat="46.17461" lon="6.10066">
        <ele>398.6</ele>
        <time>2019-09-13T06:06:06Z</time>
      </trkpt>
      <trkpt lat="46.17464" lon="6.10073">
        <ele>398.8</ele>
        <time>2019-09-13T06:06:08Z</time>
      </trkpt>
      <trkpt lat="46.17465" lon="6.1008">
        <ele>398.9</ele>
        <time>2019-09-13T06:06:10Z</time>
      </trkpt>
      <trkpt lat="46.17466" lon="6.10084">
        <ele>399</ele>
        <time>2019-09-13T06:06:11Z</time>
      </trkpt>
      <trkpt lat="46.17467" lon="6.10088">
        <ele>399</ele>
        <time>2019-09-13T06:06:12Z</time>
      </trkpt>
      <trkpt lat="46.1747" lon="6.10094">
        <ele>399.1</ele>
        <time>2019-09-13T06:06:14Z</time>
      </trkpt>
      <trkpt lat="46.17472" lon="6.10101">
        <ele>399.2</ele>
        <time>2019-09-13T06:06:16Z</time>
      </trkpt>
      <trkpt lat="46.17472" lon="6.10105">
        <ele>399.2</ele>
        <time>2019-09-13T06:06:17Z</time>
      </trkpt>
      <trkpt lat="46.17473" lon="6.1011">
        <ele>399.2</ele>
        <time>2019-09-13T06:06:18Z</time>
      </trkpt>
      <trkpt lat="46.17473" lon="6.10114">
        <ele>399.2</ele>
        <time>2019-09-13T06:06:19Z</time>
      </trkpt>
      <trkpt lat="46.17475" lon="6.10118">
        <ele>399.2</ele>
        <time>2019-09-13T06:06:20Z</time>
      </trkpt>
      <trkpt lat="46.17476" lon="6.10121">
        <ele>399.2</ele>
        <time>2019-09-13T06:06:21Z</time>
      </trkpt>
      <trkpt lat="46.1748" lon="6.10127">
        <ele>399.2</ele>
        <time>2019-09-13T06:06:23Z</time>
      </trkpt>
      <trkpt lat="46.17482" lon="6.10133">
        <ele>399.2</ele>
        <time>2019-09-13T06:06:25Z</time>
      </trkpt>
      <trkpt lat="46.17484" lon="6.1014">
        <ele>399.2</ele>
        <time>2019-09-13T06:06:27Z</time>
      </trkpt>
      <trkpt lat="46.17487" lon="6.10147">
        <ele>399.2</ele>
        <time>2019-09-13T06:06:29Z</time>
      </trkpt>
      <trkpt lat="46.17489" lon="6.10152">
        <ele>399.2</ele>
        <time>2019-09-13T06:06:31Z</time>
      </trkpt>
      <trkpt lat="46.17491" lon="6.10159">
        <ele>399.2</ele>
        <time>2019-09-13T06:06:33Z</time>
      </trkpt>
      <trkpt lat="46.17493" lon="6.10166">
        <ele>399.2</ele>
        <time>2019-09-13T06:06:35Z</time>
      </trkpt>
      <trkpt lat="46.17496" lon="6.10171">
        <ele>399.1</ele>
        <time>2019-09-13T06:06:37Z</time>
      </trkpt>
      <trkpt lat="46.17498" lon="6.10175">
        <ele>399.1</ele>
        <time>2019-09-13T06:06:38Z</time>
      </trkpt>
      <trkpt lat="46.17499" lon="6.10179">
        <ele>399</ele>
        <time>2019-09-13T06:06:39Z</time>
      </trkpt>
      <trkpt lat="46.17502" lon="6.10184">
        <ele>399</ele>
        <time>2019-09-13T06:06:41Z</time>
      </trkpt>
      <trkpt lat="46.17504" lon="6.1019">
        <ele>398.9</ele>
        <time>2019-09-13T06:06:43Z</time>
      </trkpt>
      <trkpt lat="46.17506" lon="6.10197">
        <ele>398.7</ele>
        <time>2019-09-13T06:06:45Z</time>
      </trkpt>
      <trkpt lat="46.17508" lon="6.10202">
        <ele>398.6</ele>
        <time>2019-09-13T06:06:47Z</time>
      </trkpt>
      <trkpt lat="46.17511" lon="6.10208">
        <ele>398.5</ele>
        <time>2019-09-13T06:06:49Z</time>
      </trkpt>
      <trkpt lat="46.17512" lon="6.10215">
        <ele>398.4</ele>
        <time>2019-09-13T06:06:51Z</time>
      </trkpt>
      <trkpt lat="46.17514" lon="6.10222">
        <ele>398.3</ele>
        <time>2019-09-13T06:06:53Z</time>
      </trkpt>
      <trkpt lat="46.17515" lon="6.10228">
        <ele>398.3</ele>
        <time>2019-09-13T06:06:55Z</time>
      </trkpt>
      <trkpt lat="46.17517" lon="6.10234">
        <ele>398.3</ele>
        <time>2019-09-13T06:06:57Z</time>
      </trkpt>
      <trkpt lat="46.17519" lon="6.10241">
        <ele>398.2</ele>
        <time>2019-09-13T06:06:59Z</time>
      </trkpt>
      <trkpt lat="46.1752" lon="6.10247">
        <ele>398.2</ele>
        <time>2019-09-13T06:07:01Z</time>
      </trkpt>
      <trkpt lat="46.17522" lon="6.10254">
        <ele>398.2</ele>
        <time>2019-09-13T06:07:03Z</time>
      </trkpt>
      <trkpt lat="46.17523" lon="6.10258">
        <ele>398.2</ele>
        <time>2019-09-13T06:07:04Z</time>
      </trkpt>
      <trkpt lat="46.17524" lon="6.10262">
        <ele>398.2</ele>
        <time>2019-09-13T06:07:05Z</time>
      </trkpt>
      <trkpt lat="46.17525" lon="6.10266">
        <ele>398.2</ele>
        <time>2019-09-13T06:07:06Z</time>
      </trkpt>
      <trkpt lat="46.17527" lon="6.10272">
        <ele>398.2</ele>
        <time>2019-09-13T06:07:08Z</time>
      </trkpt>
      <trkpt lat="46.17529" lon="6.10279">
        <ele>398.2</ele>
        <time>2019-09-13T06:07:10Z</time>
      </trkpt>
      <trkpt lat="46.1753" lon="6.10285">
        <ele>398.2</ele>
        <time>2019-09-13T06:07:12Z</time>
      </trkpt>
      <trkpt lat="46.17531" lon="6.10291">
        <ele>398.2</ele>
        <time>2019-09-13T06:07:14Z</time>
      </trkpt>
      <trkpt lat="46.17532" lon="6.10295">
        <ele>398.2</ele>
        <time>2019-09-13T06:07:17Z</time>
      </trkpt>
      <trkpt lat="46.17533" lon="6.103">
        <ele>398.3</ele>
        <time>2019-09-13T06:07:20Z</time>
      </trkpt>
      <trkpt lat="46.17533" lon="6.10307">
        <ele>398.4</ele>
        <time>2019-09-13T06:07:22Z</time>
      </trkpt>
      <trkpt lat="46.17533" lon="6.10312">
        <ele>398.4</ele>
        <time>2019-09-13T06:07:23Z</time>
      </trkpt>
      <trkpt lat="46.17533" lon="6.10316">
        <ele>398.5</ele>
        <time>2019-09-13T06:07:24Z</time>
      </trkpt>
      <trkpt lat="46.17534" lon="6.1032">
        <ele>398.5</ele>
        <time>2019-09-13T06:07:25Z</time>
      </trkpt>
      <trkpt lat="46.17535" lon="6.10326">
        <ele>398.6</ele>
        <time>2019-09-13T06:07:27Z</time>
      </trkpt>
      <trkpt lat="46.17537" lon="6.10333">
        <ele>398.7</ele>
        <time>2019-09-13T06:07:29Z</time>
      </trkpt>
      <trkpt lat="46.17536" lon="6.10339">
        <ele>398.7</ele>
        <time>2019-09-13T06:07:31Z</time>
      </trkpt>
      <trkpt lat="46.17536" lon="6.10346">
        <ele>398.8</ele>
        <time>2019-09-13T06:07:33Z</time>
      </trkpt>
      <trkpt lat="46.17535" lon="6.10353">
        <ele>398.9</ele>
        <time>2019-09-13T06:07:35Z</time>
      </trkpt>
      <trkpt lat="46.17535" lon="6.1036">
        <ele>399.1</ele>
        <time>2019-09-13T06:07:37Z</time>
      </trkpt>
      <trkpt lat="46.17534" lon="6.10367">
        <ele>399.2</ele>
        <time>2019-09-13T06:07:39Z</time>
      </trkpt>
      <trkpt lat="46.17534" lon="6.10372">
        <ele>399.3</ele>
        <time>2019-09-13T06:07:40Z</time>
      </trkpt>
      <trkpt lat="46.17534" lon="6.10376">
        <ele>399.4</ele>
        <time>2019-09-13T06:07:41Z</time>
      </trkpt>
      <trkpt lat="46.17536" lon="6.10384">
        <ele>399.5</ele>
        <time>2019-09-13T06:07:43Z</time>
      </trkpt>
      <trkpt lat="46.17536" lon="6.10391">
        <ele>399.7</ele>
        <time>2019-09-13T06:07:45Z</time>
      </trkpt>
      <trkpt lat="46.17536" lon="6.10395">
        <ele>399.8</ele>
        <time>2019-09-13T06:07:46Z</time>
      </trkpt>
      <trkpt lat="46.17535" lon="6.10403">
        <ele>399.9</ele>
        <time>2019-09-13T06:07:48Z</time>
      </trkpt>
      <trkpt lat="46.17535" lon="6.10409">
        <ele>400</ele>
        <time>2019-09-13T06:07:50Z</time>
      </trkpt>
      <trkpt lat="46.17535" lon="6.10416">
        <ele>400.2</ele>
        <time>2019-09-13T06:07:52Z</time>
      </trkpt>
      <trkpt lat="46.17536" lon="6.10424">
        <ele>400.3</ele>
        <time>2019-09-13T06:07:54Z</time>
      </trkpt>
      <trkpt lat="46.17536" lon="6.10428">
        <ele>400.4</ele>
        <time>2019-09-13T06:07:55Z</time>
      </trkpt>
      <trkpt lat="46.17536" lon="6.10435">
        <ele>400.5</ele>
        <time>2019-09-13T06:07:57Z</time>
      </trkpt>
      <trkpt lat="46.17536" lon="6.10442">
        <ele>400.6</ele>
        <time>2019-09-13T06:07:59Z</time>
      </trkpt>
      <trkpt lat="46.17536" lon="6.1045">
        <ele>400.6</ele>
        <time>2019-09-13T06:08:01Z</time>
      </trkpt>
      <trkpt lat="46.17537" lon="6.10456">
        <ele>400.7</ele>
        <time>2019-09-13T06:08:03Z</time>
      </trkpt>
      <trkpt lat="46.17538" lon="6.10462">
        <ele>400.7</ele>
        <time>2019-09-13T06:08:05Z</time>
      </trkpt>
      <trkpt lat="46.17538" lon="6.10468">
        <ele>400.7</ele>
        <time>2019-09-13T06:08:07Z</time>
      </trkpt>
      <trkpt lat="46.17538" lon="6.10472">
        <ele>400.8</ele>
        <time>2019-09-13T06:08:08Z</time>
      </trkpt>
      <trkpt lat="46.17539" lon="6.10476">
        <ele>400.9</ele>
        <time>2019-09-13T06:08:09Z</time>
      </trkpt>
      <trkpt lat="46.17539" lon="6.1048">
        <ele>401</ele>
        <time>2019-09-13T06:08:10Z</time>
      </trkpt>
      <trkpt lat="46.17538" lon="6.10484">
        <ele>401.1</ele>
        <time>2019-09-13T06:08:11Z</time>
      </trkpt>
      <trkpt lat="46.17538" lon="6.10488">
        <ele>401.2</ele>
        <time>2019-09-13T06:08:12Z</time>
      </trkpt>
      <trkpt lat="46.17537" lon="6.10492">
        <ele>401.3</ele>
        <time>2019-09-13T06:08:13Z</time>
      </trkpt>
      <trkpt lat="46.17537" lon="6.10499">
        <ele>401.4</ele>
        <time>2019-09-13T06:08:15Z</time>
      </trkpt>
      <trkpt lat="46.17537" lon="6.10506">
        <ele>401.6</ele>
        <time>2019-09-13T06:08:17Z</time>
      </trkpt>
      <trkpt lat="46.17536" lon="6.10514">
        <ele>401.8</ele>
        <time>2019-09-13T06:08:19Z</time>
      </trkpt>
      <trkpt lat="46.17535" lon="6.10518">
        <ele>401.8</ele>
        <time>2019-09-13T06:08:20Z</time>
      </trkpt>
      <trkpt lat="46.17535" lon="6.10526">
        <ele>401.8</ele>
        <time>2019-09-13T06:08:22Z</time>
      </trkpt>
      <trkpt lat="46.17534" lon="6.10533">
        <ele>401.8</ele>
        <time>2019-09-13T06:08:24Z</time>
      </trkpt>
      <trkpt lat="46.17534" lon="6.10537">
        <ele>401.8</ele>
        <time>2019-09-13T06:08:25Z</time>
      </trkpt>
      <trkpt lat="46.17534" lon="6.10545">
        <ele>401.8</ele>
        <time>2019-09-13T06:08:27Z</time>
      </trkpt>
      <trkpt lat="46.17534" lon="6.10551">
        <ele>401.7</ele>
        <time>2019-09-13T06:08:29Z</time>
      </trkpt>
      <trkpt lat="46.17534" lon="6.10558">
        <ele>401.6</ele>
        <time>2019-09-13T06:08:31Z</time>
      </trkpt>
      <trkpt lat="46.17534" lon="6.10566">
        <ele>401.4</ele>
        <time>2019-09-13T06:08:33Z</time>
      </trkpt>
      <trkpt lat="46.17533" lon="6.10571">
        <ele>401.3</ele>
        <time>2019-09-13T06:08:34Z</time>
      </trkpt>
      <trkpt lat="46.17532" lon="6.10575">
        <ele>401.3</ele>
        <time>2019-09-13T06:08:35Z</time>
      </trkpt>
      <trkpt lat="46.17531" lon="6.10579">
        <ele>401.2</ele>
        <time>2019-09-13T06:08:36Z</time>
      </trkpt>
      <trkpt lat="46.1753" lon="6.10583">
        <ele>401.1</ele>
        <time>2019-09-13T06:08:37Z</time>
      </trkpt>
      <trkpt lat="46.1753" lon="6.10588">
        <ele>401</ele>
        <time>2019-09-13T06:08:38Z</time>
      </trkpt>
      <trkpt lat="46.1753" lon="6.10592">
        <ele>400.9</ele>
        <time>2019-09-13T06:08:39Z</time>
      </trkpt>
      <trkpt lat="46.17531" lon="6.10597">
        <ele>400.9</ele>
        <time>2019-09-13T06:08:40Z</time>
      </trkpt>
      <trkpt lat="46.17531" lon="6.10602">
        <ele>400.8</ele>
        <time>2019-09-13T06:08:41Z</time>
      </trkpt>
      <trkpt lat="46.17532" lon="6.10606">
        <ele>400.7</ele>
        <time>2019-09-13T06:08:42Z</time>
      </trkpt>
      <trkpt lat="46.17532" lon="6.1061">
        <ele>400.7</ele>
        <time>2019-09-13T06:08:43Z</time>
      </trkpt>
      <trkpt lat="46.17533" lon="6.10618">
        <ele>400.7</ele>
        <time>2019-09-13T06:08:45Z</time>
      </trkpt>
      <trkpt lat="46.17533" lon="6.10624">
        <ele>400.6</ele>
        <time>2019-09-13T06:08:47Z</time>
      </trkpt>
      <trkpt lat="46.17533" lon="6.10632">
        <ele>400.6</ele>
        <time>2019-09-13T06:08:49Z</time>
      </trkpt>
      <trkpt lat="46.17532" lon="6.10639">
        <ele>400.5</ele>
        <time>2019-09-13T06:08:51Z</time>
      </trkpt>
      <trkpt lat="46.17532" lon="6.10645">
        <ele>400.5</ele>
        <time>2019-09-13T06:08:53Z</time>
      </trkpt>
      <trkpt lat="46.17531" lon="6.10653">
        <ele>400.4</ele>
        <time>2019-09-13T06:08:55Z</time>
      </trkpt>
      <trkpt lat="46.1753" lon="6.10661">
        <ele>400.4</ele>
        <time>2019-09-13T06:08:57Z</time>
      </trkpt>
      <trkpt lat="46.1753" lon="6.10665">
        <ele>400.3</ele>
        <time>2019-09-13T06:08:58Z</time>
      </trkpt>
      <trkpt lat="46.1753" lon="6.10669">
        <ele>400.3</ele>
        <time>2019-09-13T06:08:59Z</time>
      </trkpt>
      <trkpt lat="46.17529" lon="6.10673">
        <ele>400.3</ele>
        <time>2019-09-13T06:09:00Z</time>
      </trkpt>
      <trkpt lat="46.17529" lon="6.10677">
        <ele>400.2</ele>
        <time>2019-09-13T06:09:01Z</time>
      </trkpt>
      <trkpt lat="46.17528" lon="6.10681">
        <ele>400.2</ele>
        <time>2019-09-13T06:09:02Z</time>
      </trkpt>
      <trkpt lat="46.17528" lon="6.10685">
        <ele>400.1</ele>
        <time>2019-09-13T06:09:03Z</time>
      </trkpt>
      <trkpt lat="46.17528" lon="6.1069">
        <ele>400.1</ele>
        <time>2019-09-13T06:09:04Z</time>
      </trkpt>
      <trkpt lat="46.17527" lon="6.10694">
        <ele>400.1</ele>
        <time>2019-09-13T06:09:05Z</time>
      </trkpt>
      <trkpt lat="46.17527" lon="6.10698">
        <ele>400</ele>
        <time>2019-09-13T06:09:06Z</time>
      </trkpt>
      <trkpt lat="46.17527" lon="6.10704">
        <ele>399.9</ele>
        <time>2019-09-13T06:09:08Z</time>
      </trkpt>
      <trkpt lat="46.17528" lon="6.1071">
        <ele>399.8</ele>
        <time>2019-09-13T06:09:10Z</time>
      </trkpt>
      <trkpt lat="46.17529" lon="6.10717">
        <ele>399.8</ele>
        <time>2019-09-13T06:09:12Z</time>
      </trkpt>
      <trkpt lat="46.17529" lon="6.10724">
        <ele>399.9</ele>
        <time>2019-09-13T06:09:14Z</time>
      </trkpt>
      <trkpt lat="46.17526" lon="6.10729">
        <ele>399.9</ele>
        <time>2019-09-13T06:09:16Z</time>
      </trkpt>
      <trkpt lat="46.17524" lon="6.10731">
        <ele>399.9</ele>
        <time>2019-09-13T06:09:17Z</time>
      </trkpt>
      <trkpt lat="46.17521" lon="6.10734">
        <ele>399.9</ele>
        <time>2019-09-13T06:09:18Z</time>
      </trkpt>
      <trkpt lat="46.17519" lon="6.10737">
        <ele>400</ele>
        <time>2019-09-13T06:09:19Z</time>
      </trkpt>
      <trkpt lat="46.17516" lon="6.10742">
        <ele>400</ele>
        <time>2019-09-13T06:09:21Z</time>
      </trkpt>
      <trkpt lat="46.17513" lon="6.10746">
        <ele>400</ele>
        <time>2019-09-13T06:09:23Z</time>
      </trkpt>
      <trkpt lat="46.17509" lon="6.1075">
        <ele>400.1</ele>
        <time>2019-09-13T06:09:25Z</time>
      </trkpt>
      <trkpt lat="46.17506" lon="6.10755">
        <ele>400.1</ele>
        <time>2019-09-13T06:09:27Z</time>
      </trkpt>
      <trkpt lat="46.17502" lon="6.1076">
        <ele>400.1</ele>
        <time>2019-09-13T06:09:29Z</time>
      </trkpt>
      <trkpt lat="46.175" lon="6.10764">
        <ele>400.2</ele>
        <time>2019-09-13T06:09:31Z</time>
      </trkpt>
      <trkpt lat="46.17501" lon="6.10759">
        <ele>400.2</ele>
        <time>2019-09-13T06:09:36Z</time>
      </trkpt>
      <trkpt lat="46.17503" lon="6.10756">
        <ele>400.2</ele>
        <time>2019-09-13T06:09:37Z</time>
      </trkpt>
      <trkpt lat="46.17505" lon="6.10753">
        <ele>400.2</ele>
        <time>2019-09-13T06:09:38Z</time>
      </trkpt>
      <trkpt lat="46.17509" lon="6.10747">
        <ele>400.2</ele>
        <time>2019-09-13T06:09:40Z</time>
      </trkpt>
      <trkpt lat="46.17511" lon="6.10743">
        <ele>400.1</ele>
        <time>2019-09-13T06:09:41Z</time>
      </trkpt>
      <trkpt lat="46.17513" lon="6.1074">
        <ele>400.1</ele>
        <time>2019-09-13T06:09:42Z</time>
      </trkpt>
      <trkpt lat="46.17515" lon="6.10737">
        <ele>400</ele>
        <time>2019-09-13T06:09:43Z</time>
      </trkpt>
      <trkpt lat="46.17517" lon="6.10734">
        <ele>400</ele>
        <time>2019-09-13T06:09:44Z</time>
      </trkpt>
      <trkpt lat="46.1752" lon="6.10731">
        <ele>400</ele>
        <time>2019-09-13T06:09:45Z</time>
      </trkpt>
      <trkpt lat="46.17522" lon="6.10728">
        <ele>399.9</ele>
        <time>2019-09-13T06:09:46Z</time>
      </trkpt>
      <trkpt lat="46.17524" lon="6.10725">
        <ele>399.7</ele>
        <time>2019-09-13T06:09:47Z</time>
      </trkpt>
      <trkpt lat="46.17526" lon="6.10722">
        <ele>399.7</ele>
        <time>2019-09-13T06:09:48Z</time>
      </trkpt>
      <trkpt lat="46.17531" lon="6.10721">
        <ele>399.6</ele>
        <time>2019-09-13T06:09:50Z</time>
      </trkpt>
      <trkpt lat="46.17535" lon="6.10726">
        <ele>399.4</ele>
        <time>2019-09-13T06:09:52Z</time>
      </trkpt>
      <trkpt lat="46.17537" lon="6.1073">
        <ele>399.4</ele>
        <time>2019-09-13T06:09:53Z</time>
      </trkpt>
      <trkpt lat="46.17539" lon="6.10734">
        <ele>399.3</ele>
        <time>2019-09-13T06:09:54Z</time>
      </trkpt>
      <trkpt lat="46.1754" lon="6.10739">
        <ele>399.2</ele>
        <time>2019-09-13T06:09:55Z</time>
      </trkpt>
      <trkpt lat="46.17541" lon="6.10744">
        <ele>399.1</ele>
        <time>2019-09-13T06:09:56Z</time>
      </trkpt>
      <trkpt lat="46.17542" lon="6.10748">
        <ele>399</ele>
        <time>2019-09-13T06:09:57Z</time>
      </trkpt>
      <trkpt lat="46.17543" lon="6.10752">
        <ele>399</ele>
        <time>2019-09-13T06:09:58Z</time>
      </trkpt>
      <trkpt lat="46.17544" lon="6.10756">
        <ele>398.9</ele>
        <time>2019-09-13T06:09:59Z</time>
      </trkpt>
      <trkpt lat="46.17546" lon="6.10763">
        <ele>398.8</ele>
        <time>2019-09-13T06:10:01Z</time>
      </trkpt>
      <trkpt lat="46.17548" lon="6.10767">
        <ele>398.8</ele>
        <time>2019-09-13T06:10:02Z</time>
      </trkpt>
      <trkpt lat="46.17551" lon="6.10772">
        <ele>398.7</ele>
        <time>2019-09-13T06:10:03Z</time>
      </trkpt>
      <trkpt lat="46.17553" lon="6.10776">
        <ele>398.6</ele>
        <time>2019-09-13T06:10:04Z</time>
      </trkpt>
      <trkpt lat="46.17555" lon="6.10779">
        <ele>398.6</ele>
        <time>2019-09-13T06:10:05Z</time>
      </trkpt>
      <trkpt lat="46.17559" lon="6.10785">
        <ele>398.6</ele>
        <time>2019-09-13T06:10:07Z</time>
      </trkpt>
      <trkpt lat="46.17561" lon="6.10791">
        <ele>398.6</ele>
        <time>2019-09-13T06:10:09Z</time>
      </trkpt>
      <trkpt lat="46.17564" lon="6.10796">
        <ele>398.6</ele>
        <time>2019-09-13T06:10:11Z</time>
      </trkpt>
      <trkpt lat="46.17565" lon="6.10802">
        <ele>398.6</ele>
        <time>2019-09-13T06:10:13Z</time>
      </trkpt>
      <trkpt lat="46.17566" lon="6.10809">
        <ele>398.6</ele>
        <time>2019-09-13T06:10:15Z</time>
      </trkpt>
      <trkpt lat="46.17568" lon="6.10816">
        <ele>398.6</ele>
        <time>2019-09-13T06:10:17Z</time>
      </trkpt>
      <trkpt lat="46.1757" lon="6.1082">
        <ele>398.6</ele>
        <time>2019-09-13T06:10:18Z</time>
      </trkpt>
      <trkpt lat="46.17571" lon="6.10824">
        <ele>398.6</ele>
        <time>2019-09-13T06:10:19Z</time>
      </trkpt>
      <trkpt lat="46.17572" lon="6.10829">
        <ele>398.6</ele>
        <time>2019-09-13T06:10:20Z</time>
      </trkpt>
      <trkpt lat="46.17573" lon="6.10832">
        <ele>398.6</ele>
        <time>2019-09-13T06:10:21Z</time>
      </trkpt>
      <trkpt lat="46.17574" lon="6.10836">
        <ele>398.6</ele>
        <time>2019-09-13T06:10:22Z</time>
      </trkpt>
      <trkpt lat="46.17575" lon="6.1084">
        <ele>398.6</ele>
        <time>2019-09-13T06:10:23Z</time>
      </trkpt>
      <trkpt lat="46.17577" lon="6.10846">
        <ele>398.6</ele>
        <time>2019-09-13T06:10:25Z</time>
      </trkpt>
      <trkpt lat="46.17579" lon="6.10853">
        <ele>398.4</ele>
        <time>2019-09-13T06:10:27Z</time>
      </trkpt>
      <trkpt lat="46.17581" lon="6.10858">
        <ele>398.3</ele>
        <time>2019-09-13T06:10:29Z</time>
      </trkpt>
      <trkpt lat="46.17583" lon="6.10864">
        <ele>398.1</ele>
        <time>2019-09-13T06:10:31Z</time>
      </trkpt>
      <trkpt lat="46.17585" lon="6.10871">
        <ele>397.9</ele>
        <time>2019-09-13T06:10:33Z</time>
      </trkpt>
      <trkpt lat="46.17587" lon="6.10875">
        <ele>397.8</ele>
        <time>2019-09-13T06:10:34Z</time>
      </trkpt>
      <trkpt lat="46.17588" lon="6.10878">
        <ele>397.7</ele>
        <time>2019-09-13T06:10:35Z</time>
      </trkpt>
      <trkpt lat="46.17591" lon="6.10885">
        <ele>397.5</ele>
        <time>2019-09-13T06:10:37Z</time>
      </trkpt>
      <trkpt lat="46.17591" lon="6.10889">
        <ele>397.4</ele>
        <time>2019-09-13T06:10:38Z</time>
      </trkpt>
      <trkpt lat="46.17592" lon="6.10893">
        <ele>397.2</ele>
        <time>2019-09-13T06:10:39Z</time>
      </trkpt>
      <trkpt lat="46.17593" lon="6.10896">
        <ele>397.2</ele>
        <time>2019-09-13T06:10:40Z</time>
      </trkpt>
      <trkpt lat="46.17594" lon="6.109">
        <ele>397.2</ele>
        <time>2019-09-13T06:10:41Z</time>
      </trkpt>
      <trkpt lat="46.17595" lon="6.10904">
        <ele>397.3</ele>
        <time>2019-09-13T06:10:42Z</time>
      </trkpt>
      <trkpt lat="46.17596" lon="6.10908">
        <ele>397.3</ele>
        <time>2019-09-13T06:10:43Z</time>
      </trkpt>
      <trkpt lat="46.17596" lon="6.10912">
        <ele>397.3</ele>
        <time>2019-09-13T06:10:44Z</time>
      </trkpt>
      <trkpt lat="46.17596" lon="6.10916">
        <ele>397.3</ele>
        <time>2019-09-13T06:10:45Z</time>
      </trkpt>
      <trkpt lat="46.17597" lon="6.1092">
        <ele>397.3</ele>
        <time>2019-09-13T06:10:46Z</time>
      </trkpt>
      <trkpt lat="46.17598" lon="6.10927">
        <ele>397.4</ele>
        <time>2019-09-13T06:10:48Z</time>
      </trkpt>
      <trkpt lat="46.17598" lon="6.10934">
        <ele>397.4</ele>
        <time>2019-09-13T06:10:50Z</time>
      </trkpt>
      <trkpt lat="46.17598" lon="6.10938">
        <ele>397.5</ele>
        <time>2019-09-13T06:10:51Z</time>
      </trkpt>
      <trkpt lat="46.17598" lon="6.10942">
        <ele>397.5</ele>
        <time>2019-09-13T06:10:52Z</time>
      </trkpt>
      <trkpt lat="46.17598" lon="6.10946">
        <ele>397.5</ele>
        <time>2019-09-13T06:10:53Z</time>
      </trkpt>
      <trkpt lat="46.17599" lon="6.1095">
        <ele>397.6</ele>
        <time>2019-09-13T06:10:54Z</time>
      </trkpt>
      <trkpt lat="46.17599" lon="6.10954">
        <ele>397.6</ele>
        <time>2019-09-13T06:10:55Z</time>
      </trkpt>
      <trkpt lat="46.176" lon="6.10959">
        <ele>397.6</ele>
        <time>2019-09-13T06:10:56Z</time>
      </trkpt>
      <trkpt lat="46.176" lon="6.10962">
        <ele>397.7</ele>
        <time>2019-09-13T06:10:57Z</time>
      </trkpt>
      <trkpt lat="46.17601" lon="6.1097">
        <ele>397.8</ele>
        <time>2019-09-13T06:10:59Z</time>
      </trkpt>
      <trkpt lat="46.17604" lon="6.10975">
        <ele>397.8</ele>
        <time>2019-09-13T06:11:01Z</time>
      </trkpt>
      <trkpt lat="46.17605" lon="6.10982">
        <ele>397.9</ele>
        <time>2019-09-13T06:11:03Z</time>
      </trkpt>
      <trkpt lat="46.17604" lon="6.10987">
        <ele>397.9</ele>
        <time>2019-09-13T06:11:04Z</time>
      </trkpt>
      <trkpt lat="46.17604" lon="6.10991">
        <ele>398</ele>
        <time>2019-09-13T06:11:05Z</time>
      </trkpt>
      <trkpt lat="46.17604" lon="6.10996">
        <ele>398.1</ele>
        <time>2019-09-13T06:11:06Z</time>
      </trkpt>
      <trkpt lat="46.17603" lon="6.11001">
        <ele>398.2</ele>
        <time>2019-09-13T06:11:07Z</time>
      </trkpt>
      <trkpt lat="46.17604" lon="6.11005">
        <ele>398.4</ele>
        <time>2019-09-13T06:11:08Z</time>
      </trkpt>
      <trkpt lat="46.17605" lon="6.11011">
        <ele>398.3</ele>
        <time>2019-09-13T06:11:10Z</time>
      </trkpt>
      <trkpt lat="46.17605" lon="6.11015">
        <ele>398.3</ele>
        <time>2019-09-13T06:11:11Z</time>
      </trkpt>
      <trkpt lat="46.17605" lon="6.11019">
        <ele>398.3</ele>
        <time>2019-09-13T06:11:12Z</time>
      </trkpt>
      <trkpt lat="46.17604" lon="6.11027">
        <ele>398.2</ele>
        <time>2019-09-13T06:11:14Z</time>
      </trkpt>
      <trkpt lat="46.17604" lon="6.11031">
        <ele>398.2</ele>
        <time>2019-09-13T06:11:15Z</time>
      </trkpt>
      <trkpt lat="46.17604" lon="6.11035">
        <ele>398.2</ele>
        <time>2019-09-13T06:11:16Z</time>
      </trkpt>
      <trkpt lat="46.17604" lon="6.11041">
        <ele>398.1</ele>
        <time>2019-09-13T06:11:18Z</time>
      </trkpt>
      <trkpt lat="46.17607" lon="6.11047">
        <ele>398.1</ele>
        <time>2019-09-13T06:11:20Z</time>
      </trkpt>
      <trkpt lat="46.17609" lon="6.1105">
        <ele>398.1</ele>
        <time>2019-09-13T06:11:21Z</time>
      </trkpt>
      <trkpt lat="46.17611" lon="6.11053">
        <ele>398</ele>
        <time>2019-09-13T06:11:22Z</time>
      </trkpt>
      <trkpt lat="46.17613" lon="6.11057">
        <ele>398</ele>
        <time>2019-09-13T06:11:23Z</time>
      </trkpt>
      <trkpt lat="46.17616" lon="6.11063">
        <ele>397.9</ele>
        <time>2019-09-13T06:11:25Z</time>
      </trkpt>
      <trkpt lat="46.17617" lon="6.11067">
        <ele>397.9</ele>
        <time>2019-09-13T06:11:26Z</time>
      </trkpt>
      <trkpt lat="46.17619" lon="6.11071">
        <ele>397.9</ele>
        <time>2019-09-13T06:11:27Z</time>
      </trkpt>
      <trkpt lat="46.1762" lon="6.11075">
        <ele>397.7</ele>
        <time>2019-09-13T06:11:28Z</time>
      </trkpt>
      <trkpt lat="46.17622" lon="6.11079">
        <ele>397.6</ele>
        <time>2019-09-13T06:11:29Z</time>
      </trkpt>
      <trkpt lat="46.17624" lon="6.11083">
        <ele>397.5</ele>
        <time>2019-09-13T06:11:30Z</time>
      </trkpt>
      <trkpt lat="46.17626" lon="6.11086">
        <ele>397.4</ele>
        <time>2019-09-13T06:11:31Z</time>
      </trkpt>
      <trkpt lat="46.17628" lon="6.11093">
        <ele>397.4</ele>
        <time>2019-09-13T06:11:33Z</time>
      </trkpt>
      <trkpt lat="46.17629" lon="6.111">
        <ele>397.3</ele>
        <time>2019-09-13T06:11:35Z</time>
      </trkpt>
      <trkpt lat="46.17631" lon="6.11107">
        <ele>397.2</ele>
        <time>2019-09-13T06:11:37Z</time>
      </trkpt>
      <trkpt lat="46.17632" lon="6.1111">
        <ele>397.1</ele>
        <time>2019-09-13T06:11:38Z</time>
      </trkpt>
      <trkpt lat="46.17634" lon="6.11113">
        <ele>397.1</ele>
        <time>2019-09-13T06:11:39Z</time>
      </trkpt>
      <trkpt lat="46.17637" lon="6.11119">
        <ele>397</ele>
        <time>2019-09-13T06:11:41Z</time>
      </trkpt>
      <trkpt lat="46.1764" lon="6.11125">
        <ele>396.9</ele>
        <time>2019-09-13T06:11:43Z</time>
      </trkpt>
      <trkpt lat="46.17641" lon="6.11128">
        <ele>396.8</ele>
        <time>2019-09-13T06:11:44Z</time>
      </trkpt>
      <trkpt lat="46.17644" lon="6.11135">
        <ele>396.7</ele>
        <time>2019-09-13T06:11:46Z</time>
      </trkpt>
      <trkpt lat="46.17646" lon="6.1114">
        <ele>396.7</ele>
        <time>2019-09-13T06:11:48Z</time>
      </trkpt>
      <trkpt lat="46.17649" lon="6.11146">
        <ele>396.6</ele>
        <time>2019-09-13T06:11:50Z</time>
      </trkpt>
      <trkpt lat="46.17652" lon="6.11153">
        <ele>396.5</ele>
        <time>2019-09-13T06:11:52Z</time>
      </trkpt>
      <trkpt lat="46.17655" lon="6.11159">
        <ele>396.4</ele>
        <time>2019-09-13T06:11:54Z</time>
      </trkpt>
      <trkpt lat="46.17657" lon="6.11162">
        <ele>396.4</ele>
        <time>2019-09-13T06:11:55Z</time>
      </trkpt>
      <trkpt lat="46.17658" lon="6.11166">
        <ele>396.4</ele>
        <time>2019-09-13T06:11:56Z</time>
      </trkpt>
      <trkpt lat="46.1766" lon="6.11169">
        <ele>396.3</ele>
        <time>2019-09-13T06:11:57Z</time>
      </trkpt>
      <trkpt lat="46.17663" lon="6.11175">
        <ele>396.2</ele>
        <time>2019-09-13T06:11:59Z</time>
      </trkpt>
      <trkpt lat="46.17666" lon="6.1118">
        <ele>396.1</ele>
        <time>2019-09-13T06:12:01Z</time>
      </trkpt>
      <trkpt lat="46.1767" lon="6.11185">
        <ele>396.1</ele>
        <time>2019-09-13T06:12:03Z</time>
      </trkpt>
      <trkpt lat="46.17673" lon="6.11191">
        <ele>396</ele>
        <time>2019-09-13T06:12:05Z</time>
      </trkpt>
      <trkpt lat="46.17675" lon="6.11198">
        <ele>395.9</ele>
        <time>2019-09-13T06:12:07Z</time>
      </trkpt>
      <trkpt lat="46.17676" lon="6.11202">
        <ele>395.9</ele>
        <time>2019-09-13T06:12:08Z</time>
      </trkpt>
      <trkpt lat="46.17677" lon="6.11206">
        <ele>395.9</ele>
        <time>2019-09-13T06:12:09Z</time>
      </trkpt>
      <trkpt lat="46.17679" lon="6.1121">
        <ele>395.9</ele>
        <time>2019-09-13T06:12:10Z</time>
      </trkpt>
      <trkpt lat="46.1768" lon="6.11214">
        <ele>395.9</ele>
        <time>2019-09-13T06:12:11Z</time>
      </trkpt>
      <trkpt lat="46.17681" lon="6.11217">
        <ele>395.8</ele>
        <time>2019-09-13T06:12:12Z</time>
      </trkpt>
      <trkpt lat="46.17684" lon="6.11224">
        <ele>395.8</ele>
        <time>2019-09-13T06:12:14Z</time>
      </trkpt>
      <trkpt lat="46.17685" lon="6.11228">
        <ele>395.8</ele>
        <time>2019-09-13T06:12:15Z</time>
      </trkpt>
      <trkpt lat="46.17686" lon="6.11231">
        <ele>395.8</ele>
        <time>2019-09-13T06:12:16Z</time>
      </trkpt>
      <trkpt lat="46.17687" lon="6.11235">
        <ele>395.8</ele>
        <time>2019-09-13T06:12:17Z</time>
      </trkpt>
      <trkpt lat="46.17689" lon="6.11239">
        <ele>395.8</ele>
        <time>2019-09-13T06:12:18Z</time>
      </trkpt>
      <trkpt lat="46.1769" lon="6.11244">
        <ele>395.7</ele>
        <time>2019-09-13T06:12:19Z</time>
      </trkpt>
      <trkpt lat="46.17691" lon="6.11248">
        <ele>395.8</ele>
        <time>2019-09-13T06:12:20Z</time>
      </trkpt>
      <trkpt lat="46.17693" lon="6.11255">
        <ele>395.8</ele>
        <time>2019-09-13T06:12:22Z</time>
      </trkpt>
      <trkpt lat="46.17696" lon="6.11261">
        <ele>395.8</ele>
        <time>2019-09-13T06:12:24Z</time>
      </trkpt>
      <trkpt lat="46.17699" lon="6.11267">
        <ele>395.8</ele>
        <time>2019-09-13T06:12:26Z</time>
      </trkpt>
      <trkpt lat="46.177" lon="6.11271">
        <ele>395.8</ele>
        <time>2019-09-13T06:12:27Z</time>
      </trkpt>
      <trkpt lat="46.17702" lon="6.11274">
        <ele>395.8</ele>
        <time>2019-09-13T06:12:28Z</time>
      </trkpt>
      <trkpt lat="46.17704" lon="6.11282">
        <ele>395.6</ele>
        <time>2019-09-13T06:12:30Z</time>
      </trkpt>
      <trkpt lat="46.17705" lon="6.11286">
        <ele>395.4</ele>
        <time>2019-09-13T06:12:31Z</time>
      </trkpt>
      <trkpt lat="46.17706" lon="6.1129">
        <ele>395.3</ele>
        <time>2019-09-13T06:12:32Z</time>
      </trkpt>
      <trkpt lat="46.17707" lon="6.11297">
        <ele>395.1</ele>
        <time>2019-09-13T06:12:34Z</time>
      </trkpt>
      <trkpt lat="46.17709" lon="6.11303">
        <ele>395</ele>
        <time>2019-09-13T06:12:36Z</time>
      </trkpt>
      <trkpt lat="46.1771" lon="6.11307">
        <ele>395</ele>
        <time>2019-09-13T06:12:37Z</time>
      </trkpt>
      <trkpt lat="46.17712" lon="6.11313">
        <ele>394.9</ele>
        <time>2019-09-13T06:12:39Z</time>
      </trkpt>
      <trkpt lat="46.17713" lon="6.11319">
        <ele>394.9</ele>
        <time>2019-09-13T06:12:41Z</time>
      </trkpt>
      <trkpt lat="46.17715" lon="6.11326">
        <ele>394.9</ele>
        <time>2019-09-13T06:12:43Z</time>
      </trkpt>
      <trkpt lat="46.17719" lon="6.11331">
        <ele>394.9</ele>
        <time>2019-09-13T06:12:45Z</time>
      </trkpt>
      <trkpt lat="46.17721" lon="6.11334">
        <ele>394.9</ele>
        <time>2019-09-13T06:12:46Z</time>
      </trkpt>
      <trkpt lat="46.17723" lon="6.11337">
        <ele>394.9</ele>
        <time>2019-09-13T06:12:47Z</time>
      </trkpt>
      <trkpt lat="46.17725" lon="6.1134">
        <ele>394.9</ele>
        <time>2019-09-13T06:12:48Z</time>
      </trkpt>
      <trkpt lat="46.17727" lon="6.11344">
        <ele>394.9</ele>
        <time>2019-09-13T06:12:49Z</time>
      </trkpt>
      <trkpt lat="46.17732" lon="6.11349">
        <ele>394.9</ele>
        <time>2019-09-13T06:12:51Z</time>
      </trkpt>
      <trkpt lat="46.17735" lon="6.11352">
        <ele>394.9</ele>
        <time>2019-09-13T06:12:52Z</time>
      </trkpt>
      <trkpt lat="46.17738" lon="6.11355">
        <ele>394.9</ele>
        <time>2019-09-13T06:12:53Z</time>
      </trkpt>
      <trkpt lat="46.1774" lon="6.11358">
        <ele>394.8</ele>
        <time>2019-09-13T06:12:54Z</time>
      </trkpt>
      <trkpt lat="46.17742" lon="6.11361">
        <ele>394.8</ele>
        <time>2019-09-13T06:12:55Z</time>
      </trkpt>
      <trkpt lat="46.17744" lon="6.11364">
        <ele>394.8</ele>
        <time>2019-09-13T06:12:56Z</time>
      </trkpt>
      <trkpt lat="46.17746" lon="6.11367">
        <ele>394.8</ele>
        <time>2019-09-13T06:12:57Z</time>
      </trkpt>
      <trkpt lat="46.17747" lon="6.11371">
        <ele>394.8</ele>
        <time>2019-09-13T06:12:58Z</time>
      </trkpt>
      <trkpt lat="46.17748" lon="6.11375">
        <ele>394.8</ele>
        <time>2019-09-13T06:12:59Z</time>
      </trkpt>
      <trkpt lat="46.17749" lon="6.11379">
        <ele>394.8</ele>
        <time>2019-09-13T06:13:00Z</time>
      </trkpt>
      <trkpt lat="46.17751" lon="6.11385">
        <ele>394.8</ele>
        <time>2019-09-13T06:13:02Z</time>
      </trkpt>
      <trkpt lat="46.17752" lon="6.11389">
        <ele>394.8</ele>
        <time>2019-09-13T06:13:03Z</time>
      </trkpt>
      <trkpt lat="46.17754" lon="6.11393">
        <ele>394.8</ele>
        <time>2019-09-13T06:13:04Z</time>
      </trkpt>
      <trkpt lat="46.17756" lon="6.11397">
        <ele>394.8</ele>
        <time>2019-09-13T06:13:05Z</time>
      </trkpt>
      <trkpt lat="46.17757" lon="6.11401">
        <ele>394.8</ele>
        <time>2019-09-13T06:13:06Z</time>
      </trkpt>
      <trkpt lat="46.17757" lon="6.11404">
        <ele>394.8</ele>
        <time>2019-09-13T06:13:07Z</time>
      </trkpt>
      <trkpt lat="46.17757" lon="6.11409">
        <ele>394.7</ele>
        <time>2019-09-13T06:13:08Z</time>
      </trkpt>
      <trkpt lat="46.17757" lon="6.11413">
        <ele>394.7</ele>
        <time>2019-09-13T06:13:09Z</time>
      </trkpt>
      <trkpt lat="46.17759" lon="6.11419">
        <ele>394.7</ele>
        <time>2019-09-13T06:13:11Z</time>
      </trkpt>
      <trkpt lat="46.17761" lon="6.11423">
        <ele>394.6</ele>
        <time>2019-09-13T06:13:12Z</time>
      </trkpt>
      <trkpt lat="46.17762" lon="6.11426">
        <ele>394.6</ele>
        <time>2019-09-13T06:13:13Z</time>
      </trkpt>
      <trkpt lat="46.17763" lon="6.11431">
        <ele>394.6</ele>
        <time>2019-09-13T06:13:14Z</time>
      </trkpt>
      <trkpt lat="46.17764" lon="6.11434">
        <ele>394.6</ele>
        <time>2019-09-13T06:13:15Z</time>
      </trkpt>
      <trkpt lat="46.17768" lon="6.1144">
        <ele>394.6</ele>
        <time>2019-09-13T06:13:17Z</time>
      </trkpt>
      <trkpt lat="46.1777" lon="6.11443">
        <ele>394.6</ele>
        <time>2019-09-13T06:13:18Z</time>
      </trkpt>
      <trkpt lat="46.17772" lon="6.11446">
        <ele>394.6</ele>
        <time>2019-09-13T06:13:19Z</time>
      </trkpt>
      <trkpt lat="46.17775" lon="6.11447">
        <ele>394.5</ele>
        <time>2019-09-13T06:13:20Z</time>
      </trkpt>
      <trkpt lat="46.17778" lon="6.11449">
        <ele>394.5</ele>
        <time>2019-09-13T06:13:21Z</time>
      </trkpt>
      <trkpt lat="46.17781" lon="6.1145">
        <ele>394.5</ele>
        <time>2019-09-13T06:13:22Z</time>
      </trkpt>
      <trkpt lat="46.17784" lon="6.11452">
        <ele>394.5</ele>
        <time>2019-09-13T06:13:23Z</time>
      </trkpt>
      <trkpt lat="46.17787" lon="6.11453">
        <ele>394.4</ele>
        <time>2019-09-13T06:13:24Z</time>
      </trkpt>
      <trkpt lat="46.1779" lon="6.11454">
        <ele>394.4</ele>
        <time>2019-09-13T06:13:25Z</time>
      </trkpt>
      <trkpt lat="46.17793" lon="6.11455">
        <ele>394.4</ele>
        <time>2019-09-13T06:13:26Z</time>
      </trkpt>
      <trkpt lat="46.17795" lon="6.11455">
        <ele>394.4</ele>
        <time>2019-09-13T06:13:27Z</time>
      </trkpt>
      <trkpt lat="46.17798" lon="6.11456">
        <ele>394.4</ele>
        <time>2019-09-13T06:13:28Z</time>
      </trkpt>
      <trkpt lat="46.17801" lon="6.11457">
        <ele>394.4</ele>
        <time>2019-09-13T06:13:29Z</time>
      </trkpt>
      <trkpt lat="46.17804" lon="6.11458">
        <ele>394.4</ele>
        <time>2019-09-13T06:13:30Z</time>
      </trkpt>
      <trkpt lat="46.17808" lon="6.11461">
        <ele>394.4</ele>
        <time>2019-09-13T06:13:32Z</time>
      </trkpt>
      <trkpt lat="46.17812" lon="6.11463">
        <ele>394.5</ele>
        <time>2019-09-13T06:13:34Z</time>
      </trkpt>
      <trkpt lat="46.17817" lon="6.11466">
        <ele>394.5</ele>
        <time>2019-09-13T06:13:36Z</time>
      </trkpt>
      <trkpt lat="46.17821" lon="6.11469">
        <ele>394.5</ele>
        <time>2019-09-13T06:13:38Z</time>
      </trkpt>
      <trkpt lat="46.17824" lon="6.11471">
        <ele>394.5</ele>
        <time>2019-09-13T06:13:39Z</time>
      </trkpt>
      <trkpt lat="46.17829" lon="6.11474">
        <ele>394.5</ele>
        <time>2019-09-13T06:13:41Z</time>
      </trkpt>
      <trkpt lat="46.17831" lon="6.11475">
        <ele>394.4</ele>
        <time>2019-09-13T06:13:42Z</time>
      </trkpt>
      <trkpt lat="46.17834" lon="6.11477">
        <ele>394.4</ele>
        <time>2019-09-13T06:13:43Z</time>
      </trkpt>
      <trkpt lat="46.17836" lon="6.11479">
        <ele>394.4</ele>
        <time>2019-09-13T06:13:44Z</time>
      </trkpt>
      <trkpt lat="46.17841" lon="6.11482">
        <ele>394.3</ele>
        <time>2019-09-13T06:13:46Z</time>
      </trkpt>
      <trkpt lat="46.17843" lon="6.11485">
        <ele>394.2</ele>
        <time>2019-09-13T06:13:47Z</time>
      </trkpt>
      <trkpt lat="46.17846" lon="6.11487">
        <ele>394.1</ele>
        <time>2019-09-13T06:13:48Z</time>
      </trkpt>
      <trkpt lat="46.1785" lon="6.11491">
        <ele>393.9</ele>
        <time>2019-09-13T06:13:50Z</time>
      </trkpt>
      <trkpt lat="46.17854" lon="6.11495">
        <ele>393.8</ele>
        <time>2019-09-13T06:13:52Z</time>
      </trkpt>
      <trkpt lat="46.17857" lon="6.11496">
        <ele>393.7</ele>
        <time>2019-09-13T06:13:53Z</time>
      </trkpt>
      <trkpt lat="46.1786" lon="6.11497">
        <ele>393.6</ele>
        <time>2019-09-13T06:13:54Z</time>
      </trkpt>
      <trkpt lat="46.17862" lon="6.11499">
        <ele>393.5</ele>
        <time>2019-09-13T06:13:55Z</time>
      </trkpt>
      <trkpt lat="46.17865" lon="6.11502">
        <ele>393.5</ele>
        <time>2019-09-13T06:13:56Z</time>
      </trkpt>
      <trkpt lat="46.17867" lon="6.11505">
        <ele>393.4</ele>
        <time>2019-09-13T06:13:57Z</time>
      </trkpt>
      <trkpt lat="46.17871" lon="6.1151">
        <ele>393.2</ele>
        <time>2019-09-13T06:13:59Z</time>
      </trkpt>
      <trkpt lat="46.17875" lon="6.11515">
        <ele>393.1</ele>
        <time>2019-09-13T06:14:01Z</time>
      </trkpt>
      <trkpt lat="46.17877" lon="6.11518">
        <ele>393</ele>
        <time>2019-09-13T06:14:02Z</time>
      </trkpt>
      <trkpt lat="46.17879" lon="6.11521">
        <ele>393</ele>
        <time>2019-09-13T06:14:03Z</time>
      </trkpt>
      <trkpt lat="46.17881" lon="6.11524">
        <ele>392.9</ele>
        <time>2019-09-13T06:14:04Z</time>
      </trkpt>
      <trkpt lat="46.17883" lon="6.11526">
        <ele>392.9</ele>
        <time>2019-09-13T06:14:05Z</time>
      </trkpt>
      <trkpt lat="46.17887" lon="6.11531">
        <ele>392.8</ele>
        <time>2019-09-13T06:14:07Z</time>
      </trkpt>
      <trkpt lat="46.1789" lon="6.11536">
        <ele>392.8</ele>
        <time>2019-09-13T06:14:09Z</time>
      </trkpt>
      <trkpt lat="46.17892" lon="6.11539">
        <ele>392.7</ele>
        <time>2019-09-13T06:14:10Z</time>
      </trkpt>
      <trkpt lat="46.17895" lon="6.11545">
        <ele>392.7</ele>
        <time>2019-09-13T06:14:12Z</time>
      </trkpt>
      <trkpt lat="46.17898" lon="6.11552">
        <ele>392.8</ele>
        <time>2019-09-13T06:14:14Z</time>
      </trkpt>
      <trkpt lat="46.17901" lon="6.11558">
        <ele>393</ele>
        <time>2019-09-13T06:14:16Z</time>
      </trkpt>
      <trkpt lat="46.17903" lon="6.1156">
        <ele>393</ele>
        <time>2019-09-13T06:14:17Z</time>
      </trkpt>
      <trkpt lat="46.17906" lon="6.11562">
        <ele>393.2</ele>
        <time>2019-09-13T06:14:18Z</time>
      </trkpt>
      <trkpt lat="46.17908" lon="6.11564">
        <ele>393.1</ele>
        <time>2019-09-13T06:14:19Z</time>
      </trkpt>
      <trkpt lat="46.17911" lon="6.11566">
        <ele>393</ele>
        <time>2019-09-13T06:14:20Z</time>
      </trkpt>
      <trkpt lat="46.17915" lon="6.1157">
        <ele>392.8</ele>
        <time>2019-09-13T06:14:22Z</time>
      </trkpt>
      <trkpt lat="46.17917" lon="6.11573">
        <ele>392.8</ele>
        <time>2019-09-13T06:14:23Z</time>
      </trkpt>
      <trkpt lat="46.1792" lon="6.11576">
        <ele>392.7</ele>
        <time>2019-09-13T06:14:24Z</time>
      </trkpt>
      <trkpt lat="46.17922" lon="6.11578">
        <ele>392.6</ele>
        <time>2019-09-13T06:14:25Z</time>
      </trkpt>
      <trkpt lat="46.17924" lon="6.1158">
        <ele>392.5</ele>
        <time>2019-09-13T06:14:26Z</time>
      </trkpt>
      <trkpt lat="46.17929" lon="6.11581">
        <ele>392.4</ele>
        <time>2019-09-13T06:14:28Z</time>
      </trkpt>
      <trkpt lat="46.17933" lon="6.11581">
        <ele>392.3</ele>
        <time>2019-09-13T06:14:30Z</time>
      </trkpt>
      <trkpt lat="46.17935" lon="6.11581">
        <ele>392.2</ele>
        <time>2019-09-13T06:14:32Z</time>
      </trkpt>
      <trkpt lat="46.17941" lon="6.11581">
        <ele>392.1</ele>
        <time>2019-09-13T06:14:34Z</time>
      </trkpt>
      <trkpt lat="46.17944" lon="6.11582">
        <ele>392</ele>
        <time>2019-09-13T06:14:35Z</time>
      </trkpt>
      <trkpt lat="46.17948" lon="6.11583">
        <ele>392</ele>
        <time>2019-09-13T06:14:36Z</time>
      </trkpt>
      <trkpt lat="46.17951" lon="6.11584">
        <ele>391.9</ele>
        <time>2019-09-13T06:14:37Z</time>
      </trkpt>
      <trkpt lat="46.17954" lon="6.11585">
        <ele>391.9</ele>
        <time>2019-09-13T06:14:38Z</time>
      </trkpt>
      <trkpt lat="46.17957" lon="6.11586">
        <ele>391.8</ele>
        <time>2019-09-13T06:14:39Z</time>
      </trkpt>
      <trkpt lat="46.1796" lon="6.11586">
        <ele>391.8</ele>
        <time>2019-09-13T06:14:40Z</time>
      </trkpt>
      <trkpt lat="46.17965" lon="6.11587">
        <ele>391.7</ele>
        <time>2019-09-13T06:14:42Z</time>
      </trkpt>
      <trkpt lat="46.17968" lon="6.11586">
        <ele>391.7</ele>
        <time>2019-09-13T06:14:43Z</time>
      </trkpt>
      <trkpt lat="46.17971" lon="6.11586">
        <ele>391.7</ele>
        <time>2019-09-13T06:14:44Z</time>
      </trkpt>
      <trkpt lat="46.17975" lon="6.11586">
        <ele>391.7</ele>
        <time>2019-09-13T06:14:45Z</time>
      </trkpt>
      <trkpt lat="46.17978" lon="6.11586">
        <ele>391.7</ele>
        <time>2019-09-13T06:14:46Z</time>
      </trkpt>
      <trkpt lat="46.17982" lon="6.11587">
        <ele>391.6</ele>
        <time>2019-09-13T06:14:48Z</time>
      </trkpt>
      <trkpt lat="46.17987" lon="6.11589">
        <ele>391.6</ele>
        <time>2019-09-13T06:14:50Z</time>
      </trkpt>
      <trkpt lat="46.17993" lon="6.11591">
        <ele>391.6</ele>
        <time>2019-09-13T06:14:52Z</time>
      </trkpt>
      <trkpt lat="46.17998" lon="6.11592">
        <ele>391.6</ele>
        <time>2019-09-13T06:14:54Z</time>
      </trkpt>
      <trkpt lat="46.18002" lon="6.11594">
        <ele>391.7</ele>
        <time>2019-09-13T06:14:56Z</time>
      </trkpt>
      <trkpt lat="46.18006" lon="6.11595">
        <ele>391.7</ele>
        <time>2019-09-13T06:14:58Z</time>
      </trkpt>
      <trkpt lat="46.1801" lon="6.11597">
        <ele>391.7</ele>
        <time>2019-09-13T06:15:00Z</time>
      </trkpt>
      <trkpt lat="46.18015" lon="6.11598">
        <ele>391.7</ele>
        <time>2019-09-13T06:15:02Z</time>
      </trkpt>
      <trkpt lat="46.18017" lon="6.11599">
        <ele>391.8</ele>
        <time>2019-09-13T06:15:03Z</time>
      </trkpt>
      <trkpt lat="46.18023" lon="6.116">
        <ele>391.8</ele>
        <time>2019-09-13T06:15:05Z</time>
      </trkpt>
      <trkpt lat="46.18025" lon="6.11601">
        <ele>391.8</ele>
        <time>2019-09-13T06:15:06Z</time>
      </trkpt>
      <trkpt lat="46.18031" lon="6.11603">
        <ele>391.8</ele>
        <time>2019-09-13T06:15:08Z</time>
      </trkpt>
      <trkpt lat="46.18036" lon="6.11605">
        <ele>391.7</ele>
        <time>2019-09-13T06:15:10Z</time>
      </trkpt>
      <trkpt lat="46.18039" lon="6.11606">
        <ele>391.6</ele>
        <time>2019-09-13T06:15:11Z</time>
      </trkpt>
      <trkpt lat="46.18042" lon="6.11607">
        <ele>391.5</ele>
        <time>2019-09-13T06:15:12Z</time>
      </trkpt>
      <trkpt lat="46.18044" lon="6.11608">
        <ele>391.4</ele>
        <time>2019-09-13T06:15:13Z</time>
      </trkpt>
      <trkpt lat="46.18047" lon="6.11609">
        <ele>391.4</ele>
        <time>2019-09-13T06:15:14Z</time>
      </trkpt>
      <trkpt lat="46.18052" lon="6.11611">
        <ele>391.2</ele>
        <time>2019-09-13T06:15:16Z</time>
      </trkpt>
      <trkpt lat="46.18055" lon="6.11611">
        <ele>391.1</ele>
        <time>2019-09-13T06:15:17Z</time>
      </trkpt>
      <trkpt lat="46.18058" lon="6.11612">
        <ele>391</ele>
        <time>2019-09-13T06:15:18Z</time>
      </trkpt>
      <trkpt lat="46.18063" lon="6.11614">
        <ele>390.8</ele>
        <time>2019-09-13T06:15:20Z</time>
      </trkpt>
      <trkpt lat="46.18068" lon="6.11615">
        <ele>390.7</ele>
        <time>2019-09-13T06:15:22Z</time>
      </trkpt>
      <trkpt lat="46.18072" lon="6.11616">
        <ele>390.5</ele>
        <time>2019-09-13T06:15:24Z</time>
      </trkpt>
      <trkpt lat="46.18077" lon="6.11616">
        <ele>390.4</ele>
        <time>2019-09-13T06:15:26Z</time>
      </trkpt>
      <trkpt lat="46.1808" lon="6.11616">
        <ele>390.3</ele>
        <time>2019-09-13T06:15:28Z</time>
      </trkpt>
      <trkpt lat="46.18085" lon="6.11615">
        <ele>390.2</ele>
        <time>2019-09-13T06:15:30Z</time>
      </trkpt>
      <trkpt lat="46.1809" lon="6.11614">
        <ele>390</ele>
        <time>2019-09-13T06:15:32Z</time>
      </trkpt>
      <trkpt lat="46.18093" lon="6.11614">
        <ele>389.9</ele>
        <time>2019-09-13T06:15:33Z</time>
      </trkpt>
      <trkpt lat="46.18096" lon="6.11614">
        <ele>389.9</ele>
        <time>2019-09-13T06:15:34Z</time>
      </trkpt>
      <trkpt lat="46.18099" lon="6.11615">
        <ele>389.8</ele>
        <time>2019-09-13T06:15:35Z</time>
      </trkpt>
      <trkpt lat="46.18104" lon="6.11615">
        <ele>389.7</ele>
        <time>2019-09-13T06:15:37Z</time>
      </trkpt>
      <trkpt lat="46.18108" lon="6.11616">
        <ele>389.6</ele>
        <time>2019-09-13T06:15:39Z</time>
      </trkpt>
      <trkpt lat="46.18113" lon="6.1162">
        <ele>389.4</ele>
        <time>2019-09-13T06:15:41Z</time>
      </trkpt>
      <trkpt lat="46.18116" lon="6.11622">
        <ele>389.4</ele>
        <time>2019-09-13T06:15:42Z</time>
      </trkpt>
      <trkpt lat="46.18118" lon="6.11624">
        <ele>389.3</ele>
        <time>2019-09-13T06:15:43Z</time>
      </trkpt>
      <trkpt lat="46.1812" lon="6.11627">
        <ele>389.3</ele>
        <time>2019-09-13T06:15:44Z</time>
      </trkpt>
      <trkpt lat="46.18121" lon="6.1163">
        <ele>389.2</ele>
        <time>2019-09-13T06:15:45Z</time>
      </trkpt>
      <trkpt lat="46.18123" lon="6.11634">
        <ele>389.2</ele>
        <time>2019-09-13T06:15:46Z</time>
      </trkpt>
      <trkpt lat="46.18124" lon="6.11642">
        <ele>389.1</ele>
        <time>2019-09-13T06:15:48Z</time>
      </trkpt>
      <trkpt lat="46.18124" lon="6.11646">
        <ele>389.1</ele>
        <time>2019-09-13T06:15:49Z</time>
      </trkpt>
      <trkpt lat="46.18124" lon="6.1165">
        <ele>389</ele>
        <time>2019-09-13T06:15:50Z</time>
      </trkpt>
      <trkpt lat="46.18125" lon="6.11654">
        <ele>389</ele>
        <time>2019-09-13T06:15:51Z</time>
      </trkpt>
      <trkpt lat="46.18125" lon="6.11659">
        <ele>388.9</ele>
        <time>2019-09-13T06:15:52Z</time>
      </trkpt>
      <trkpt lat="46.18127" lon="6.11663">
        <ele>388.9</ele>
        <time>2019-09-13T06:15:53Z</time>
      </trkpt>
      <trkpt lat="46.18131" lon="6.11668">
        <ele>388.8</ele>
        <time>2019-09-13T06:15:55Z</time>
      </trkpt>
      <trkpt lat="46.18133" lon="6.1167">
        <ele>388.7</ele>
        <time>2019-09-13T06:15:56Z</time>
      </trkpt>
      <trkpt lat="46.18138" lon="6.11675">
        <ele>388.6</ele>
        <time>2019-09-13T06:15:58Z</time>
      </trkpt>
      <trkpt lat="46.1814" lon="6.1168">
        <ele>388.5</ele>
        <time>2019-09-13T06:16:00Z</time>
      </trkpt>
      <trkpt lat="46.1814" lon="6.11685">
        <ele>388.5</ele>
        <time>2019-09-13T06:16:03Z</time>
      </trkpt>
      <trkpt lat="46.18142" lon="6.11689">
        <ele>388.3</ele>
        <time>2019-09-13T06:16:06Z</time>
      </trkpt>
      <trkpt lat="46.18146" lon="6.11694">
        <ele>388.2</ele>
        <time>2019-09-13T06:16:08Z</time>
      </trkpt>
      <trkpt lat="46.18148" lon="6.11698">
        <ele>388.1</ele>
        <time>2019-09-13T06:16:09Z</time>
      </trkpt>
      <trkpt lat="46.18151" lon="6.11703">
        <ele>388.1</ele>
        <time>2019-09-13T06:16:11Z</time>
      </trkpt>
      <trkpt lat="46.18156" lon="6.11707">
        <ele>388.1</ele>
        <time>2019-09-13T06:16:13Z</time>
      </trkpt>
      <trkpt lat="46.18159" lon="6.11709">
        <ele>388.2</ele>
        <time>2019-09-13T06:16:14Z</time>
      </trkpt>
      <trkpt lat="46.18163" lon="6.11712">
        <ele>388.2</ele>
        <time>2019-09-13T06:16:16Z</time>
      </trkpt>
      <trkpt lat="46.18165" lon="6.11714">
        <ele>388.3</ele>
        <time>2019-09-13T06:16:17Z</time>
      </trkpt>
      <trkpt lat="46.1817" lon="6.11717">
        <ele>388.4</ele>
        <time>2019-09-13T06:16:19Z</time>
      </trkpt>
      <trkpt lat="46.18174" lon="6.11719">
        <ele>388.5</ele>
        <time>2019-09-13T06:16:21Z</time>
      </trkpt>
      <trkpt lat="46.18178" lon="6.11718">
        <ele>388.7</ele>
        <time>2019-09-13T06:16:23Z</time>
      </trkpt>
      <trkpt lat="46.18184" lon="6.11719">
        <ele>388.9</ele>
        <time>2019-09-13T06:16:25Z</time>
      </trkpt>
      <trkpt lat="46.18187" lon="6.1172">
        <ele>389</ele>
        <time>2019-09-13T06:16:26Z</time>
      </trkpt>
      <trkpt lat="46.1819" lon="6.11721">
        <ele>389.1</ele>
        <time>2019-09-13T06:16:27Z</time>
      </trkpt>
      <trkpt lat="46.18193" lon="6.11722">
        <ele>389.2</ele>
        <time>2019-09-13T06:16:28Z</time>
      </trkpt>
      <trkpt lat="46.18196" lon="6.11723">
        <ele>389.3</ele>
        <time>2019-09-13T06:16:29Z</time>
      </trkpt>
      <trkpt lat="46.18198" lon="6.11725">
        <ele>389.4</ele>
        <time>2019-09-13T06:16:30Z</time>
      </trkpt>
      <trkpt lat="46.18202" lon="6.11727">
        <ele>389.4</ele>
        <time>2019-09-13T06:16:32Z</time>
      </trkpt>
      <trkpt lat="46.18207" lon="6.11725">
        <ele>389.3</ele>
        <time>2019-09-13T06:16:37Z</time>
      </trkpt>
      <trkpt lat="46.18209" lon="6.11723">
        <ele>389.2</ele>
        <time>2019-09-13T06:16:38Z</time>
      </trkpt>
      <trkpt lat="46.18212" lon="6.11721">
        <ele>389.2</ele>
        <time>2019-09-13T06:16:40Z</time>
      </trkpt>
      <trkpt lat="46.18215" lon="6.11717">
        <ele>389.2</ele>
        <time>2019-09-13T06:16:43Z</time>
      </trkpt>
      <trkpt lat="46.18218" lon="6.11715">
        <ele>389.2</ele>
        <time>2019-09-13T06:16:44Z</time>
      </trkpt>
      <trkpt lat="46.18222" lon="6.11712">
        <ele>389.2</ele>
        <time>2019-09-13T06:16:46Z</time>
      </trkpt>
      <trkpt lat="46.18227" lon="6.11709">
        <ele>389.4</ele>
        <time>2019-09-13T06:16:48Z</time>
      </trkpt>
      <trkpt lat="46.18231" lon="6.11707">
        <ele>389.5</ele>
        <time>2019-09-13T06:16:49Z</time>
      </trkpt>
      <trkpt lat="46.18235" lon="6.11706">
        <ele>389.5</ele>
        <time>2019-09-13T06:16:50Z</time>
      </trkpt>
      <trkpt lat="46.18238" lon="6.11704">
        <ele>389.5</ele>
        <time>2019-09-13T06:16:51Z</time>
      </trkpt>
      <trkpt lat="46.18241" lon="6.11703">
        <ele>389.5</ele>
        <time>2019-09-13T06:16:52Z</time>
      </trkpt>
      <trkpt lat="46.18244" lon="6.11702">
        <ele>389.5</ele>
        <time>2019-09-13T06:16:53Z</time>
      </trkpt>
      <trkpt lat="46.18248" lon="6.11701">
        <ele>389.5</ele>
        <time>2019-09-13T06:16:54Z</time>
      </trkpt>
      <trkpt lat="46.18251" lon="6.11699">
        <ele>389.5</ele>
        <time>2019-09-13T06:16:55Z</time>
      </trkpt>
      <trkpt lat="46.18256" lon="6.11698">
        <ele>389.5</ele>
        <time>2019-09-13T06:16:57Z</time>
      </trkpt>
      <trkpt lat="46.18259" lon="6.11697">
        <ele>389.5</ele>
        <time>2019-09-13T06:16:58Z</time>
      </trkpt>
      <trkpt lat="46.18262" lon="6.11698">
        <ele>389.4</ele>
        <time>2019-09-13T06:16:59Z</time>
      </trkpt>
      <trkpt lat="46.18265" lon="6.11699">
        <ele>389.4</ele>
        <time>2019-09-13T06:17:00Z</time>
      </trkpt>
      <trkpt lat="46.18269" lon="6.11701">
        <ele>389.4</ele>
        <time>2019-09-13T06:17:01Z</time>
      </trkpt>
      <trkpt lat="46.18272" lon="6.11703">
        <ele>389.4</ele>
        <time>2019-09-13T06:17:02Z</time>
      </trkpt>
      <trkpt lat="46.18274" lon="6.11705">
        <ele>389.4</ele>
        <time>2019-09-13T06:17:03Z</time>
      </trkpt>
      <trkpt lat="46.18279" lon="6.11709">
        <ele>389.4</ele>
        <time>2019-09-13T06:17:05Z</time>
      </trkpt>
      <trkpt lat="46.18283" lon="6.11711">
        <ele>389.4</ele>
        <time>2019-09-13T06:17:07Z</time>
      </trkpt>
      <trkpt lat="46.18287" lon="6.11712">
        <ele>389.4</ele>
        <time>2019-09-13T06:17:09Z</time>
      </trkpt>
      <trkpt lat="46.18293" lon="6.11712">
        <ele>389.4</ele>
        <time>2019-09-13T06:17:11Z</time>
      </trkpt>
      <trkpt lat="46.18296" lon="6.11712">
        <ele>389.3</ele>
        <time>2019-09-13T06:17:12Z</time>
      </trkpt>
      <trkpt lat="46.18299" lon="6.11711">
        <ele>389.3</ele>
        <time>2019-09-13T06:17:13Z</time>
      </trkpt>
      <trkpt lat="46.18304" lon="6.11711">
        <ele>389.3</ele>
        <time>2019-09-13T06:17:15Z</time>
      </trkpt>
      <trkpt lat="46.18309" lon="6.1171">
        <ele>389.3</ele>
        <time>2019-09-13T06:17:17Z</time>
      </trkpt>
      <trkpt lat="46.18312" lon="6.1171">
        <ele>389.3</ele>
        <time>2019-09-13T06:17:18Z</time>
      </trkpt>
      <trkpt lat="46.18315" lon="6.1171">
        <ele>389.3</ele>
        <time>2019-09-13T06:17:19Z</time>
      </trkpt>
      <trkpt lat="46.18319" lon="6.11711">
        <ele>389.3</ele>
        <time>2019-09-13T06:17:21Z</time>
      </trkpt>
      <trkpt lat="46.18323" lon="6.11715">
        <ele>389.3</ele>
        <time>2019-09-13T06:17:23Z</time>
      </trkpt>
      <trkpt lat="46.18326" lon="6.11717">
        <ele>389.3</ele>
        <time>2019-09-13T06:17:25Z</time>
      </trkpt>
      <trkpt lat="46.18329" lon="6.11719">
        <ele>389.4</ele>
        <time>2019-09-13T06:17:26Z</time>
      </trkpt>
      <trkpt lat="46.18332" lon="6.1172">
        <ele>389.4</ele>
        <time>2019-09-13T06:17:27Z</time>
      </trkpt>
      <trkpt lat="46.18334" lon="6.11725">
        <ele>389.4</ele>
        <time>2019-09-13T06:17:29Z</time>
      </trkpt>
      <trkpt lat="46.18335" lon="6.11729">
        <ele>389.4</ele>
        <time>2019-09-13T06:17:30Z</time>
      </trkpt>
      <trkpt lat="46.18336" lon="6.11734">
        <ele>389.4</ele>
        <time>2019-09-13T06:17:31Z</time>
      </trkpt>
      <trkpt lat="46.18338" lon="6.11738">
        <ele>389.4</ele>
        <time>2019-09-13T06:17:32Z</time>
      </trkpt>
      <trkpt lat="46.18339" lon="6.11741">
        <ele>389.5</ele>
        <time>2019-09-13T06:17:33Z</time>
      </trkpt>
      <trkpt lat="46.18341" lon="6.11748">
        <ele>389.6</ele>
        <time>2019-09-13T06:17:35Z</time>
      </trkpt>
      <trkpt lat="46.18344" lon="6.11755">
        <ele>389.7</ele>
        <time>2019-09-13T06:17:37Z</time>
      </trkpt>
      <trkpt lat="46.18347" lon="6.11761">
        <ele>389.8</ele>
        <time>2019-09-13T06:17:39Z</time>
      </trkpt>
      <trkpt lat="46.1835" lon="6.11766">
        <ele>389.9</ele>
        <time>2019-09-13T06:17:41Z</time>
      </trkpt>
      <trkpt lat="46.1835" lon="6.11771">
        <ele>390</ele>
        <time>2019-09-13T06:17:42Z</time>
      </trkpt>
      <trkpt lat="46.18348" lon="6.11776">
        <ele>390</ele>
        <time>2019-09-13T06:17:43Z</time>
      </trkpt>
      <trkpt lat="46.18346" lon="6.11781">
        <ele>390.2</ele>
        <time>2019-09-13T06:17:45Z</time>
      </trkpt>
      <trkpt lat="46.18344" lon="6.11787">
        <ele>390.3</ele>
        <time>2019-09-13T06:17:47Z</time>
      </trkpt>
      <trkpt lat="46.18343" lon="6.11791">
        <ele>390.4</ele>
        <time>2019-09-13T06:17:48Z</time>
      </trkpt>
      <trkpt lat="46.18342" lon="6.11794">
        <ele>390.5</ele>
        <time>2019-09-13T06:17:49Z</time>
      </trkpt>
      <trkpt lat="46.1834" lon="6.11798">
        <ele>390.5</ele>
        <time>2019-09-13T06:17:50Z</time>
      </trkpt>
      <trkpt lat="46.18338" lon="6.11804">
        <ele>390.7</ele>
        <time>2019-09-13T06:17:52Z</time>
      </trkpt>
      <trkpt lat="46.18337" lon="6.1181">
        <ele>390.9</ele>
        <time>2019-09-13T06:17:54Z</time>
      </trkpt>
      <trkpt lat="46.18335" lon="6.11816">
        <ele>391.1</ele>
        <time>2019-09-13T06:17:56Z</time>
      </trkpt>
      <trkpt lat="46.18331" lon="6.1182">
        <ele>391.1</ele>
        <time>2019-09-13T06:17:58Z</time>
      </trkpt>
      <trkpt lat="46.18329" lon="6.11822">
        <ele>391.1</ele>
        <time>2019-09-13T06:17:59Z</time>
      </trkpt>
      <trkpt lat="46.18326" lon="6.11825">
        <ele>391.1</ele>
        <time>2019-09-13T06:18:00Z</time>
      </trkpt>
      <trkpt lat="46.18324" lon="6.11828">
        <ele>391.1</ele>
        <time>2019-09-13T06:18:01Z</time>
      </trkpt>
      <trkpt lat="46.18322" lon="6.11831">
        <ele>391</ele>
        <time>2019-09-13T06:18:02Z</time>
      </trkpt>
      <trkpt lat="46.1832" lon="6.11833">
        <ele>391</ele>
        <time>2019-09-13T06:18:03Z</time>
      </trkpt>
      <trkpt lat="46.18316" lon="6.11837">
        <ele>391</ele>
        <time>2019-09-13T06:18:05Z</time>
      </trkpt>
      <trkpt lat="46.18313" lon="6.11843">
        <ele>391</ele>
        <time>2019-09-13T06:18:07Z</time>
      </trkpt>
      <trkpt lat="46.18311" lon="6.11846">
        <ele>391</ele>
        <time>2019-09-13T06:18:08Z</time>
      </trkpt>
      <trkpt lat="46.1831" lon="6.11849">
        <ele>391</ele>
        <time>2019-09-13T06:18:09Z</time>
      </trkpt>
      <trkpt lat="46.18308" lon="6.11853">
        <ele>391.1</ele>
        <time>2019-09-13T06:18:10Z</time>
      </trkpt>
      <trkpt lat="46.18308" lon="6.11857">
        <ele>391.1</ele>
        <time>2019-09-13T06:18:11Z</time>
      </trkpt>
      <trkpt lat="46.18307" lon="6.1186">
        <ele>391.2</ele>
        <time>2019-09-13T06:18:12Z</time>
      </trkpt>
      <trkpt lat="46.18304" lon="6.11867">
        <ele>391.3</ele>
        <time>2019-09-13T06:18:14Z</time>
      </trkpt>
      <trkpt lat="46.18303" lon="6.11871">
        <ele>391.4</ele>
        <time>2019-09-13T06:18:15Z</time>
      </trkpt>
      <trkpt lat="46.18301" lon="6.11875">
        <ele>391.5</ele>
        <time>2019-09-13T06:18:16Z</time>
      </trkpt>
      <trkpt lat="46.18301" lon="6.11883">
        <ele>391.6</ele>
        <time>2019-09-13T06:18:18Z</time>
      </trkpt>
      <trkpt lat="46.18303" lon="6.1189">
        <ele>391.7</ele>
        <time>2019-09-13T06:18:20Z</time>
      </trkpt>
      <trkpt lat="46.18305" lon="6.11894">
        <ele>391.8</ele>
        <time>2019-09-13T06:18:21Z</time>
      </trkpt>
      <trkpt lat="46.18307" lon="6.11898">
        <ele>391.9</ele>
        <time>2019-09-13T06:18:22Z</time>
      </trkpt>
      <trkpt lat="46.18309" lon="6.11902">
        <ele>391.9</ele>
        <time>2019-09-13T06:18:23Z</time>
      </trkpt>
      <trkpt lat="46.18311" lon="6.11906">
        <ele>392</ele>
        <time>2019-09-13T06:18:24Z</time>
      </trkpt>
      <trkpt lat="46.18313" lon="6.11908">
        <ele>392.1</ele>
        <time>2019-09-13T06:18:25Z</time>
      </trkpt>
      <trkpt lat="46.18317" lon="6.11911">
        <ele>392.2</ele>
        <time>2019-09-13T06:18:27Z</time>
      </trkpt>
      <trkpt lat="46.18321" lon="6.11916">
        <ele>392.3</ele>
        <time>2019-09-13T06:18:29Z</time>
      </trkpt>
      <trkpt lat="46.18323" lon="6.1192">
        <ele>392.4</ele>
        <time>2019-09-13T06:18:31Z</time>
      </trkpt>
      <trkpt lat="46.18325" lon="6.11924">
        <ele>392.5</ele>
        <time>2019-09-13T06:18:35Z</time>
      </trkpt>
      <trkpt lat="46.18326" lon="6.11928">
        <ele>392.6</ele>
        <time>2019-09-13T06:18:37Z</time>
      </trkpt>
      <trkpt lat="46.1833" lon="6.11932">
        <ele>392.7</ele>
        <time>2019-09-13T06:18:39Z</time>
      </trkpt>
      <trkpt lat="46.18332" lon="6.11934">
        <ele>392.8</ele>
        <time>2019-09-13T06:18:40Z</time>
      </trkpt>
      <trkpt lat="46.18334" lon="6.11937">
        <ele>392.9</ele>
        <time>2019-09-13T06:18:41Z</time>
      </trkpt>
      <trkpt lat="46.18336" lon="6.1194">
        <ele>393</ele>
        <time>2019-09-13T06:18:42Z</time>
      </trkpt>
      <trkpt lat="46.18338" lon="6.11944">
        <ele>393.1</ele>
        <time>2019-09-13T06:18:44Z</time>
      </trkpt>
      <trkpt lat="46.18342" lon="6.11949">
        <ele>393.2</ele>
        <time>2019-09-13T06:18:46Z</time>
      </trkpt>
      <trkpt lat="46.18345" lon="6.11954">
        <ele>393.4</ele>
        <time>2019-09-13T06:18:48Z</time>
      </trkpt>
      <trkpt lat="46.18347" lon="6.11957">
        <ele>393.5</ele>
        <time>2019-09-13T06:18:49Z</time>
      </trkpt>
      <trkpt lat="46.1835" lon="6.1196">
        <ele>393.6</ele>
        <time>2019-09-13T06:18:50Z</time>
      </trkpt>
      <trkpt lat="46.18352" lon="6.11963">
        <ele>393.7</ele>
        <time>2019-09-13T06:18:51Z</time>
      </trkpt>
      <trkpt lat="46.18355" lon="6.11965">
        <ele>393.8</ele>
        <time>2019-09-13T06:18:52Z</time>
      </trkpt>
      <trkpt lat="46.1836" lon="6.11968">
        <ele>394</ele>
        <time>2019-09-13T06:18:54Z</time>
      </trkpt>
      <trkpt lat="46.18366" lon="6.11968">
        <ele>394.1</ele>
        <time>2019-09-13T06:18:56Z</time>
      </trkpt>
      <trkpt lat="46.1837" lon="6.11968">
        <ele>394.1</ele>
        <time>2019-09-13T06:18:57Z</time>
      </trkpt>
      <trkpt lat="46.18374" lon="6.11969">
        <ele>394.1</ele>
        <time>2019-09-13T06:18:58Z</time>
      </trkpt>
      <trkpt lat="46.18377" lon="6.11968">
        <ele>394.1</ele>
        <time>2019-09-13T06:18:59Z</time>
      </trkpt>
      <trkpt lat="46.1838" lon="6.11967">
        <ele>394.1</ele>
        <time>2019-09-13T06:19:00Z</time>
      </trkpt>
      <trkpt lat="46.18384" lon="6.11965">
        <ele>394</ele>
        <time>2019-09-13T06:19:02Z</time>
      </trkpt>
      <trkpt lat="46.18387" lon="6.11961">
        <ele>393.8</ele>
        <time>2019-09-13T06:19:04Z</time>
      </trkpt>
      <trkpt lat="46.18389" lon="6.11957">
        <ele>393.6</ele>
        <time>2019-09-13T06:19:05Z</time>
      </trkpt>
      <trkpt lat="46.1839" lon="6.11954">
        <ele>393.5</ele>
        <time>2019-09-13T06:19:06Z</time>
      </trkpt>
      <trkpt lat="46.18393" lon="6.11949">
        <ele>393.4</ele>
        <time>2019-09-13T06:19:08Z</time>
      </trkpt>
      <trkpt lat="46.18397" lon="6.11944">
        <ele>393.3</ele>
        <time>2019-09-13T06:19:10Z</time>
      </trkpt>
      <trkpt lat="46.184" lon="6.11938">
        <ele>393.1</ele>
        <time>2019-09-13T06:19:12Z</time>
      </trkpt>
      <trkpt lat="46.18401" lon="6.11935">
        <ele>393</ele>
        <time>2019-09-13T06:19:13Z</time>
      </trkpt>
      <trkpt lat="46.18403" lon="6.11932">
        <ele>393</ele>
        <time>2019-09-13T06:19:14Z</time>
      </trkpt>
      <trkpt lat="46.18405" lon="6.11925">
        <ele>392.9</ele>
        <time>2019-09-13T06:19:16Z</time>
      </trkpt>
      <trkpt lat="46.18407" lon="6.11919">
        <ele>392.8</ele>
        <time>2019-09-13T06:19:18Z</time>
      </trkpt>
      <trkpt lat="46.1841" lon="6.11913">
        <ele>392.7</ele>
        <time>2019-09-13T06:19:20Z</time>
      </trkpt>
      <trkpt lat="46.18413" lon="6.11908">
        <ele>392.6</ele>
        <time>2019-09-13T06:19:22Z</time>
      </trkpt>
      <trkpt lat="46.18415" lon="6.11905">
        <ele>392.6</ele>
        <time>2019-09-13T06:19:23Z</time>
      </trkpt>
      <trkpt lat="46.18417" lon="6.11903">
        <ele>392.5</ele>
        <time>2019-09-13T06:19:24Z</time>
      </trkpt>
      <trkpt lat="46.18421" lon="6.11899">
        <ele>392.5</ele>
        <time>2019-09-13T06:19:26Z</time>
      </trkpt>
      <trkpt lat="46.18425" lon="6.11896">
        <ele>392.4</ele>
        <time>2019-09-13T06:19:28Z</time>
      </trkpt>
      <trkpt lat="46.18429" lon="6.11892">
        <ele>392.4</ele>
        <time>2019-09-13T06:19:30Z</time>
      </trkpt>
      <trkpt lat="46.18433" lon="6.11888">
        <ele>392.4</ele>
        <time>2019-09-13T06:19:32Z</time>
      </trkpt>
      <trkpt lat="46.18439" lon="6.11888">
        <ele>392.6</ele>
        <time>2019-09-13T06:19:34Z</time>
      </trkpt>
      <trkpt lat="46.18444" lon="6.11889">
        <ele>392.8</ele>
        <time>2019-09-13T06:19:36Z</time>
      </trkpt>
      <trkpt lat="46.18447" lon="6.11889">
        <ele>393</ele>
        <time>2019-09-13T06:19:37Z</time>
      </trkpt>
      <trkpt lat="46.1845" lon="6.1189">
        <ele>393.3</ele>
        <time>2019-09-13T06:19:38Z</time>
      </trkpt>
      <trkpt lat="46.18454" lon="6.1189">
        <ele>393.5</ele>
        <time>2019-09-13T06:19:39Z</time>
      </trkpt>
      <trkpt lat="46.18457" lon="6.11892">
        <ele>393.8</ele>
        <time>2019-09-13T06:19:40Z</time>
      </trkpt>
      <trkpt lat="46.1846" lon="6.11894">
        <ele>394.1</ele>
        <time>2019-09-13T06:19:41Z</time>
      </trkpt>
      <trkpt lat="46.18462" lon="6.11896">
        <ele>394.3</ele>
        <time>2019-09-13T06:19:42Z</time>
      </trkpt>
      <trkpt lat="46.18465" lon="6.11898">
        <ele>394.6</ele>
        <time>2019-09-13T06:19:43Z</time>
      </trkpt>
      <trkpt lat="46.18468" lon="6.11899">
        <ele>394.8</ele>
        <time>2019-09-13T06:19:44Z</time>
      </trkpt>
      <trkpt lat="46.1847" lon="6.11901">
        <ele>395</ele>
        <time>2019-09-13T06:19:45Z</time>
      </trkpt>
      <trkpt lat="46.18474" lon="6.11904">
        <ele>395.4</ele>
        <time>2019-09-13T06:19:47Z</time>
      </trkpt>
      <trkpt lat="46.18477" lon="6.1191">
        <ele>395.7</ele>
        <time>2019-09-13T06:19:49Z</time>
      </trkpt>
      <trkpt lat="46.18479" lon="6.11915">
        <ele>395.9</ele>
        <time>2019-09-13T06:19:51Z</time>
      </trkpt>
      <trkpt lat="46.1848" lon="6.1192">
        <ele>396.1</ele>
        <time>2019-09-13T06:19:53Z</time>
      </trkpt>
      <trkpt lat="46.18479" lon="6.11926">
        <ele>396.3</ele>
        <time>2019-09-13T06:19:55Z</time>
      </trkpt>
      <trkpt lat="46.18475" lon="6.11928">
        <ele>396.5</ele>
        <time>2019-09-13T06:19:57Z</time>
      </trkpt>
      <trkpt lat="46.18473" lon="6.1193">
        <ele>396.6</ele>
        <time>2019-09-13T06:19:58Z</time>
      </trkpt>
      <trkpt lat="46.18469" lon="6.11933">
        <ele>396.8</ele>
        <time>2019-09-13T06:20:00Z</time>
      </trkpt>
      <trkpt lat="46.18465" lon="6.11934">
        <ele>397</ele>
        <time>2019-09-13T06:20:03Z</time>
      </trkpt>
      <trkpt lat="46.18464" lon="6.11938">
        <ele>397</ele>
        <time>2019-09-13T06:20:14Z</time>
      </trkpt>
      <trkpt lat="46.18467" lon="6.11942">
        <ele>397.1</ele>
        <time>2019-09-13T06:20:25Z</time>
      </trkpt>
      <trkpt lat="46.1847" lon="6.11942">
        <ele>397.1</ele>
        <time>2019-09-13T06:20:26Z</time>
      </trkpt>
      <trkpt lat="46.18473" lon="6.11943">
        <ele>397</ele>
        <time>2019-09-13T06:20:27Z</time>
      </trkpt>
      <trkpt lat="46.18477" lon="6.11946">
        <ele>396.9</ele>
        <time>2019-09-13T06:20:29Z</time>
      </trkpt>
      <trkpt lat="46.18477" lon="6.11951">
        <ele>396.7</ele>
        <time>2019-09-13T06:20:31Z</time>
      </trkpt>
      <trkpt lat="46.1848" lon="6.11955">
        <ele>396.5</ele>
        <time>2019-09-13T06:20:33Z</time>
      </trkpt>
      <trkpt lat="46.18484" lon="6.11958">
        <ele>396.2</ele>
        <time>2019-09-13T06:20:35Z</time>
      </trkpt>
      <trkpt lat="46.18488" lon="6.11962">
        <ele>395.8</ele>
        <time>2019-09-13T06:20:37Z</time>
      </trkpt>
      <trkpt lat="46.18491" lon="6.11966">
        <ele>395.5</ele>
        <time>2019-09-13T06:20:39Z</time>
      </trkpt>
      <trkpt lat="46.18491" lon="6.11972">
        <ele>395.1</ele>
        <time>2019-09-13T06:20:43Z</time>
      </trkpt>
      <trkpt lat="46.18491" lon="6.11977">
        <ele>395</ele>
        <time>2019-09-13T06:20:45Z</time>
      </trkpt>
      <trkpt lat="46.18494" lon="6.11982">
        <ele>394.8</ele>
        <time>2019-09-13T06:20:47Z</time>
      </trkpt>
      <trkpt lat="46.18497" lon="6.11988">
        <ele>394.5</ele>
        <time>2019-09-13T06:20:49Z</time>
      </trkpt>
      <trkpt lat="46.18499" lon="6.11991">
        <ele>394.3</ele>
        <time>2019-09-13T06:20:50Z</time>
      </trkpt>
      <trkpt lat="46.185" lon="6.11995">
        <ele>394.1</ele>
        <time>2019-09-13T06:20:51Z</time>
      </trkpt>
      <trkpt lat="46.18501" lon="6.12002">
        <ele>393.4</ele>
        <time>2019-09-13T06:20:53Z</time>
      </trkpt>
      <trkpt lat="46.18503" lon="6.12008">
        <ele>392.9</ele>
        <time>2019-09-13T06:20:55Z</time>
      </trkpt>
      <trkpt lat="46.18504" lon="6.12013">
        <ele>392.5</ele>
        <time>2019-09-13T06:20:57Z</time>
      </trkpt>
      <trkpt lat="46.18507" lon="6.1202">
        <ele>391.9</ele>
        <time>2019-09-13T06:20:59Z</time>
      </trkpt>
      <trkpt lat="46.18509" lon="6.12027">
        <ele>391.5</ele>
        <time>2019-09-13T06:21:01Z</time>
      </trkpt>
      <trkpt lat="46.18511" lon="6.12033">
        <ele>391.3</ele>
        <time>2019-09-13T06:21:03Z</time>
      </trkpt>
      <trkpt lat="46.18512" lon="6.1204">
        <ele>391.1</ele>
        <time>2019-09-13T06:21:05Z</time>
      </trkpt>
      <trkpt lat="46.18512" lon="6.12044">
        <ele>391.1</ele>
        <time>2019-09-13T06:21:06Z</time>
      </trkpt>
      <trkpt lat="46.18512" lon="6.12048">
        <ele>391</ele>
        <time>2019-09-13T06:21:07Z</time>
      </trkpt>
      <trkpt lat="46.18513" lon="6.12055">
        <ele>391</ele>
        <time>2019-09-13T06:21:09Z</time>
      </trkpt>
      <trkpt lat="46.18515" lon="6.1206">
        <ele>391.1</ele>
        <time>2019-09-13T06:21:11Z</time>
      </trkpt>
      <trkpt lat="46.18518" lon="6.12065">
        <ele>391.2</ele>
        <time>2019-09-13T06:21:13Z</time>
      </trkpt>
      <trkpt lat="46.18519" lon="6.12069">
        <ele>391.3</ele>
        <time>2019-09-13T06:21:14Z</time>
      </trkpt>
      <trkpt lat="46.18521" lon="6.12072">
        <ele>391.3</ele>
        <time>2019-09-13T06:21:15Z</time>
      </trkpt>
      <trkpt lat="46.18524" lon="6.12078">
        <ele>391.1</ele>
        <time>2019-09-13T06:21:17Z</time>
      </trkpt>
      <trkpt lat="46.18527" lon="6.12083">
        <ele>391</ele>
        <time>2019-09-13T06:21:19Z</time>
      </trkpt>
      <trkpt lat="46.18531" lon="6.12089">
        <ele>390.8</ele>
        <time>2019-09-13T06:21:21Z</time>
      </trkpt>
      <trkpt lat="46.18533" lon="6.12092">
        <ele>390.7</ele>
        <time>2019-09-13T06:21:22Z</time>
      </trkpt>
      <trkpt lat="46.18534" lon="6.12097">
        <ele>390.7</ele>
        <time>2019-09-13T06:21:23Z</time>
      </trkpt>
      <trkpt lat="46.18534" lon="6.12104">
        <ele>390.6</ele>
        <time>2019-09-13T06:21:24Z</time>
      </trkpt>
      <trkpt lat="46.18534" lon="6.1211">
        <ele>390.4</ele>
        <time>2019-09-13T06:21:25Z</time>
      </trkpt>
      <trkpt lat="46.18534" lon="6.12116">
        <ele>390.2</ele>
        <time>2019-09-13T06:21:26Z</time>
      </trkpt>
      <trkpt lat="46.18534" lon="6.12121">
        <ele>390.1</ele>
        <time>2019-09-13T06:21:27Z</time>
      </trkpt>
      <trkpt lat="46.18534" lon="6.12125">
        <ele>390</ele>
        <time>2019-09-13T06:21:29Z</time>
      </trkpt>
      <trkpt lat="46.18538" lon="6.12127">
        <ele>389.9</ele>
        <time>2019-09-13T06:21:31Z</time>
      </trkpt>
      <trkpt lat="46.18542" lon="6.12128">
        <ele>389.7</ele>
        <time>2019-09-13T06:21:33Z</time>
      </trkpt>
      <trkpt lat="46.18545" lon="6.12128">
        <ele>389.6</ele>
        <time>2019-09-13T06:21:34Z</time>
      </trkpt>
      <trkpt lat="46.18548" lon="6.12129">
        <ele>389.5</ele>
        <time>2019-09-13T06:21:35Z</time>
      </trkpt>
      <trkpt lat="46.18551" lon="6.12129">
        <ele>389.4</ele>
        <time>2019-09-13T06:21:36Z</time>
      </trkpt>
      <trkpt lat="46.18555" lon="6.12132">
        <ele>389.2</ele>
        <time>2019-09-13T06:21:39Z</time>
      </trkpt>
      <trkpt lat="46.18558" lon="6.12135">
        <ele>389.1</ele>
        <time>2019-09-13T06:21:40Z</time>
      </trkpt>
      <trkpt lat="46.18561" lon="6.12136">
        <ele>389</ele>
        <time>2019-09-13T06:21:41Z</time>
      </trkpt>
      <trkpt lat="46.18564" lon="6.12137">
        <ele>388.9</ele>
        <time>2019-09-13T06:21:42Z</time>
      </trkpt>
      <trkpt lat="46.18567" lon="6.12136">
        <ele>388.7</ele>
        <time>2019-09-13T06:21:43Z</time>
      </trkpt>
      <trkpt lat="46.18569" lon="6.12136">
        <ele>389.1</ele>
        <time>2019-09-13T06:21:44Z</time>
      </trkpt>
      <trkpt lat="46.18573" lon="6.12135">
        <ele>389.2</ele>
        <time>2019-09-13T06:21:45Z</time>
      </trkpt>
      <trkpt lat="46.18576" lon="6.12134">
        <ele>389.3</ele>
        <time>2019-09-13T06:21:46Z</time>
      </trkpt>
      <trkpt lat="46.18579" lon="6.12133">
        <ele>389.4</ele>
        <time>2019-09-13T06:21:47Z</time>
      </trkpt>
      <trkpt lat="46.18582" lon="6.12132">
        <ele>389.5</ele>
        <time>2019-09-13T06:21:48Z</time>
      </trkpt>
      <trkpt lat="46.18587" lon="6.12131">
        <ele>389.7</ele>
        <time>2019-09-13T06:21:50Z</time>
      </trkpt>
      <trkpt lat="46.18591" lon="6.1213">
        <ele>389.9</ele>
        <time>2019-09-13T06:21:51Z</time>
      </trkpt>
      <trkpt lat="46.18593" lon="6.12129">
        <ele>390.1</ele>
        <time>2019-09-13T06:21:52Z</time>
      </trkpt>
      <trkpt lat="46.18598" lon="6.12125">
        <ele>390.4</ele>
        <time>2019-09-13T06:21:54Z</time>
      </trkpt>
      <trkpt lat="46.18601" lon="6.12123">
        <ele>390.6</ele>
        <time>2019-09-13T06:21:55Z</time>
      </trkpt>
      <trkpt lat="46.18603" lon="6.1212">
        <ele>390.8</ele>
        <time>2019-09-13T06:21:56Z</time>
      </trkpt>
      <trkpt lat="46.18606" lon="6.12118">
        <ele>391</ele>
        <time>2019-09-13T06:21:57Z</time>
      </trkpt>
      <trkpt lat="46.18608" lon="6.12117">
        <ele>391.2</ele>
        <time>2019-09-13T06:21:58Z</time>
      </trkpt>
      <trkpt lat="46.18612" lon="6.12114">
        <ele>391.5</ele>
        <time>2019-09-13T06:22:00Z</time>
      </trkpt>
      <trkpt lat="46.18614" lon="6.12109">
        <ele>391.9</ele>
        <time>2019-09-13T06:22:02Z</time>
      </trkpt>
      <trkpt lat="46.18615" lon="6.12102">
        <ele>392.3</ele>
        <time>2019-09-13T06:22:04Z</time>
      </trkpt>
      <trkpt lat="46.18617" lon="6.12095">
        <ele>392.7</ele>
        <time>2019-09-13T06:22:06Z</time>
      </trkpt>
      <trkpt lat="46.18619" lon="6.12092">
        <ele>393</ele>
        <time>2019-09-13T06:22:07Z</time>
      </trkpt>
      <trkpt lat="46.18622" lon="6.1209">
        <ele>393.2</ele>
        <time>2019-09-13T06:22:08Z</time>
      </trkpt>
      <trkpt lat="46.18625" lon="6.12088">
        <ele>393.4</ele>
        <time>2019-09-13T06:22:09Z</time>
      </trkpt>
      <trkpt lat="46.18629" lon="6.12086">
        <ele>393.7</ele>
        <time>2019-09-13T06:22:11Z</time>
      </trkpt>
      <trkpt lat="46.18633" lon="6.12084">
        <ele>393.9</ele>
        <time>2019-09-13T06:22:13Z</time>
      </trkpt>
      <trkpt lat="46.18637" lon="6.12082">
        <ele>394.1</ele>
        <time>2019-09-13T06:22:15Z</time>
      </trkpt>
      <trkpt lat="46.18641" lon="6.12079">
        <ele>394.3</ele>
        <time>2019-09-13T06:22:17Z</time>
      </trkpt>
      <trkpt lat="46.18643" lon="6.12077">
        <ele>394.5</ele>
        <time>2019-09-13T06:22:18Z</time>
      </trkpt>
      <trkpt lat="46.18645" lon="6.12075">
        <ele>394.6</ele>
        <time>2019-09-13T06:22:19Z</time>
      </trkpt>
      <trkpt lat="46.1865" lon="6.12072">
        <ele>394.8</ele>
        <time>2019-09-13T06:22:21Z</time>
      </trkpt>
      <trkpt lat="46.18655" lon="6.12071">
        <ele>395</ele>
        <time>2019-09-13T06:22:23Z</time>
      </trkpt>
      <trkpt lat="46.18658" lon="6.12071">
        <ele>395.1</ele>
        <time>2019-09-13T06:22:24Z</time>
      </trkpt>
      <trkpt lat="46.18662" lon="6.12071">
        <ele>395.3</ele>
        <time>2019-09-13T06:22:25Z</time>
      </trkpt>
      <trkpt lat="46.18666" lon="6.12072">
        <ele>395.4</ele>
        <time>2019-09-13T06:22:26Z</time>
      </trkpt>
      <trkpt lat="46.18669" lon="6.12073">
        <ele>395.6</ele>
        <time>2019-09-13T06:22:27Z</time>
      </trkpt>
      <trkpt lat="46.18672" lon="6.12074">
        <ele>395.6</ele>
        <time>2019-09-13T06:22:28Z</time>
      </trkpt>
      <trkpt lat="46.18678" lon="6.12076">
        <ele>395.6</ele>
        <time>2019-09-13T06:22:30Z</time>
      </trkpt>
      <trkpt lat="46.18681" lon="6.12077">
        <ele>395.6</ele>
        <time>2019-09-13T06:22:31Z</time>
      </trkpt>
      <trkpt lat="46.18684" lon="6.12078">
        <ele>395.9</ele>
        <time>2019-09-13T06:22:32Z</time>
      </trkpt>
      <trkpt lat="46.18687" lon="6.12079">
        <ele>396.3</ele>
        <time>2019-09-13T06:22:33Z</time>
      </trkpt>
      <trkpt lat="46.18689" lon="6.1208">
        <ele>396.7</ele>
        <time>2019-09-13T06:22:34Z</time>
      </trkpt>
      <trkpt lat="46.18694" lon="6.12082">
        <ele>397.2</ele>
        <time>2019-09-13T06:22:36Z</time>
      </trkpt>
      <trkpt lat="46.18697" lon="6.12085">
        <ele>397.6</ele>
        <time>2019-09-13T06:22:38Z</time>
      </trkpt>
      <trkpt lat="46.187" lon="6.12085">
        <ele>398</ele>
        <time>2019-09-13T06:22:40Z</time>
      </trkpt>
      <trkpt lat="46.18705" lon="6.12083">
        <ele>398.6</ele>
        <time>2019-09-13T06:22:42Z</time>
      </trkpt>
      <trkpt lat="46.1871" lon="6.12081">
        <ele>399.2</ele>
        <time>2019-09-13T06:22:44Z</time>
      </trkpt>
      <trkpt lat="46.18713" lon="6.12081">
        <ele>399.3</ele>
        <time>2019-09-13T06:22:45Z</time>
      </trkpt>
      <trkpt lat="46.18717" lon="6.12081">
        <ele>399.3</ele>
        <time>2019-09-13T06:22:47Z</time>
      </trkpt>
      <trkpt lat="46.18721" lon="6.12083">
        <ele>399.3</ele>
        <time>2019-09-13T06:22:49Z</time>
      </trkpt>
      <trkpt lat="46.18725" lon="6.12084">
        <ele>399.3</ele>
        <time>2019-09-13T06:22:52Z</time>
      </trkpt>
      <trkpt lat="46.18728" lon="6.12086">
        <ele>399.3</ele>
        <time>2019-09-13T06:22:53Z</time>
      </trkpt>
      <trkpt lat="46.18732" lon="6.12088">
        <ele>399.3</ele>
        <time>2019-09-13T06:22:54Z</time>
      </trkpt>
      <trkpt lat="46.18735" lon="6.1209">
        <ele>399.3</ele>
        <time>2019-09-13T06:22:55Z</time>
      </trkpt>
      <trkpt lat="46.18739" lon="6.12092">
        <ele>399.3</ele>
        <time>2019-09-13T06:22:56Z</time>
      </trkpt>
      <trkpt lat="46.18742" lon="6.12095">
        <ele>399.2</ele>
        <time>2019-09-13T06:22:57Z</time>
      </trkpt>
      <trkpt lat="46.18744" lon="6.12098">
        <ele>399.2</ele>
        <time>2019-09-13T06:22:58Z</time>
      </trkpt>
      <trkpt lat="46.18747" lon="6.12101">
        <ele>399.2</ele>
        <time>2019-09-13T06:22:59Z</time>
      </trkpt>
      <trkpt lat="46.18749" lon="6.12105">
        <ele>399.2</ele>
        <time>2019-09-13T06:23:00Z</time>
      </trkpt>
      <trkpt lat="46.18751" lon="6.12109">
        <ele>399.2</ele>
        <time>2019-09-13T06:23:01Z</time>
      </trkpt>
      <trkpt lat="46.18752" lon="6.12114">
        <ele>398.9</ele>
        <time>2019-09-13T06:23:02Z</time>
      </trkpt>
      <trkpt lat="46.18753" lon="6.12118">
        <ele>398.5</ele>
        <time>2019-09-13T06:23:03Z</time>
      </trkpt>
      <trkpt lat="46.18754" lon="6.12123">
        <ele>398.2</ele>
        <time>2019-09-13T06:23:04Z</time>
      </trkpt>
      <trkpt lat="46.18755" lon="6.12127">
        <ele>397.9</ele>
        <time>2019-09-13T06:23:05Z</time>
      </trkpt>
      <trkpt lat="46.18755" lon="6.12132">
        <ele>397.6</ele>
        <time>2019-09-13T06:23:06Z</time>
      </trkpt>
      <trkpt lat="46.18756" lon="6.12136">
        <ele>397.4</ele>
        <time>2019-09-13T06:23:07Z</time>
      </trkpt>
      <trkpt lat="46.18756" lon="6.1214">
        <ele>397.1</ele>
        <time>2019-09-13T06:23:08Z</time>
      </trkpt>
      <trkpt lat="46.18756" lon="6.12144">
        <ele>396.9</ele>
        <time>2019-09-13T06:23:09Z</time>
      </trkpt>
      <trkpt lat="46.18757" lon="6.12148">
        <ele>396.6</ele>
        <time>2019-09-13T06:23:10Z</time>
      </trkpt>
      <trkpt lat="46.18757" lon="6.12156">
        <ele>396.1</ele>
        <time>2019-09-13T06:23:12Z</time>
      </trkpt>
      <trkpt lat="46.18758" lon="6.12163">
        <ele>395.7</ele>
        <time>2019-09-13T06:23:14Z</time>
      </trkpt>
      <trkpt lat="46.18757" lon="6.1217">
        <ele>395.1</ele>
        <time>2019-09-13T06:23:16Z</time>
      </trkpt>
      <trkpt lat="46.18756" lon="6.12177">
        <ele>394.6</ele>
        <time>2019-09-13T06:23:18Z</time>
      </trkpt>
      <trkpt lat="46.18755" lon="6.12185">
        <ele>394</ele>
        <time>2019-09-13T06:23:20Z</time>
      </trkpt>
      <trkpt lat="46.18754" lon="6.12189">
        <ele>393.7</ele>
        <time>2019-09-13T06:23:21Z</time>
      </trkpt>
      <trkpt lat="46.18752" lon="6.12194">
        <ele>393.3</ele>
        <time>2019-09-13T06:23:22Z</time>
      </trkpt>
      <trkpt lat="46.18751" lon="6.12198">
        <ele>393</ele>
        <time>2019-09-13T06:23:23Z</time>
      </trkpt>
      <trkpt lat="46.18751" lon="6.12202">
        <ele>392.7</ele>
        <time>2019-09-13T06:23:24Z</time>
      </trkpt>
      <trkpt lat="46.18751" lon="6.12206">
        <ele>392.4</ele>
        <time>2019-09-13T06:23:25Z</time>
      </trkpt>
      <trkpt lat="46.1875" lon="6.12211">
        <ele>392.1</ele>
        <time>2019-09-13T06:23:26Z</time>
      </trkpt>
      <trkpt lat="46.18751" lon="6.12218">
        <ele>391.7</ele>
        <time>2019-09-13T06:23:28Z</time>
      </trkpt>
      <trkpt lat="46.18751" lon="6.12223">
        <ele>391.3</ele>
        <time>2019-09-13T06:23:30Z</time>
      </trkpt>
      <trkpt lat="46.18752" lon="6.12227">
        <ele>391</ele>
        <time>2019-09-13T06:23:32Z</time>
      </trkpt>
      <trkpt lat="46.18752" lon="6.12233">
        <ele>390.6</ele>
        <time>2019-09-13T06:23:34Z</time>
      </trkpt>
      <trkpt lat="46.18751" lon="6.12237">
        <ele>390.3</ele>
        <time>2019-09-13T06:23:35Z</time>
      </trkpt>
      <trkpt lat="46.1875" lon="6.12241">
        <ele>390</ele>
        <time>2019-09-13T06:23:36Z</time>
      </trkpt>
      <trkpt lat="46.18749" lon="6.12249">
        <ele>389.4</ele>
        <time>2019-09-13T06:23:38Z</time>
      </trkpt>
      <trkpt lat="46.18749" lon="6.12253">
        <ele>389.1</ele>
        <time>2019-09-13T06:23:39Z</time>
      </trkpt>
      <trkpt lat="46.18749" lon="6.1226">
        <ele>388.7</ele>
        <time>2019-09-13T06:23:41Z</time>
      </trkpt>
      <trkpt lat="46.18746" lon="6.12267">
        <ele>388.3</ele>
        <time>2019-09-13T06:23:43Z</time>
      </trkpt>
      <trkpt lat="46.18744" lon="6.12271">
        <ele>388.1</ele>
        <time>2019-09-13T06:23:44Z</time>
      </trkpt>
      <trkpt lat="46.18743" lon="6.12274">
        <ele>387.9</ele>
        <time>2019-09-13T06:23:45Z</time>
      </trkpt>
      <trkpt lat="46.18741" lon="6.12278">
        <ele>387.7</ele>
        <time>2019-09-13T06:23:46Z</time>
      </trkpt>
      <trkpt lat="46.1874" lon="6.12282">
        <ele>387.6</ele>
        <time>2019-09-13T06:23:47Z</time>
      </trkpt>
      <trkpt lat="46.18738" lon="6.12285">
        <ele>387.5</ele>
        <time>2019-09-13T06:23:48Z</time>
      </trkpt>
      <trkpt lat="46.18736" lon="6.1229">
        <ele>387.3</ele>
        <time>2019-09-13T06:23:50Z</time>
      </trkpt>
      <trkpt lat="46.18736" lon="6.12297">
        <ele>387.2</ele>
        <time>2019-09-13T06:23:52Z</time>
      </trkpt>
      <trkpt lat="46.18736" lon="6.12301">
        <ele>387.2</ele>
        <time>2019-09-13T06:23:53Z</time>
      </trkpt>
      <trkpt lat="46.18736" lon="6.12305">
        <ele>387.1</ele>
        <time>2019-09-13T06:23:54Z</time>
      </trkpt>
      <trkpt lat="46.18736" lon="6.12309">
        <ele>387</ele>
        <time>2019-09-13T06:23:55Z</time>
      </trkpt>
      <trkpt lat="46.18737" lon="6.12314">
        <ele>386.9</ele>
        <time>2019-09-13T06:23:56Z</time>
      </trkpt>
      <trkpt lat="46.18737" lon="6.12318">
        <ele>386.9</ele>
        <time>2019-09-13T06:23:57Z</time>
      </trkpt>
      <trkpt lat="46.1874" lon="6.12323">
        <ele>386.8</ele>
        <time>2019-09-13T06:23:59Z</time>
      </trkpt>
      <trkpt lat="46.18743" lon="6.12326">
        <ele>386.7</ele>
        <time>2019-09-13T06:24:00Z</time>
      </trkpt>
      <trkpt lat="46.18746" lon="6.12328">
        <ele>386.6</ele>
        <time>2019-09-13T06:24:01Z</time>
      </trkpt>
      <trkpt lat="46.1875" lon="6.12331">
        <ele>386.5</ele>
        <time>2019-09-13T06:24:02Z</time>
      </trkpt>
      <trkpt lat="46.18753" lon="6.12334">
        <ele>386.4</ele>
        <time>2019-09-13T06:24:03Z</time>
      </trkpt>
      <trkpt lat="46.18755" lon="6.12337">
        <ele>386.4</ele>
        <time>2019-09-13T06:24:04Z</time>
      </trkpt>
      <trkpt lat="46.18759" lon="6.12341">
        <ele>386.5</ele>
        <time>2019-09-13T06:24:06Z</time>
      </trkpt>
      <trkpt lat="46.18763" lon="6.1234">
        <ele>386.5</ele>
        <time>2019-09-13T06:24:08Z</time>
      </trkpt>
      <trkpt lat="46.18767" lon="6.12338">
        <ele>386.6</ele>
        <time>2019-09-13T06:24:10Z</time>
      </trkpt>
      <trkpt lat="46.1877" lon="6.12337">
        <ele>387</ele>
        <time>2019-09-13T06:24:11Z</time>
      </trkpt>
      <trkpt lat="46.18775" lon="6.12336">
        <ele>387.3</ele>
        <time>2019-09-13T06:24:13Z</time>
      </trkpt>
      <trkpt lat="46.1878" lon="6.12333">
        <ele>387.8</ele>
        <time>2019-09-13T06:24:15Z</time>
      </trkpt>
      <trkpt lat="46.18784" lon="6.12331">
        <ele>388.1</ele>
        <time>2019-09-13T06:24:17Z</time>
      </trkpt>
      <trkpt lat="46.18787" lon="6.12328">
        <ele>388.4</ele>
        <time>2019-09-13T06:24:19Z</time>
      </trkpt>
      <trkpt lat="46.1879" lon="6.12325">
        <ele>388.7</ele>
        <time>2019-09-13T06:24:21Z</time>
      </trkpt>
      <trkpt lat="46.18793" lon="6.1232">
        <ele>389</ele>
        <time>2019-09-13T06:24:23Z</time>
      </trkpt>
      <trkpt lat="46.18796" lon="6.12317">
        <ele>389.3</ele>
        <time>2019-09-13T06:24:25Z</time>
      </trkpt>
      <trkpt lat="46.18801" lon="6.12315">
        <ele>390.2</ele>
        <time>2019-09-13T06:24:27Z</time>
      </trkpt>
      <trkpt lat="46.18804" lon="6.12311">
        <ele>390.6</ele>
        <time>2019-09-13T06:24:29Z</time>
      </trkpt>
      <trkpt lat="46.18807" lon="6.12304">
        <ele>390.9</ele>
        <time>2019-09-13T06:24:31Z</time>
      </trkpt>
      <trkpt lat="46.1881" lon="6.12299">
        <ele>391.3</ele>
        <time>2019-09-13T06:24:33Z</time>
      </trkpt>
      <trkpt lat="46.18813" lon="6.12294">
        <ele>391.6</ele>
        <time>2019-09-13T06:24:35Z</time>
      </trkpt>
      <trkpt lat="46.18816" lon="6.12289">
        <ele>391.9</ele>
        <time>2019-09-13T06:24:37Z</time>
      </trkpt>
      <trkpt lat="46.18818" lon="6.12284">
        <ele>392.2</ele>
        <time>2019-09-13T06:24:39Z</time>
      </trkpt>
      <trkpt lat="46.1882" lon="6.12282">
        <ele>392.4</ele>
        <time>2019-09-13T06:24:40Z</time>
      </trkpt>
      <trkpt lat="46.18822" lon="6.12279">
        <ele>392.6</ele>
        <time>2019-09-13T06:24:41Z</time>
      </trkpt>
      <trkpt lat="46.18823" lon="6.12273">
        <ele>393.1</ele>
        <time>2019-09-13T06:24:43Z</time>
      </trkpt>
      <trkpt lat="46.1882" lon="6.12266">
        <ele>393.8</ele>
        <time>2019-09-13T06:24:45Z</time>
      </trkpt>
      <trkpt lat="46.18817" lon="6.12261">
        <ele>394.4</ele>
        <time>2019-09-13T06:24:47Z</time>
      </trkpt>
      <trkpt lat="46.18814" lon="6.12255">
        <ele>395</ele>
        <time>2019-09-13T06:24:49Z</time>
      </trkpt>
      <trkpt lat="46.18813" lon="6.1225">
        <ele>395.6</ele>
        <time>2019-09-13T06:24:51Z</time>
      </trkpt>
      <trkpt lat="46.18811" lon="6.12243">
        <ele>396.2</ele>
        <time>2019-09-13T06:24:53Z</time>
      </trkpt>
      <trkpt lat="46.18811" lon="6.12236">
        <ele>396.7</ele>
        <time>2019-09-13T06:24:55Z</time>
      </trkpt>
      <trkpt lat="46.18811" lon="6.12232">
        <ele>397</ele>
        <time>2019-09-13T06:24:56Z</time>
      </trkpt>
      <trkpt lat="46.1881" lon="6.12226">
        <ele>397.4</ele>
        <time>2019-09-13T06:24:58Z</time>
      </trkpt>
      <trkpt lat="46.18809" lon="6.12221">
        <ele>397.8</ele>
        <time>2019-09-13T06:25:00Z</time>
      </trkpt>
      <trkpt lat="46.18808" lon="6.12215">
        <ele>398.3</ele>
        <time>2019-09-13T06:25:02Z</time>
      </trkpt>
      <trkpt lat="46.18809" lon="6.12209">
        <ele>398.8</ele>
        <time>2019-09-13T06:25:04Z</time>
      </trkpt>
      <trkpt lat="46.18809" lon="6.12204">
        <ele>399.2</ele>
        <time>2019-09-13T06:25:06Z</time>
      </trkpt>
      <trkpt lat="46.18809" lon="6.12198">
        <ele>399.7</ele>
        <time>2019-09-13T06:25:08Z</time>
      </trkpt>
      <trkpt lat="46.18809" lon="6.12193">
        <ele>400.3</ele>
        <time>2019-09-13T06:25:10Z</time>
      </trkpt>
      <trkpt lat="46.18808" lon="6.12188">
        <ele>400.9</ele>
        <time>2019-09-13T06:25:12Z</time>
      </trkpt>
      <trkpt lat="46.18807" lon="6.12182">
        <ele>401.6</ele>
        <time>2019-09-13T06:25:14Z</time>
      </trkpt>
      <trkpt lat="46.18808" lon="6.12176">
        <ele>402.3</ele>
        <time>2019-09-13T06:25:16Z</time>
      </trkpt>
      <trkpt lat="46.18809" lon="6.12171">
        <ele>403</ele>
        <time>2019-09-13T06:25:19Z</time>
      </trkpt>
      <trkpt lat="46.18811" lon="6.12167">
        <ele>403.6</ele>
        <time>2019-09-13T06:25:21Z</time>
      </trkpt>
      <trkpt lat="46.18814" lon="6.12161">
        <ele>404.5</ele>
        <time>2019-09-13T06:25:23Z</time>
      </trkpt>
      <trkpt lat="46.18816" lon="6.12157">
        <ele>405.4</ele>
        <time>2019-09-13T06:25:25Z</time>
      </trkpt>
      <trkpt lat="46.18819" lon="6.12154">
        <ele>406</ele>
        <time>2019-09-13T06:25:27Z</time>
      </trkpt>
      <trkpt lat="46.18823" lon="6.12151">
        <ele>406.7</ele>
        <time>2019-09-13T06:25:29Z</time>
      </trkpt>
      <trkpt lat="46.18826" lon="6.12148">
        <ele>407.4</ele>
        <time>2019-09-13T06:25:31Z</time>
      </trkpt>
      <trkpt lat="46.18829" lon="6.12147">
        <ele>408</ele>
        <time>2019-09-13T06:25:34Z</time>
      </trkpt>
      <trkpt lat="46.18833" lon="6.12146">
        <ele>408.7</ele>
        <time>2019-09-13T06:25:36Z</time>
      </trkpt>
      <trkpt lat="46.18837" lon="6.12146">
        <ele>409.4</ele>
        <time>2019-09-13T06:25:38Z</time>
      </trkpt>
      <trkpt lat="46.1884" lon="6.12145">
        <ele>409.8</ele>
        <time>2019-09-13T06:25:41Z</time>
      </trkpt>
      <trkpt lat="46.18843" lon="6.1215">
        <ele>410.1</ele>
        <time>2019-09-13T06:25:44Z</time>
      </trkpt>
      <trkpt lat="46.18846" lon="6.12153">
        <ele>410.3</ele>
        <time>2019-09-13T06:25:46Z</time>
      </trkpt>
      <trkpt lat="46.18849" lon="6.12155">
        <ele>410.6</ele>
        <time>2019-09-13T06:25:48Z</time>
      </trkpt>
      <trkpt lat="46.18852" lon="6.12156">
        <ele>410.9</ele>
        <time>2019-09-13T06:25:50Z</time>
      </trkpt>
      <trkpt lat="46.18856" lon="6.12154">
        <ele>411.2</ele>
        <time>2019-09-13T06:25:52Z</time>
      </trkpt>
      <trkpt lat="46.18859" lon="6.12153">
        <ele>411.5</ele>
        <time>2019-09-13T06:25:54Z</time>
      </trkpt>
      <trkpt lat="46.18862" lon="6.12152">
        <ele>411.8</ele>
        <time>2019-09-13T06:25:56Z</time>
      </trkpt>
      <trkpt lat="46.18866" lon="6.12154">
        <ele>412.3</ele>
        <time>2019-09-13T06:25:58Z</time>
      </trkpt>
      <trkpt lat="46.18869" lon="6.12156">
        <ele>412.6</ele>
        <time>2019-09-13T06:26:00Z</time>
      </trkpt>
      <trkpt lat="46.18873" lon="6.12159">
        <ele>413.1</ele>
        <time>2019-09-13T06:26:02Z</time>
      </trkpt>
      <trkpt lat="46.18877" lon="6.12161">
        <ele>413.5</ele>
        <time>2019-09-13T06:26:04Z</time>
      </trkpt>
      <trkpt lat="46.1888" lon="6.12163">
        <ele>414.4</ele>
        <time>2019-09-13T06:26:06Z</time>
      </trkpt>
      <trkpt lat="46.18884" lon="6.12163">
        <ele>414.9</ele>
        <time>2019-09-13T06:26:08Z</time>
      </trkpt>
      <trkpt lat="46.18887" lon="6.12163">
        <ele>415.2</ele>
        <time>2019-09-13T06:26:10Z</time>
      </trkpt>
      <trkpt lat="46.1889" lon="6.12161">
        <ele>415.7</ele>
        <time>2019-09-13T06:26:12Z</time>
      </trkpt>
      <trkpt lat="46.18894" lon="6.12159">
        <ele>416.2</ele>
        <time>2019-09-13T06:26:15Z</time>
      </trkpt>
      <trkpt lat="46.18896" lon="6.12156">
        <ele>416.6</ele>
        <time>2019-09-13T06:26:17Z</time>
      </trkpt>
      <trkpt lat="46.18897" lon="6.12152">
        <ele>416.9</ele>
        <time>2019-09-13T06:26:19Z</time>
      </trkpt>
      <trkpt lat="46.189" lon="6.12149">
        <ele>417.3</ele>
        <time>2019-09-13T06:26:22Z</time>
      </trkpt>
      <trkpt lat="46.18904" lon="6.12147">
        <ele>417.7</ele>
        <time>2019-09-13T06:26:25Z</time>
      </trkpt>
      <trkpt lat="46.18906" lon="6.12146">
        <ele>417.9</ele>
        <time>2019-09-13T06:26:27Z</time>
      </trkpt>
      <trkpt lat="46.18908" lon="6.12143">
        <ele>418.2</ele>
        <time>2019-09-13T06:26:30Z</time>
      </trkpt>
      <trkpt lat="46.18909" lon="6.12138">
        <ele>418.5</ele>
        <time>2019-09-13T06:26:33Z</time>
      </trkpt>
      <trkpt lat="46.1891" lon="6.12133">
        <ele>418.9</ele>
        <time>2019-09-13T06:26:35Z</time>
      </trkpt>
      <trkpt lat="46.18913" lon="6.1213">
        <ele>419.2</ele>
        <time>2019-09-13T06:26:37Z</time>
      </trkpt>
      <trkpt lat="46.18914" lon="6.12126">
        <ele>419.6</ele>
        <time>2019-09-13T06:26:41Z</time>
      </trkpt>
      <trkpt lat="46.18915" lon="6.12122">
        <ele>419.9</ele>
        <time>2019-09-13T06:26:44Z</time>
      </trkpt>
      <trkpt lat="46.18916" lon="6.12117">
        <ele>420.2</ele>
        <time>2019-09-13T06:26:46Z</time>
      </trkpt>
      <trkpt lat="46.18919" lon="6.12114">
        <ele>420.4</ele>
        <time>2019-09-13T06:26:48Z</time>
      </trkpt>
      <trkpt lat="46.18922" lon="6.12111">
        <ele>420.6</ele>
        <time>2019-09-13T06:26:50Z</time>
      </trkpt>
      <trkpt lat="46.18924" lon="6.12107">
        <ele>420.8</ele>
        <time>2019-09-13T06:26:52Z</time>
      </trkpt>
      <trkpt lat="46.18924" lon="6.12103">
        <ele>421</ele>
        <time>2019-09-13T06:26:54Z</time>
      </trkpt>
      <trkpt lat="46.18923" lon="6.12098">
        <ele>421.2</ele>
        <time>2019-09-13T06:26:56Z</time>
      </trkpt>
      <trkpt lat="46.18924" lon="6.12093">
        <ele>421.3</ele>
        <time>2019-09-13T06:26:58Z</time>
      </trkpt>
      <trkpt lat="46.18927" lon="6.12088">
        <ele>421.4</ele>
        <time>2019-09-13T06:27:00Z</time>
      </trkpt>
      <trkpt lat="46.1893" lon="6.12083">
        <ele>421.7</ele>
        <time>2019-09-13T06:27:02Z</time>
      </trkpt>
      <trkpt lat="46.18933" lon="6.12082">
        <ele>421.7</ele>
        <time>2019-09-13T06:27:03Z</time>
      </trkpt>
      <trkpt lat="46.18936" lon="6.12081">
        <ele>421.7</ele>
        <time>2019-09-13T06:27:04Z</time>
      </trkpt>
      <trkpt lat="46.1894" lon="6.1208">
        <ele>421.6</ele>
        <time>2019-09-13T06:27:06Z</time>
      </trkpt>
      <trkpt lat="46.18944" lon="6.12082">
        <ele>421.5</ele>
        <time>2019-09-13T06:27:08Z</time>
      </trkpt>
      <trkpt lat="46.18947" lon="6.12088">
        <ele>421.3</ele>
        <time>2019-09-13T06:27:10Z</time>
      </trkpt>
      <trkpt lat="46.18949" lon="6.12091">
        <ele>421.3</ele>
        <time>2019-09-13T06:27:11Z</time>
      </trkpt>
      <trkpt lat="46.18952" lon="6.12097">
        <ele>421.1</ele>
        <time>2019-09-13T06:27:13Z</time>
      </trkpt>
      <trkpt lat="46.18956" lon="6.12103">
        <ele>420.9</ele>
        <time>2019-09-13T06:27:15Z</time>
      </trkpt>
      <trkpt lat="46.18957" lon="6.12106">
        <ele>420.8</ele>
        <time>2019-09-13T06:27:16Z</time>
      </trkpt>
      <trkpt lat="46.18959" lon="6.12109">
        <ele>420.7</ele>
        <time>2019-09-13T06:27:17Z</time>
      </trkpt>
      <trkpt lat="46.18962" lon="6.12115">
        <ele>420.5</ele>
        <time>2019-09-13T06:27:19Z</time>
      </trkpt>
      <trkpt lat="46.18964" lon="6.12121">
        <ele>420.3</ele>
        <time>2019-09-13T06:27:21Z</time>
      </trkpt>
      <trkpt lat="46.18966" lon="6.12127">
        <ele>419.9</ele>
        <time>2019-09-13T06:27:23Z</time>
      </trkpt>
      <trkpt lat="46.1897" lon="6.12129">
        <ele>419.8</ele>
        <time>2019-09-13T06:27:25Z</time>
      </trkpt>
      <trkpt lat="46.18974" lon="6.12126">
        <ele>419.9</ele>
        <time>2019-09-13T06:27:27Z</time>
      </trkpt>
      <trkpt lat="46.18978" lon="6.12121">
        <ele>420.1</ele>
        <time>2019-09-13T06:27:29Z</time>
      </trkpt>
      <trkpt lat="46.1898" lon="6.12119">
        <ele>420.1</ele>
        <time>2019-09-13T06:27:30Z</time>
      </trkpt>
      <trkpt lat="46.18985" lon="6.12118">
        <ele>420.4</ele>
        <time>2019-09-13T06:27:32Z</time>
      </trkpt>
      <trkpt lat="46.18988" lon="6.12118">
        <ele>420.4</ele>
        <time>2019-09-13T06:27:33Z</time>
      </trkpt>
      <trkpt lat="46.18991" lon="6.12117">
        <ele>420.4</ele>
        <time>2019-09-13T06:27:34Z</time>
      </trkpt>
      <trkpt lat="46.18996" lon="6.12117">
        <ele>420.5</ele>
        <time>2019-09-13T06:27:36Z</time>
      </trkpt>
      <trkpt lat="46.19001" lon="6.12114">
        <ele>420.5</ele>
        <time>2019-09-13T06:27:38Z</time>
      </trkpt>
      <trkpt lat="46.19002" lon="6.1211">
        <ele>420.5</ele>
        <time>2019-09-13T06:27:40Z</time>
      </trkpt>
      <trkpt lat="46.19004" lon="6.12105">
        <ele>420.5</ele>
        <time>2019-09-13T06:27:42Z</time>
      </trkpt>
      <trkpt lat="46.19009" lon="6.12105">
        <ele>420.4</ele>
        <time>2019-09-13T06:27:44Z</time>
      </trkpt>
      <trkpt lat="46.19012" lon="6.12107">
        <ele>420.5</ele>
        <time>2019-09-13T06:27:45Z</time>
      </trkpt>
      <trkpt lat="46.19015" lon="6.12108">
        <ele>420.5</ele>
        <time>2019-09-13T06:27:46Z</time>
      </trkpt>
      <trkpt lat="46.1902" lon="6.1211">
        <ele>420.5</ele>
        <time>2019-09-13T06:27:48Z</time>
      </trkpt>
      <trkpt lat="46.19023" lon="6.12113">
        <ele>420.5</ele>
        <time>2019-09-13T06:27:49Z</time>
      </trkpt>
      <trkpt lat="46.19026" lon="6.12116">
        <ele>420.5</ele>
        <time>2019-09-13T06:27:50Z</time>
      </trkpt>
      <trkpt lat="46.19028" lon="6.12118">
        <ele>420.5</ele>
        <time>2019-09-13T06:27:51Z</time>
      </trkpt>
      <trkpt lat="46.19032" lon="6.12121">
        <ele>420.5</ele>
        <time>2019-09-13T06:27:53Z</time>
      </trkpt>
      <trkpt lat="46.19035" lon="6.12123">
        <ele>420.3</ele>
        <time>2019-09-13T06:27:54Z</time>
      </trkpt>
      <trkpt lat="46.19037" lon="6.12125">
        <ele>420.1</ele>
        <time>2019-09-13T06:27:55Z</time>
      </trkpt>
      <trkpt lat="46.1904" lon="6.12128">
        <ele>420</ele>
        <time>2019-09-13T06:27:56Z</time>
      </trkpt>
      <trkpt lat="46.19042" lon="6.12131">
        <ele>419.9</ele>
        <time>2019-09-13T06:27:57Z</time>
      </trkpt>
      <trkpt lat="46.19044" lon="6.12134">
        <ele>419.7</ele>
        <time>2019-09-13T06:27:58Z</time>
      </trkpt>
      <trkpt lat="46.19047" lon="6.12136">
        <ele>419.7</ele>
        <time>2019-09-13T06:27:59Z</time>
      </trkpt>
      <trkpt lat="46.19051" lon="6.12139">
        <ele>419.5</ele>
        <time>2019-09-13T06:28:01Z</time>
      </trkpt>
      <trkpt lat="46.19056" lon="6.1214">
        <ele>419.5</ele>
        <time>2019-09-13T06:28:03Z</time>
      </trkpt>
      <trkpt lat="46.19059" lon="6.12141">
        <ele>419.4</ele>
        <time>2019-09-13T06:28:05Z</time>
      </trkpt>
      <trkpt lat="46.19061" lon="6.12144">
        <ele>419.4</ele>
        <time>2019-09-13T06:28:08Z</time>
      </trkpt>
      <trkpt lat="46.19065" lon="6.12146">
        <ele>419.5</ele>
        <time>2019-09-13T06:28:10Z</time>
      </trkpt>
      <trkpt lat="46.1907" lon="6.12148">
        <ele>419.5</ele>
        <time>2019-09-13T06:28:12Z</time>
      </trkpt>
      <trkpt lat="46.19074" lon="6.12149">
        <ele>419.6</ele>
        <time>2019-09-13T06:28:14Z</time>
      </trkpt>
      <trkpt lat="46.19078" lon="6.1215">
        <ele>419.7</ele>
        <time>2019-09-13T06:28:16Z</time>
      </trkpt>
      <trkpt lat="46.19081" lon="6.1215">
        <ele>419.7</ele>
        <time>2019-09-13T06:28:18Z</time>
      </trkpt>
      <trkpt lat="46.19084" lon="6.1215">
        <ele>419.9</ele>
        <time>2019-09-13T06:28:20Z</time>
      </trkpt>
      <trkpt lat="46.19087" lon="6.1215">
        <ele>420</ele>
        <time>2019-09-13T06:28:21Z</time>
      </trkpt>
      <trkpt lat="46.1909" lon="6.1215">
        <ele>420.1</ele>
        <time>2019-09-13T06:28:22Z</time>
      </trkpt>
      <trkpt lat="46.19093" lon="6.1215">
        <ele>420.3</ele>
        <time>2019-09-13T06:28:23Z</time>
      </trkpt>
      <trkpt lat="46.19096" lon="6.1215">
        <ele>420.5</ele>
        <time>2019-09-13T06:28:24Z</time>
      </trkpt>
      <trkpt lat="46.19099" lon="6.1215">
        <ele>420.7</ele>
        <time>2019-09-13T06:28:25Z</time>
      </trkpt>
      <trkpt lat="46.19102" lon="6.1215">
        <ele>420.8</ele>
        <time>2019-09-13T06:28:26Z</time>
      </trkpt>
      <trkpt lat="46.19105" lon="6.1215">
        <ele>421</ele>
        <time>2019-09-13T06:28:27Z</time>
      </trkpt>
      <trkpt lat="46.19108" lon="6.12149">
        <ele>421.2</ele>
        <time>2019-09-13T06:28:28Z</time>
      </trkpt>
      <trkpt lat="46.1911" lon="6.12148">
        <ele>421.4</ele>
        <time>2019-09-13T06:28:29Z</time>
      </trkpt>
      <trkpt lat="46.19113" lon="6.12147">
        <ele>421.6</ele>
        <time>2019-09-13T06:28:30Z</time>
      </trkpt>
      <trkpt lat="46.19116" lon="6.12146">
        <ele>421.8</ele>
        <time>2019-09-13T06:28:31Z</time>
      </trkpt>
      <trkpt lat="46.1912" lon="6.12145">
        <ele>422</ele>
        <time>2019-09-13T06:28:32Z</time>
      </trkpt>
      <trkpt lat="46.19122" lon="6.12143">
        <ele>422.1</ele>
        <time>2019-09-13T06:28:33Z</time>
      </trkpt>
      <trkpt lat="46.19127" lon="6.1214">
        <ele>422.4</ele>
        <time>2019-09-13T06:28:35Z</time>
      </trkpt>
      <trkpt lat="46.19132" lon="6.12138">
        <ele>422.6</ele>
        <time>2019-09-13T06:28:37Z</time>
      </trkpt>
      <trkpt lat="46.19136" lon="6.12136">
        <ele>422.8</ele>
        <time>2019-09-13T06:28:39Z</time>
      </trkpt>
      <trkpt lat="46.19141" lon="6.12134">
        <ele>423</ele>
        <time>2019-09-13T06:28:41Z</time>
      </trkpt>
      <trkpt lat="46.19145" lon="6.12132">
        <ele>423.1</ele>
        <time>2019-09-13T06:28:43Z</time>
      </trkpt>
      <trkpt lat="46.1915" lon="6.12129">
        <ele>423.2</ele>
        <time>2019-09-13T06:28:45Z</time>
      </trkpt>
      <trkpt lat="46.19154" lon="6.12125">
        <ele>423.4</ele>
        <time>2019-09-13T06:28:47Z</time>
      </trkpt>
      <trkpt lat="46.19157" lon="6.12123">
        <ele>423.5</ele>
        <time>2019-09-13T06:28:49Z</time>
      </trkpt>
      <trkpt lat="46.1916" lon="6.1212">
        <ele>423.5</ele>
        <time>2019-09-13T06:28:51Z</time>
      </trkpt>
      <trkpt lat="46.19161" lon="6.12115">
        <ele>423.6</ele>
        <time>2019-09-13T06:28:55Z</time>
      </trkpt>
      <trkpt lat="46.19158" lon="6.12116">
        <ele>423.7</ele>
        <time>2019-09-13T06:29:06Z</time>
      </trkpt>
      <trkpt lat="46.19162" lon="6.12112">
        <ele>423.8</ele>
        <time>2019-09-13T06:29:08Z</time>
      </trkpt>
      <trkpt lat="46.19164" lon="6.12109">
        <ele>423.9</ele>
        <time>2019-09-13T06:29:09Z</time>
      </trkpt>
      <trkpt lat="46.19168" lon="6.12107">
        <ele>424.1</ele>
        <time>2019-09-13T06:29:10Z</time>
      </trkpt>
      <trkpt lat="46.19171" lon="6.12105">
        <ele>424.1</ele>
        <time>2019-09-13T06:29:11Z</time>
      </trkpt>
      <trkpt lat="46.19174" lon="6.12104">
        <ele>424.2</ele>
        <time>2019-09-13T06:29:12Z</time>
      </trkpt>
      <trkpt lat="46.19177" lon="6.12102">
        <ele>424.3</ele>
        <time>2019-09-13T06:29:13Z</time>
      </trkpt>
      <trkpt lat="46.1918" lon="6.12101">
        <ele>424.3</ele>
        <time>2019-09-13T06:29:14Z</time>
      </trkpt>
      <trkpt lat="46.19183" lon="6.12099">
        <ele>424.4</ele>
        <time>2019-09-13T06:29:15Z</time>
      </trkpt>
      <trkpt lat="46.19185" lon="6.12096">
        <ele>424.4</ele>
        <time>2019-09-13T06:29:16Z</time>
      </trkpt>
      <trkpt lat="46.19188" lon="6.12093">
        <ele>424.5</ele>
        <time>2019-09-13T06:29:17Z</time>
      </trkpt>
      <trkpt lat="46.1919" lon="6.12091">
        <ele>424.6</ele>
        <time>2019-09-13T06:29:18Z</time>
      </trkpt>
      <trkpt lat="46.19193" lon="6.12088">
        <ele>424.6</ele>
        <time>2019-09-13T06:29:19Z</time>
      </trkpt>
      <trkpt lat="46.19195" lon="6.12085">
        <ele>424.7</ele>
        <time>2019-09-13T06:29:20Z</time>
      </trkpt>
      <trkpt lat="46.19197" lon="6.12082">
        <ele>424.8</ele>
        <time>2019-09-13T06:29:21Z</time>
      </trkpt>
      <trkpt lat="46.19199" lon="6.1208">
        <ele>424.9</ele>
        <time>2019-09-13T06:29:22Z</time>
      </trkpt>
      <trkpt lat="46.19202" lon="6.12078">
        <ele>425</ele>
        <time>2019-09-13T06:29:23Z</time>
      </trkpt>
      <trkpt lat="46.19205" lon="6.12073">
        <ele>425.1</ele>
        <time>2019-09-13T06:29:25Z</time>
      </trkpt>
      <trkpt lat="46.19209" lon="6.12069">
        <ele>425.3</ele>
        <time>2019-09-13T06:29:27Z</time>
      </trkpt>
      <trkpt lat="46.19211" lon="6.12066">
        <ele>425.5</ele>
        <time>2019-09-13T06:29:28Z</time>
      </trkpt>
      <trkpt lat="46.19215" lon="6.12064">
        <ele>425.5</ele>
        <time>2019-09-13T06:29:30Z</time>
      </trkpt>
      <trkpt lat="46.19217" lon="6.1206">
        <ele>425.6</ele>
        <time>2019-09-13T06:29:32Z</time>
      </trkpt>
      <trkpt lat="46.19221" lon="6.12056">
        <ele>425.6</ele>
        <time>2019-09-13T06:29:34Z</time>
      </trkpt>
      <trkpt lat="46.19224" lon="6.12054">
        <ele>425.6</ele>
        <time>2019-09-13T06:29:35Z</time>
      </trkpt>
      <trkpt lat="46.19226" lon="6.12052">
        <ele>425.6</ele>
        <time>2019-09-13T06:29:36Z</time>
      </trkpt>
      <trkpt lat="46.19229" lon="6.12051">
        <ele>425.6</ele>
        <time>2019-09-13T06:29:37Z</time>
      </trkpt>
      <trkpt lat="46.19233" lon="6.12046">
        <ele>425.6</ele>
        <time>2019-09-13T06:29:39Z</time>
      </trkpt>
      <trkpt lat="46.19236" lon="6.12044">
        <ele>425.6</ele>
        <time>2019-09-13T06:29:40Z</time>
      </trkpt>
      <trkpt lat="46.19238" lon="6.12042">
        <ele>425.6</ele>
        <time>2019-09-13T06:29:41Z</time>
      </trkpt>
      <trkpt lat="46.19243" lon="6.12039">
        <ele>425.6</ele>
        <time>2019-09-13T06:29:43Z</time>
      </trkpt>
      <trkpt lat="46.19247" lon="6.1204">
        <ele>425.6</ele>
        <time>2019-09-13T06:29:45Z</time>
      </trkpt>
      <trkpt lat="46.19251" lon="6.12045">
        <ele>425.6</ele>
        <time>2019-09-13T06:29:47Z</time>
      </trkpt>
      <trkpt lat="46.19253" lon="6.12047">
        <ele>425.6</ele>
        <time>2019-09-13T06:29:48Z</time>
      </trkpt>
      <trkpt lat="46.19256" lon="6.12049">
        <ele>425.6</ele>
        <time>2019-09-13T06:29:49Z</time>
      </trkpt>
      <trkpt lat="46.19259" lon="6.12052">
        <ele>425.7</ele>
        <time>2019-09-13T06:29:50Z</time>
      </trkpt>
      <trkpt lat="46.19262" lon="6.12054">
        <ele>425.7</ele>
        <time>2019-09-13T06:29:51Z</time>
      </trkpt>
      <trkpt lat="46.19264" lon="6.12057">
        <ele>425.5</ele>
        <time>2019-09-13T06:29:52Z</time>
      </trkpt>
      <trkpt lat="46.19269" lon="6.1206">
        <ele>425.4</ele>
        <time>2019-09-13T06:29:54Z</time>
      </trkpt>
      <trkpt lat="46.19272" lon="6.12057">
        <ele>425.4</ele>
        <time>2019-09-13T06:29:56Z</time>
      </trkpt>
      <trkpt lat="46.19275" lon="6.12054">
        <ele>425.3</ele>
        <time>2019-09-13T06:29:57Z</time>
      </trkpt>
      <trkpt lat="46.19279" lon="6.12052">
        <ele>425.4</ele>
        <time>2019-09-13T06:29:59Z</time>
      </trkpt>
      <trkpt lat="46.19282" lon="6.12053">
        <ele>425.5</ele>
        <time>2019-09-13T06:30:00Z</time>
      </trkpt>
      <trkpt lat="46.19285" lon="6.12053">
        <ele>425.8</ele>
        <time>2019-09-13T06:30:01Z</time>
      </trkpt>
      <trkpt lat="46.1929" lon="6.12055">
        <ele>425.7</ele>
        <time>2019-09-13T06:30:03Z</time>
      </trkpt>
      <trkpt lat="46.19294" lon="6.12051">
        <ele>425.4</ele>
        <time>2019-09-13T06:30:05Z</time>
      </trkpt>
      <trkpt lat="46.19296" lon="6.12048">
        <ele>425.3</ele>
        <time>2019-09-13T06:30:06Z</time>
      </trkpt>
      <trkpt lat="46.19297" lon="6.12044">
        <ele>425.2</ele>
        <time>2019-09-13T06:30:07Z</time>
      </trkpt>
      <trkpt lat="46.19299" lon="6.1204">
        <ele>425</ele>
        <time>2019-09-13T06:30:08Z</time>
      </trkpt>
      <trkpt lat="46.19301" lon="6.12037">
        <ele>425</ele>
        <time>2019-09-13T06:30:09Z</time>
      </trkpt>
      <trkpt lat="46.19303" lon="6.12033">
        <ele>424.9</ele>
        <time>2019-09-13T06:30:10Z</time>
      </trkpt>
      <trkpt lat="46.19306" lon="6.12028">
        <ele>424.6</ele>
        <time>2019-09-13T06:30:12Z</time>
      </trkpt>
      <trkpt lat="46.19308" lon="6.12025">
        <ele>424.5</ele>
        <time>2019-09-13T06:30:13Z</time>
      </trkpt>
      <trkpt lat="46.1931" lon="6.12022">
        <ele>424.4</ele>
        <time>2019-09-13T06:30:14Z</time>
      </trkpt>
      <trkpt lat="46.19312" lon="6.12019">
        <ele>424.3</ele>
        <time>2019-09-13T06:30:15Z</time>
      </trkpt>
      <trkpt lat="46.19316" lon="6.12015">
        <ele>424.1</ele>
        <time>2019-09-13T06:30:17Z</time>
      </trkpt>
      <trkpt lat="46.19319" lon="6.1201">
        <ele>424</ele>
        <time>2019-09-13T06:30:19Z</time>
      </trkpt>
      <trkpt lat="46.19323" lon="6.12007">
        <ele>423.8</ele>
        <time>2019-09-13T06:30:21Z</time>
      </trkpt>
      <trkpt lat="46.19327" lon="6.12004">
        <ele>423.6</ele>
        <time>2019-09-13T06:30:23Z</time>
      </trkpt>
      <trkpt lat="46.1933" lon="6.11999">
        <ele>423.6</ele>
        <time>2019-09-13T06:30:25Z</time>
      </trkpt>
      <trkpt lat="46.19331" lon="6.11993">
        <ele>423.2</ele>
        <time>2019-09-13T06:30:27Z</time>
      </trkpt>
      <trkpt lat="46.19332" lon="6.11986">
        <ele>423.1</ele>
        <time>2019-09-13T06:30:29Z</time>
      </trkpt>
      <trkpt lat="46.19332" lon="6.1198">
        <ele>422.9</ele>
        <time>2019-09-13T06:30:31Z</time>
      </trkpt>
      <trkpt lat="46.19335" lon="6.11975">
        <ele>422.6</ele>
        <time>2019-09-13T06:30:33Z</time>
      </trkpt>
      <trkpt lat="46.19337" lon="6.11973">
        <ele>422.6</ele>
        <time>2019-09-13T06:30:34Z</time>
      </trkpt>
      <trkpt lat="46.19342" lon="6.1197">
        <ele>422.5</ele>
        <time>2019-09-13T06:30:36Z</time>
      </trkpt>
      <trkpt lat="46.19344" lon="6.11967">
        <ele>422.5</ele>
        <time>2019-09-13T06:30:37Z</time>
      </trkpt>
      <trkpt lat="46.19348" lon="6.11963">
        <ele>422.5</ele>
        <time>2019-09-13T06:30:39Z</time>
      </trkpt>
      <trkpt lat="46.19353" lon="6.11963">
        <ele>422.4</ele>
        <time>2019-09-13T06:30:41Z</time>
      </trkpt>
      <trkpt lat="46.19356" lon="6.11964">
        <ele>422.4</ele>
        <time>2019-09-13T06:30:42Z</time>
      </trkpt>
      <trkpt lat="46.19359" lon="6.11966">
        <ele>422.5</ele>
        <time>2019-09-13T06:30:43Z</time>
      </trkpt>
      <trkpt lat="46.19362" lon="6.11969">
        <ele>422.6</ele>
        <time>2019-09-13T06:30:44Z</time>
      </trkpt>
      <trkpt lat="46.19364" lon="6.11973">
        <ele>422.6</ele>
        <time>2019-09-13T06:30:45Z</time>
      </trkpt>
      <trkpt lat="46.19365" lon="6.11977">
        <ele>422.7</ele>
        <time>2019-09-13T06:30:46Z</time>
      </trkpt>
      <trkpt lat="46.19367" lon="6.11981">
        <ele>422.8</ele>
        <time>2019-09-13T06:30:47Z</time>
      </trkpt>
      <trkpt lat="46.19368" lon="6.11984">
        <ele>422.8</ele>
        <time>2019-09-13T06:30:48Z</time>
      </trkpt>
      <trkpt lat="46.19371" lon="6.11988">
        <ele>422.9</ele>
        <time>2019-09-13T06:30:49Z</time>
      </trkpt>
      <trkpt lat="46.19372" lon="6.11991">
        <ele>423</ele>
        <time>2019-09-13T06:30:50Z</time>
      </trkpt>
      <trkpt lat="46.19374" lon="6.11997">
        <ele>423.1</ele>
        <time>2019-09-13T06:30:52Z</time>
      </trkpt>
      <trkpt lat="46.19376" lon="6.12002">
        <ele>423.1</ele>
        <time>2019-09-13T06:30:54Z</time>
      </trkpt>
      <trkpt lat="46.19378" lon="6.12005">
        <ele>423.2</ele>
        <time>2019-09-13T06:30:55Z</time>
      </trkpt>
      <trkpt lat="46.1938" lon="6.12009">
        <ele>423.3</ele>
        <time>2019-09-13T06:30:56Z</time>
      </trkpt>
      <trkpt lat="46.19382" lon="6.12012">
        <ele>423.3</ele>
        <time>2019-09-13T06:30:57Z</time>
      </trkpt>
      <trkpt lat="46.19384" lon="6.12015">
        <ele>423.3</ele>
        <time>2019-09-13T06:30:58Z</time>
      </trkpt>
      <trkpt lat="46.19386" lon="6.12018">
        <ele>423.4</ele>
        <time>2019-09-13T06:30:59Z</time>
      </trkpt>
      <trkpt lat="46.19389" lon="6.12024">
        <ele>423.4</ele>
        <time>2019-09-13T06:31:01Z</time>
      </trkpt>
      <trkpt lat="46.19391" lon="6.12028">
        <ele>423.4</ele>
        <time>2019-09-13T06:31:02Z</time>
      </trkpt>
      <trkpt lat="46.19392" lon="6.12031">
        <ele>423.5</ele>
        <time>2019-09-13T06:31:03Z</time>
      </trkpt>
      <trkpt lat="46.19394" lon="6.12035">
        <ele>423.5</ele>
        <time>2019-09-13T06:31:04Z</time>
      </trkpt>
      <trkpt lat="46.19396" lon="6.12038">
        <ele>423.5</ele>
        <time>2019-09-13T06:31:05Z</time>
      </trkpt>
      <trkpt lat="46.19397" lon="6.12042">
        <ele>423.5</ele>
        <time>2019-09-13T06:31:06Z</time>
      </trkpt>
      <trkpt lat="46.19399" lon="6.12045">
        <ele>423.5</ele>
        <time>2019-09-13T06:31:07Z</time>
      </trkpt>
      <trkpt lat="46.19401" lon="6.12048">
        <ele>423.5</ele>
        <time>2019-09-13T06:31:08Z</time>
      </trkpt>
      <trkpt lat="46.19403" lon="6.12052">
        <ele>423.4</ele>
        <time>2019-09-13T06:31:09Z</time>
      </trkpt>
      <trkpt lat="46.19405" lon="6.12055">
        <ele>423.4</ele>
        <time>2019-09-13T06:31:10Z</time>
      </trkpt>
      <trkpt lat="46.19406" lon="6.12059">
        <ele>423.4</ele>
        <time>2019-09-13T06:31:11Z</time>
      </trkpt>
      <trkpt lat="46.19408" lon="6.12063">
        <ele>423.4</ele>
        <time>2019-09-13T06:31:12Z</time>
      </trkpt>
      <trkpt lat="46.19412" lon="6.12067">
        <ele>423.4</ele>
        <time>2019-09-13T06:31:14Z</time>
      </trkpt>
      <trkpt lat="46.19417" lon="6.12066">
        <ele>423.2</ele>
        <time>2019-09-13T06:31:16Z</time>
      </trkpt>
      <trkpt lat="46.1942" lon="6.12065">
        <ele>423.1</ele>
        <time>2019-09-13T06:31:17Z</time>
      </trkpt>
      <trkpt lat="46.19423" lon="6.12064">
        <ele>423</ele>
        <time>2019-09-13T06:31:18Z</time>
      </trkpt>
      <trkpt lat="46.19425" lon="6.12063">
        <ele>422.8</ele>
        <time>2019-09-13T06:31:19Z</time>
      </trkpt>
      <trkpt lat="46.19428" lon="6.12063">
        <ele>422.5</ele>
        <time>2019-09-13T06:31:20Z</time>
      </trkpt>
      <trkpt lat="46.19431" lon="6.12064">
        <ele>422.3</ele>
        <time>2019-09-13T06:31:21Z</time>
      </trkpt>
      <trkpt lat="46.19434" lon="6.12065">
        <ele>422.1</ele>
        <time>2019-09-13T06:31:22Z</time>
      </trkpt>
      <trkpt lat="46.19439" lon="6.12067">
        <ele>421.8</ele>
        <time>2019-09-13T06:31:24Z</time>
      </trkpt>
      <trkpt lat="46.19443" lon="6.12069">
        <ele>421.5</ele>
        <time>2019-09-13T06:31:26Z</time>
      </trkpt>
      <trkpt lat="46.19447" lon="6.12071">
        <ele>421.4</ele>
        <time>2019-09-13T06:31:28Z</time>
      </trkpt>
      <trkpt lat="46.1945" lon="6.12074">
        <ele>421.2</ele>
        <time>2019-09-13T06:31:30Z</time>
      </trkpt>
      <trkpt lat="46.19455" lon="6.12078">
        <ele>421</ele>
        <time>2019-09-13T06:31:32Z</time>
      </trkpt>
      <trkpt lat="46.19459" lon="6.12081">
        <ele>420.9</ele>
        <time>2019-09-13T06:31:34Z</time>
      </trkpt>
      <trkpt lat="46.19462" lon="6.12086">
        <ele>420.8</ele>
        <time>2019-09-13T06:31:36Z</time>
      </trkpt>
      <trkpt lat="46.19465" lon="6.12087">
        <ele>420.8</ele>
        <time>2019-09-13T06:31:38Z</time>
      </trkpt>
      <trkpt lat="46.1947" lon="6.12087">
        <ele>420.7</ele>
        <time>2019-09-13T06:31:40Z</time>
      </trkpt>
      <trkpt lat="46.19473" lon="6.12088">
        <ele>420.7</ele>
        <time>2019-09-13T06:31:41Z</time>
      </trkpt>
      <trkpt lat="46.19476" lon="6.12089">
        <ele>420.4</ele>
        <time>2019-09-13T06:31:42Z</time>
      </trkpt>
      <trkpt lat="46.19479" lon="6.12089">
        <ele>420.3</ele>
        <time>2019-09-13T06:31:43Z</time>
      </trkpt>
      <trkpt lat="46.19482" lon="6.12091">
        <ele>420.2</ele>
        <time>2019-09-13T06:31:44Z</time>
      </trkpt>
      <trkpt lat="46.19486" lon="6.12092">
        <ele>420.1</ele>
        <time>2019-09-13T06:31:45Z</time>
      </trkpt>
      <trkpt lat="46.19489" lon="6.12093">
        <ele>420</ele>
        <time>2019-09-13T06:31:46Z</time>
      </trkpt>
      <trkpt lat="46.19492" lon="6.12094">
        <ele>420</ele>
        <time>2019-09-13T06:31:47Z</time>
      </trkpt>
      <trkpt lat="46.19494" lon="6.12095">
        <ele>419.9</ele>
        <time>2019-09-13T06:31:48Z</time>
      </trkpt>
      <trkpt lat="46.19499" lon="6.12097">
        <ele>419.8</ele>
        <time>2019-09-13T06:31:50Z</time>
      </trkpt>
      <trkpt lat="46.19504" lon="6.12099">
        <ele>419.7</ele>
        <time>2019-09-13T06:31:52Z</time>
      </trkpt>
      <trkpt lat="46.19506" lon="6.121">
        <ele>419.6</ele>
        <time>2019-09-13T06:31:53Z</time>
      </trkpt>
      <trkpt lat="46.19512" lon="6.12104">
        <ele>419.5</ele>
        <time>2019-09-13T06:31:55Z</time>
      </trkpt>
      <trkpt lat="46.19515" lon="6.12105">
        <ele>419.4</ele>
        <time>2019-09-13T06:31:56Z</time>
      </trkpt>
      <trkpt lat="46.19518" lon="6.12106">
        <ele>419.3</ele>
        <time>2019-09-13T06:31:57Z</time>
      </trkpt>
      <trkpt lat="46.19521" lon="6.12107">
        <ele>419.3</ele>
        <time>2019-09-13T06:31:58Z</time>
      </trkpt>
      <trkpt lat="46.19524" lon="6.12108">
        <ele>419.2</ele>
        <time>2019-09-13T06:31:59Z</time>
      </trkpt>
      <trkpt lat="46.19527" lon="6.12109">
        <ele>419.2</ele>
        <time>2019-09-13T06:32:00Z</time>
      </trkpt>
      <trkpt lat="46.1953" lon="6.12109">
        <ele>419.1</ele>
        <time>2019-09-13T06:32:01Z</time>
      </trkpt>
      <trkpt lat="46.19533" lon="6.12111">
        <ele>419.1</ele>
        <time>2019-09-13T06:32:02Z</time>
      </trkpt>
      <trkpt lat="46.19536" lon="6.12112">
        <ele>419</ele>
        <time>2019-09-13T06:32:03Z</time>
      </trkpt>
      <trkpt lat="46.19539" lon="6.12113">
        <ele>419</ele>
        <time>2019-09-13T06:32:04Z</time>
      </trkpt>
      <trkpt lat="46.19542" lon="6.12115">
        <ele>418.9</ele>
        <time>2019-09-13T06:32:05Z</time>
      </trkpt>
      <trkpt lat="46.19544" lon="6.12115">
        <ele>418.9</ele>
        <time>2019-09-13T06:32:07Z</time>
      </trkpt>
      <trkpt lat="46.19548" lon="6.12119">
        <ele>418.8</ele>
        <time>2019-09-13T06:32:09Z</time>
      </trkpt>
      <trkpt lat="46.19551" lon="6.12121">
        <ele>418.7</ele>
        <time>2019-09-13T06:32:10Z</time>
      </trkpt>
      <trkpt lat="46.19553" lon="6.12123">
        <ele>418.7</ele>
        <time>2019-09-13T06:32:11Z</time>
      </trkpt>
      <trkpt lat="46.19556" lon="6.12125">
        <ele>418.6</ele>
        <time>2019-09-13T06:32:12Z</time>
      </trkpt>
      <trkpt lat="46.19558" lon="6.12127">
        <ele>418.6</ele>
        <time>2019-09-13T06:32:13Z</time>
      </trkpt>
      <trkpt lat="46.19561" lon="6.12133">
        <ele>418.5</ele>
        <time>2019-09-13T06:32:15Z</time>
      </trkpt>
      <trkpt lat="46.19564" lon="6.12139">
        <ele>418.5</ele>
        <time>2019-09-13T06:32:17Z</time>
      </trkpt>
      <trkpt lat="46.19566" lon="6.12141">
        <ele>418.5</ele>
        <time>2019-09-13T06:32:18Z</time>
      </trkpt>
      <trkpt lat="46.19569" lon="6.12142">
        <ele>418.5</ele>
        <time>2019-09-13T06:32:19Z</time>
      </trkpt>
      <trkpt lat="46.19572" lon="6.12143">
        <ele>418.4</ele>
        <time>2019-09-13T06:32:20Z</time>
      </trkpt>
      <trkpt lat="46.19575" lon="6.12143">
        <ele>418.4</ele>
        <time>2019-09-13T06:32:21Z</time>
      </trkpt>
      <trkpt lat="46.19578" lon="6.12144">
        <ele>418.4</ele>
        <time>2019-09-13T06:32:22Z</time>
      </trkpt>
      <trkpt lat="46.19581" lon="6.12144">
        <ele>418.4</ele>
        <time>2019-09-13T06:32:23Z</time>
      </trkpt>
      <trkpt lat="46.19584" lon="6.12145">
        <ele>418.2</ele>
        <time>2019-09-13T06:32:24Z</time>
      </trkpt>
      <trkpt lat="46.19587" lon="6.12146">
        <ele>418.2</ele>
        <time>2019-09-13T06:32:25Z</time>
      </trkpt>
      <trkpt lat="46.19591" lon="6.12149">
        <ele>418.1</ele>
        <time>2019-09-13T06:32:27Z</time>
      </trkpt>
      <trkpt lat="46.19595" lon="6.12152">
        <ele>418.1</ele>
        <time>2019-09-13T06:32:29Z</time>
      </trkpt>
      <trkpt lat="46.19598" lon="6.12155">
        <ele>418</ele>
        <time>2019-09-13T06:32:31Z</time>
      </trkpt>
      <trkpt lat="46.19601" lon="6.12153">
        <ele>418</ele>
        <time>2019-09-13T06:32:42Z</time>
      </trkpt>
      <trkpt lat="46.19599" lon="6.12155">
        <ele>417.9</ele>
        <time>2019-09-13T06:32:48Z</time>
      </trkpt>
      <trkpt lat="46.19599" lon="6.12159">
        <ele>417.9</ele>
        <time>2019-09-13T06:32:49Z</time>
      </trkpt>
      <trkpt lat="46.196" lon="6.12164">
        <ele>417.9</ele>
        <time>2019-09-13T06:32:50Z</time>
      </trkpt>
      <trkpt lat="46.19602" lon="6.12167">
        <ele>417.8</ele>
        <time>2019-09-13T06:32:51Z</time>
      </trkpt>
      <trkpt lat="46.19605" lon="6.12169">
        <ele>417.8</ele>
        <time>2019-09-13T06:32:52Z</time>
      </trkpt>
      <trkpt lat="46.19608" lon="6.12169">
        <ele>417.6</ele>
        <time>2019-09-13T06:32:53Z</time>
      </trkpt>
      <trkpt lat="46.19612" lon="6.12168">
        <ele>417.5</ele>
        <time>2019-09-13T06:32:54Z</time>
      </trkpt>
      <trkpt lat="46.19615" lon="6.12165">
        <ele>417.4</ele>
        <time>2019-09-13T06:32:55Z</time>
      </trkpt>
      <trkpt lat="46.19619" lon="6.12163">
        <ele>416.9</ele>
        <time>2019-09-13T06:32:56Z</time>
      </trkpt>
      <trkpt lat="46.19622" lon="6.12161">
        <ele>416.7</ele>
        <time>2019-09-13T06:32:57Z</time>
      </trkpt>
      <trkpt lat="46.19625" lon="6.12161">
        <ele>416.5</ele>
        <time>2019-09-13T06:32:58Z</time>
      </trkpt>
      <trkpt lat="46.19629" lon="6.12165">
        <ele>416.2</ele>
        <time>2019-09-13T06:33:00Z</time>
      </trkpt>
      <trkpt lat="46.19632" lon="6.1217">
        <ele>416</ele>
        <time>2019-09-13T06:33:02Z</time>
      </trkpt>
      <trkpt lat="46.19637" lon="6.12172">
        <ele>415.9</ele>
        <time>2019-09-13T06:33:04Z</time>
      </trkpt>
      <trkpt lat="46.1964" lon="6.12173">
        <ele>415.9</ele>
        <time>2019-09-13T06:33:05Z</time>
      </trkpt>
      <trkpt lat="46.19643" lon="6.12174">
        <ele>415.8</ele>
        <time>2019-09-13T06:33:09Z</time>
      </trkpt>
      <trkpt lat="46.19648" lon="6.12175">
        <ele>415.8</ele>
        <time>2019-09-13T06:33:11Z</time>
      </trkpt>
      <trkpt lat="46.19651" lon="6.12175">
        <ele>415.8</ele>
        <time>2019-09-13T06:33:12Z</time>
      </trkpt>
      <trkpt lat="46.19654" lon="6.12175">
        <ele>415.8</ele>
        <time>2019-09-13T06:33:13Z</time>
      </trkpt>
      <trkpt lat="46.19657" lon="6.12174">
        <ele>415.8</ele>
        <time>2019-09-13T06:33:14Z</time>
      </trkpt>
      <trkpt lat="46.19661" lon="6.12174">
        <ele>415.8</ele>
        <time>2019-09-13T06:33:15Z</time>
      </trkpt>
      <trkpt lat="46.19664" lon="6.12173">
        <ele>415.8</ele>
        <time>2019-09-13T06:33:17Z</time>
      </trkpt>
      <trkpt lat="46.19668" lon="6.12171">
        <ele>415.8</ele>
        <time>2019-09-13T06:33:19Z</time>
      </trkpt>
      <trkpt lat="46.19671" lon="6.1217">
        <ele>415.8</ele>
        <time>2019-09-13T06:33:20Z</time>
      </trkpt>
      <trkpt lat="46.19675" lon="6.12171">
        <ele>415.9</ele>
        <time>2019-09-13T06:33:21Z</time>
      </trkpt>
      <trkpt lat="46.19679" lon="6.12172">
        <ele>415.9</ele>
        <time>2019-09-13T06:33:22Z</time>
      </trkpt>
      <trkpt lat="46.19682" lon="6.12173">
        <ele>415.9</ele>
        <time>2019-09-13T06:33:23Z</time>
      </trkpt>
      <trkpt lat="46.19685" lon="6.12173">
        <ele>415.9</ele>
        <time>2019-09-13T06:33:24Z</time>
      </trkpt>
      <trkpt lat="46.19689" lon="6.12173">
        <ele>415.9</ele>
        <time>2019-09-13T06:33:25Z</time>
      </trkpt>
      <trkpt lat="46.19691" lon="6.12172">
        <ele>416</ele>
        <time>2019-09-13T06:33:26Z</time>
      </trkpt>
      <trkpt lat="46.19697" lon="6.12171">
        <ele>416.1</ele>
        <time>2019-09-13T06:33:28Z</time>
      </trkpt>
      <trkpt lat="46.197" lon="6.1217">
        <ele>416.1</ele>
        <time>2019-09-13T06:33:29Z</time>
      </trkpt>
      <trkpt lat="46.19702" lon="6.12169">
        <ele>416.1</ele>
        <time>2019-09-13T06:33:30Z</time>
      </trkpt>
      <trkpt lat="46.19706" lon="6.12168">
        <ele>416.2</ele>
        <time>2019-09-13T06:33:31Z</time>
      </trkpt>
      <trkpt lat="46.1971" lon="6.12167">
        <ele>416.3</ele>
        <time>2019-09-13T06:33:32Z</time>
      </trkpt>
      <trkpt lat="46.19714" lon="6.12167">
        <ele>416.4</ele>
        <time>2019-09-13T06:33:33Z</time>
      </trkpt>
      <trkpt lat="46.19717" lon="6.12168">
        <ele>416.4</ele>
        <time>2019-09-13T06:33:34Z</time>
      </trkpt>
      <trkpt lat="46.1972" lon="6.12168">
        <ele>416.5</ele>
        <time>2019-09-13T06:33:35Z</time>
      </trkpt>
      <trkpt lat="46.19723" lon="6.12169">
        <ele>416.6</ele>
        <time>2019-09-13T06:33:36Z</time>
      </trkpt>
      <trkpt lat="46.19726" lon="6.12169">
        <ele>416.6</ele>
        <time>2019-09-13T06:33:37Z</time>
      </trkpt>
      <trkpt lat="46.19729" lon="6.12169">
        <ele>416.7</ele>
        <time>2019-09-13T06:33:38Z</time>
      </trkpt>
      <trkpt lat="46.19733" lon="6.12169">
        <ele>416.8</ele>
        <time>2019-09-13T06:33:39Z</time>
      </trkpt>
      <trkpt lat="46.19736" lon="6.1217">
        <ele>416.8</ele>
        <time>2019-09-13T06:33:40Z</time>
      </trkpt>
      <trkpt lat="46.19739" lon="6.1217">
        <ele>416.9</ele>
        <time>2019-09-13T06:33:41Z</time>
      </trkpt>
      <trkpt lat="46.19742" lon="6.1217">
        <ele>416.9</ele>
        <time>2019-09-13T06:33:42Z</time>
      </trkpt>
      <trkpt lat="46.19745" lon="6.12171">
        <ele>417</ele>
        <time>2019-09-13T06:33:43Z</time>
      </trkpt>
      <trkpt lat="46.1975" lon="6.1217">
        <ele>417.1</ele>
        <time>2019-09-13T06:33:45Z</time>
      </trkpt>
      <trkpt lat="46.19753" lon="6.1217">
        <ele>417.2</ele>
        <time>2019-09-13T06:33:46Z</time>
      </trkpt>
      <trkpt lat="46.19756" lon="6.12169">
        <ele>417.2</ele>
        <time>2019-09-13T06:33:47Z</time>
      </trkpt>
      <trkpt lat="46.19759" lon="6.12168">
        <ele>417.3</ele>
        <time>2019-09-13T06:33:48Z</time>
      </trkpt>
      <trkpt lat="46.19762" lon="6.12167">
        <ele>417.3</ele>
        <time>2019-09-13T06:33:49Z</time>
      </trkpt>
      <trkpt lat="46.19765" lon="6.12166">
        <ele>417.4</ele>
        <time>2019-09-13T06:33:50Z</time>
      </trkpt>
      <trkpt lat="46.1977" lon="6.12165">
        <ele>417.5</ele>
        <time>2019-09-13T06:33:52Z</time>
      </trkpt>
      <trkpt lat="46.19773" lon="6.12165">
        <ele>417.7</ele>
        <time>2019-09-13T06:33:53Z</time>
      </trkpt>
      <trkpt lat="46.19776" lon="6.12164">
        <ele>417.8</ele>
        <time>2019-09-13T06:33:54Z</time>
      </trkpt>
      <trkpt lat="46.19779" lon="6.12163">
        <ele>418</ele>
        <time>2019-09-13T06:33:55Z</time>
      </trkpt>
      <trkpt lat="46.19781" lon="6.12162">
        <ele>418.1</ele>
        <time>2019-09-13T06:33:56Z</time>
      </trkpt>
      <trkpt lat="46.19785" lon="6.12158">
        <ele>418.4</ele>
        <time>2019-09-13T06:33:58Z</time>
      </trkpt>
      <trkpt lat="46.19787" lon="6.12153">
        <ele>418.6</ele>
        <time>2019-09-13T06:34:00Z</time>
      </trkpt>
      <trkpt lat="46.19791" lon="6.12149">
        <ele>418.8</ele>
        <time>2019-09-13T06:34:02Z</time>
      </trkpt>
      <trkpt lat="46.19795" lon="6.12146">
        <ele>419</ele>
        <time>2019-09-13T06:34:04Z</time>
      </trkpt>
      <trkpt lat="46.19799" lon="6.12143">
        <ele>419.2</ele>
        <time>2019-09-13T06:34:06Z</time>
      </trkpt>
      <trkpt lat="46.19802" lon="6.12142">
        <ele>419.3</ele>
        <time>2019-09-13T06:34:07Z</time>
      </trkpt>
      <trkpt lat="46.19806" lon="6.12138">
        <ele>419.5</ele>
        <time>2019-09-13T06:34:09Z</time>
      </trkpt>
      <trkpt lat="46.1981" lon="6.12134">
        <ele>419.8</ele>
        <time>2019-09-13T06:34:11Z</time>
      </trkpt>
      <trkpt lat="46.19814" lon="6.12132">
        <ele>420</ele>
        <time>2019-09-13T06:34:13Z</time>
      </trkpt>
      <trkpt lat="46.1982" lon="6.1213">
        <ele>419.9</ele>
        <time>2019-09-13T06:34:15Z</time>
      </trkpt>
      <trkpt lat="46.19822" lon="6.12128">
        <ele>419.8</ele>
        <time>2019-09-13T06:34:16Z</time>
      </trkpt>
      <trkpt lat="46.19825" lon="6.12125">
        <ele>419.7</ele>
        <time>2019-09-13T06:34:17Z</time>
      </trkpt>
      <trkpt lat="46.19827" lon="6.12122">
        <ele>419.7</ele>
        <time>2019-09-13T06:34:18Z</time>
      </trkpt>
      <trkpt lat="46.19831" lon="6.1212">
        <ele>419.6</ele>
        <time>2019-09-13T06:34:20Z</time>
      </trkpt>
      <trkpt lat="46.19836" lon="6.12118">
        <ele>419.4</ele>
        <time>2019-09-13T06:34:22Z</time>
      </trkpt>
      <trkpt lat="46.19841" lon="6.12118">
        <ele>419.2</ele>
        <time>2019-09-13T06:34:24Z</time>
      </trkpt>
      <trkpt lat="46.19843" lon="6.12117">
        <ele>419.1</ele>
        <time>2019-09-13T06:34:25Z</time>
      </trkpt>
      <trkpt lat="46.19848" lon="6.12117">
        <ele>418.9</ele>
        <time>2019-09-13T06:34:27Z</time>
      </trkpt>
      <trkpt lat="46.19853" lon="6.12115">
        <ele>418.8</ele>
        <time>2019-09-13T06:34:29Z</time>
      </trkpt>
      <trkpt lat="46.19857" lon="6.12112">
        <ele>418.6</ele>
        <time>2019-09-13T06:34:31Z</time>
      </trkpt>
      <trkpt lat="46.19862" lon="6.12111">
        <ele>418.4</ele>
        <time>2019-09-13T06:34:33Z</time>
      </trkpt>
      <trkpt lat="46.19866" lon="6.12113">
        <ele>418.3</ele>
        <time>2019-09-13T06:34:35Z</time>
      </trkpt>
      <trkpt lat="46.1987" lon="6.12118">
        <ele>417.8</ele>
        <time>2019-09-13T06:34:37Z</time>
      </trkpt>
      <trkpt lat="46.19874" lon="6.12123">
        <ele>417.5</ele>
        <time>2019-09-13T06:34:39Z</time>
      </trkpt>
      <trkpt lat="46.19879" lon="6.12126">
        <ele>417.2</ele>
        <time>2019-09-13T06:34:41Z</time>
      </trkpt>
      <trkpt lat="46.19882" lon="6.12128">
        <ele>416.9</ele>
        <time>2019-09-13T06:34:42Z</time>
      </trkpt>
      <trkpt lat="46.19886" lon="6.12129">
        <ele>416.7</ele>
        <time>2019-09-13T06:34:43Z</time>
      </trkpt>
      <trkpt lat="46.19889" lon="6.12131">
        <ele>416.4</ele>
        <time>2019-09-13T06:34:44Z</time>
      </trkpt>
      <trkpt lat="46.19892" lon="6.12133">
        <ele>416.1</ele>
        <time>2019-09-13T06:34:45Z</time>
      </trkpt>
      <trkpt lat="46.19894" lon="6.12135">
        <ele>415.9</ele>
        <time>2019-09-13T06:34:46Z</time>
      </trkpt>
      <trkpt lat="46.19897" lon="6.12137">
        <ele>415.6</ele>
        <time>2019-09-13T06:34:47Z</time>
      </trkpt>
      <trkpt lat="46.19899" lon="6.12139">
        <ele>415.4</ele>
        <time>2019-09-13T06:34:48Z</time>
      </trkpt>
      <trkpt lat="46.19902" lon="6.12142">
        <ele>415.1</ele>
        <time>2019-09-13T06:34:49Z</time>
      </trkpt>
      <trkpt lat="46.19905" lon="6.12143">
        <ele>414.8</ele>
        <time>2019-09-13T06:34:50Z</time>
      </trkpt>
      <trkpt lat="46.19908" lon="6.12145">
        <ele>414.6</ele>
        <time>2019-09-13T06:34:51Z</time>
      </trkpt>
      <trkpt lat="46.1991" lon="6.12147">
        <ele>414.4</ele>
        <time>2019-09-13T06:34:52Z</time>
      </trkpt>
      <trkpt lat="46.19913" lon="6.12148">
        <ele>414.1</ele>
        <time>2019-09-13T06:34:53Z</time>
      </trkpt>
      <trkpt lat="46.19916" lon="6.12149">
        <ele>413.8</ele>
        <time>2019-09-13T06:34:54Z</time>
      </trkpt>
      <trkpt lat="46.19921" lon="6.12151">
        <ele>413.3</ele>
        <time>2019-09-13T06:34:56Z</time>
      </trkpt>
      <trkpt lat="46.19923" lon="6.12153">
        <ele>413.1</ele>
        <time>2019-09-13T06:34:57Z</time>
      </trkpt>
      <trkpt lat="46.19926" lon="6.12155">
        <ele>412.8</ele>
        <time>2019-09-13T06:34:58Z</time>
      </trkpt>
      <trkpt lat="46.19929" lon="6.12156">
        <ele>412.5</ele>
        <time>2019-09-13T06:34:59Z</time>
      </trkpt>
      <trkpt lat="46.19931" lon="6.12158">
        <ele>412.2</ele>
        <time>2019-09-13T06:35:00Z</time>
      </trkpt>
      <trkpt lat="46.19934" lon="6.12161">
        <ele>411.9</ele>
        <time>2019-09-13T06:35:01Z</time>
      </trkpt>
      <trkpt lat="46.19936" lon="6.12164">
        <ele>411.6</ele>
        <time>2019-09-13T06:35:02Z</time>
      </trkpt>
      <trkpt lat="46.19938" lon="6.12167">
        <ele>411.3</ele>
        <time>2019-09-13T06:35:03Z</time>
      </trkpt>
      <trkpt lat="46.1994" lon="6.1217">
        <ele>411.1</ele>
        <time>2019-09-13T06:35:04Z</time>
      </trkpt>
      <trkpt lat="46.19943" lon="6.12176">
        <ele>410.7</ele>
        <time>2019-09-13T06:35:06Z</time>
      </trkpt>
      <trkpt lat="46.19944" lon="6.1218">
        <ele>410.4</ele>
        <time>2019-09-13T06:35:07Z</time>
      </trkpt>
      <trkpt lat="46.19946" lon="6.12186">
        <ele>410</ele>
        <time>2019-09-13T06:35:09Z</time>
      </trkpt>
      <trkpt lat="46.1995" lon="6.12193">
        <ele>409.4</ele>
        <time>2019-09-13T06:35:11Z</time>
      </trkpt>
      <trkpt lat="46.19952" lon="6.12195">
        <ele>409.2</ele>
        <time>2019-09-13T06:35:12Z</time>
      </trkpt>
      <trkpt lat="46.19956" lon="6.122">
        <ele>408.8</ele>
        <time>2019-09-13T06:35:14Z</time>
      </trkpt>
      <trkpt lat="46.19958" lon="6.12208">
        <ele>408.4</ele>
        <time>2019-09-13T06:35:16Z</time>
      </trkpt>
      <trkpt lat="46.19959" lon="6.12212">
        <ele>408.2</ele>
        <time>2019-09-13T06:35:17Z</time>
      </trkpt>
      <trkpt lat="46.19963" lon="6.12218">
        <ele>405.7</ele>
        <time>2019-09-13T06:35:19Z</time>
      </trkpt>
      <trkpt lat="46.19965" lon="6.1222">
        <ele>405.3</ele>
        <time>2019-09-13T06:35:20Z</time>
      </trkpt>
      <trkpt lat="46.19968" lon="6.12221">
        <ele>404.8</ele>
        <time>2019-09-13T06:35:21Z</time>
      </trkpt>
      <trkpt lat="46.19971" lon="6.12221">
        <ele>403.3</ele>
        <time>2019-09-13T06:35:22Z</time>
      </trkpt>
      <trkpt lat="46.19974" lon="6.1222">
        <ele>403.3</ele>
        <time>2019-09-13T06:35:23Z</time>
      </trkpt>
      <trkpt lat="46.19978" lon="6.12219">
        <ele>403.2</ele>
        <time>2019-09-13T06:35:24Z</time>
      </trkpt>
      <trkpt lat="46.19981" lon="6.12215">
        <ele>403.2</ele>
        <time>2019-09-13T06:35:25Z</time>
      </trkpt>
      <trkpt lat="46.19982" lon="6.1221">
        <ele>403.5</ele>
        <time>2019-09-13T06:35:26Z</time>
      </trkpt>
      <trkpt lat="46.19983" lon="6.12204">
        <ele>403.8</ele>
        <time>2019-09-13T06:35:27Z</time>
      </trkpt>
      <trkpt lat="46.19982" lon="6.12199">
        <ele>403.2</ele>
        <time>2019-09-13T06:35:28Z</time>
      </trkpt>
      <trkpt lat="46.1998" lon="6.12194">
        <ele>403</ele>
        <time>2019-09-13T06:35:29Z</time>
      </trkpt>
      <trkpt lat="46.19979" lon="6.1219">
        <ele>402.8</ele>
        <time>2019-09-13T06:35:30Z</time>
      </trkpt>
      <trkpt lat="46.19977" lon="6.12184">
        <ele>402.5</ele>
        <time>2019-09-13T06:35:32Z</time>
      </trkpt>
      <trkpt lat="46.19978" lon="6.12176">
        <ele>402.2</ele>
        <time>2019-09-13T06:35:34Z</time>
      </trkpt>
      <trkpt lat="46.19979" lon="6.12172">
        <ele>402</ele>
        <time>2019-09-13T06:35:35Z</time>
      </trkpt>
      <trkpt lat="46.19982" lon="6.12172">
        <ele>401.9</ele>
        <time>2019-09-13T06:35:39Z</time>
      </trkpt>
      <trkpt lat="46.19983" lon="6.12176">
        <ele>401.7</ele>
        <time>2019-09-13T06:35:40Z</time>
      </trkpt>
      <trkpt lat="46.19985" lon="6.1218">
        <ele>401.6</ele>
        <time>2019-09-13T06:35:41Z</time>
      </trkpt>
      <trkpt lat="46.19985" lon="6.12186">
        <ele>401.4</ele>
        <time>2019-09-13T06:35:42Z</time>
      </trkpt>
      <trkpt lat="46.19986" lon="6.1219">
        <ele>401.3</ele>
        <time>2019-09-13T06:35:43Z</time>
      </trkpt>
      <trkpt lat="46.19987" lon="6.12193">
        <ele>401.2</ele>
        <time>2019-09-13T06:35:44Z</time>
      </trkpt>
      <trkpt lat="46.19989" lon="6.12197">
        <ele>401</ele>
        <time>2019-09-13T06:35:45Z</time>
      </trkpt>
      <trkpt lat="46.19991" lon="6.122">
        <ele>400.9</ele>
        <time>2019-09-13T06:35:46Z</time>
      </trkpt>
      <trkpt lat="46.19996" lon="6.12203">
        <ele>400.7</ele>
        <time>2019-09-13T06:35:48Z</time>
      </trkpt>
      <trkpt lat="46.2" lon="6.122">
        <ele>400.5</ele>
        <time>2019-09-13T06:35:50Z</time>
      </trkpt>
      <trkpt lat="46.20001" lon="6.12193">
        <ele>400.1</ele>
        <time>2019-09-13T06:35:52Z</time>
      </trkpt>
      <trkpt lat="46.2" lon="6.12189">
        <ele>399.9</ele>
        <time>2019-09-13T06:35:53Z</time>
      </trkpt>
      <trkpt lat="46.19999" lon="6.12182">
        <ele>399.6</ele>
        <time>2019-09-13T06:35:55Z</time>
      </trkpt>
      <trkpt lat="46.19999" lon="6.12175">
        <ele>399.2</ele>
        <time>2019-09-13T06:35:57Z</time>
      </trkpt>
      <trkpt lat="46.20001" lon="6.1217">
        <ele>399</ele>
        <time>2019-09-13T06:35:59Z</time>
      </trkpt>
      <trkpt lat="46.20001" lon="6.12174">
        <ele>398.8</ele>
        <time>2019-09-13T06:36:01Z</time>
      </trkpt>
      <trkpt lat="46.19999" lon="6.12181">
        <ele>398.6</ele>
        <time>2019-09-13T06:36:03Z</time>
      </trkpt>
      <trkpt lat="46.20001" lon="6.12187">
        <ele>398.5</ele>
        <time>2019-09-13T06:36:05Z</time>
      </trkpt>
      <trkpt lat="46.20007" lon="6.12188">
        <ele>398.3</ele>
        <time>2019-09-13T06:36:07Z</time>
      </trkpt>
      <trkpt lat="46.2001" lon="6.12186">
        <ele>398.2</ele>
        <time>2019-09-13T06:36:08Z</time>
      </trkpt>
      <trkpt lat="46.20012" lon="6.12182">
        <ele>398.1</ele>
        <time>2019-09-13T06:36:09Z</time>
      </trkpt>
      <trkpt lat="46.20014" lon="6.12177">
        <ele>398</ele>
        <time>2019-09-13T06:36:10Z</time>
      </trkpt>
      <trkpt lat="46.20015" lon="6.12172">
        <ele>397.8</ele>
        <time>2019-09-13T06:36:11Z</time>
      </trkpt>
      <trkpt lat="46.20016" lon="6.12167">
        <ele>397.6</ele>
        <time>2019-09-13T06:36:12Z</time>
      </trkpt>
      <trkpt lat="46.20017" lon="6.12163">
        <ele>397.7</ele>
        <time>2019-09-13T06:36:13Z</time>
      </trkpt>
      <trkpt lat="46.20018" lon="6.12158">
        <ele>397.8</ele>
        <time>2019-09-13T06:36:14Z</time>
      </trkpt>
      <trkpt lat="46.20018" lon="6.12154">
        <ele>397.8</ele>
        <time>2019-09-13T06:36:15Z</time>
      </trkpt>
      <trkpt lat="46.20017" lon="6.12149">
        <ele>397.9</ele>
        <time>2019-09-13T06:36:16Z</time>
      </trkpt>
      <trkpt lat="46.20017" lon="6.12144">
        <ele>398</ele>
        <time>2019-09-13T06:36:17Z</time>
      </trkpt>
      <trkpt lat="46.20017" lon="6.1214">
        <ele>398</ele>
        <time>2019-09-13T06:36:18Z</time>
      </trkpt>
      <trkpt lat="46.20017" lon="6.12136">
        <ele>398.1</ele>
        <time>2019-09-13T06:36:19Z</time>
      </trkpt>
      <trkpt lat="46.20017" lon="6.12131">
        <ele>398.2</ele>
        <time>2019-09-13T06:36:20Z</time>
      </trkpt>
      <trkpt lat="46.20017" lon="6.12127">
        <ele>398.2</ele>
        <time>2019-09-13T06:36:21Z</time>
      </trkpt>
      <trkpt lat="46.20017" lon="6.12123">
        <ele>398.3</ele>
        <time>2019-09-13T06:36:22Z</time>
      </trkpt>
      <trkpt lat="46.20016" lon="6.12119">
        <ele>398.3</ele>
        <time>2019-09-13T06:36:23Z</time>
      </trkpt>
      <trkpt lat="46.20016" lon="6.12115">
        <ele>398.2</ele>
        <time>2019-09-13T06:36:24Z</time>
      </trkpt>
      <trkpt lat="46.20015" lon="6.12107">
        <ele>397.9</ele>
        <time>2019-09-13T06:36:26Z</time>
      </trkpt>
      <trkpt lat="46.20016" lon="6.12101">
        <ele>397.7</ele>
        <time>2019-09-13T06:36:28Z</time>
      </trkpt>
      <trkpt lat="46.2002" lon="6.12097">
        <ele>397.4</ele>
        <time>2019-09-13T06:36:30Z</time>
      </trkpt>
      <trkpt lat="46.20022" lon="6.12097">
        <ele>397.2</ele>
        <time>2019-09-13T06:36:31Z</time>
      </trkpt>
      <trkpt lat="46.20027" lon="6.12098">
        <ele>396.9</ele>
        <time>2019-09-13T06:36:33Z</time>
      </trkpt>
      <trkpt lat="46.20031" lon="6.12099">
        <ele>396.6</ele>
        <time>2019-09-13T06:36:35Z</time>
      </trkpt>
      <trkpt lat="46.20036" lon="6.121">
        <ele>396.3</ele>
        <time>2019-09-13T06:36:37Z</time>
      </trkpt>
      <trkpt lat="46.20041" lon="6.12101">
        <ele>395.8</ele>
        <time>2019-09-13T06:36:39Z</time>
      </trkpt>
      <trkpt lat="46.20045" lon="6.12101">
        <ele>395.6</ele>
        <time>2019-09-13T06:36:40Z</time>
      </trkpt>
      <trkpt lat="46.20048" lon="6.12102">
        <ele>395.3</ele>
        <time>2019-09-13T06:36:41Z</time>
      </trkpt>
      <trkpt lat="46.20051" lon="6.12102">
        <ele>395.1</ele>
        <time>2019-09-13T06:36:42Z</time>
      </trkpt>
      <trkpt lat="46.20054" lon="6.12102">
        <ele>394.9</ele>
        <time>2019-09-13T06:36:43Z</time>
      </trkpt>
      <trkpt lat="46.20057" lon="6.12103">
        <ele>394.7</ele>
        <time>2019-09-13T06:36:44Z</time>
      </trkpt>
      <trkpt lat="46.20059" lon="6.12103">
        <ele>394.5</ele>
        <time>2019-09-13T06:36:45Z</time>
      </trkpt>
      <trkpt lat="46.20065" lon="6.12103">
        <ele>394.2</ele>
        <time>2019-09-13T06:36:47Z</time>
      </trkpt>
      <trkpt lat="46.2007" lon="6.12103">
        <ele>393.8</ele>
        <time>2019-09-13T06:36:49Z</time>
      </trkpt>
      <trkpt lat="46.20074" lon="6.12104">
        <ele>393.5</ele>
        <time>2019-09-13T06:36:51Z</time>
      </trkpt>
      <trkpt lat="46.20079" lon="6.12105">
        <ele>393.2</ele>
        <time>2019-09-13T06:36:53Z</time>
      </trkpt>
      <trkpt lat="46.20082" lon="6.12105">
        <ele>393</ele>
        <time>2019-09-13T06:36:54Z</time>
      </trkpt>
      <trkpt lat="46.20085" lon="6.12105">
        <ele>392.9</ele>
        <time>2019-09-13T06:36:55Z</time>
      </trkpt>
      <trkpt lat="46.20088" lon="6.12105">
        <ele>392.7</ele>
        <time>2019-09-13T06:36:56Z</time>
      </trkpt>
      <trkpt lat="46.20093" lon="6.12106">
        <ele>392.5</ele>
        <time>2019-09-13T06:36:58Z</time>
      </trkpt>
      <trkpt lat="46.20097" lon="6.12105">
        <ele>392.3</ele>
        <time>2019-09-13T06:37:00Z</time>
      </trkpt>
      <trkpt lat="46.20102" lon="6.12105">
        <ele>392.1</ele>
        <time>2019-09-13T06:37:02Z</time>
      </trkpt>
      <trkpt lat="46.20106" lon="6.12104">
        <ele>392</ele>
        <time>2019-09-13T06:37:03Z</time>
      </trkpt>
      <trkpt lat="46.20109" lon="6.12103">
        <ele>391.9</ele>
        <time>2019-09-13T06:37:04Z</time>
      </trkpt>
      <trkpt lat="46.20113" lon="6.12102">
        <ele>391.7</ele>
        <time>2019-09-13T06:37:06Z</time>
      </trkpt>
      <trkpt lat="46.20115" lon="6.121">
        <ele>391.6</ele>
        <time>2019-09-13T06:37:10Z</time>
      </trkpt>
      <trkpt lat="46.20119" lon="6.12096">
        <ele>391.4</ele>
        <time>2019-09-13T06:37:25Z</time>
      </trkpt>
      <trkpt lat="46.20124" lon="6.12095">
        <ele>391.2</ele>
        <time>2019-09-13T06:37:27Z</time>
      </trkpt>
      <trkpt lat="46.20127" lon="6.12095">
        <ele>391.1</ele>
        <time>2019-09-13T06:37:28Z</time>
      </trkpt>
      <trkpt lat="46.2013" lon="6.12095">
        <ele>391</ele>
        <time>2019-09-13T06:37:29Z</time>
      </trkpt>
      <trkpt lat="46.20134" lon="6.12095">
        <ele>390.9</ele>
        <time>2019-09-13T06:37:30Z</time>
      </trkpt>
      <trkpt lat="46.20137" lon="6.12095">
        <ele>390.7</ele>
        <time>2019-09-13T06:37:31Z</time>
      </trkpt>
      <trkpt lat="46.20142" lon="6.12095">
        <ele>390.5</ele>
        <time>2019-09-13T06:37:32Z</time>
      </trkpt>
      <trkpt lat="46.20145" lon="6.12095">
        <ele>390.4</ele>
        <time>2019-09-13T06:37:33Z</time>
      </trkpt>
      <trkpt lat="46.20148" lon="6.12095">
        <ele>390.2</ele>
        <time>2019-09-13T06:37:34Z</time>
      </trkpt>
      <trkpt lat="46.20154" lon="6.12095">
        <ele>390</ele>
        <time>2019-09-13T06:37:36Z</time>
      </trkpt>
      <trkpt lat="46.20157" lon="6.12095">
        <ele>389.9</ele>
        <time>2019-09-13T06:37:37Z</time>
      </trkpt>
      <trkpt lat="46.20162" lon="6.12095">
        <ele>389.8</ele>
        <time>2019-09-13T06:37:39Z</time>
      </trkpt>
      <trkpt lat="46.20166" lon="6.12094">
        <ele>389.7</ele>
        <time>2019-09-13T06:37:41Z</time>
      </trkpt>
      <trkpt lat="46.20171" lon="6.12093">
        <ele>389.5</ele>
        <time>2019-09-13T06:37:43Z</time>
      </trkpt>
      <trkpt lat="46.20174" lon="6.12093">
        <ele>389.5</ele>
        <time>2019-09-13T06:37:44Z</time>
      </trkpt>
      <trkpt lat="46.20177" lon="6.12093">
        <ele>389.4</ele>
        <time>2019-09-13T06:37:45Z</time>
      </trkpt>
      <trkpt lat="46.20181" lon="6.12093">
        <ele>389.3</ele>
        <time>2019-09-13T06:37:46Z</time>
      </trkpt>
      <trkpt lat="46.20185" lon="6.12093">
        <ele>389.2</ele>
        <time>2019-09-13T06:37:47Z</time>
      </trkpt>
      <trkpt lat="46.2019" lon="6.12093">
        <ele>389.1</ele>
        <time>2019-09-13T06:37:49Z</time>
      </trkpt>
      <trkpt lat="46.20195" lon="6.12093">
        <ele>388.9</ele>
        <time>2019-09-13T06:37:51Z</time>
      </trkpt>
      <trkpt lat="46.202" lon="6.12093">
        <ele>390</ele>
        <time>2019-09-13T06:37:53Z</time>
      </trkpt>
      <trkpt lat="46.20205" lon="6.12093">
        <ele>391.1</ele>
        <time>2019-09-13T06:37:55Z</time>
      </trkpt>
      <trkpt lat="46.2021" lon="6.12093">
        <ele>392.1</ele>
        <time>2019-09-13T06:37:57Z</time>
      </trkpt>
      <trkpt lat="46.20215" lon="6.12092">
        <ele>393.1</ele>
        <time>2019-09-13T06:37:59Z</time>
      </trkpt>
      <trkpt lat="46.20218" lon="6.12092">
        <ele>393.8</ele>
        <time>2019-09-13T06:38:00Z</time>
      </trkpt>
      <trkpt lat="46.20221" lon="6.12093">
        <ele>394.4</ele>
        <time>2019-09-13T06:38:01Z</time>
      </trkpt>
      <trkpt lat="46.20224" lon="6.12093">
        <ele>395</ele>
        <time>2019-09-13T06:38:02Z</time>
      </trkpt>
      <trkpt lat="46.20228" lon="6.12093">
        <ele>396</ele>
        <time>2019-09-13T06:38:04Z</time>
      </trkpt>
      <trkpt lat="46.20233" lon="6.12093">
        <ele>397</ele>
        <time>2019-09-13T06:38:06Z</time>
      </trkpt>
      <trkpt lat="46.20237" lon="6.12094">
        <ele>397.8</ele>
        <time>2019-09-13T06:38:08Z</time>
      </trkpt>
      <trkpt lat="46.2024" lon="6.12096">
        <ele>398.2</ele>
        <time>2019-09-13T06:38:10Z</time>
      </trkpt>
      <trkpt lat="46.20241" lon="6.12099">
        <ele>398.3</ele>
        <time>2019-09-13T06:38:12Z</time>
      </trkpt>
      <trkpt lat="46.2024" lon="6.12105">
        <ele>398.5</ele>
        <time>2019-09-13T06:38:14Z</time>
      </trkpt>
      <trkpt lat="46.20236" lon="6.12104">
        <ele>398.6</ele>
        <time>2019-09-13T06:38:17Z</time>
      </trkpt>
      <trkpt lat="46.20234" lon="6.12102">
        <ele>398.1</ele>
        <time>2019-09-13T06:38:18Z</time>
      </trkpt>
      <trkpt lat="46.20231" lon="6.12101">
        <ele>397.8</ele>
        <time>2019-09-13T06:38:19Z</time>
      </trkpt>
      <trkpt lat="46.20228" lon="6.12102">
        <ele>397.6</ele>
        <time>2019-09-13T06:38:20Z</time>
      </trkpt>
      <trkpt lat="46.20225" lon="6.12108">
        <ele>397</ele>
        <time>2019-09-13T06:38:22Z</time>
      </trkpt>
      <trkpt lat="46.20223" lon="6.12113">
        <ele>396.6</ele>
        <time>2019-09-13T06:38:23Z</time>
      </trkpt>
      <trkpt lat="46.20219" lon="6.12117">
        <ele>395.9</ele>
        <time>2019-09-13T06:38:25Z</time>
      </trkpt>
      <trkpt lat="46.20217" lon="6.12116">
        <ele>395.5</ele>
        <time>2019-09-13T06:38:26Z</time>
      </trkpt>
      <trkpt lat="46.20214" lon="6.12113">
        <ele>394.9</ele>
        <time>2019-09-13T06:38:27Z</time>
      </trkpt>
      <trkpt lat="46.20211" lon="6.12109">
        <ele>394.3</ele>
        <time>2019-09-13T06:38:28Z</time>
      </trkpt>
      <trkpt lat="46.20208" lon="6.12106">
        <ele>393.9</ele>
        <time>2019-09-13T06:38:30Z</time>
      </trkpt>
      <trkpt lat="46.20204" lon="6.1211">
        <ele>393.5</ele>
        <time>2019-09-13T06:38:32Z</time>
      </trkpt>
      <trkpt lat="46.20205" lon="6.12114">
        <ele>393.2</ele>
        <time>2019-09-13T06:38:33Z</time>
      </trkpt>
      <trkpt lat="46.20207" lon="6.12119">
        <ele>392.7</ele>
        <time>2019-09-13T06:38:34Z</time>
      </trkpt>
      <trkpt lat="46.20209" lon="6.12125">
        <ele>392.3</ele>
        <time>2019-09-13T06:38:35Z</time>
      </trkpt>
      <trkpt lat="46.2021" lon="6.1213">
        <ele>391.9</ele>
        <time>2019-09-13T06:38:36Z</time>
      </trkpt>
      <trkpt lat="46.20211" lon="6.12135">
        <ele>391.5</ele>
        <time>2019-09-13T06:38:37Z</time>
      </trkpt>
      <trkpt lat="46.20211" lon="6.12139">
        <ele>391.2</ele>
        <time>2019-09-13T06:38:38Z</time>
      </trkpt>
      <trkpt lat="46.2021" lon="6.12143">
        <ele>390.9</ele>
        <time>2019-09-13T06:38:39Z</time>
      </trkpt>
      <trkpt lat="46.20209" lon="6.12146">
        <ele>390.6</ele>
        <time>2019-09-13T06:38:40Z</time>
      </trkpt>
      <trkpt lat="46.20207" lon="6.12149">
        <ele>389.8</ele>
        <time>2019-09-13T06:38:41Z</time>
      </trkpt>
      <trkpt lat="46.20204" lon="6.12151">
        <ele>389.4</ele>
        <time>2019-09-13T06:38:43Z</time>
      </trkpt>
      <trkpt lat="46.20204" lon="6.12145">
        <ele>388.9</ele>
        <time>2019-09-13T06:38:47Z</time>
      </trkpt>
      <trkpt lat="46.20202" lon="6.12142">
        <ele>388.5</ele>
        <time>2019-09-13T06:38:51Z</time>
      </trkpt>
      <trkpt lat="46.20199" lon="6.12141">
        <ele>388</ele>
        <time>2019-09-13T06:38:53Z</time>
      </trkpt>
      <trkpt lat="46.20195" lon="6.12141">
        <ele>387.5</ele>
        <time>2019-09-13T06:38:55Z</time>
      </trkpt>
      <trkpt lat="46.20192" lon="6.12141">
        <ele>387</ele>
        <time>2019-09-13T06:38:56Z</time>
      </trkpt>
      <trkpt lat="46.20189" lon="6.1214">
        <ele>386.5</ele>
        <time>2019-09-13T06:38:57Z</time>
      </trkpt>
      <trkpt lat="46.20185" lon="6.12142">
        <ele>386</ele>
        <time>2019-09-13T06:38:59Z</time>
      </trkpt>
      <trkpt lat="46.20183" lon="6.12148">
        <ele>385.4</ele>
        <time>2019-09-13T06:39:01Z</time>
      </trkpt>
      <trkpt lat="46.20181" lon="6.12152">
        <ele>385.4</ele>
        <time>2019-09-13T06:39:04Z</time>
      </trkpt>
      <trkpt lat="46.20182" lon="6.12148">
        <ele>385.4</ele>
        <time>2019-09-13T06:39:10Z</time>
      </trkpt>
      <trkpt lat="46.20185" lon="6.12144">
        <ele>385.8</ele>
        <time>2019-09-13T06:39:12Z</time>
      </trkpt>
      <trkpt lat="46.20182" lon="6.12141">
        <ele>385.4</ele>
        <time>2019-09-13T06:39:15Z</time>
      </trkpt>
      <trkpt lat="46.20179" lon="6.12141">
        <ele>385.4</ele>
        <time>2019-09-13T06:39:18Z</time>
      </trkpt>
      <trkpt lat="46.20177" lon="6.12145">
        <ele>385.4</ele>
        <time>2019-09-13T06:39:28Z</time>
      </trkpt>
      <trkpt lat="46.20179" lon="6.12147">
        <ele>385.4</ele>
        <time>2019-09-13T06:39:31Z</time>
      </trkpt>
      <trkpt lat="46.20176" lon="6.12146">
        <ele>385.4</ele>
        <time>2019-09-13T06:39:39Z</time>
      </trkpt>
      <trkpt lat="46.20178" lon="6.12143">
        <ele>385.4</ele>
        <time>2019-09-13T06:39:44Z</time>
      </trkpt>
      <trkpt lat="46.20179" lon="6.12138">
        <ele>385.4</ele>
        <time>2019-09-13T06:39:50Z</time>
      </trkpt>
      <trkpt lat="46.20181" lon="6.12141">
        <ele>385.4</ele>
        <time>2019-09-13T06:39:54Z</time>
      </trkpt>
      <trkpt lat="46.20183" lon="6.12148">
        <ele>385.4</ele>
        <time>2019-09-13T06:39:56Z</time>
      </trkpt>
      <trkpt lat="46.20184" lon="6.12152">
        <ele>385.7</ele>
        <time>2019-09-13T06:39:57Z</time>
      </trkpt>
      <trkpt lat="46.20185" lon="6.12156">
        <ele>385.5</ele>
        <time>2019-09-13T06:39:58Z</time>
      </trkpt>
      <trkpt lat="46.20185" lon="6.12163">
        <ele>385.2</ele>
        <time>2019-09-13T06:40:00Z</time>
      </trkpt>
      <trkpt lat="46.20185" lon="6.12169">
        <ele>385</ele>
        <time>2019-09-13T06:40:02Z</time>
      </trkpt>
      <trkpt lat="46.20189" lon="6.12167">
        <ele>384.7</ele>
        <time>2019-09-13T06:40:07Z</time>
      </trkpt>
      <trkpt lat="46.20192" lon="6.12166">
        <ele>384.5</ele>
        <time>2019-09-13T06:40:12Z</time>
      </trkpt>
      <trkpt lat="46.20195" lon="6.12171">
        <ele>384.2</ele>
        <time>2019-09-13T06:40:16Z</time>
      </trkpt>
      <trkpt lat="46.20197" lon="6.12176">
        <ele>384</ele>
        <time>2019-09-13T06:40:18Z</time>
      </trkpt>
      <trkpt lat="46.202" lon="6.1218">
        <ele>383.7</ele>
        <time>2019-09-13T06:40:21Z</time>
      </trkpt>
      <trkpt lat="46.20204" lon="6.12185">
        <ele>383.5</ele>
        <time>2019-09-13T06:40:23Z</time>
      </trkpt>
      <trkpt lat="46.20206" lon="6.1219">
        <ele>383.3</ele>
        <time>2019-09-13T06:40:25Z</time>
      </trkpt>
      <trkpt lat="46.20207" lon="6.12195">
        <ele>383.2</ele>
        <time>2019-09-13T06:40:27Z</time>
      </trkpt>
      <trkpt lat="46.20208" lon="6.12199">
        <ele>383.1</ele>
        <time>2019-09-13T06:40:29Z</time>
      </trkpt>
      <trkpt lat="46.20209" lon="6.12203">
        <ele>383</ele>
        <time>2019-09-13T06:40:32Z</time>
      </trkpt>
      <trkpt lat="46.2021" lon="6.12207">
        <ele>383</ele>
        <time>2019-09-13T06:40:35Z</time>
      </trkpt>
      <trkpt lat="46.20212" lon="6.1221">
        <ele>383</ele>
        <time>2019-09-13T06:40:37Z</time>
      </trkpt>
      <trkpt lat="46.20214" lon="6.12214">
        <ele>383</ele>
        <time>2019-09-13T06:40:39Z</time>
      </trkpt>
      <trkpt lat="46.20215" lon="6.12219">
        <ele>383</ele>
        <time>2019-09-13T06:40:41Z</time>
      </trkpt>
      <trkpt lat="46.20216" lon="6.12226">
        <ele>383.3</ele>
        <time>2019-09-13T06:40:43Z</time>
      </trkpt>
      <trkpt lat="46.20217" lon="6.12231">
        <ele>383.5</ele>
        <time>2019-09-13T06:40:44Z</time>
      </trkpt>
      <trkpt lat="46.20217" lon="6.12235">
        <ele>383.7</ele>
        <time>2019-09-13T06:40:45Z</time>
      </trkpt>
      <trkpt lat="46.20217" lon="6.12242">
        <ele>384.1</ele>
        <time>2019-09-13T06:40:47Z</time>
      </trkpt>
      <trkpt lat="46.20218" lon="6.1225">
        <ele>384.6</ele>
        <time>2019-09-13T06:40:49Z</time>
      </trkpt>
      <trkpt lat="46.20219" lon="6.12254">
        <ele>384.7</ele>
        <time>2019-09-13T06:40:50Z</time>
      </trkpt>
      <trkpt lat="46.20221" lon="6.12258">
        <ele>384.9</ele>
        <time>2019-09-13T06:40:51Z</time>
      </trkpt>
      <trkpt lat="46.20223" lon="6.12261">
        <ele>385.1</ele>
        <time>2019-09-13T06:40:52Z</time>
      </trkpt>
      <trkpt lat="46.20225" lon="6.12264">
        <ele>385.1</ele>
        <time>2019-09-13T06:40:53Z</time>
      </trkpt>
      <trkpt lat="46.20229" lon="6.12267">
        <ele>385.3</ele>
        <time>2019-09-13T06:40:55Z</time>
      </trkpt>
      <trkpt lat="46.20233" lon="6.1227">
        <ele>385.3</ele>
        <time>2019-09-13T06:40:57Z</time>
      </trkpt>
      <trkpt lat="46.20237" lon="6.12272">
        <ele>385.3</ele>
        <time>2019-09-13T06:40:59Z</time>
      </trkpt>
      <trkpt lat="46.20239" lon="6.12274">
        <ele>385.3</ele>
        <time>2019-09-13T06:41:01Z</time>
      </trkpt>
      <trkpt lat="46.2024" lon="6.12279">
        <ele>385.3</ele>
        <time>2019-09-13T06:41:03Z</time>
      </trkpt>
      <trkpt lat="46.2024" lon="6.12284">
        <ele>385.3</ele>
        <time>2019-09-13T06:41:05Z</time>
      </trkpt>
      <trkpt lat="46.20241" lon="6.12289">
        <ele>385.1</ele>
        <time>2019-09-13T06:41:07Z</time>
      </trkpt>
      <trkpt lat="46.20242" lon="6.12293">
        <ele>385.1</ele>
        <time>2019-09-13T06:41:08Z</time>
      </trkpt>
      <trkpt lat="46.20243" lon="6.12297">
        <ele>385</ele>
        <time>2019-09-13T06:41:09Z</time>
      </trkpt>
      <trkpt lat="46.20244" lon="6.12302">
        <ele>384.8</ele>
        <time>2019-09-13T06:41:10Z</time>
      </trkpt>
      <trkpt lat="46.20244" lon="6.12306">
        <ele>384.7</ele>
        <time>2019-09-13T06:41:11Z</time>
      </trkpt>
      <trkpt lat="46.20245" lon="6.1231">
        <ele>384.5</ele>
        <time>2019-09-13T06:41:12Z</time>
      </trkpt>
      <trkpt lat="46.20246" lon="6.12314">
        <ele>384.4</ele>
        <time>2019-09-13T06:41:13Z</time>
      </trkpt>
      <trkpt lat="46.20247" lon="6.12318">
        <ele>384.1</ele>
        <time>2019-09-13T06:41:14Z</time>
      </trkpt>
      <trkpt lat="46.20249" lon="6.12325">
        <ele>383.7</ele>
        <time>2019-09-13T06:41:16Z</time>
      </trkpt>
      <trkpt lat="46.2025" lon="6.12332">
        <ele>383.3</ele>
        <time>2019-09-13T06:41:18Z</time>
      </trkpt>
      <trkpt lat="46.2025" lon="6.12338">
        <ele>383</ele>
        <time>2019-09-13T06:41:20Z</time>
      </trkpt>
      <trkpt lat="46.2025" lon="6.12343">
        <ele>382.8</ele>
        <time>2019-09-13T06:41:22Z</time>
      </trkpt>
      <trkpt lat="46.20251" lon="6.12348">
        <ele>382.6</ele>
        <time>2019-09-13T06:41:25Z</time>
      </trkpt>
      <trkpt lat="46.20253" lon="6.12353">
        <ele>382.5</ele>
        <time>2019-09-13T06:41:30Z</time>
      </trkpt>
      <trkpt lat="46.20255" lon="6.12358">
        <ele>382.4</ele>
        <time>2019-09-13T06:41:31Z</time>
      </trkpt>
      <trkpt lat="46.20257" lon="6.12361">
        <ele>382.3</ele>
        <time>2019-09-13T06:41:32Z</time>
      </trkpt>
      <trkpt lat="46.20258" lon="6.12365">
        <ele>382.2</ele>
        <time>2019-09-13T06:41:33Z</time>
      </trkpt>
      <trkpt lat="46.20259" lon="6.12371">
        <ele>382.2</ele>
        <time>2019-09-13T06:41:35Z</time>
      </trkpt>
      <trkpt lat="46.2026" lon="6.12378">
        <ele>382.1</ele>
        <time>2019-09-13T06:41:37Z</time>
      </trkpt>
      <trkpt lat="46.20262" lon="6.12383">
        <ele>382.1</ele>
        <time>2019-09-13T06:41:39Z</time>
      </trkpt>
      <trkpt lat="46.20263" lon="6.12387">
        <ele>382.1</ele>
        <time>2019-09-13T06:41:40Z</time>
      </trkpt>
      <trkpt lat="46.20265" lon="6.1239">
        <ele>382.1</ele>
        <time>2019-09-13T06:41:41Z</time>
      </trkpt>
      <trkpt lat="46.20267" lon="6.12394">
        <ele>382</ele>
        <time>2019-09-13T06:41:42Z</time>
      </trkpt>
      <trkpt lat="46.20269" lon="6.12397">
        <ele>382</ele>
        <time>2019-09-13T06:41:43Z</time>
      </trkpt>
      <trkpt lat="46.20271" lon="6.124">
        <ele>382</ele>
        <time>2019-09-13T06:41:44Z</time>
      </trkpt>
      <trkpt lat="46.20274" lon="6.12405">
        <ele>382</ele>
        <time>2019-09-13T06:41:46Z</time>
      </trkpt>
      <trkpt lat="46.20278" lon="6.1241">
        <ele>382</ele>
        <time>2019-09-13T06:41:48Z</time>
      </trkpt>
      <trkpt lat="46.20281" lon="6.12415">
        <ele>382.1</ele>
        <time>2019-09-13T06:41:50Z</time>
      </trkpt>
      <trkpt lat="46.20283" lon="6.12418">
        <ele>382.1</ele>
        <time>2019-09-13T06:41:52Z</time>
      </trkpt>
      <trkpt lat="46.20285" lon="6.12423">
        <ele>382.1</ele>
        <time>2019-09-13T06:41:54Z</time>
      </trkpt>
      <trkpt lat="46.20286" lon="6.12428">
        <ele>382.1</ele>
        <time>2019-09-13T06:41:56Z</time>
      </trkpt>
      <trkpt lat="46.20288" lon="6.12433">
        <ele>382.1</ele>
        <time>2019-09-13T06:41:58Z</time>
      </trkpt>
      <trkpt lat="46.2029" lon="6.12439">
        <ele>382.2</ele>
        <time>2019-09-13T06:42:00Z</time>
      </trkpt>
      <trkpt lat="46.20292" lon="6.12442">
        <ele>382.2</ele>
        <time>2019-09-13T06:42:02Z</time>
      </trkpt>
      <trkpt lat="46.20294" lon="6.12447">
        <ele>382.3</ele>
        <time>2019-09-13T06:42:06Z</time>
      </trkpt>
      <trkpt lat="46.20297" lon="6.12454">
        <ele>382.3</ele>
        <time>2019-09-13T06:42:08Z</time>
      </trkpt>
      <trkpt lat="46.20298" lon="6.12458">
        <ele>382.3</ele>
        <time>2019-09-13T06:42:09Z</time>
      </trkpt>
      <trkpt lat="46.20299" lon="6.12463">
        <ele>382.3</ele>
        <time>2019-09-13T06:42:11Z</time>
      </trkpt>
      <trkpt lat="46.20299" lon="6.12467">
        <ele>382.3</ele>
        <time>2019-09-13T06:42:14Z</time>
      </trkpt>
      <trkpt lat="46.20302" lon="6.12472">
        <ele>382.3</ele>
        <time>2019-09-13T06:42:16Z</time>
      </trkpt>
      <trkpt lat="46.20305" lon="6.12476">
        <ele>382.3</ele>
        <time>2019-09-13T06:42:18Z</time>
      </trkpt>
      <trkpt lat="46.20308" lon="6.12483">
        <ele>382.3</ele>
        <time>2019-09-13T06:42:20Z</time>
      </trkpt>
      <trkpt lat="46.20309" lon="6.12486">
        <ele>382.2</ele>
        <time>2019-09-13T06:42:21Z</time>
      </trkpt>
      <trkpt lat="46.2031" lon="6.1249">
        <ele>382.2</ele>
        <time>2019-09-13T06:42:22Z</time>
      </trkpt>
      <trkpt lat="46.20312" lon="6.12493">
        <ele>382.2</ele>
        <time>2019-09-13T06:42:23Z</time>
      </trkpt>
      <trkpt lat="46.20313" lon="6.12497">
        <ele>382.2</ele>
        <time>2019-09-13T06:42:24Z</time>
      </trkpt>
      <trkpt lat="46.20315" lon="6.12502">
        <ele>382.2</ele>
        <time>2019-09-13T06:42:25Z</time>
      </trkpt>
      <trkpt lat="46.20317" lon="6.12508">
        <ele>382.2</ele>
        <time>2019-09-13T06:42:27Z</time>
      </trkpt>
      <trkpt lat="46.20317" lon="6.12512">
        <ele>382.2</ele>
        <time>2019-09-13T06:42:28Z</time>
      </trkpt>
      <trkpt lat="46.20319" lon="6.12517">
        <ele>382.2</ele>
        <time>2019-09-13T06:42:29Z</time>
      </trkpt>
      <trkpt lat="46.2032" lon="6.12521">
        <ele>382.2</ele>
        <time>2019-09-13T06:42:30Z</time>
      </trkpt>
      <trkpt lat="46.20322" lon="6.12525">
        <ele>382.2</ele>
        <time>2019-09-13T06:42:31Z</time>
      </trkpt>
      <trkpt lat="46.20324" lon="6.12529">
        <ele>382.2</ele>
        <time>2019-09-13T06:42:32Z</time>
      </trkpt>
      <trkpt lat="46.20324" lon="6.12535">
        <ele>382.2</ele>
        <time>2019-09-13T06:42:33Z</time>
      </trkpt>
      <trkpt lat="46.20324" lon="6.12541">
        <ele>382.2</ele>
        <time>2019-09-13T06:42:34Z</time>
      </trkpt>
      <trkpt lat="46.20322" lon="6.12547">
        <ele>382.2</ele>
        <time>2019-09-13T06:42:35Z</time>
      </trkpt>
      <trkpt lat="46.20322" lon="6.12553">
        <ele>382.2</ele>
        <time>2019-09-13T06:42:36Z</time>
      </trkpt>
      <trkpt lat="46.20322" lon="6.12557">
        <ele>382.2</ele>
        <time>2019-09-13T06:42:37Z</time>
      </trkpt>
      <trkpt lat="46.20323" lon="6.12562">
        <ele>382.2</ele>
        <time>2019-09-13T06:42:38Z</time>
      </trkpt>
      <trkpt lat="46.20323" lon="6.12566">
        <ele>382.2</ele>
        <time>2019-09-13T06:42:39Z</time>
      </trkpt>
      <trkpt lat="46.20324" lon="6.1257">
        <ele>382.2</ele>
        <time>2019-09-13T06:42:40Z</time>
      </trkpt>
      <trkpt lat="46.20327" lon="6.12576">
        <ele>382.3</ele>
        <time>2019-09-13T06:42:42Z</time>
      </trkpt>
      <trkpt lat="46.20329" lon="6.12582">
        <ele>382.4</ele>
        <time>2019-09-13T06:42:44Z</time>
      </trkpt>
      <trkpt lat="46.2033" lon="6.12589">
        <ele>382.5</ele>
        <time>2019-09-13T06:42:46Z</time>
      </trkpt>
      <trkpt lat="46.20333" lon="6.12595">
        <ele>382.6</ele>
        <time>2019-09-13T06:42:48Z</time>
      </trkpt>
      <trkpt lat="46.20335" lon="6.12599">
        <ele>382.6</ele>
        <time>2019-09-13T06:42:49Z</time>
      </trkpt>
      <trkpt lat="46.20336" lon="6.12603">
        <ele>382.7</ele>
        <time>2019-09-13T06:42:50Z</time>
      </trkpt>
      <trkpt lat="46.20339" lon="6.12607">
        <ele>382.8</ele>
        <time>2019-09-13T06:42:52Z</time>
      </trkpt>
      <trkpt lat="46.20342" lon="6.12612">
        <ele>382.9</ele>
        <time>2019-09-13T06:42:54Z</time>
      </trkpt>
      <trkpt lat="46.20344" lon="6.12618">
        <ele>382.9</ele>
        <time>2019-09-13T06:42:56Z</time>
      </trkpt>
      <trkpt lat="46.20345" lon="6.12625">
        <ele>382.9</ele>
        <time>2019-09-13T06:42:58Z</time>
      </trkpt>
      <trkpt lat="46.20345" lon="6.12629">
        <ele>382.9</ele>
        <time>2019-09-13T06:42:59Z</time>
      </trkpt>
      <trkpt lat="46.20345" lon="6.12634">
        <ele>382.9</ele>
        <time>2019-09-13T06:43:00Z</time>
      </trkpt>
      <trkpt lat="46.20345" lon="6.12638">
        <ele>382.9</ele>
        <time>2019-09-13T06:43:01Z</time>
      </trkpt>
      <trkpt lat="46.20346" lon="6.12642">
        <ele>382.8</ele>
        <time>2019-09-13T06:43:02Z</time>
      </trkpt>
      <trkpt lat="46.20346" lon="6.12647">
        <ele>382.7</ele>
        <time>2019-09-13T06:43:03Z</time>
      </trkpt>
      <trkpt lat="46.20346" lon="6.12651">
        <ele>382.7</ele>
        <time>2019-09-13T06:43:04Z</time>
      </trkpt>
      <trkpt lat="46.20346" lon="6.12655">
        <ele>382.6</ele>
        <time>2019-09-13T06:43:05Z</time>
      </trkpt>
      <trkpt lat="46.20345" lon="6.1266">
        <ele>382.5</ele>
        <time>2019-09-13T06:43:06Z</time>
      </trkpt>
      <trkpt lat="46.20346" lon="6.12664">
        <ele>382.4</ele>
        <time>2019-09-13T06:43:07Z</time>
      </trkpt>
      <trkpt lat="46.20346" lon="6.12668">
        <ele>382.4</ele>
        <time>2019-09-13T06:43:08Z</time>
      </trkpt>
      <trkpt lat="46.20347" lon="6.12675">
        <ele>382.3</ele>
        <time>2019-09-13T06:43:10Z</time>
      </trkpt>
      <trkpt lat="46.20349" lon="6.12681">
        <ele>382.2</ele>
        <time>2019-09-13T06:43:12Z</time>
      </trkpt>
      <trkpt lat="46.20351" lon="6.12689">
        <ele>382.2</ele>
        <time>2019-09-13T06:43:14Z</time>
      </trkpt>
      <trkpt lat="46.20352" lon="6.12695">
        <ele>382.4</ele>
        <time>2019-09-13T06:43:16Z</time>
      </trkpt>
      <trkpt lat="46.20353" lon="6.12701">
        <ele>382.6</ele>
        <time>2019-09-13T06:43:18Z</time>
      </trkpt>
      <trkpt lat="46.20355" lon="6.12706">
        <ele>382.8</ele>
        <time>2019-09-13T06:43:20Z</time>
      </trkpt>
      <trkpt lat="46.20356" lon="6.12713">
        <ele>383.1</ele>
        <time>2019-09-13T06:43:22Z</time>
      </trkpt>
      <trkpt lat="46.20356" lon="6.1272">
        <ele>383.5</ele>
        <time>2019-09-13T06:43:24Z</time>
      </trkpt>
      <trkpt lat="46.20356" lon="6.12727">
        <ele>384</ele>
        <time>2019-09-13T06:43:26Z</time>
      </trkpt>
      <trkpt lat="46.20357" lon="6.12733">
        <ele>384.3</ele>
        <time>2019-09-13T06:43:28Z</time>
      </trkpt>
      <trkpt lat="46.20359" lon="6.1274">
        <ele>384.6</ele>
        <time>2019-09-13T06:43:30Z</time>
      </trkpt>
      <trkpt lat="46.20361" lon="6.12746">
        <ele>384.8</ele>
        <time>2019-09-13T06:43:32Z</time>
      </trkpt>
      <trkpt lat="46.20363" lon="6.12752">
        <ele>384.9</ele>
        <time>2019-09-13T06:43:34Z</time>
      </trkpt>
      <trkpt lat="46.20365" lon="6.12757">
        <ele>385</ele>
        <time>2019-09-13T06:43:36Z</time>
      </trkpt>
      <trkpt lat="46.20367" lon="6.1276">
        <ele>384.9</ele>
        <time>2019-09-13T06:43:38Z</time>
      </trkpt>
      <trkpt lat="46.20368" lon="6.12763">
        <ele>384.9</ele>
        <time>2019-09-13T06:43:40Z</time>
      </trkpt>
      <trkpt lat="46.20371" lon="6.12767">
        <ele>384.8</ele>
        <time>2019-09-13T06:43:42Z</time>
      </trkpt>
      <trkpt lat="46.20372" lon="6.12771">
        <ele>384.7</ele>
        <time>2019-09-13T06:43:43Z</time>
      </trkpt>
      <trkpt lat="46.20372" lon="6.12775">
        <ele>384.6</ele>
        <time>2019-09-13T06:43:44Z</time>
      </trkpt>
      <trkpt lat="46.20372" lon="6.12779">
        <ele>384.5</ele>
        <time>2019-09-13T06:43:45Z</time>
      </trkpt>
      <trkpt lat="46.20371" lon="6.12783">
        <ele>384.5</ele>
        <time>2019-09-13T06:43:46Z</time>
      </trkpt>
      <trkpt lat="46.20371" lon="6.12788">
        <ele>384.4</ele>
        <time>2019-09-13T06:43:47Z</time>
      </trkpt>
      <trkpt lat="46.2037" lon="6.12791">
        <ele>384.3</ele>
        <time>2019-09-13T06:43:48Z</time>
      </trkpt>
      <trkpt lat="46.2037" lon="6.12795">
        <ele>384.2</ele>
        <time>2019-09-13T06:43:49Z</time>
      </trkpt>
      <trkpt lat="46.2037" lon="6.128">
        <ele>384.1</ele>
        <time>2019-09-13T06:43:50Z</time>
      </trkpt>
      <trkpt lat="46.20371" lon="6.12805">
        <ele>384</ele>
        <time>2019-09-13T06:43:51Z</time>
      </trkpt>
      <trkpt lat="46.20372" lon="6.12808">
        <ele>383.9</ele>
        <time>2019-09-13T06:43:52Z</time>
      </trkpt>
      <trkpt lat="46.20373" lon="6.12815">
        <ele>383.7</ele>
        <time>2019-09-13T06:43:54Z</time>
      </trkpt>
      <trkpt lat="46.20376" lon="6.12822">
        <ele>383.5</ele>
        <time>2019-09-13T06:43:56Z</time>
      </trkpt>
      <trkpt lat="46.20377" lon="6.12826">
        <ele>383.3</ele>
        <time>2019-09-13T06:43:57Z</time>
      </trkpt>
      <trkpt lat="46.20377" lon="6.1283">
        <ele>383.2</ele>
        <time>2019-09-13T06:43:58Z</time>
      </trkpt>
      <trkpt lat="46.20376" lon="6.12835">
        <ele>383</ele>
        <time>2019-09-13T06:43:59Z</time>
      </trkpt>
      <trkpt lat="46.20376" lon="6.1284">
        <ele>382.7</ele>
        <time>2019-09-13T06:44:00Z</time>
      </trkpt>
      <trkpt lat="46.20375" lon="6.12844">
        <ele>382.5</ele>
        <time>2019-09-13T06:44:01Z</time>
      </trkpt>
      <trkpt lat="46.20374" lon="6.12848">
        <ele>382.3</ele>
        <time>2019-09-13T06:44:02Z</time>
      </trkpt>
      <trkpt lat="46.20374" lon="6.12852">
        <ele>382.1</ele>
        <time>2019-09-13T06:44:03Z</time>
      </trkpt>
      <trkpt lat="46.20373" lon="6.12857">
        <ele>381.9</ele>
        <time>2019-09-13T06:44:04Z</time>
      </trkpt>
      <trkpt lat="46.20373" lon="6.12861">
        <ele>381.8</ele>
        <time>2019-09-13T06:44:05Z</time>
      </trkpt>
      <trkpt lat="46.20373" lon="6.12867">
        <ele>381.6</ele>
        <time>2019-09-13T06:44:07Z</time>
      </trkpt>
      <trkpt lat="46.20374" lon="6.12871">
        <ele>381.5</ele>
        <time>2019-09-13T06:44:08Z</time>
      </trkpt>
      <trkpt lat="46.20375" lon="6.12875">
        <ele>381.4</ele>
        <time>2019-09-13T06:44:09Z</time>
      </trkpt>
      <trkpt lat="46.20376" lon="6.12879">
        <ele>381.3</ele>
        <time>2019-09-13T06:44:10Z</time>
      </trkpt>
      <trkpt lat="46.20378" lon="6.12884">
        <ele>381.3</ele>
        <time>2019-09-13T06:44:12Z</time>
      </trkpt>
      <trkpt lat="46.20381" lon="6.1289">
        <ele>381.3</ele>
        <time>2019-09-13T06:44:14Z</time>
      </trkpt>
      <trkpt lat="46.20383" lon="6.12896">
        <ele>381.2</ele>
        <time>2019-09-13T06:44:16Z</time>
      </trkpt>
      <trkpt lat="46.20385" lon="6.12903">
        <ele>381.2</ele>
        <time>2019-09-13T06:44:18Z</time>
      </trkpt>
      <trkpt lat="46.20386" lon="6.12909">
        <ele>381.1</ele>
        <time>2019-09-13T06:44:20Z</time>
      </trkpt>
      <trkpt lat="46.20387" lon="6.12914">
        <ele>381.1</ele>
        <time>2019-09-13T06:44:22Z</time>
      </trkpt>
      <trkpt lat="46.20388" lon="6.1292">
        <ele>381.1</ele>
        <time>2019-09-13T06:44:24Z</time>
      </trkpt>
      <trkpt lat="46.2039" lon="6.12926">
        <ele>381.1</ele>
        <time>2019-09-13T06:44:26Z</time>
      </trkpt>
      <trkpt lat="46.20392" lon="6.12932">
        <ele>381.1</ele>
        <time>2019-09-13T06:44:28Z</time>
      </trkpt>
      <trkpt lat="46.20394" lon="6.12938">
        <ele>381.1</ele>
        <time>2019-09-13T06:44:30Z</time>
      </trkpt>
      <trkpt lat="46.20395" lon="6.12944">
        <ele>381.2</ele>
        <time>2019-09-13T06:44:32Z</time>
      </trkpt>
      <trkpt lat="46.20395" lon="6.12949">
        <ele>381.2</ele>
        <time>2019-09-13T06:44:33Z</time>
      </trkpt>
      <trkpt lat="46.20394" lon="6.12953">
        <ele>381.2</ele>
        <time>2019-09-13T06:44:34Z</time>
      </trkpt>
      <trkpt lat="46.20393" lon="6.12957">
        <ele>381.3</ele>
        <time>2019-09-13T06:44:35Z</time>
      </trkpt>
      <trkpt lat="46.20393" lon="6.12964">
        <ele>381.3</ele>
        <time>2019-09-13T06:44:37Z</time>
      </trkpt>
      <trkpt lat="46.20393" lon="6.12971">
        <ele>381.4</ele>
        <time>2019-09-13T06:44:39Z</time>
      </trkpt>
      <trkpt lat="46.20392" lon="6.12979">
        <ele>381.5</ele>
        <time>2019-09-13T06:44:41Z</time>
      </trkpt>
      <trkpt lat="46.20391" lon="6.12983">
        <ele>381.6</ele>
        <time>2019-09-13T06:44:42Z</time>
      </trkpt>
      <trkpt lat="46.20392" lon="6.12991">
        <ele>381.7</ele>
        <time>2019-09-13T06:44:44Z</time>
      </trkpt>
      <trkpt lat="46.20392" lon="6.12995">
        <ele>381.7</ele>
        <time>2019-09-13T06:44:45Z</time>
      </trkpt>
      <trkpt lat="46.20391" lon="6.13">
        <ele>381.8</ele>
        <time>2019-09-13T06:44:46Z</time>
      </trkpt>
      <trkpt lat="46.2039" lon="6.13004">
        <ele>381.8</ele>
        <time>2019-09-13T06:44:47Z</time>
      </trkpt>
      <trkpt lat="46.2039" lon="6.13008">
        <ele>381.9</ele>
        <time>2019-09-13T06:44:49Z</time>
      </trkpt>
      <trkpt lat="46.2039" lon="6.13015">
        <ele>381.9</ele>
        <time>2019-09-13T06:44:52Z</time>
      </trkpt>
      <trkpt lat="46.20388" lon="6.1302">
        <ele>382</ele>
        <time>2019-09-13T06:44:54Z</time>
      </trkpt>
      <trkpt lat="46.20386" lon="6.13023">
        <ele>382</ele>
        <time>2019-09-13T06:44:55Z</time>
      </trkpt>
      <trkpt lat="46.20385" lon="6.13029">
        <ele>382.1</ele>
        <time>2019-09-13T06:44:57Z</time>
      </trkpt>
      <trkpt lat="46.20383" lon="6.13035">
        <ele>382.2</ele>
        <time>2019-09-13T06:44:59Z</time>
      </trkpt>
      <trkpt lat="46.20381" lon="6.13041">
        <ele>382.4</ele>
        <time>2019-09-13T06:45:01Z</time>
      </trkpt>
      <trkpt lat="46.2038" lon="6.13045">
        <ele>382.5</ele>
        <time>2019-09-13T06:45:03Z</time>
      </trkpt>
      <trkpt lat="46.20379" lon="6.1305">
        <ele>382.5</ele>
        <time>2019-09-13T06:45:05Z</time>
      </trkpt>
      <trkpt lat="46.20379" lon="6.13057">
        <ele>382.6</ele>
        <time>2019-09-13T06:45:07Z</time>
      </trkpt>
      <trkpt lat="46.20379" lon="6.13065">
        <ele>382.7</ele>
        <time>2019-09-13T06:45:09Z</time>
      </trkpt>
      <trkpt lat="46.20378" lon="6.13071">
        <ele>382.7</ele>
        <time>2019-09-13T06:45:11Z</time>
      </trkpt>
      <trkpt lat="46.20377" lon="6.13078">
        <ele>382.5</ele>
        <time>2019-09-13T06:45:13Z</time>
      </trkpt>
      <trkpt lat="46.20376" lon="6.13085">
        <ele>382.1</ele>
        <time>2019-09-13T06:45:15Z</time>
      </trkpt>
      <trkpt lat="46.20376" lon="6.13089">
        <ele>381.8</ele>
        <time>2019-09-13T06:45:16Z</time>
      </trkpt>
      <trkpt lat="46.20375" lon="6.13093">
        <ele>381.6</ele>
        <time>2019-09-13T06:45:17Z</time>
      </trkpt>
      <trkpt lat="46.20374" lon="6.13097">
        <ele>381.3</ele>
        <time>2019-09-13T06:45:18Z</time>
      </trkpt>
      <trkpt lat="46.20373" lon="6.13101">
        <ele>381</ele>
        <time>2019-09-13T06:45:19Z</time>
      </trkpt>
      <trkpt lat="46.20372" lon="6.13108">
        <ele>380.6</ele>
        <time>2019-09-13T06:45:21Z</time>
      </trkpt>
      <trkpt lat="46.20372" lon="6.13114">
        <ele>380.1</ele>
        <time>2019-09-13T06:45:23Z</time>
      </trkpt>
      <trkpt lat="46.20371" lon="6.1312">
        <ele>379.9</ele>
        <time>2019-09-13T06:45:25Z</time>
      </trkpt>
      <trkpt lat="46.20372" lon="6.13126">
        <ele>380</ele>
        <time>2019-09-13T06:45:27Z</time>
      </trkpt>
      <trkpt lat="46.20373" lon="6.13132">
        <ele>380.2</ele>
        <time>2019-09-13T06:45:29Z</time>
      </trkpt>
      <trkpt lat="46.20372" lon="6.13136">
        <ele>380.2</ele>
        <time>2019-09-13T06:45:30Z</time>
      </trkpt>
      <trkpt lat="46.20372" lon="6.1314">
        <ele>380.3</ele>
        <time>2019-09-13T06:45:31Z</time>
      </trkpt>
      <trkpt lat="46.20372" lon="6.13144">
        <ele>380.4</ele>
        <time>2019-09-13T06:45:32Z</time>
      </trkpt>
      <trkpt lat="46.20371" lon="6.13152">
        <ele>380.6</ele>
        <time>2019-09-13T06:45:34Z</time>
      </trkpt>
      <trkpt lat="46.20371" lon="6.13157">
        <ele>380.7</ele>
        <time>2019-09-13T06:45:35Z</time>
      </trkpt>
      <trkpt lat="46.2037" lon="6.13161">
        <ele>380.8</ele>
        <time>2019-09-13T06:45:36Z</time>
      </trkpt>
      <trkpt lat="46.20369" lon="6.13169">
        <ele>381.2</ele>
        <time>2019-09-13T06:45:38Z</time>
      </trkpt>
      <trkpt lat="46.20369" lon="6.13173">
        <ele>381.4</ele>
        <time>2019-09-13T06:45:39Z</time>
      </trkpt>
      <trkpt lat="46.2037" lon="6.13177">
        <ele>381.5</ele>
        <time>2019-09-13T06:45:40Z</time>
      </trkpt>
      <trkpt lat="46.2037" lon="6.13181">
        <ele>381.4</ele>
        <time>2019-09-13T06:45:41Z</time>
      </trkpt>
      <trkpt lat="46.2037" lon="6.13186">
        <ele>381.2</ele>
        <time>2019-09-13T06:45:42Z</time>
      </trkpt>
      <trkpt lat="46.2037" lon="6.13191">
        <ele>381</ele>
        <time>2019-09-13T06:45:43Z</time>
      </trkpt>
      <trkpt lat="46.2037" lon="6.13196">
        <ele>381.5</ele>
        <time>2019-09-13T06:45:44Z</time>
      </trkpt>
      <trkpt lat="46.20371" lon="6.13201">
        <ele>382</ele>
        <time>2019-09-13T06:45:45Z</time>
      </trkpt>
      <trkpt lat="46.20371" lon="6.13207">
        <ele>382.4</ele>
        <time>2019-09-13T06:45:46Z</time>
      </trkpt>
      <trkpt lat="46.20372" lon="6.13211">
        <ele>382.8</ele>
        <time>2019-09-13T06:45:47Z</time>
      </trkpt>
      <trkpt lat="46.20373" lon="6.13218">
        <ele>383.4</ele>
        <time>2019-09-13T06:45:49Z</time>
      </trkpt>
      <trkpt lat="46.20375" lon="6.13223">
        <ele>383.9</ele>
        <time>2019-09-13T06:45:51Z</time>
      </trkpt>
      <trkpt lat="46.20378" lon="6.13227">
        <ele>384.4</ele>
        <time>2019-09-13T06:45:53Z</time>
      </trkpt>
      <trkpt lat="46.20383" lon="6.13228">
        <ele>384.9</ele>
        <time>2019-09-13T06:45:55Z</time>
      </trkpt>
      <trkpt lat="46.20384" lon="6.13233">
        <ele>385.4</ele>
        <time>2019-09-13T06:45:57Z</time>
      </trkpt>
      <trkpt lat="46.20385" lon="6.13237">
        <ele>386.3</ele>
        <time>2019-09-13T06:45:58Z</time>
      </trkpt>
      <trkpt lat="46.20384" lon="6.13242">
        <ele>386.6</ele>
        <time>2019-09-13T06:45:59Z</time>
      </trkpt>
      <trkpt lat="46.20382" lon="6.13247">
        <ele>387</ele>
        <time>2019-09-13T06:46:00Z</time>
      </trkpt>
      <trkpt lat="46.20379" lon="6.1325">
        <ele>387</ele>
        <time>2019-09-13T06:46:01Z</time>
      </trkpt>
      <trkpt lat="46.20377" lon="6.13254">
        <ele>385.9</ele>
        <time>2019-09-13T06:46:02Z</time>
      </trkpt>
      <trkpt lat="46.20374" lon="6.13259">
        <ele>384.5</ele>
        <time>2019-09-13T06:46:04Z</time>
      </trkpt>
      <trkpt lat="46.20372" lon="6.13262">
        <ele>382.1</ele>
        <time>2019-09-13T06:46:06Z</time>
      </trkpt>
      <trkpt lat="46.2037" lon="6.13264">
        <ele>382.6</ele>
        <time>2019-09-13T06:46:09Z</time>
      </trkpt>
      <trkpt lat="46.20369" lon="6.13268">
        <ele>383.1</ele>
        <time>2019-09-13T06:46:11Z</time>
      </trkpt>
      <trkpt lat="46.20368" lon="6.13276">
        <ele>384</ele>
        <time>2019-09-13T06:46:13Z</time>
      </trkpt>
      <trkpt lat="46.20369" lon="6.1328">
        <ele>384.5</ele>
        <time>2019-09-13T06:46:14Z</time>
      </trkpt>
      <trkpt lat="46.2037" lon="6.13284">
        <ele>385</ele>
        <time>2019-09-13T06:46:15Z</time>
      </trkpt>
      <trkpt lat="46.20372" lon="6.13291">
        <ele>386.1</ele>
        <time>2019-09-13T06:46:17Z</time>
      </trkpt>
      <trkpt lat="46.20372" lon="6.13298">
        <ele>387.1</ele>
        <time>2019-09-13T06:46:19Z</time>
      </trkpt>
      <trkpt lat="46.20375" lon="6.13305">
        <ele>388.1</ele>
        <time>2019-09-13T06:46:21Z</time>
      </trkpt>
      <trkpt lat="46.20376" lon="6.13308">
        <ele>387</ele>
        <time>2019-09-13T06:46:22Z</time>
      </trkpt>
      <trkpt lat="46.20378" lon="6.13312">
        <ele>386.6</ele>
        <time>2019-09-13T06:46:23Z</time>
      </trkpt>
      <trkpt lat="46.20379" lon="6.13315">
        <ele>386.1</ele>
        <time>2019-09-13T06:46:24Z</time>
      </trkpt>
      <trkpt lat="46.2038" lon="6.13319">
        <ele>385.6</ele>
        <time>2019-09-13T06:46:25Z</time>
      </trkpt>
      <trkpt lat="46.20381" lon="6.13323">
        <ele>385.2</ele>
        <time>2019-09-13T06:46:26Z</time>
      </trkpt>
      <trkpt lat="46.20383" lon="6.13327">
        <ele>384.7</ele>
        <time>2019-09-13T06:46:27Z</time>
      </trkpt>
      <trkpt lat="46.20385" lon="6.1333">
        <ele>384.1</ele>
        <time>2019-09-13T06:46:28Z</time>
      </trkpt>
      <trkpt lat="46.20387" lon="6.13333">
        <ele>384.3</ele>
        <time>2019-09-13T06:46:29Z</time>
      </trkpt>
      <trkpt lat="46.20391" lon="6.13339">
        <ele>384.7</ele>
        <time>2019-09-13T06:46:31Z</time>
      </trkpt>
      <trkpt lat="46.20392" lon="6.13343">
        <ele>384.9</ele>
        <time>2019-09-13T06:46:32Z</time>
      </trkpt>
      <trkpt lat="46.20393" lon="6.13347">
        <ele>385.1</ele>
        <time>2019-09-13T06:46:33Z</time>
      </trkpt>
      <trkpt lat="46.20394" lon="6.13352">
        <ele>385.4</ele>
        <time>2019-09-13T06:46:34Z</time>
      </trkpt>
      <trkpt lat="46.20395" lon="6.13357">
        <ele>385.6</ele>
        <time>2019-09-13T06:46:35Z</time>
      </trkpt>
      <trkpt lat="46.20395" lon="6.13361">
        <ele>385.9</ele>
        <time>2019-09-13T06:46:36Z</time>
      </trkpt>
      <trkpt lat="46.20395" lon="6.13366">
        <ele>385.1</ele>
        <time>2019-09-13T06:46:37Z</time>
      </trkpt>
      <trkpt lat="46.20396" lon="6.13373">
        <ele>383.8</ele>
        <time>2019-09-13T06:46:39Z</time>
      </trkpt>
      <trkpt lat="46.20398" lon="6.1338">
        <ele>380.8</ele>
        <time>2019-09-13T06:46:41Z</time>
      </trkpt>
      <trkpt lat="46.20399" lon="6.13384">
        <ele>381.1</ele>
        <time>2019-09-13T06:46:42Z</time>
      </trkpt>
      <trkpt lat="46.204" lon="6.13391">
        <ele>381.8</ele>
        <time>2019-09-13T06:46:44Z</time>
      </trkpt>
      <trkpt lat="46.20402" lon="6.13398">
        <ele>382.5</ele>
        <time>2019-09-13T06:46:46Z</time>
      </trkpt>
      <trkpt lat="46.20404" lon="6.13405">
        <ele>383.2</ele>
        <time>2019-09-13T06:46:48Z</time>
      </trkpt>
      <trkpt lat="46.20405" lon="6.13409">
        <ele>383.7</ele>
        <time>2019-09-13T06:46:49Z</time>
      </trkpt>
      <trkpt lat="46.20407" lon="6.13412">
        <ele>384.1</ele>
        <time>2019-09-13T06:46:50Z</time>
      </trkpt>
      <trkpt lat="46.2041" lon="6.13418">
        <ele>384.8</ele>
        <time>2019-09-13T06:46:52Z</time>
      </trkpt>
      <trkpt lat="46.20413" lon="6.13423">
        <ele>385.6</ele>
        <time>2019-09-13T06:46:54Z</time>
      </trkpt>
      <trkpt lat="46.20417" lon="6.13428">
        <ele>386.5</ele>
        <time>2019-09-13T06:46:56Z</time>
      </trkpt>
      <trkpt lat="46.20419" lon="6.13431">
        <ele>387</ele>
        <time>2019-09-13T06:46:57Z</time>
      </trkpt>
      <trkpt lat="46.20422" lon="6.13433">
        <ele>387.4</ele>
        <time>2019-09-13T06:46:58Z</time>
      </trkpt>
      <trkpt lat="46.20424" lon="6.13435">
        <ele>387.8</ele>
        <time>2019-09-13T06:46:59Z</time>
      </trkpt>
      <trkpt lat="46.20427" lon="6.13438">
        <ele>388.3</ele>
        <time>2019-09-13T06:47:00Z</time>
      </trkpt>
      <trkpt lat="46.2043" lon="6.13443">
        <ele>389</ele>
        <time>2019-09-13T06:47:02Z</time>
      </trkpt>
      <trkpt lat="46.20434" lon="6.13448">
        <ele>389.6</ele>
        <time>2019-09-13T06:47:04Z</time>
      </trkpt>
      <trkpt lat="46.20436" lon="6.13451">
        <ele>390</ele>
        <time>2019-09-13T06:47:05Z</time>
      </trkpt>
      <trkpt lat="46.20438" lon="6.13453">
        <ele>390.4</ele>
        <time>2019-09-13T06:47:06Z</time>
      </trkpt>
      <trkpt lat="46.20443" lon="6.13457">
        <ele>391.2</ele>
        <time>2019-09-13T06:47:08Z</time>
      </trkpt>
      <trkpt lat="46.20448" lon="6.13461">
        <ele>392</ele>
        <time>2019-09-13T06:47:10Z</time>
      </trkpt>
      <trkpt lat="46.20451" lon="6.13464">
        <ele>392.6</ele>
        <time>2019-09-13T06:47:11Z</time>
      </trkpt>
      <trkpt lat="46.20454" lon="6.13467">
        <ele>393.1</ele>
        <time>2019-09-13T06:47:12Z</time>
      </trkpt>
      <trkpt lat="46.20456" lon="6.13469">
        <ele>393.5</ele>
        <time>2019-09-13T06:47:13Z</time>
      </trkpt>
      <trkpt lat="46.20461" lon="6.13473">
        <ele>394.2</ele>
        <time>2019-09-13T06:47:15Z</time>
      </trkpt>
      <trkpt lat="46.20463" lon="6.13476">
        <ele>394.6</ele>
        <time>2019-09-13T06:47:16Z</time>
      </trkpt>
      <trkpt lat="46.20467" lon="6.1348">
        <ele>395.2</ele>
        <time>2019-09-13T06:47:18Z</time>
      </trkpt>
      <trkpt lat="46.2047" lon="6.13485">
        <ele>395.7</ele>
        <time>2019-09-13T06:47:20Z</time>
      </trkpt>
      <trkpt lat="46.20472" lon="6.1349">
        <ele>394.9</ele>
        <time>2019-09-13T06:47:22Z</time>
      </trkpt>
      <trkpt lat="46.20475" lon="6.13496">
        <ele>394.7</ele>
        <time>2019-09-13T06:47:24Z</time>
      </trkpt>
      <trkpt lat="46.20478" lon="6.13502">
        <ele>394.5</ele>
        <time>2019-09-13T06:47:26Z</time>
      </trkpt>
      <trkpt lat="46.20482" lon="6.13507">
        <ele>394.3</ele>
        <time>2019-09-13T06:47:28Z</time>
      </trkpt>
      <trkpt lat="46.20485" lon="6.13513">
        <ele>394.1</ele>
        <time>2019-09-13T06:47:30Z</time>
      </trkpt>
      <trkpt lat="46.20489" lon="6.13518">
        <ele>393.9</ele>
        <time>2019-09-13T06:47:32Z</time>
      </trkpt>
      <trkpt lat="46.20491" lon="6.13522">
        <ele>393.8</ele>
        <time>2019-09-13T06:47:33Z</time>
      </trkpt>
      <trkpt lat="46.20493" lon="6.13526">
        <ele>393.6</ele>
        <time>2019-09-13T06:47:34Z</time>
      </trkpt>
      <trkpt lat="46.20495" lon="6.1353">
        <ele>393.5</ele>
        <time>2019-09-13T06:47:35Z</time>
      </trkpt>
      <trkpt lat="46.20497" lon="6.13533">
        <ele>393.4</ele>
        <time>2019-09-13T06:47:36Z</time>
      </trkpt>
      <trkpt lat="46.20501" lon="6.13536">
        <ele>393.2</ele>
        <time>2019-09-13T06:47:38Z</time>
      </trkpt>
      <trkpt lat="46.20505" lon="6.13538">
        <ele>393</ele>
        <time>2019-09-13T06:47:40Z</time>
      </trkpt>
      <trkpt lat="46.20508" lon="6.13543">
        <ele>392.8</ele>
        <time>2019-09-13T06:47:42Z</time>
      </trkpt>
      <trkpt lat="46.20511" lon="6.1355">
        <ele>391.1</ele>
        <time>2019-09-13T06:47:44Z</time>
      </trkpt>
      <trkpt lat="46.20514" lon="6.13557">
        <ele>390.3</ele>
        <time>2019-09-13T06:47:46Z</time>
      </trkpt>
      <trkpt lat="46.20515" lon="6.1356">
        <ele>389.8</ele>
        <time>2019-09-13T06:47:47Z</time>
      </trkpt>
      <trkpt lat="46.20516" lon="6.13564">
        <ele>389.3</ele>
        <time>2019-09-13T06:47:48Z</time>
      </trkpt>
      <trkpt lat="46.20518" lon="6.13569">
        <ele>388.8</ele>
        <time>2019-09-13T06:47:49Z</time>
      </trkpt>
      <trkpt lat="46.20519" lon="6.13575">
        <ele>388.2</ele>
        <time>2019-09-13T06:47:50Z</time>
      </trkpt>
      <trkpt lat="46.2052" lon="6.13581">
        <ele>387.6</ele>
        <time>2019-09-13T06:47:51Z</time>
      </trkpt>
      <trkpt lat="46.20521" lon="6.13585">
        <ele>387.1</ele>
        <time>2019-09-13T06:47:52Z</time>
      </trkpt>
      <trkpt lat="46.20523" lon="6.1359">
        <ele>386.6</ele>
        <time>2019-09-13T06:47:53Z</time>
      </trkpt>
      <trkpt lat="46.20524" lon="6.13594">
        <ele>386.1</ele>
        <time>2019-09-13T06:47:54Z</time>
      </trkpt>
      <trkpt lat="46.20525" lon="6.13598">
        <ele>385.7</ele>
        <time>2019-09-13T06:47:55Z</time>
      </trkpt>
      <trkpt lat="46.20527" lon="6.13602">
        <ele>385.4</ele>
        <time>2019-09-13T06:47:56Z</time>
      </trkpt>
      <trkpt lat="46.20529" lon="6.13605">
        <ele>385.2</ele>
        <time>2019-09-13T06:47:57Z</time>
      </trkpt>
      <trkpt lat="46.20531" lon="6.13608">
        <ele>384.9</ele>
        <time>2019-09-13T06:47:58Z</time>
      </trkpt>
      <trkpt lat="46.20533" lon="6.13611">
        <ele>384.6</ele>
        <time>2019-09-13T06:47:59Z</time>
      </trkpt>
      <trkpt lat="46.20535" lon="6.13615">
        <ele>384.3</ele>
        <time>2019-09-13T06:48:00Z</time>
      </trkpt>
      <trkpt lat="46.20536" lon="6.13618">
        <ele>384.1</ele>
        <time>2019-09-13T06:48:01Z</time>
      </trkpt>
      <trkpt lat="46.20538" lon="6.13621">
        <ele>383.8</ele>
        <time>2019-09-13T06:48:02Z</time>
      </trkpt>
      <trkpt lat="46.20539" lon="6.13625">
        <ele>383.6</ele>
        <time>2019-09-13T06:48:03Z</time>
      </trkpt>
      <trkpt lat="46.20541" lon="6.13629">
        <ele>383.2</ele>
        <time>2019-09-13T06:48:04Z</time>
      </trkpt>
      <trkpt lat="46.20542" lon="6.13633">
        <ele>383</ele>
        <time>2019-09-13T06:48:05Z</time>
      </trkpt>
      <trkpt lat="46.20542" lon="6.13637">
        <ele>382.8</ele>
        <time>2019-09-13T06:48:06Z</time>
      </trkpt>
      <trkpt lat="46.20543" lon="6.13641">
        <ele>382.6</ele>
        <time>2019-09-13T06:48:07Z</time>
      </trkpt>
      <trkpt lat="46.20543" lon="6.13646">
        <ele>382.3</ele>
        <time>2019-09-13T06:48:08Z</time>
      </trkpt>
      <trkpt lat="46.20543" lon="6.1365">
        <ele>382</ele>
        <time>2019-09-13T06:48:09Z</time>
      </trkpt>
      <trkpt lat="46.20543" lon="6.13657">
        <ele>381.5</ele>
        <time>2019-09-13T06:48:11Z</time>
      </trkpt>
      <trkpt lat="46.20544" lon="6.13661">
        <ele>381.2</ele>
        <time>2019-09-13T06:48:12Z</time>
      </trkpt>
      <trkpt lat="46.20543" lon="6.13666">
        <ele>380.9</ele>
        <time>2019-09-13T06:48:13Z</time>
      </trkpt>
      <trkpt lat="46.20544" lon="6.1367">
        <ele>380.6</ele>
        <time>2019-09-13T06:48:14Z</time>
      </trkpt>
      <trkpt lat="46.20546" lon="6.13677">
        <ele>380.1</ele>
        <time>2019-09-13T06:48:16Z</time>
      </trkpt>
      <trkpt lat="46.20546" lon="6.13684">
        <ele>379.6</ele>
        <time>2019-09-13T06:48:18Z</time>
      </trkpt>
      <trkpt lat="46.20545" lon="6.13692">
        <ele>378.9</ele>
        <time>2019-09-13T06:48:20Z</time>
      </trkpt>
      <trkpt lat="46.20545" lon="6.13696">
        <ele>378.6</ele>
        <time>2019-09-13T06:48:21Z</time>
      </trkpt>
      <trkpt lat="46.20544" lon="6.137">
        <ele>378.2</ele>
        <time>2019-09-13T06:48:22Z</time>
      </trkpt>
      <trkpt lat="46.20544" lon="6.13705">
        <ele>377.8</ele>
        <time>2019-09-13T06:48:23Z</time>
      </trkpt>
      <trkpt lat="46.20543" lon="6.1371">
        <ele>377.3</ele>
        <time>2019-09-13T06:48:24Z</time>
      </trkpt>
      <trkpt lat="46.20542" lon="6.13714">
        <ele>376.9</ele>
        <time>2019-09-13T06:48:25Z</time>
      </trkpt>
      <trkpt lat="46.20542" lon="6.13718">
        <ele>376.5</ele>
        <time>2019-09-13T06:48:26Z</time>
      </trkpt>
      <trkpt lat="46.20542" lon="6.13722">
        <ele>376.1</ele>
        <time>2019-09-13T06:48:27Z</time>
      </trkpt>
      <trkpt lat="46.20542" lon="6.13727">
        <ele>375.6</ele>
        <time>2019-09-13T06:48:28Z</time>
      </trkpt>
      <trkpt lat="46.20542" lon="6.1373">
        <ele>375</ele>
        <time>2019-09-13T06:48:29Z</time>
      </trkpt>
      <trkpt lat="46.20542" lon="6.13738">
        <ele>374</ele>
        <time>2019-09-13T06:48:31Z</time>
      </trkpt>
      <trkpt lat="46.20542" lon="6.13742">
        <ele>373.4</ele>
        <time>2019-09-13T06:48:32Z</time>
      </trkpt>
      <trkpt lat="46.20542" lon="6.13746">
        <ele>372.6</ele>
        <time>2019-09-13T06:48:33Z</time>
      </trkpt>
      <trkpt lat="46.20541" lon="6.13751">
        <ele>371.8</ele>
        <time>2019-09-13T06:48:34Z</time>
      </trkpt>
      <trkpt lat="46.20541" lon="6.13755">
        <ele>370.8</ele>
        <time>2019-09-13T06:48:35Z</time>
      </trkpt>
      <trkpt lat="46.20541" lon="6.13759">
        <ele>369.9</ele>
        <time>2019-09-13T06:48:36Z</time>
      </trkpt>
      <trkpt lat="46.2054" lon="6.13767">
        <ele>370.1</ele>
        <time>2019-09-13T06:48:38Z</time>
      </trkpt>
      <trkpt lat="46.2054" lon="6.13771">
        <ele>370.2</ele>
        <time>2019-09-13T06:48:39Z</time>
      </trkpt>
      <trkpt lat="46.20539" lon="6.13775">
        <ele>370.4</ele>
        <time>2019-09-13T06:48:40Z</time>
      </trkpt>
      <trkpt lat="46.20539" lon="6.13779">
        <ele>370.4</ele>
        <time>2019-09-13T06:48:41Z</time>
      </trkpt>
      <trkpt lat="46.20539" lon="6.13783">
        <ele>370.5</ele>
        <time>2019-09-13T06:48:42Z</time>
      </trkpt>
      <trkpt lat="46.20539" lon="6.13787">
        <ele>370.6</ele>
        <time>2019-09-13T06:48:43Z</time>
      </trkpt>
      <trkpt lat="46.20538" lon="6.13792">
        <ele>370.6</ele>
        <time>2019-09-13T06:48:44Z</time>
      </trkpt>
      <trkpt lat="46.20537" lon="6.13796">
        <ele>370.7</ele>
        <time>2019-09-13T06:48:45Z</time>
      </trkpt>
      <trkpt lat="46.20537" lon="6.138">
        <ele>370.7</ele>
        <time>2019-09-13T06:48:46Z</time>
      </trkpt>
      <trkpt lat="46.20536" lon="6.13804">
        <ele>370.7</ele>
        <time>2019-09-13T06:48:47Z</time>
      </trkpt>
      <trkpt lat="46.20536" lon="6.13808">
        <ele>370.7</ele>
        <time>2019-09-13T06:48:48Z</time>
      </trkpt>
      <trkpt lat="46.20536" lon="6.13815">
        <ele>370.8</ele>
        <time>2019-09-13T06:48:50Z</time>
      </trkpt>
      <trkpt lat="46.20536" lon="6.13823">
        <ele>370.8</ele>
        <time>2019-09-13T06:48:52Z</time>
      </trkpt>
      <trkpt lat="46.20535" lon="6.13827">
        <ele>370.9</ele>
        <time>2019-09-13T06:48:53Z</time>
      </trkpt>
      <trkpt lat="46.20535" lon="6.13834">
        <ele>371</ele>
        <time>2019-09-13T06:48:55Z</time>
      </trkpt>
      <trkpt lat="46.20535" lon="6.13841">
        <ele>371.1</ele>
        <time>2019-09-13T06:48:57Z</time>
      </trkpt>
      <trkpt lat="46.20535" lon="6.13848">
        <ele>371.2</ele>
        <time>2019-09-13T06:48:59Z</time>
      </trkpt>
      <trkpt lat="46.20534" lon="6.13855">
        <ele>371.4</ele>
        <time>2019-09-13T06:49:01Z</time>
      </trkpt>
      <trkpt lat="46.20533" lon="6.13862">
        <ele>371.5</ele>
        <time>2019-09-13T06:49:03Z</time>
      </trkpt>
      <trkpt lat="46.20533" lon="6.13866">
        <ele>371.6</ele>
        <time>2019-09-13T06:49:04Z</time>
      </trkpt>
      <trkpt lat="46.20532" lon="6.13871">
        <ele>371.8</ele>
        <time>2019-09-13T06:49:05Z</time>
      </trkpt>
      <trkpt lat="46.20532" lon="6.13875">
        <ele>371.9</ele>
        <time>2019-09-13T06:49:06Z</time>
      </trkpt>
      <trkpt lat="46.20531" lon="6.13879">
        <ele>372</ele>
        <time>2019-09-13T06:49:07Z</time>
      </trkpt>
      <trkpt lat="46.20531" lon="6.13887">
        <ele>372.2</ele>
        <time>2019-09-13T06:49:09Z</time>
      </trkpt>
      <trkpt lat="46.20531" lon="6.13891">
        <ele>372.4</ele>
        <time>2019-09-13T06:49:10Z</time>
      </trkpt>
      <trkpt lat="46.20531" lon="6.13895">
        <ele>372.5</ele>
        <time>2019-09-13T06:49:11Z</time>
      </trkpt>
      <trkpt lat="46.20531" lon="6.13899">
        <ele>372.6</ele>
        <time>2019-09-13T06:49:12Z</time>
      </trkpt>
      <trkpt lat="46.20531" lon="6.13903">
        <ele>372.8</ele>
        <time>2019-09-13T06:49:13Z</time>
      </trkpt>
      <trkpt lat="46.2053" lon="6.13907">
        <ele>372.9</ele>
        <time>2019-09-13T06:49:14Z</time>
      </trkpt>
      <trkpt lat="46.2053" lon="6.13912">
        <ele>373</ele>
        <time>2019-09-13T06:49:15Z</time>
      </trkpt>
      <trkpt lat="46.2053" lon="6.13917">
        <ele>373.2</ele>
        <time>2019-09-13T06:49:16Z</time>
      </trkpt>
      <trkpt lat="46.20529" lon="6.13921">
        <ele>373.2</ele>
        <time>2019-09-13T06:49:17Z</time>
      </trkpt>
      <trkpt lat="46.20529" lon="6.13925">
        <ele>373.3</ele>
        <time>2019-09-13T06:49:18Z</time>
      </trkpt>
      <trkpt lat="46.20529" lon="6.13929">
        <ele>373.4</ele>
        <time>2019-09-13T06:49:19Z</time>
      </trkpt>
      <trkpt lat="46.20529" lon="6.13933">
        <ele>373.5</ele>
        <time>2019-09-13T06:49:20Z</time>
      </trkpt>
      <trkpt lat="46.20529" lon="6.13937">
        <ele>373.5</ele>
        <time>2019-09-13T06:49:21Z</time>
      </trkpt>
      <trkpt lat="46.20529" lon="6.13941">
        <ele>373.6</ele>
        <time>2019-09-13T06:49:22Z</time>
      </trkpt>
      <trkpt lat="46.2053" lon="6.13945">
        <ele>373.6</ele>
        <time>2019-09-13T06:49:23Z</time>
      </trkpt>
      <trkpt lat="46.20532" lon="6.13951">
        <ele>373.9</ele>
        <time>2019-09-13T06:49:25Z</time>
      </trkpt>
      <trkpt lat="46.20534" lon="6.13954">
        <ele>374.1</ele>
        <time>2019-09-13T06:49:27Z</time>
      </trkpt>
      <trkpt lat="46.20535" lon="6.13961">
        <ele>374.5</ele>
        <time>2019-09-13T06:49:29Z</time>
      </trkpt>
      <trkpt lat="46.20535" lon="6.13964">
        <ele>374.6</ele>
        <time>2019-09-13T06:49:30Z</time>
      </trkpt>
      <trkpt lat="46.20534" lon="6.13969">
        <ele>374.9</ele>
        <time>2019-09-13T06:49:32Z</time>
      </trkpt>
      <trkpt lat="46.20535" lon="6.13973">
        <ele>375.1</ele>
        <time>2019-09-13T06:49:35Z</time>
      </trkpt>
      <trkpt lat="46.20538" lon="6.13978">
        <ele>375.4</ele>
        <time>2019-09-13T06:49:37Z</time>
      </trkpt>
      <trkpt lat="46.2054" lon="6.13984">
        <ele>375.7</ele>
        <time>2019-09-13T06:49:39Z</time>
      </trkpt>
      <trkpt lat="46.2054" lon="6.13988">
        <ele>376</ele>
        <time>2019-09-13T06:49:40Z</time>
      </trkpt>
      <trkpt lat="46.2054" lon="6.13997">
        <ele>376</ele>
        <time>2019-09-13T06:49:42Z</time>
      </trkpt>
      <trkpt lat="46.2054" lon="6.14002">
        <ele>376</ele>
        <time>2019-09-13T06:49:43Z</time>
      </trkpt>
      <trkpt lat="46.2054" lon="6.14007">
        <ele>376</ele>
        <time>2019-09-13T06:49:44Z</time>
      </trkpt>
      <trkpt lat="46.2054" lon="6.14012">
        <ele>376.1</ele>
        <time>2019-09-13T06:49:45Z</time>
      </trkpt>
      <trkpt lat="46.20539" lon="6.14017">
        <ele>376.1</ele>
        <time>2019-09-13T06:49:46Z</time>
      </trkpt>
      <trkpt lat="46.20539" lon="6.14021">
        <ele>376.1</ele>
        <time>2019-09-13T06:49:47Z</time>
      </trkpt>
      <trkpt lat="46.20539" lon="6.14026">
        <ele>376.2</ele>
        <time>2019-09-13T06:49:48Z</time>
      </trkpt>
      <trkpt lat="46.20539" lon="6.1403">
        <ele>376.2</ele>
        <time>2019-09-13T06:49:49Z</time>
      </trkpt>
      <trkpt lat="46.20539" lon="6.14035">
        <ele>376.2</ele>
        <time>2019-09-13T06:49:50Z</time>
      </trkpt>
      <trkpt lat="46.20539" lon="6.1404">
        <ele>376.3</ele>
        <time>2019-09-13T06:49:51Z</time>
      </trkpt>
      <trkpt lat="46.20539" lon="6.14045">
        <ele>376.3</ele>
        <time>2019-09-13T06:49:52Z</time>
      </trkpt>
      <trkpt lat="46.2054" lon="6.1405">
        <ele>376.3</ele>
        <time>2019-09-13T06:49:53Z</time>
      </trkpt>
      <trkpt lat="46.2054" lon="6.14055">
        <ele>376.4</ele>
        <time>2019-09-13T06:49:54Z</time>
      </trkpt>
      <trkpt lat="46.2054" lon="6.14059">
        <ele>376.4</ele>
        <time>2019-09-13T06:49:55Z</time>
      </trkpt>
      <trkpt lat="46.20541" lon="6.14063">
        <ele>376.4</ele>
        <time>2019-09-13T06:49:56Z</time>
      </trkpt>
      <trkpt lat="46.20542" lon="6.14067">
        <ele>376.4</ele>
        <time>2019-09-13T06:49:57Z</time>
      </trkpt>
      <trkpt lat="46.20543" lon="6.1407">
        <ele>376.4</ele>
        <time>2019-09-13T06:49:58Z</time>
      </trkpt>
      <trkpt lat="46.20545" lon="6.14076">
        <ele>376.4</ele>
        <time>2019-09-13T06:50:00Z</time>
      </trkpt>
      <trkpt lat="46.20547" lon="6.14082">
        <ele>376.4</ele>
        <time>2019-09-13T06:50:02Z</time>
      </trkpt>
      <trkpt lat="46.20548" lon="6.14086">
        <ele>376.3</ele>
        <time>2019-09-13T06:50:03Z</time>
      </trkpt>
      <trkpt lat="46.20548" lon="6.14091">
        <ele>376.3</ele>
        <time>2019-09-13T06:50:04Z</time>
      </trkpt>
      <trkpt lat="46.20549" lon="6.14096">
        <ele>376.2</ele>
        <time>2019-09-13T06:50:05Z</time>
      </trkpt>
      <trkpt lat="46.20549" lon="6.14101">
        <ele>376.2</ele>
        <time>2019-09-13T06:50:06Z</time>
      </trkpt>
      <trkpt lat="46.20549" lon="6.14107">
        <ele>376.2</ele>
        <time>2019-09-13T06:50:08Z</time>
      </trkpt>
      <trkpt lat="46.2055" lon="6.14111">
        <ele>376.1</ele>
        <time>2019-09-13T06:50:09Z</time>
      </trkpt>
      <trkpt lat="46.2055" lon="6.14115">
        <ele>376.1</ele>
        <time>2019-09-13T06:50:10Z</time>
      </trkpt>
      <trkpt lat="46.2055" lon="6.14123">
        <ele>376.1</ele>
        <time>2019-09-13T06:50:12Z</time>
      </trkpt>
      <trkpt lat="46.20551" lon="6.14128">
        <ele>376</ele>
        <time>2019-09-13T06:50:13Z</time>
      </trkpt>
      <trkpt lat="46.20552" lon="6.14133">
        <ele>376</ele>
        <time>2019-09-13T06:50:14Z</time>
      </trkpt>
      <trkpt lat="46.20552" lon="6.14137">
        <ele>376</ele>
        <time>2019-09-13T06:50:15Z</time>
      </trkpt>
      <trkpt lat="46.20552" lon="6.14142">
        <ele>376</ele>
        <time>2019-09-13T06:50:16Z</time>
      </trkpt>
      <trkpt lat="46.20552" lon="6.14146">
        <ele>376</ele>
        <time>2019-09-13T06:50:17Z</time>
      </trkpt>
      <trkpt lat="46.20553" lon="6.14153">
        <ele>376</ele>
        <time>2019-09-13T06:50:19Z</time>
      </trkpt>
      <trkpt lat="46.20553" lon="6.14161">
        <ele>376.1</ele>
        <time>2019-09-13T06:50:21Z</time>
      </trkpt>
      <trkpt lat="46.20553" lon="6.14165">
        <ele>376.1</ele>
        <time>2019-09-13T06:50:22Z</time>
      </trkpt>
      <trkpt lat="46.20553" lon="6.1417">
        <ele>376.1</ele>
        <time>2019-09-13T06:50:23Z</time>
      </trkpt>
      <trkpt lat="46.20553" lon="6.14175">
        <ele>376.1</ele>
        <time>2019-09-13T06:50:24Z</time>
      </trkpt>
      <trkpt lat="46.20553" lon="6.14179">
        <ele>376.2</ele>
        <time>2019-09-13T06:50:25Z</time>
      </trkpt>
      <trkpt lat="46.20553" lon="6.14186">
        <ele>376.2</ele>
        <time>2019-09-13T06:50:27Z</time>
      </trkpt>
      <trkpt lat="46.20553" lon="6.1419">
        <ele>376.2</ele>
        <time>2019-09-13T06:50:28Z</time>
      </trkpt>
      <trkpt lat="46.20554" lon="6.14195">
        <ele>376.3</ele>
        <time>2019-09-13T06:50:29Z</time>
      </trkpt>
      <trkpt lat="46.20554" lon="6.14199">
        <ele>376.3</ele>
        <time>2019-09-13T06:50:30Z</time>
      </trkpt>
      <trkpt lat="46.20555" lon="6.14204">
        <ele>376.3</ele>
        <time>2019-09-13T06:50:31Z</time>
      </trkpt>
      <trkpt lat="46.20555" lon="6.14209">
        <ele>376.4</ele>
        <time>2019-09-13T06:50:32Z</time>
      </trkpt>
      <trkpt lat="46.20555" lon="6.14214">
        <ele>376.4</ele>
        <time>2019-09-13T06:50:33Z</time>
      </trkpt>
      <trkpt lat="46.20555" lon="6.14218">
        <ele>376.4</ele>
        <time>2019-09-13T06:50:34Z</time>
      </trkpt>
      <trkpt lat="46.20555" lon="6.14223">
        <ele>376.4</ele>
        <time>2019-09-13T06:50:35Z</time>
      </trkpt>
      <trkpt lat="46.20556" lon="6.14228">
        <ele>376.3</ele>
        <time>2019-09-13T06:50:36Z</time>
      </trkpt>
      <trkpt lat="46.20557" lon="6.14232">
        <ele>376.3</ele>
        <time>2019-09-13T06:50:37Z</time>
      </trkpt>
      <trkpt lat="46.20559" lon="6.14236">
        <ele>376.3</ele>
        <time>2019-09-13T06:50:38Z</time>
      </trkpt>
      <trkpt lat="46.2056" lon="6.1424">
        <ele>376.3</ele>
        <time>2019-09-13T06:50:39Z</time>
      </trkpt>
      <trkpt lat="46.20561" lon="6.14247">
        <ele>384</ele>
        <time>2019-09-13T06:50:41Z</time>
      </trkpt>
      <trkpt lat="46.20559" lon="6.14255">
        <ele>382.9</ele>
        <time>2019-09-13T06:50:43Z</time>
      </trkpt>
      <trkpt lat="46.20558" lon="6.14259">
        <ele>382.9</ele>
        <time>2019-09-13T06:50:45Z</time>
      </trkpt>
      <trkpt lat="46.20558" lon="6.14264">
        <ele>383</ele>
        <time>2019-09-13T06:50:47Z</time>
      </trkpt>
      <trkpt lat="46.20558" lon="6.14271">
        <ele>383.6</ele>
        <time>2019-09-13T06:50:49Z</time>
      </trkpt>
      <trkpt lat="46.2056" lon="6.14277">
        <ele>384</ele>
        <time>2019-09-13T06:50:51Z</time>
      </trkpt>
      <trkpt lat="46.20562" lon="6.14281">
        <ele>384.3</ele>
        <time>2019-09-13T06:50:52Z</time>
      </trkpt>
      <trkpt lat="46.20563" lon="6.14284">
        <ele>384.5</ele>
        <time>2019-09-13T06:50:53Z</time>
      </trkpt>
      <trkpt lat="46.20564" lon="6.14288">
        <ele>384.8</ele>
        <time>2019-09-13T06:50:55Z</time>
      </trkpt>
      <trkpt lat="46.20566" lon="6.14293">
        <ele>385.1</ele>
        <time>2019-09-13T06:50:58Z</time>
      </trkpt>
      <trkpt lat="46.20568" lon="6.143">
        <ele>385.6</ele>
        <time>2019-09-13T06:51:00Z</time>
      </trkpt>
      <trkpt lat="46.20569" lon="6.14304">
        <ele>385.1</ele>
        <time>2019-09-13T06:51:01Z</time>
      </trkpt>
      <trkpt lat="46.20569" lon="6.1431">
        <ele>384.7</ele>
        <time>2019-09-13T06:51:03Z</time>
      </trkpt>
      <trkpt lat="46.20573" lon="6.14311">
        <ele>384.2</ele>
        <time>2019-09-13T06:51:07Z</time>
      </trkpt>
      <trkpt lat="46.20576" lon="6.14312">
        <ele>383.7</ele>
        <time>2019-09-13T06:51:10Z</time>
      </trkpt>
      <trkpt lat="46.20577" lon="6.14316">
        <ele>383.2</ele>
        <time>2019-09-13T06:51:11Z</time>
      </trkpt>
      <trkpt lat="46.20578" lon="6.1432">
        <ele>382.8</ele>
        <time>2019-09-13T06:51:12Z</time>
      </trkpt>
      <trkpt lat="46.20579" lon="6.14325">
        <ele>382.4</ele>
        <time>2019-09-13T06:51:13Z</time>
      </trkpt>
      <trkpt lat="46.2058" lon="6.14329">
        <ele>382.1</ele>
        <time>2019-09-13T06:51:14Z</time>
      </trkpt>
      <trkpt lat="46.20581" lon="6.14333">
        <ele>381.8</ele>
        <time>2019-09-13T06:51:15Z</time>
      </trkpt>
      <trkpt lat="46.20583" lon="6.14336">
        <ele>381.6</ele>
        <time>2019-09-13T06:51:16Z</time>
      </trkpt>
      <trkpt lat="46.20585" lon="6.1434">
        <ele>381.5</ele>
        <time>2019-09-13T06:51:17Z</time>
      </trkpt>
      <trkpt lat="46.20588" lon="6.14346">
        <ele>381.4</ele>
        <time>2019-09-13T06:51:19Z</time>
      </trkpt>
      <trkpt lat="46.20589" lon="6.14353">
        <ele>381.3</ele>
        <time>2019-09-13T06:51:21Z</time>
      </trkpt>
      <trkpt lat="46.20589" lon="6.14357">
        <ele>381.3</ele>
        <time>2019-09-13T06:51:22Z</time>
      </trkpt>
      <trkpt lat="46.20589" lon="6.14361">
        <ele>381.2</ele>
        <time>2019-09-13T06:51:23Z</time>
      </trkpt>
      <trkpt lat="46.2059" lon="6.14365">
        <ele>381.1</ele>
        <time>2019-09-13T06:51:24Z</time>
      </trkpt>
      <trkpt lat="46.20591" lon="6.14369">
        <ele>380.9</ele>
        <time>2019-09-13T06:51:25Z</time>
      </trkpt>
      <trkpt lat="46.20592" lon="6.14377">
        <ele>380.6</ele>
        <time>2019-09-13T06:51:27Z</time>
      </trkpt>
      <trkpt lat="46.20592" lon="6.14381">
        <ele>380.1</ele>
        <time>2019-09-13T06:51:28Z</time>
      </trkpt>
      <trkpt lat="46.20593" lon="6.14385">
        <ele>380</ele>
        <time>2019-09-13T06:51:29Z</time>
      </trkpt>
      <trkpt lat="46.20594" lon="6.1439">
        <ele>380</ele>
        <time>2019-09-13T06:51:30Z</time>
      </trkpt>
      <trkpt lat="46.20595" lon="6.14394">
        <ele>379.9</ele>
        <time>2019-09-13T06:51:31Z</time>
      </trkpt>
      <trkpt lat="46.20596" lon="6.14398">
        <ele>379.9</ele>
        <time>2019-09-13T06:51:32Z</time>
      </trkpt>
      <trkpt lat="46.20597" lon="6.14401">
        <ele>379.8</ele>
        <time>2019-09-13T06:51:33Z</time>
      </trkpt>
      <trkpt lat="46.20598" lon="6.14405">
        <ele>379.8</ele>
        <time>2019-09-13T06:51:34Z</time>
      </trkpt>
      <trkpt lat="46.206" lon="6.14409">
        <ele>379.7</ele>
        <time>2019-09-13T06:51:35Z</time>
      </trkpt>
      <trkpt lat="46.20601" lon="6.14412">
        <ele>379.7</ele>
        <time>2019-09-13T06:51:36Z</time>
      </trkpt>
      <trkpt lat="46.20602" lon="6.14416">
        <ele>379.7</ele>
        <time>2019-09-13T06:51:37Z</time>
      </trkpt>
      <trkpt lat="46.20605" lon="6.14422">
        <ele>379.6</ele>
        <time>2019-09-13T06:51:39Z</time>
      </trkpt>
      <trkpt lat="46.20607" lon="6.14429">
        <ele>379.5</ele>
        <time>2019-09-13T06:51:41Z</time>
      </trkpt>
      <trkpt lat="46.20609" lon="6.14436">
        <ele>379.5</ele>
        <time>2019-09-13T06:51:43Z</time>
      </trkpt>
      <trkpt lat="46.2061" lon="6.14439">
        <ele>379.4</ele>
        <time>2019-09-13T06:51:44Z</time>
      </trkpt>
      <trkpt lat="46.20613" lon="6.14446">
        <ele>379.4</ele>
        <time>2019-09-13T06:51:46Z</time>
      </trkpt>
      <trkpt lat="46.20614" lon="6.1445">
        <ele>379.4</ele>
        <time>2019-09-13T06:51:47Z</time>
      </trkpt>
      <trkpt lat="46.20615" lon="6.14454">
        <ele>379.4</ele>
        <time>2019-09-13T06:51:48Z</time>
      </trkpt>
      <trkpt lat="46.20616" lon="6.14458">
        <ele>379.4</ele>
        <time>2019-09-13T06:51:49Z</time>
      </trkpt>
      <trkpt lat="46.20617" lon="6.14464">
        <ele>379.4</ele>
        <time>2019-09-13T06:51:50Z</time>
      </trkpt>
      <trkpt lat="46.20618" lon="6.14468">
        <ele>379.4</ele>
        <time>2019-09-13T06:51:51Z</time>
      </trkpt>
      <trkpt lat="46.2062" lon="6.14474">
        <ele>379.4</ele>
        <time>2019-09-13T06:51:53Z</time>
      </trkpt>
      <trkpt lat="46.20623" lon="6.14479">
        <ele>379.4</ele>
        <time>2019-09-13T06:51:55Z</time>
      </trkpt>
      <trkpt lat="46.20627" lon="6.14485">
        <ele>379.8</ele>
        <time>2019-09-13T06:51:57Z</time>
      </trkpt>
      <trkpt lat="46.20628" lon="6.14488">
        <ele>380.3</ele>
        <time>2019-09-13T06:51:58Z</time>
      </trkpt>
      <trkpt lat="46.20629" lon="6.14492">
        <ele>380.8</ele>
        <time>2019-09-13T06:51:59Z</time>
      </trkpt>
      <trkpt lat="46.20631" lon="6.14499">
        <ele>381.1</ele>
        <time>2019-09-13T06:52:01Z</time>
      </trkpt>
      <trkpt lat="46.20632" lon="6.14503">
        <ele>381.1</ele>
        <time>2019-09-13T06:52:02Z</time>
      </trkpt>
      <trkpt lat="46.20634" lon="6.14507">
        <ele>381.1</ele>
        <time>2019-09-13T06:52:03Z</time>
      </trkpt>
      <trkpt lat="46.20637" lon="6.14513">
        <ele>381.1</ele>
        <time>2019-09-13T06:52:05Z</time>
      </trkpt>
      <trkpt lat="46.20638" lon="6.14516">
        <ele>381.1</ele>
        <time>2019-09-13T06:52:06Z</time>
      </trkpt>
      <trkpt lat="46.2064" lon="6.14524">
        <ele>381.1</ele>
        <time>2019-09-13T06:52:08Z</time>
      </trkpt>
      <trkpt lat="46.2064" lon="6.14528">
        <ele>381.1</ele>
        <time>2019-09-13T06:52:09Z</time>
      </trkpt>
      <trkpt lat="46.20642" lon="6.14535">
        <ele>381.1</ele>
        <time>2019-09-13T06:52:11Z</time>
      </trkpt>
      <trkpt lat="46.20644" lon="6.14538">
        <ele>381.2</ele>
        <time>2019-09-13T06:52:12Z</time>
      </trkpt>
      <trkpt lat="46.20645" lon="6.14542">
        <ele>381.2</ele>
        <time>2019-09-13T06:52:13Z</time>
      </trkpt>
      <trkpt lat="46.20646" lon="6.14549">
        <ele>381.2</ele>
        <time>2019-09-13T06:52:15Z</time>
      </trkpt>
      <trkpt lat="46.20647" lon="6.14553">
        <ele>381.3</ele>
        <time>2019-09-13T06:52:16Z</time>
      </trkpt>
      <trkpt lat="46.20648" lon="6.14557">
        <ele>381.3</ele>
        <time>2019-09-13T06:52:17Z</time>
      </trkpt>
      <trkpt lat="46.20649" lon="6.14561">
        <ele>381.3</ele>
        <time>2019-09-13T06:52:18Z</time>
      </trkpt>
      <trkpt lat="46.20649" lon="6.14565">
        <ele>381.4</ele>
        <time>2019-09-13T06:52:19Z</time>
      </trkpt>
      <trkpt lat="46.20651" lon="6.14572">
        <ele>381.5</ele>
        <time>2019-09-13T06:52:21Z</time>
      </trkpt>
      <trkpt lat="46.20653" lon="6.14576">
        <ele>381.5</ele>
        <time>2019-09-13T06:52:22Z</time>
      </trkpt>
      <trkpt lat="46.20655" lon="6.14579">
        <ele>381.6</ele>
        <time>2019-09-13T06:52:23Z</time>
      </trkpt>
      <trkpt lat="46.20656" lon="6.14583">
        <ele>381.7</ele>
        <time>2019-09-13T06:52:24Z</time>
      </trkpt>
      <trkpt lat="46.20656" lon="6.14588">
        <ele>381.8</ele>
        <time>2019-09-13T06:52:25Z</time>
      </trkpt>
      <trkpt lat="46.20657" lon="6.14593">
        <ele>381.9</ele>
        <time>2019-09-13T06:52:26Z</time>
      </trkpt>
      <trkpt lat="46.20658" lon="6.14597">
        <ele>382</ele>
        <time>2019-09-13T06:52:27Z</time>
      </trkpt>
      <trkpt lat="46.20659" lon="6.14601">
        <ele>382</ele>
        <time>2019-09-13T06:52:28Z</time>
      </trkpt>
      <trkpt lat="46.2066" lon="6.14605">
        <ele>382.1</ele>
        <time>2019-09-13T06:52:29Z</time>
      </trkpt>
      <trkpt lat="46.20661" lon="6.14608">
        <ele>382.2</ele>
        <time>2019-09-13T06:52:30Z</time>
      </trkpt>
      <trkpt lat="46.20662" lon="6.14613">
        <ele>382.3</ele>
        <time>2019-09-13T06:52:31Z</time>
      </trkpt>
      <trkpt lat="46.20663" lon="6.14617">
        <ele>382.4</ele>
        <time>2019-09-13T06:52:32Z</time>
      </trkpt>
      <trkpt lat="46.20664" lon="6.14621">
        <ele>382.4</ele>
        <time>2019-09-13T06:52:33Z</time>
      </trkpt>
      <trkpt lat="46.20665" lon="6.14625">
        <ele>382.2</ele>
        <time>2019-09-13T06:52:34Z</time>
      </trkpt>
      <trkpt lat="46.20666" lon="6.14629">
        <ele>381.5</ele>
        <time>2019-09-13T06:52:35Z</time>
      </trkpt>
      <trkpt lat="46.20667" lon="6.14632">
        <ele>380.9</ele>
        <time>2019-09-13T06:52:36Z</time>
      </trkpt>
      <trkpt lat="46.20668" lon="6.14638">
        <ele>379.8</ele>
        <time>2019-09-13T06:52:38Z</time>
      </trkpt>
      <trkpt lat="46.20669" lon="6.14645">
        <ele>378.6</ele>
        <time>2019-09-13T06:52:40Z</time>
      </trkpt>
      <trkpt lat="46.2067" lon="6.14649">
        <ele>377.8</ele>
        <time>2019-09-13T06:52:41Z</time>
      </trkpt>
      <trkpt lat="46.2067" lon="6.14654">
        <ele>376.6</ele>
        <time>2019-09-13T06:52:42Z</time>
      </trkpt>
      <trkpt lat="46.2067" lon="6.14659">
        <ele>376.6</ele>
        <time>2019-09-13T06:52:43Z</time>
      </trkpt>
      <trkpt lat="46.20671" lon="6.14663">
        <ele>376.5</ele>
        <time>2019-09-13T06:52:44Z</time>
      </trkpt>
      <trkpt lat="46.20672" lon="6.14671">
        <ele>376.5</ele>
        <time>2019-09-13T06:52:46Z</time>
      </trkpt>
      <trkpt lat="46.20673" lon="6.14675">
        <ele>376.4</ele>
        <time>2019-09-13T06:52:47Z</time>
      </trkpt>
      <trkpt lat="46.20673" lon="6.14679">
        <ele>376.4</ele>
        <time>2019-09-13T06:52:48Z</time>
      </trkpt>
      <trkpt lat="46.20674" lon="6.14684">
        <ele>376.3</ele>
        <time>2019-09-13T06:52:49Z</time>
      </trkpt>
      <trkpt lat="46.20675" lon="6.14688">
        <ele>376.2</ele>
        <time>2019-09-13T06:52:50Z</time>
      </trkpt>
      <trkpt lat="46.20677" lon="6.14696">
        <ele>376.1</ele>
        <time>2019-09-13T06:52:52Z</time>
      </trkpt>
      <trkpt lat="46.20677" lon="6.14701">
        <ele>376</ele>
        <time>2019-09-13T06:52:53Z</time>
      </trkpt>
      <trkpt lat="46.20677" lon="6.14705">
        <ele>375.8</ele>
        <time>2019-09-13T06:52:54Z</time>
      </trkpt>
      <trkpt lat="46.20678" lon="6.14709">
        <ele>375.7</ele>
        <time>2019-09-13T06:52:55Z</time>
      </trkpt>
      <trkpt lat="46.2068" lon="6.14712">
        <ele>375.6</ele>
        <time>2019-09-13T06:52:56Z</time>
      </trkpt>
      <trkpt lat="46.20681" lon="6.14716">
        <ele>375.4</ele>
        <time>2019-09-13T06:52:57Z</time>
      </trkpt>
      <trkpt lat="46.20683" lon="6.1472">
        <ele>375.1</ele>
        <time>2019-09-13T06:52:58Z</time>
      </trkpt>
      <trkpt lat="46.20683" lon="6.14724">
        <ele>374.9</ele>
        <time>2019-09-13T06:52:59Z</time>
      </trkpt>
      <trkpt lat="46.20683" lon="6.14728">
        <ele>372.5</ele>
        <time>2019-09-13T06:53:00Z</time>
      </trkpt>
      <trkpt lat="46.20683" lon="6.14735">
        <ele>371.8</ele>
        <time>2019-09-13T06:53:02Z</time>
      </trkpt>
      <trkpt lat="46.2068" lon="6.14733">
        <ele>371.3</ele>
        <time>2019-09-13T06:53:07Z</time>
      </trkpt>
      <trkpt lat="46.20678" lon="6.14736">
        <ele>370.9</ele>
        <time>2019-09-13T06:53:10Z</time>
      </trkpt>
      <trkpt lat="46.20679" lon="6.1474">
        <ele>370.5</ele>
        <time>2019-09-13T06:53:11Z</time>
      </trkpt>
      <trkpt lat="46.20679" lon="6.14744">
        <ele>370.2</ele>
        <time>2019-09-13T06:53:12Z</time>
      </trkpt>
      <trkpt lat="46.20676" lon="6.14749">
        <ele>371.7</ele>
        <time>2019-09-13T06:53:14Z</time>
      </trkpt>
      <trkpt lat="46.20671" lon="6.14753">
        <ele>371.8</ele>
        <time>2019-09-13T06:53:16Z</time>
      </trkpt>
      <trkpt lat="46.20668" lon="6.14757">
        <ele>371.9</ele>
        <time>2019-09-13T06:53:18Z</time>
      </trkpt>
      <trkpt lat="46.20668" lon="6.14761">
        <ele>372</ele>
        <time>2019-09-13T06:53:19Z</time>
      </trkpt>
      <trkpt lat="46.20669" lon="6.14766">
        <ele>372.1</ele>
        <time>2019-09-13T06:53:20Z</time>
      </trkpt>
      <trkpt lat="46.2067" lon="6.1477">
        <ele>372.2</ele>
        <time>2019-09-13T06:53:21Z</time>
      </trkpt>
      <trkpt lat="46.20672" lon="6.14776">
        <ele>372.4</ele>
        <time>2019-09-13T06:53:23Z</time>
      </trkpt>
      <trkpt lat="46.20675" lon="6.1478">
        <ele>372.7</ele>
        <time>2019-09-13T06:53:25Z</time>
      </trkpt>
      <trkpt lat="46.20678" lon="6.14784">
        <ele>373</ele>
        <time>2019-09-13T06:53:27Z</time>
      </trkpt>
      <trkpt lat="46.20681" lon="6.14786">
        <ele>373.2</ele>
        <time>2019-09-13T06:53:29Z</time>
      </trkpt>
      <trkpt lat="46.20684" lon="6.1479">
        <ele>373.4</ele>
        <time>2019-09-13T06:53:32Z</time>
      </trkpt>
      <trkpt lat="46.20688" lon="6.14796">
        <ele>373.9</ele>
        <time>2019-09-13T06:53:34Z</time>
      </trkpt>
      <trkpt lat="46.2069" lon="6.14799">
        <ele>374.3</ele>
        <time>2019-09-13T06:53:35Z</time>
      </trkpt>
      <trkpt lat="46.20693" lon="6.14803">
        <ele>374.6</ele>
        <time>2019-09-13T06:53:36Z</time>
      </trkpt>
      <trkpt lat="46.20696" lon="6.14808">
        <ele>375.1</ele>
        <time>2019-09-13T06:53:38Z</time>
      </trkpt>
      <trkpt lat="46.20699" lon="6.14809">
        <ele>375.4</ele>
        <time>2019-09-13T06:53:39Z</time>
      </trkpt>
      <trkpt lat="46.20702" lon="6.14811">
        <ele>375.8</ele>
        <time>2019-09-13T06:53:40Z</time>
      </trkpt>
      <trkpt lat="46.20706" lon="6.14814">
        <ele>376.5</ele>
        <time>2019-09-13T06:53:42Z</time>
      </trkpt>
      <trkpt lat="46.20708" lon="6.14817">
        <ele>377</ele>
        <time>2019-09-13T06:53:43Z</time>
      </trkpt>
      <trkpt lat="46.20711" lon="6.14819">
        <ele>377.5</ele>
        <time>2019-09-13T06:53:44Z</time>
      </trkpt>
      <trkpt lat="46.20712" lon="6.14822">
        <ele>379</ele>
        <time>2019-09-13T06:53:45Z</time>
      </trkpt>
      <trkpt lat="46.20715" lon="6.14828">
        <ele>378.9</ele>
        <time>2019-09-13T06:53:47Z</time>
      </trkpt>
      <trkpt lat="46.20716" lon="6.14835">
        <ele>378.9</ele>
        <time>2019-09-13T06:53:49Z</time>
      </trkpt>
      <trkpt lat="46.20717" lon="6.14843">
        <ele>378.8</ele>
        <time>2019-09-13T06:53:51Z</time>
      </trkpt>
      <trkpt lat="46.20718" lon="6.14846">
        <ele>376.2</ele>
        <time>2019-09-13T06:53:52Z</time>
      </trkpt>
      <trkpt lat="46.20721" lon="6.14852">
        <ele>376.2</ele>
        <time>2019-09-13T06:53:54Z</time>
      </trkpt>
      <trkpt lat="46.20723" lon="6.14855">
        <ele>376.2</ele>
        <time>2019-09-13T06:53:55Z</time>
      </trkpt>
      <trkpt lat="46.20726" lon="6.14858">
        <ele>376.2</ele>
        <time>2019-09-13T06:53:56Z</time>
      </trkpt>
      <trkpt lat="46.20729" lon="6.14861">
        <ele>376.2</ele>
        <time>2019-09-13T06:53:57Z</time>
      </trkpt>
      <trkpt lat="46.20731" lon="6.14863">
        <ele>376.2</ele>
        <time>2019-09-13T06:53:58Z</time>
      </trkpt>
      <trkpt lat="46.20733" lon="6.14868">
        <ele>376.2</ele>
        <time>2019-09-13T06:54:00Z</time>
      </trkpt>
      <trkpt lat="46.20737" lon="6.14872">
        <ele>376.2</ele>
        <time>2019-09-13T06:54:02Z</time>
      </trkpt>
      <trkpt lat="46.20739" lon="6.14874">
        <ele>376.2</ele>
        <time>2019-09-13T06:54:03Z</time>
      </trkpt>
      <trkpt lat="46.20742" lon="6.14877">
        <ele>376.2</ele>
        <time>2019-09-13T06:54:04Z</time>
      </trkpt>
      <trkpt lat="46.20747" lon="6.14877">
        <ele>376.2</ele>
        <time>2019-09-13T06:54:06Z</time>
      </trkpt>
      <trkpt lat="46.2075" lon="6.14877">
        <ele>377.2</ele>
        <time>2019-09-13T06:54:07Z</time>
      </trkpt>
      <trkpt lat="46.20753" lon="6.14875">
        <ele>376.8</ele>
        <time>2019-09-13T06:54:08Z</time>
      </trkpt>
      <trkpt lat="46.20756" lon="6.14873">
        <ele>376.5</ele>
        <time>2019-09-13T06:54:09Z</time>
      </trkpt>
      <trkpt lat="46.2076" lon="6.14871">
        <ele>375.7</ele>
        <time>2019-09-13T06:54:11Z</time>
      </trkpt>
      <trkpt lat="46.20765" lon="6.14876">
        <ele>375</ele>
        <time>2019-09-13T06:54:13Z</time>
      </trkpt>
      <trkpt lat="46.20767" lon="6.1488">
        <ele>374.7</ele>
        <time>2019-09-13T06:54:14Z</time>
      </trkpt>
      <trkpt lat="46.20769" lon="6.14884">
        <ele>374.3</ele>
        <time>2019-09-13T06:54:15Z</time>
      </trkpt>
      <trkpt lat="46.20772" lon="6.14888">
        <ele>374</ele>
        <time>2019-09-13T06:54:16Z</time>
      </trkpt>
      <trkpt lat="46.20774" lon="6.14891">
        <ele>373.7</ele>
        <time>2019-09-13T06:54:17Z</time>
      </trkpt>
      <trkpt lat="46.20776" lon="6.14895">
        <ele>373.4</ele>
        <time>2019-09-13T06:54:18Z</time>
      </trkpt>
      <trkpt lat="46.20778" lon="6.14898">
        <ele>373.2</ele>
        <time>2019-09-13T06:54:19Z</time>
      </trkpt>
      <trkpt lat="46.20781" lon="6.149">
        <ele>373</ele>
        <time>2019-09-13T06:54:20Z</time>
      </trkpt>
      <trkpt lat="46.20783" lon="6.14902">
        <ele>372.8</ele>
        <time>2019-09-13T06:54:21Z</time>
      </trkpt>
      <trkpt lat="46.20786" lon="6.14905">
        <ele>372.6</ele>
        <time>2019-09-13T06:54:22Z</time>
      </trkpt>
      <trkpt lat="46.20788" lon="6.14907">
        <ele>372.3</ele>
        <time>2019-09-13T06:54:23Z</time>
      </trkpt>
      <trkpt lat="46.2079" lon="6.14911">
        <ele>372.1</ele>
        <time>2019-09-13T06:54:24Z</time>
      </trkpt>
      <trkpt lat="46.20792" lon="6.14914">
        <ele>371.9</ele>
        <time>2019-09-13T06:54:25Z</time>
      </trkpt>
      <trkpt lat="46.20796" lon="6.14919">
        <ele>372.1</ele>
        <time>2019-09-13T06:54:27Z</time>
      </trkpt>
      <trkpt lat="46.208" lon="6.14925">
        <ele>372.4</ele>
        <time>2019-09-13T06:54:29Z</time>
      </trkpt>
      <trkpt lat="46.20803" lon="6.14929">
        <ele>372.8</ele>
        <time>2019-09-13T06:54:31Z</time>
      </trkpt>
      <trkpt lat="46.20807" lon="6.14933">
        <ele>373.1</ele>
        <time>2019-09-13T06:54:33Z</time>
      </trkpt>
      <trkpt lat="46.20811" lon="6.14936">
        <ele>373.4</ele>
        <time>2019-09-13T06:54:35Z</time>
      </trkpt>
      <trkpt lat="46.20813" lon="6.14938">
        <ele>373.6</ele>
        <time>2019-09-13T06:54:36Z</time>
      </trkpt>
      <trkpt lat="46.20816" lon="6.1494">
        <ele>373.8</ele>
        <time>2019-09-13T06:54:37Z</time>
      </trkpt>
      <trkpt lat="46.20821" lon="6.14942">
        <ele>374.2</ele>
        <time>2019-09-13T06:54:39Z</time>
      </trkpt>
      <trkpt lat="46.20825" lon="6.14945">
        <ele>374.5</ele>
        <time>2019-09-13T06:54:41Z</time>
      </trkpt>
      <trkpt lat="46.20828" lon="6.14947">
        <ele>374.7</ele>
        <time>2019-09-13T06:54:43Z</time>
      </trkpt>
      <trkpt lat="46.20833" lon="6.1495">
        <ele>375.1</ele>
        <time>2019-09-13T06:54:45Z</time>
      </trkpt>
      <trkpt lat="46.20835" lon="6.14953">
        <ele>375.3</ele>
        <time>2019-09-13T06:54:46Z</time>
      </trkpt>
      <trkpt lat="46.20837" lon="6.14956">
        <ele>375.5</ele>
        <time>2019-09-13T06:54:47Z</time>
      </trkpt>
      <trkpt lat="46.20839" lon="6.14959">
        <ele>375.7</ele>
        <time>2019-09-13T06:54:48Z</time>
      </trkpt>
      <trkpt lat="46.20842" lon="6.14962">
        <ele>376</ele>
        <time>2019-09-13T06:54:49Z</time>
      </trkpt>
      <trkpt lat="46.20845" lon="6.14966">
        <ele>376.3</ele>
        <time>2019-09-13T06:54:50Z</time>
      </trkpt>
      <trkpt lat="46.20847" lon="6.14969">
        <ele>376.5</ele>
        <time>2019-09-13T06:54:51Z</time>
      </trkpt>
      <trkpt lat="46.20849" lon="6.14972">
        <ele>376.8</ele>
        <time>2019-09-13T06:54:52Z</time>
      </trkpt>
      <trkpt lat="46.20852" lon="6.14976">
        <ele>377.1</ele>
        <time>2019-09-13T06:54:54Z</time>
      </trkpt>
      <trkpt lat="46.20855" lon="6.14979">
        <ele>377.5</ele>
        <time>2019-09-13T06:54:59Z</time>
      </trkpt>
      <trkpt lat="46.20859" lon="6.14984">
        <ele>377.6</ele>
        <time>2019-09-13T06:55:01Z</time>
      </trkpt>
      <trkpt lat="46.2086" lon="6.14988">
        <ele>377.7</ele>
        <time>2019-09-13T06:55:02Z</time>
      </trkpt>
      <trkpt lat="46.20862" lon="6.14991">
        <ele>377.7</ele>
        <time>2019-09-13T06:55:03Z</time>
      </trkpt>
      <trkpt lat="46.20864" lon="6.14995">
        <ele>377.8</ele>
        <time>2019-09-13T06:55:04Z</time>
      </trkpt>
      <trkpt lat="46.20867" lon="6.14998">
        <ele>377.9</ele>
        <time>2019-09-13T06:55:05Z</time>
      </trkpt>
      <trkpt lat="46.20869" lon="6.15">
        <ele>377.9</ele>
        <time>2019-09-13T06:55:06Z</time>
      </trkpt>
      <trkpt lat="46.20873" lon="6.15003">
        <ele>378</ele>
        <time>2019-09-13T06:55:08Z</time>
      </trkpt>
      <trkpt lat="46.20876" lon="6.15006">
        <ele>378.1</ele>
        <time>2019-09-13T06:55:09Z</time>
      </trkpt>
      <trkpt lat="46.20878" lon="6.15008">
        <ele>378.2</ele>
        <time>2019-09-13T06:55:10Z</time>
      </trkpt>
      <trkpt lat="46.20881" lon="6.15009">
        <ele>378.3</ele>
        <time>2019-09-13T06:55:11Z</time>
      </trkpt>
      <trkpt lat="46.20883" lon="6.15011">
        <ele>378.3</ele>
        <time>2019-09-13T06:55:12Z</time>
      </trkpt>
      <trkpt lat="46.20887" lon="6.15014">
        <ele>378.4</ele>
        <time>2019-09-13T06:55:14Z</time>
      </trkpt>
      <trkpt lat="46.20891" lon="6.15019">
        <ele>378.5</ele>
        <time>2019-09-13T06:55:16Z</time>
      </trkpt>
      <trkpt lat="46.20893" lon="6.15022">
        <ele>378.5</ele>
        <time>2019-09-13T06:55:17Z</time>
      </trkpt>
      <trkpt lat="46.20895" lon="6.15025">
        <ele>378.6</ele>
        <time>2019-09-13T06:55:18Z</time>
      </trkpt>
      <trkpt lat="46.20897" lon="6.15028">
        <ele>378.6</ele>
        <time>2019-09-13T06:55:19Z</time>
      </trkpt>
      <trkpt lat="46.20899" lon="6.15031">
        <ele>378.7</ele>
        <time>2019-09-13T06:55:20Z</time>
      </trkpt>
      <trkpt lat="46.20902" lon="6.15033">
        <ele>378.7</ele>
        <time>2019-09-13T06:55:21Z</time>
      </trkpt>
      <trkpt lat="46.20904" lon="6.15036">
        <ele>378.8</ele>
        <time>2019-09-13T06:55:22Z</time>
      </trkpt>
      <trkpt lat="46.20907" lon="6.15038">
        <ele>378.9</ele>
        <time>2019-09-13T06:55:23Z</time>
      </trkpt>
      <trkpt lat="46.20911" lon="6.15042">
        <ele>379</ele>
        <time>2019-09-13T06:55:25Z</time>
      </trkpt>
      <trkpt lat="46.20915" lon="6.15046">
        <ele>379.1</ele>
        <time>2019-09-13T06:55:27Z</time>
      </trkpt>
      <trkpt lat="46.20919" lon="6.1505">
        <ele>379.3</ele>
        <time>2019-09-13T06:55:29Z</time>
      </trkpt>
      <trkpt lat="46.20921" lon="6.15052">
        <ele>379.3</ele>
        <time>2019-09-13T06:55:30Z</time>
      </trkpt>
      <trkpt lat="46.20923" lon="6.15055">
        <ele>379.4</ele>
        <time>2019-09-13T06:55:31Z</time>
      </trkpt>
      <trkpt lat="46.20927" lon="6.1506">
        <ele>379.6</ele>
        <time>2019-09-13T06:55:33Z</time>
      </trkpt>
      <trkpt lat="46.2093" lon="6.15063">
        <ele>379.7</ele>
        <time>2019-09-13T06:55:34Z</time>
      </trkpt>
      <trkpt lat="46.20932" lon="6.15066">
        <ele>379.7</ele>
        <time>2019-09-13T06:55:35Z</time>
      </trkpt>
      <trkpt lat="46.20937" lon="6.1507">
        <ele>379.9</ele>
        <time>2019-09-13T06:55:37Z</time>
      </trkpt>
      <trkpt lat="46.20939" lon="6.15073">
        <ele>379.9</ele>
        <time>2019-09-13T06:55:38Z</time>
      </trkpt>
      <trkpt lat="46.20942" lon="6.15077">
        <ele>380.1</ele>
        <time>2019-09-13T06:55:40Z</time>
      </trkpt>
      <trkpt lat="46.20944" lon="6.1508">
        <ele>380.2</ele>
        <time>2019-09-13T06:55:41Z</time>
      </trkpt>
      <trkpt lat="46.20947" lon="6.15082">
        <ele>380.3</ele>
        <time>2019-09-13T06:55:42Z</time>
      </trkpt>
      <trkpt lat="46.2095" lon="6.15085">
        <ele>380.4</ele>
        <time>2019-09-13T06:55:43Z</time>
      </trkpt>
      <trkpt lat="46.20954" lon="6.15088">
        <ele>380.5</ele>
        <time>2019-09-13T06:55:45Z</time>
      </trkpt>
      <trkpt lat="46.20956" lon="6.1509">
        <ele>380.7</ele>
        <time>2019-09-13T06:55:46Z</time>
      </trkpt>
      <trkpt lat="46.20961" lon="6.15094">
        <ele>380.9</ele>
        <time>2019-09-13T06:55:48Z</time>
      </trkpt>
      <trkpt lat="46.20963" lon="6.15097">
        <ele>381.1</ele>
        <time>2019-09-13T06:55:49Z</time>
      </trkpt>
      <trkpt lat="46.20965" lon="6.15099">
        <ele>381.3</ele>
        <time>2019-09-13T06:55:50Z</time>
      </trkpt>
      <trkpt lat="46.2097" lon="6.15103">
        <ele>381.8</ele>
        <time>2019-09-13T06:55:52Z</time>
      </trkpt>
      <trkpt lat="46.20972" lon="6.15105">
        <ele>381.5</ele>
        <time>2019-09-13T06:55:53Z</time>
      </trkpt>
      <trkpt lat="46.20975" lon="6.15107">
        <ele>381.1</ele>
        <time>2019-09-13T06:55:54Z</time>
      </trkpt>
      <trkpt lat="46.20977" lon="6.1511">
        <ele>380.8</ele>
        <time>2019-09-13T06:55:55Z</time>
      </trkpt>
      <trkpt lat="46.2098" lon="6.15113">
        <ele>380.6</ele>
        <time>2019-09-13T06:55:56Z</time>
      </trkpt>
      <trkpt lat="46.20982" lon="6.15115">
        <ele>380.3</ele>
        <time>2019-09-13T06:55:57Z</time>
      </trkpt>
      <trkpt lat="46.20985" lon="6.15117">
        <ele>380.2</ele>
        <time>2019-09-13T06:55:58Z</time>
      </trkpt>
      <trkpt lat="46.20988" lon="6.15118">
        <ele>380</ele>
        <time>2019-09-13T06:55:59Z</time>
      </trkpt>
      <trkpt lat="46.2099" lon="6.15119">
        <ele>379.9</ele>
        <time>2019-09-13T06:56:00Z</time>
      </trkpt>
      <trkpt lat="46.20995" lon="6.15124">
        <ele>379.8</ele>
        <time>2019-09-13T06:56:02Z</time>
      </trkpt>
      <trkpt lat="46.20997" lon="6.15127">
        <ele>379.7</ele>
        <time>2019-09-13T06:56:03Z</time>
      </trkpt>
      <trkpt lat="46.20999" lon="6.1513">
        <ele>379.6</ele>
        <time>2019-09-13T06:56:04Z</time>
      </trkpt>
      <trkpt lat="46.21001" lon="6.15133">
        <ele>379.6</ele>
        <time>2019-09-13T06:56:05Z</time>
      </trkpt>
      <trkpt lat="46.21003" lon="6.15136">
        <ele>379.5</ele>
        <time>2019-09-13T06:56:06Z</time>
      </trkpt>
      <trkpt lat="46.21005" lon="6.1514">
        <ele>379.4</ele>
        <time>2019-09-13T06:56:07Z</time>
      </trkpt>
      <trkpt lat="46.21008" lon="6.15143">
        <ele>379.3</ele>
        <time>2019-09-13T06:56:08Z</time>
      </trkpt>
      <trkpt lat="46.2101" lon="6.15145">
        <ele>379.3</ele>
        <time>2019-09-13T06:56:09Z</time>
      </trkpt>
      <trkpt lat="46.21012" lon="6.15148">
        <ele>379.2</ele>
        <time>2019-09-13T06:56:10Z</time>
      </trkpt>
      <trkpt lat="46.21014" lon="6.15151">
        <ele>379.1</ele>
        <time>2019-09-13T06:56:11Z</time>
      </trkpt>
      <trkpt lat="46.21017" lon="6.15154">
        <ele>379</ele>
        <time>2019-09-13T06:56:12Z</time>
      </trkpt>
      <trkpt lat="46.21019" lon="6.15157">
        <ele>379</ele>
        <time>2019-09-13T06:56:13Z</time>
      </trkpt>
      <trkpt lat="46.21023" lon="6.15163">
        <ele>378.9</ele>
        <time>2019-09-13T06:56:15Z</time>
      </trkpt>
      <trkpt lat="46.21026" lon="6.15166">
        <ele>378.8</ele>
        <time>2019-09-13T06:56:16Z</time>
      </trkpt>
      <trkpt lat="46.21028" lon="6.15169">
        <ele>378.8</ele>
        <time>2019-09-13T06:56:17Z</time>
      </trkpt>
      <trkpt lat="46.2103" lon="6.15172">
        <ele>378.7</ele>
        <time>2019-09-13T06:56:18Z</time>
      </trkpt>
      <trkpt lat="46.21034" lon="6.15177">
        <ele>378.7</ele>
        <time>2019-09-13T06:56:20Z</time>
      </trkpt>
      <trkpt lat="46.21038" lon="6.1518">
        <ele>378.6</ele>
        <time>2019-09-13T06:56:22Z</time>
      </trkpt>
      <trkpt lat="46.21043" lon="6.15183">
        <ele>378.5</ele>
        <time>2019-09-13T06:56:24Z</time>
      </trkpt>
      <trkpt lat="46.21045" lon="6.15185">
        <ele>378.5</ele>
        <time>2019-09-13T06:56:25Z</time>
      </trkpt>
      <trkpt lat="46.21049" lon="6.1519">
        <ele>378.4</ele>
        <time>2019-09-13T06:56:27Z</time>
      </trkpt>
      <trkpt lat="46.21053" lon="6.15195">
        <ele>378.2</ele>
        <time>2019-09-13T06:56:29Z</time>
      </trkpt>
      <trkpt lat="46.21055" lon="6.15198">
        <ele>378.2</ele>
        <time>2019-09-13T06:56:30Z</time>
      </trkpt>
      <trkpt lat="46.21057" lon="6.152">
        <ele>378.1</ele>
        <time>2019-09-13T06:56:31Z</time>
      </trkpt>
      <trkpt lat="46.21059" lon="6.15204">
        <ele>378</ele>
        <time>2019-09-13T06:56:32Z</time>
      </trkpt>
      <trkpt lat="46.21061" lon="6.15207">
        <ele>377.9</ele>
        <time>2019-09-13T06:56:33Z</time>
      </trkpt>
      <trkpt lat="46.21063" lon="6.1521">
        <ele>377.8</ele>
        <time>2019-09-13T06:56:34Z</time>
      </trkpt>
      <trkpt lat="46.21065" lon="6.15214">
        <ele>377.7</ele>
        <time>2019-09-13T06:56:35Z</time>
      </trkpt>
      <trkpt lat="46.21068" lon="6.1522">
        <ele>377.6</ele>
        <time>2019-09-13T06:56:37Z</time>
      </trkpt>
      <trkpt lat="46.2107" lon="6.15224">
        <ele>377.5</ele>
        <time>2019-09-13T06:56:38Z</time>
      </trkpt>
      <trkpt lat="46.21072" lon="6.15227">
        <ele>377.4</ele>
        <time>2019-09-13T06:56:39Z</time>
      </trkpt>
      <trkpt lat="46.21074" lon="6.1523">
        <ele>377.3</ele>
        <time>2019-09-13T06:56:40Z</time>
      </trkpt>
      <trkpt lat="46.21078" lon="6.15234">
        <ele>377.2</ele>
        <time>2019-09-13T06:56:42Z</time>
      </trkpt>
      <trkpt lat="46.21083" lon="6.15237">
        <ele>377</ele>
        <time>2019-09-13T06:56:44Z</time>
      </trkpt>
      <trkpt lat="46.21087" lon="6.15239">
        <ele>376.8</ele>
        <time>2019-09-13T06:56:46Z</time>
      </trkpt>
      <trkpt lat="46.2109" lon="6.1524">
        <ele>376.7</ele>
        <time>2019-09-13T06:56:47Z</time>
      </trkpt>
      <trkpt lat="46.21093" lon="6.15241">
        <ele>376.6</ele>
        <time>2019-09-13T06:56:48Z</time>
      </trkpt>
      <trkpt lat="46.21096" lon="6.15242">
        <ele>376.5</ele>
        <time>2019-09-13T06:56:49Z</time>
      </trkpt>
      <trkpt lat="46.21099" lon="6.15243">
        <ele>376.4</ele>
        <time>2019-09-13T06:56:50Z</time>
      </trkpt>
      <trkpt lat="46.21102" lon="6.15245">
        <ele>376.4</ele>
        <time>2019-09-13T06:56:51Z</time>
      </trkpt>
      <trkpt lat="46.21104" lon="6.15247">
        <ele>376.3</ele>
        <time>2019-09-13T06:56:52Z</time>
      </trkpt>
      <trkpt lat="46.21107" lon="6.1525">
        <ele>376.2</ele>
        <time>2019-09-13T06:56:53Z</time>
      </trkpt>
      <trkpt lat="46.21109" lon="6.15252">
        <ele>376.1</ele>
        <time>2019-09-13T06:56:54Z</time>
      </trkpt>
      <trkpt lat="46.21112" lon="6.15255">
        <ele>376.1</ele>
        <time>2019-09-13T06:56:55Z</time>
      </trkpt>
      <trkpt lat="46.21114" lon="6.15257">
        <ele>376</ele>
        <time>2019-09-13T06:56:56Z</time>
      </trkpt>
      <trkpt lat="46.21117" lon="6.15263">
        <ele>375.8</ele>
        <time>2019-09-13T06:56:58Z</time>
      </trkpt>
      <trkpt lat="46.21118" lon="6.15266">
        <ele>375.7</ele>
        <time>2019-09-13T06:56:59Z</time>
      </trkpt>
      <trkpt lat="46.2112" lon="6.15269">
        <ele>375.6</ele>
        <time>2019-09-13T06:57:00Z</time>
      </trkpt>
      <trkpt lat="46.21122" lon="6.15273">
        <ele>375.5</ele>
        <time>2019-09-13T06:57:01Z</time>
      </trkpt>
      <trkpt lat="46.21124" lon="6.15276">
        <ele>375.4</ele>
        <time>2019-09-13T06:57:02Z</time>
      </trkpt>
      <trkpt lat="46.21126" lon="6.15279">
        <ele>375.3</ele>
        <time>2019-09-13T06:57:03Z</time>
      </trkpt>
      <trkpt lat="46.21128" lon="6.15282">
        <ele>375.2</ele>
        <time>2019-09-13T06:57:04Z</time>
      </trkpt>
      <trkpt lat="46.21131" lon="6.15285">
        <ele>375.1</ele>
        <time>2019-09-13T06:57:05Z</time>
      </trkpt>
      <trkpt lat="46.21133" lon="6.15288">
        <ele>375</ele>
        <time>2019-09-13T06:57:06Z</time>
      </trkpt>
      <trkpt lat="46.21136" lon="6.1529">
        <ele>374.9</ele>
        <time>2019-09-13T06:57:07Z</time>
      </trkpt>
      <trkpt lat="46.21138" lon="6.15293">
        <ele>374.9</ele>
        <time>2019-09-13T06:57:08Z</time>
      </trkpt>
      <trkpt lat="46.2114" lon="6.15296">
        <ele>374.9</ele>
        <time>2019-09-13T06:57:09Z</time>
      </trkpt>
      <trkpt lat="46.21142" lon="6.15298">
        <ele>374.9</ele>
        <time>2019-09-13T06:57:10Z</time>
      </trkpt>
      <trkpt lat="46.21145" lon="6.153">
        <ele>374.9</ele>
        <time>2019-09-13T06:57:11Z</time>
      </trkpt>
      <trkpt lat="46.21147" lon="6.15303">
        <ele>374.9</ele>
        <time>2019-09-13T06:57:12Z</time>
      </trkpt>
      <trkpt lat="46.2115" lon="6.15305">
        <ele>374.9</ele>
        <time>2019-09-13T06:57:13Z</time>
      </trkpt>
      <trkpt lat="46.21152" lon="6.15307">
        <ele>374.9</ele>
        <time>2019-09-13T06:57:14Z</time>
      </trkpt>
      <trkpt lat="46.21155" lon="6.15308">
        <ele>374.9</ele>
        <time>2019-09-13T06:57:15Z</time>
      </trkpt>
      <trkpt lat="46.21158" lon="6.15309">
        <ele>375</ele>
        <time>2019-09-13T06:57:16Z</time>
      </trkpt>
      <trkpt lat="46.21161" lon="6.15309">
        <ele>375</ele>
        <time>2019-09-13T06:57:17Z</time>
      </trkpt>
      <trkpt lat="46.21164" lon="6.15308">
        <ele>375.1</ele>
        <time>2019-09-13T06:57:18Z</time>
      </trkpt>
      <trkpt lat="46.21167" lon="6.15307">
        <ele>375.2</ele>
        <time>2019-09-13T06:57:19Z</time>
      </trkpt>
      <trkpt lat="46.21171" lon="6.15306">
        <ele>375.3</ele>
        <time>2019-09-13T06:57:20Z</time>
      </trkpt>
      <trkpt lat="46.21174" lon="6.15306">
        <ele>375.3</ele>
        <time>2019-09-13T06:57:21Z</time>
      </trkpt>
      <trkpt lat="46.21177" lon="6.15306">
        <ele>375.3</ele>
        <time>2019-09-13T06:57:22Z</time>
      </trkpt>
      <trkpt lat="46.21182" lon="6.15306">
        <ele>375.3</ele>
        <time>2019-09-13T06:57:24Z</time>
      </trkpt>
      <trkpt lat="46.21185" lon="6.15306">
        <ele>375.3</ele>
        <time>2019-09-13T06:57:25Z</time>
      </trkpt>
      <trkpt lat="46.21188" lon="6.15306">
        <ele>375.3</ele>
        <time>2019-09-13T06:57:26Z</time>
      </trkpt>
      <trkpt lat="46.21191" lon="6.15306">
        <ele>375.3</ele>
        <time>2019-09-13T06:57:27Z</time>
      </trkpt>
      <trkpt lat="46.21194" lon="6.15304">
        <ele>375.2</ele>
        <time>2019-09-13T06:57:28Z</time>
      </trkpt>
      <trkpt lat="46.21197" lon="6.15303">
        <ele>375.2</ele>
        <time>2019-09-13T06:57:29Z</time>
      </trkpt>
      <trkpt lat="46.212" lon="6.15302">
        <ele>375.2</ele>
        <time>2019-09-13T06:57:30Z</time>
      </trkpt>
      <trkpt lat="46.21204" lon="6.153">
        <ele>375.3</ele>
        <time>2019-09-13T06:57:32Z</time>
      </trkpt>
      <trkpt lat="46.21211" lon="6.15298">
        <ele>375.4</ele>
        <time>2019-09-13T06:57:34Z</time>
      </trkpt>
      <trkpt lat="46.21215" lon="6.15296">
        <ele>375.4</ele>
        <time>2019-09-13T06:57:35Z</time>
      </trkpt>
      <trkpt lat="46.21219" lon="6.15295">
        <ele>375.5</ele>
        <time>2019-09-13T06:57:36Z</time>
      </trkpt>
      <trkpt lat="46.21221" lon="6.15294">
        <ele>375.5</ele>
        <time>2019-09-13T06:57:37Z</time>
      </trkpt>
      <trkpt lat="46.21224" lon="6.15293">
        <ele>375.6</ele>
        <time>2019-09-13T06:57:38Z</time>
      </trkpt>
      <trkpt lat="46.21229" lon="6.15292">
        <ele>375.6</ele>
        <time>2019-09-13T06:57:40Z</time>
      </trkpt>
      <trkpt lat="46.21233" lon="6.1529">
        <ele>375.7</ele>
        <time>2019-09-13T06:57:42Z</time>
      </trkpt>
      <trkpt lat="46.21238" lon="6.1529">
        <ele>375.7</ele>
        <time>2019-09-13T06:57:44Z</time>
      </trkpt>
      <trkpt lat="46.21242" lon="6.15289">
        <ele>374.6</ele>
        <time>2019-09-13T06:57:46Z</time>
      </trkpt>
      <trkpt lat="46.21246" lon="6.15287">
        <ele>374.4</ele>
        <time>2019-09-13T06:57:48Z</time>
      </trkpt>
      <trkpt lat="46.2125" lon="6.15286">
        <ele>374.1</ele>
        <time>2019-09-13T06:57:50Z</time>
      </trkpt>
      <trkpt lat="46.21253" lon="6.15285">
        <ele>373.9</ele>
        <time>2019-09-13T06:57:51Z</time>
      </trkpt>
      <trkpt lat="46.21256" lon="6.15285">
        <ele>373.8</ele>
        <time>2019-09-13T06:57:52Z</time>
      </trkpt>
      <trkpt lat="46.21259" lon="6.15285">
        <ele>373.6</ele>
        <time>2019-09-13T06:57:53Z</time>
      </trkpt>
      <trkpt lat="46.21264" lon="6.15282">
        <ele>373.3</ele>
        <time>2019-09-13T06:57:55Z</time>
      </trkpt>
      <trkpt lat="46.21268" lon="6.15278">
        <ele>373</ele>
        <time>2019-09-13T06:57:57Z</time>
      </trkpt>
      <trkpt lat="46.21271" lon="6.15277">
        <ele>372.8</ele>
        <time>2019-09-13T06:57:58Z</time>
      </trkpt>
      <trkpt lat="46.21275" lon="6.15276">
        <ele>372.9</ele>
        <time>2019-09-13T06:57:59Z</time>
      </trkpt>
      <trkpt lat="46.21278" lon="6.15276">
        <ele>372.9</ele>
        <time>2019-09-13T06:58:00Z</time>
      </trkpt>
      <trkpt lat="46.21283" lon="6.15276">
        <ele>373</ele>
        <time>2019-09-13T06:58:02Z</time>
      </trkpt>
      <trkpt lat="46.21285" lon="6.15276">
        <ele>374.1</ele>
        <time>2019-09-13T06:58:03Z</time>
      </trkpt>
      <trkpt lat="46.2129" lon="6.15276">
        <ele>373.6</ele>
        <time>2019-09-13T06:58:05Z</time>
      </trkpt>
      <trkpt lat="46.21295" lon="6.15274">
        <ele>373.2</ele>
        <time>2019-09-13T06:58:07Z</time>
      </trkpt>
      <trkpt lat="46.213" lon="6.15272">
        <ele>372.6</ele>
        <time>2019-09-13T06:58:09Z</time>
      </trkpt>
      <trkpt lat="46.21303" lon="6.15271">
        <ele>372.3</ele>
        <time>2019-09-13T06:58:10Z</time>
      </trkpt>
      <trkpt lat="46.21306" lon="6.1527">
        <ele>372.1</ele>
        <time>2019-09-13T06:58:11Z</time>
      </trkpt>
      <trkpt lat="46.21309" lon="6.15269">
        <ele>371.8</ele>
        <time>2019-09-13T06:58:12Z</time>
      </trkpt>
      <trkpt lat="46.21312" lon="6.15268">
        <ele>371.5</ele>
        <time>2019-09-13T06:58:13Z</time>
      </trkpt>
      <trkpt lat="46.21315" lon="6.15267">
        <ele>371.2</ele>
        <time>2019-09-13T06:58:14Z</time>
      </trkpt>
      <trkpt lat="46.21318" lon="6.15266">
        <ele>371.1</ele>
        <time>2019-09-13T06:58:15Z</time>
      </trkpt>
      <trkpt lat="46.21321" lon="6.15265">
        <ele>371</ele>
        <time>2019-09-13T06:58:16Z</time>
      </trkpt>
      <trkpt lat="46.21324" lon="6.15265">
        <ele>370.9</ele>
        <time>2019-09-13T06:58:17Z</time>
      </trkpt>
      <trkpt lat="46.21327" lon="6.15264">
        <ele>370.9</ele>
        <time>2019-09-13T06:58:18Z</time>
      </trkpt>
      <trkpt lat="46.21332" lon="6.15263">
        <ele>370.7</ele>
        <time>2019-09-13T06:58:20Z</time>
      </trkpt>
      <trkpt lat="46.21335" lon="6.15262">
        <ele>370.7</ele>
        <time>2019-09-13T06:58:21Z</time>
      </trkpt>
      <trkpt lat="46.21341" lon="6.1526">
        <ele>371</ele>
        <time>2019-09-13T06:58:23Z</time>
      </trkpt>
      <trkpt lat="46.21344" lon="6.15259">
        <ele>371.6</ele>
        <time>2019-09-13T06:58:24Z</time>
      </trkpt>
      <trkpt lat="46.21347" lon="6.15258">
        <ele>372.1</ele>
        <time>2019-09-13T06:58:25Z</time>
      </trkpt>
      <trkpt lat="46.2135" lon="6.15258">
        <ele>372.2</ele>
        <time>2019-09-13T06:58:26Z</time>
      </trkpt>
      <trkpt lat="46.21353" lon="6.15258">
        <ele>372.2</ele>
        <time>2019-09-13T06:58:27Z</time>
      </trkpt>
      <trkpt lat="46.21355" lon="6.15257">
        <ele>372.3</ele>
        <time>2019-09-13T06:58:28Z</time>
      </trkpt>
      <trkpt lat="46.21358" lon="6.15257">
        <ele>372.3</ele>
        <time>2019-09-13T06:58:29Z</time>
      </trkpt>
      <trkpt lat="46.21363" lon="6.15256">
        <ele>372.3</ele>
        <time>2019-09-13T06:58:31Z</time>
      </trkpt>
      <trkpt lat="46.21369" lon="6.15255">
        <ele>372.3</ele>
        <time>2019-09-13T06:58:33Z</time>
      </trkpt>
      <trkpt lat="46.21371" lon="6.15254">
        <ele>372.3</ele>
        <time>2019-09-13T06:58:34Z</time>
      </trkpt>
      <trkpt lat="46.21374" lon="6.15253">
        <ele>372.3</ele>
        <time>2019-09-13T06:58:35Z</time>
      </trkpt>
      <trkpt lat="46.21377" lon="6.15252">
        <ele>372.3</ele>
        <time>2019-09-13T06:58:36Z</time>
      </trkpt>
      <trkpt lat="46.21381" lon="6.15251">
        <ele>372.3</ele>
        <time>2019-09-13T06:58:38Z</time>
      </trkpt>
      <trkpt lat="46.21386" lon="6.1525">
        <ele>372.3</ele>
        <time>2019-09-13T06:58:40Z</time>
      </trkpt>
      <trkpt lat="46.21389" lon="6.15248">
        <ele>372.3</ele>
        <time>2019-09-13T06:58:42Z</time>
      </trkpt>
      <trkpt lat="46.21392" lon="6.15246">
        <ele>372.2</ele>
        <time>2019-09-13T06:58:43Z</time>
      </trkpt>
      <trkpt lat="46.21396" lon="6.15245">
        <ele>372.2</ele>
        <time>2019-09-13T06:58:44Z</time>
      </trkpt>
      <trkpt lat="46.21399" lon="6.15244">
        <ele>372.2</ele>
        <time>2019-09-13T06:58:45Z</time>
      </trkpt>
      <trkpt lat="46.21403" lon="6.15244">
        <ele>372.1</ele>
        <time>2019-09-13T06:58:46Z</time>
      </trkpt>
      <trkpt lat="46.21406" lon="6.15244">
        <ele>372.1</ele>
        <time>2019-09-13T06:58:47Z</time>
      </trkpt>
      <trkpt lat="46.2141" lon="6.15243">
        <ele>372</ele>
        <time>2019-09-13T06:58:48Z</time>
      </trkpt>
      <trkpt lat="46.21412" lon="6.15242">
        <ele>372</ele>
        <time>2019-09-13T06:58:49Z</time>
      </trkpt>
      <trkpt lat="46.21415" lon="6.15241">
        <ele>372</ele>
        <time>2019-09-13T06:58:50Z</time>
      </trkpt>
      <trkpt lat="46.21418" lon="6.15241">
        <ele>372</ele>
        <time>2019-09-13T06:58:51Z</time>
      </trkpt>
      <trkpt lat="46.21423" lon="6.15239">
        <ele>372</ele>
        <time>2019-09-13T06:58:53Z</time>
      </trkpt>
      <trkpt lat="46.21428" lon="6.15237">
        <ele>372</ele>
        <time>2019-09-13T06:58:55Z</time>
      </trkpt>
      <trkpt lat="46.21434" lon="6.15235">
        <ele>372</ele>
        <time>2019-09-13T06:58:57Z</time>
      </trkpt>
      <trkpt lat="46.21439" lon="6.15233">
        <ele>372</ele>
        <time>2019-09-13T06:58:59Z</time>
      </trkpt>
      <trkpt lat="46.21443" lon="6.15231">
        <ele>372</ele>
        <time>2019-09-13T06:59:01Z</time>
      </trkpt>
      <trkpt lat="46.21449" lon="6.1523">
        <ele>372.1</ele>
        <time>2019-09-13T06:59:03Z</time>
      </trkpt>
      <trkpt lat="46.21453" lon="6.15229">
        <ele>372.1</ele>
        <time>2019-09-13T06:59:05Z</time>
      </trkpt>
      <trkpt lat="46.21457" lon="6.15228">
        <ele>372.1</ele>
        <time>2019-09-13T06:59:07Z</time>
      </trkpt>
      <trkpt lat="46.21462" lon="6.15227">
        <ele>372.2</ele>
        <time>2019-09-13T06:59:09Z</time>
      </trkpt>
      <trkpt lat="46.21465" lon="6.15227">
        <ele>372.2</ele>
        <time>2019-09-13T06:59:10Z</time>
      </trkpt>
      <trkpt lat="46.21469" lon="6.15226">
        <ele>372.2</ele>
        <time>2019-09-13T06:59:11Z</time>
      </trkpt>
      <trkpt lat="46.21471" lon="6.15226">
        <ele>372.2</ele>
        <time>2019-09-13T06:59:12Z</time>
      </trkpt>
      <trkpt lat="46.21475" lon="6.15225">
        <ele>372.2</ele>
        <time>2019-09-13T06:59:14Z</time>
      </trkpt>
      <trkpt lat="46.21479" lon="6.15223">
        <ele>372.2</ele>
        <time>2019-09-13T06:59:16Z</time>
      </trkpt>
      <trkpt lat="46.21485" lon="6.1522">
        <ele>372.3</ele>
        <time>2019-09-13T06:59:18Z</time>
      </trkpt>
      <trkpt lat="46.21488" lon="6.1522">
        <ele>372.3</ele>
        <time>2019-09-13T06:59:19Z</time>
      </trkpt>
      <trkpt lat="46.21491" lon="6.15219">
        <ele>372.3</ele>
        <time>2019-09-13T06:59:20Z</time>
      </trkpt>
      <trkpt lat="46.21494" lon="6.15218">
        <ele>372.3</ele>
        <time>2019-09-13T06:59:21Z</time>
      </trkpt>
      <trkpt lat="46.21497" lon="6.15217">
        <ele>372.3</ele>
        <time>2019-09-13T06:59:22Z</time>
      </trkpt>
      <trkpt lat="46.215" lon="6.15217">
        <ele>372.3</ele>
        <time>2019-09-13T06:59:23Z</time>
      </trkpt>
      <trkpt lat="46.21503" lon="6.15216">
        <ele>372.3</ele>
        <time>2019-09-13T06:59:24Z</time>
      </trkpt>
      <trkpt lat="46.21506" lon="6.15216">
        <ele>372.3</ele>
        <time>2019-09-13T06:59:25Z</time>
      </trkpt>
      <trkpt lat="46.21508" lon="6.15215">
        <ele>372.3</ele>
        <time>2019-09-13T06:59:26Z</time>
      </trkpt>
      <trkpt lat="46.21513" lon="6.15213">
        <ele>372.3</ele>
        <time>2019-09-13T06:59:28Z</time>
      </trkpt>
      <trkpt lat="46.21519" lon="6.15212">
        <ele>372.3</ele>
        <time>2019-09-13T06:59:30Z</time>
      </trkpt>
      <trkpt lat="46.21524" lon="6.15211">
        <ele>372.4</ele>
        <time>2019-09-13T06:59:32Z</time>
      </trkpt>
      <trkpt lat="46.21527" lon="6.1521">
        <ele>372.4</ele>
        <time>2019-09-13T06:59:33Z</time>
      </trkpt>
      <trkpt lat="46.21532" lon="6.15209">
        <ele>372.4</ele>
        <time>2019-09-13T06:59:35Z</time>
      </trkpt>
      <trkpt lat="46.21535" lon="6.15208">
        <ele>372.4</ele>
        <time>2019-09-13T06:59:36Z</time>
      </trkpt>
      <trkpt lat="46.2154" lon="6.15207">
        <ele>372.4</ele>
        <time>2019-09-13T06:59:38Z</time>
      </trkpt>
      <trkpt lat="46.21544" lon="6.15206">
        <ele>372.4</ele>
        <time>2019-09-13T06:59:40Z</time>
      </trkpt>
      <trkpt lat="46.21548" lon="6.15204">
        <ele>372.5</ele>
        <time>2019-09-13T06:59:42Z</time>
      </trkpt>
      <trkpt lat="46.21551" lon="6.15204">
        <ele>372.5</ele>
        <time>2019-09-13T06:59:43Z</time>
      </trkpt>
      <trkpt lat="46.21554" lon="6.15203">
        <ele>372.5</ele>
        <time>2019-09-13T06:59:44Z</time>
      </trkpt>
      <trkpt lat="46.21556" lon="6.15202">
        <ele>372.5</ele>
        <time>2019-09-13T06:59:45Z</time>
      </trkpt>
      <trkpt lat="46.2156" lon="6.15202">
        <ele>372.6</ele>
        <time>2019-09-13T06:59:46Z</time>
      </trkpt>
      <trkpt lat="46.21563" lon="6.15201">
        <ele>372.6</ele>
        <time>2019-09-13T06:59:47Z</time>
      </trkpt>
      <trkpt lat="46.21566" lon="6.15201">
        <ele>372.6</ele>
        <time>2019-09-13T06:59:48Z</time>
      </trkpt>
      <trkpt lat="46.21569" lon="6.15199">
        <ele>372.7</ele>
        <time>2019-09-13T06:59:50Z</time>
      </trkpt>
      <trkpt lat="46.21573" lon="6.15197">
        <ele>372.7</ele>
        <time>2019-09-13T06:59:52Z</time>
      </trkpt>
      <trkpt lat="46.21578" lon="6.15196">
        <ele>372.8</ele>
        <time>2019-09-13T06:59:54Z</time>
      </trkpt>
      <trkpt lat="46.21581" lon="6.15196">
        <ele>372.8</ele>
        <time>2019-09-13T06:59:55Z</time>
      </trkpt>
      <trkpt lat="46.21584" lon="6.15195">
        <ele>372.8</ele>
        <time>2019-09-13T06:59:56Z</time>
      </trkpt>
      <trkpt lat="46.21588" lon="6.15195">
        <ele>372.9</ele>
        <time>2019-09-13T06:59:57Z</time>
      </trkpt>
      <trkpt lat="46.21591" lon="6.15194">
        <ele>372.9</ele>
        <time>2019-09-13T06:59:58Z</time>
      </trkpt>
      <trkpt lat="46.21596" lon="6.15192">
        <ele>372.9</ele>
        <time>2019-09-13T07:00:00Z</time>
      </trkpt>
      <trkpt lat="46.21601" lon="6.15191">
        <ele>372.9</ele>
        <time>2019-09-13T07:00:02Z</time>
      </trkpt>
      <trkpt lat="46.21605" lon="6.1519">
        <ele>372.8</ele>
        <time>2019-09-13T07:00:04Z</time>
      </trkpt>
      <trkpt lat="46.21611" lon="6.15187">
        <ele>372.7</ele>
        <time>2019-09-13T07:00:06Z</time>
      </trkpt>
      <trkpt lat="46.21614" lon="6.15186">
        <ele>372.7</ele>
        <time>2019-09-13T07:00:07Z</time>
      </trkpt>
      <trkpt lat="46.21619" lon="6.15185">
        <ele>372.6</ele>
        <time>2019-09-13T07:00:09Z</time>
      </trkpt>
      <trkpt lat="46.21621" lon="6.15184">
        <ele>372.6</ele>
        <time>2019-09-13T07:00:10Z</time>
      </trkpt>
      <trkpt lat="46.21625" lon="6.15184">
        <ele>372.5</ele>
        <time>2019-09-13T07:00:11Z</time>
      </trkpt>
      <trkpt lat="46.21628" lon="6.15183">
        <ele>372.5</ele>
        <time>2019-09-13T07:00:12Z</time>
      </trkpt>
      <trkpt lat="46.21631" lon="6.15183">
        <ele>372.4</ele>
        <time>2019-09-13T07:00:13Z</time>
      </trkpt>
      <trkpt lat="46.21634" lon="6.15182">
        <ele>372.3</ele>
        <time>2019-09-13T07:00:14Z</time>
      </trkpt>
      <trkpt lat="46.21637" lon="6.15182">
        <ele>372.3</ele>
        <time>2019-09-13T07:00:15Z</time>
      </trkpt>
      <trkpt lat="46.21642" lon="6.15182">
        <ele>372.2</ele>
        <time>2019-09-13T07:00:17Z</time>
      </trkpt>
      <trkpt lat="46.21647" lon="6.1518">
        <ele>372</ele>
        <time>2019-09-13T07:00:19Z</time>
      </trkpt>
      <trkpt lat="46.2165" lon="6.15179">
        <ele>372</ele>
        <time>2019-09-13T07:00:20Z</time>
      </trkpt>
      <trkpt lat="46.21653" lon="6.15178">
        <ele>371.9</ele>
        <time>2019-09-13T07:00:21Z</time>
      </trkpt>
      <trkpt lat="46.21655" lon="6.15176">
        <ele>371.8</ele>
        <time>2019-09-13T07:00:22Z</time>
      </trkpt>
      <trkpt lat="46.21658" lon="6.15175">
        <ele>371.7</ele>
        <time>2019-09-13T07:00:23Z</time>
      </trkpt>
      <trkpt lat="46.21661" lon="6.15174">
        <ele>371.5</ele>
        <time>2019-09-13T07:00:24Z</time>
      </trkpt>
      <trkpt lat="46.21665" lon="6.15174">
        <ele>372.3</ele>
        <time>2019-09-13T07:00:25Z</time>
      </trkpt>
      <trkpt lat="46.21668" lon="6.15173">
        <ele>372.7</ele>
        <time>2019-09-13T07:00:26Z</time>
      </trkpt>
      <trkpt lat="46.21671" lon="6.15173">
        <ele>373.1</ele>
        <time>2019-09-13T07:00:27Z</time>
      </trkpt>
      <trkpt lat="46.21674" lon="6.15172">
        <ele>373.5</ele>
        <time>2019-09-13T07:00:28Z</time>
      </trkpt>
      <trkpt lat="46.21677" lon="6.15171">
        <ele>373.9</ele>
        <time>2019-09-13T07:00:29Z</time>
      </trkpt>
      <trkpt lat="46.2168" lon="6.1517">
        <ele>374.3</ele>
        <time>2019-09-13T07:00:30Z</time>
      </trkpt>
      <trkpt lat="46.21683" lon="6.15169">
        <ele>374.8</ele>
        <time>2019-09-13T07:00:31Z</time>
      </trkpt>
      <trkpt lat="46.21687" lon="6.15168">
        <ele>375.6</ele>
        <time>2019-09-13T07:00:33Z</time>
      </trkpt>
      <trkpt lat="46.21693" lon="6.15167">
        <ele>376.6</ele>
        <time>2019-09-13T07:00:35Z</time>
      </trkpt>
      <trkpt lat="46.21698" lon="6.15166">
        <ele>377.6</ele>
        <time>2019-09-13T07:00:37Z</time>
      </trkpt>
      <trkpt lat="46.21703" lon="6.15165">
        <ele>378.1</ele>
        <time>2019-09-13T07:00:39Z</time>
      </trkpt>
      <trkpt lat="46.21707" lon="6.15163">
        <ele>378.7</ele>
        <time>2019-09-13T07:00:41Z</time>
      </trkpt>
      <trkpt lat="46.21712" lon="6.15161">
        <ele>379.2</ele>
        <time>2019-09-13T07:00:43Z</time>
      </trkpt>
      <trkpt lat="46.21714" lon="6.1516">
        <ele>379.6</ele>
        <time>2019-09-13T07:00:44Z</time>
      </trkpt>
      <trkpt lat="46.21718" lon="6.15159">
        <ele>380</ele>
        <time>2019-09-13T07:00:45Z</time>
      </trkpt>
      <trkpt lat="46.21723" lon="6.15158">
        <ele>380.3</ele>
        <time>2019-09-13T07:00:47Z</time>
      </trkpt>
      <trkpt lat="46.21728" lon="6.15158">
        <ele>380.6</ele>
        <time>2019-09-13T07:00:49Z</time>
      </trkpt>
      <trkpt lat="46.2173" lon="6.15158">
        <ele>380.8</ele>
        <time>2019-09-13T07:00:50Z</time>
      </trkpt>
      <trkpt lat="46.21733" lon="6.15158">
        <ele>380.9</ele>
        <time>2019-09-13T07:00:51Z</time>
      </trkpt>
      <trkpt lat="46.21738" lon="6.15157">
        <ele>381.2</ele>
        <time>2019-09-13T07:00:53Z</time>
      </trkpt>
      <trkpt lat="46.21742" lon="6.15156">
        <ele>381.5</ele>
        <time>2019-09-13T07:00:55Z</time>
      </trkpt>
      <trkpt lat="46.21748" lon="6.15155">
        <ele>382</ele>
        <time>2019-09-13T07:00:57Z</time>
      </trkpt>
      <trkpt lat="46.21751" lon="6.15155">
        <ele>382.2</ele>
        <time>2019-09-13T07:00:58Z</time>
      </trkpt>
      <trkpt lat="46.21757" lon="6.15154">
        <ele>380.5</ele>
        <time>2019-09-13T07:01:00Z</time>
      </trkpt>
      <trkpt lat="46.21759" lon="6.15155">
        <ele>379.9</ele>
        <time>2019-09-13T07:01:01Z</time>
      </trkpt>
      <trkpt lat="46.21764" lon="6.15159">
        <ele>378.6</ele>
        <time>2019-09-13T07:01:03Z</time>
      </trkpt>
      <trkpt lat="46.21768" lon="6.15163">
        <ele>377.5</ele>
        <time>2019-09-13T07:01:05Z</time>
      </trkpt>
      <trkpt lat="46.21771" lon="6.15166">
        <ele>376.5</ele>
        <time>2019-09-13T07:01:07Z</time>
      </trkpt>
      <trkpt lat="46.21775" lon="6.15168">
        <ele>375.5</ele>
        <time>2019-09-13T07:01:09Z</time>
      </trkpt>
      <trkpt lat="46.21779" lon="6.15172">
        <ele>374.5</ele>
        <time>2019-09-13T07:01:11Z</time>
      </trkpt>
      <trkpt lat="46.21784" lon="6.15174">
        <ele>373.3</ele>
        <time>2019-09-13T07:01:13Z</time>
      </trkpt>
      <trkpt lat="46.21787" lon="6.15175">
        <ele>373.4</ele>
        <time>2019-09-13T07:01:14Z</time>
      </trkpt>
      <trkpt lat="46.2179" lon="6.15176">
        <ele>373.4</ele>
        <time>2019-09-13T07:01:15Z</time>
      </trkpt>
      <trkpt lat="46.21793" lon="6.15176">
        <ele>373.4</ele>
        <time>2019-09-13T07:01:16Z</time>
      </trkpt>
      <trkpt lat="46.21798" lon="6.15179">
        <ele>373.5</ele>
        <time>2019-09-13T07:01:18Z</time>
      </trkpt>
      <trkpt lat="46.21802" lon="6.15182">
        <ele>373.5</ele>
        <time>2019-09-13T07:01:20Z</time>
      </trkpt>
      <trkpt lat="46.21804" lon="6.15184">
        <ele>373.5</ele>
        <time>2019-09-13T07:01:21Z</time>
      </trkpt>
      <trkpt lat="46.21808" lon="6.15188">
        <ele>373.6</ele>
        <time>2019-09-13T07:01:23Z</time>
      </trkpt>
      <trkpt lat="46.21811" lon="6.15195">
        <ele>372.4</ele>
        <time>2019-09-13T07:01:25Z</time>
      </trkpt>
      <trkpt lat="46.21813" lon="6.15201">
        <ele>371.4</ele>
        <time>2019-09-13T07:01:27Z</time>
      </trkpt>
      <trkpt lat="46.21815" lon="6.15205">
        <ele>370.9</ele>
        <time>2019-09-13T07:01:28Z</time>
      </trkpt>
      <trkpt lat="46.21817" lon="6.15208">
        <ele>370.9</ele>
        <time>2019-09-13T07:01:29Z</time>
      </trkpt>
      <trkpt lat="46.21821" lon="6.15213">
        <ele>370.9</ele>
        <time>2019-09-13T07:01:31Z</time>
      </trkpt>
      <trkpt lat="46.21825" lon="6.15217">
        <ele>371</ele>
        <time>2019-09-13T07:01:33Z</time>
      </trkpt>
      <trkpt lat="46.21829" lon="6.1522">
        <ele>371.1</ele>
        <time>2019-09-13T07:01:35Z</time>
      </trkpt>
      <trkpt lat="46.21832" lon="6.15221">
        <ele>371.2</ele>
        <time>2019-09-13T07:01:36Z</time>
      </trkpt>
      <trkpt lat="46.21835" lon="6.15222">
        <ele>371.3</ele>
        <time>2019-09-13T07:01:37Z</time>
      </trkpt>
      <trkpt lat="46.2184" lon="6.15225">
        <ele>371.5</ele>
        <time>2019-09-13T07:01:39Z</time>
      </trkpt>
      <trkpt lat="46.21843" lon="6.15226">
        <ele>371.6</ele>
        <time>2019-09-13T07:01:40Z</time>
      </trkpt>
      <trkpt lat="46.21845" lon="6.15227">
        <ele>371.7</ele>
        <time>2019-09-13T07:01:41Z</time>
      </trkpt>
      <trkpt lat="46.21848" lon="6.15228">
        <ele>371.8</ele>
        <time>2019-09-13T07:01:42Z</time>
      </trkpt>
      <trkpt lat="46.21851" lon="6.15229">
        <ele>371.9</ele>
        <time>2019-09-13T07:01:43Z</time>
      </trkpt>
      <trkpt lat="46.21856" lon="6.15231">
        <ele>372.1</ele>
        <time>2019-09-13T07:01:45Z</time>
      </trkpt>
      <trkpt lat="46.21859" lon="6.15231">
        <ele>372.2</ele>
        <time>2019-09-13T07:01:46Z</time>
      </trkpt>
      <trkpt lat="46.21863" lon="6.15231">
        <ele>372.7</ele>
        <time>2019-09-13T07:01:47Z</time>
      </trkpt>
      <trkpt lat="46.21868" lon="6.15231">
        <ele>372.9</ele>
        <time>2019-09-13T07:01:48Z</time>
      </trkpt>
      <trkpt lat="46.21872" lon="6.15231">
        <ele>373.1</ele>
        <time>2019-09-13T07:01:49Z</time>
      </trkpt>
      <trkpt lat="46.21875" lon="6.1523">
        <ele>373.4</ele>
        <time>2019-09-13T07:01:50Z</time>
      </trkpt>
      <trkpt lat="46.21879" lon="6.15229">
        <ele>373.5</ele>
        <time>2019-09-13T07:01:52Z</time>
      </trkpt>
      <trkpt lat="46.21883" lon="6.15229">
        <ele>373.6</ele>
        <time>2019-09-13T07:01:54Z</time>
      </trkpt>
      <trkpt lat="46.21888" lon="6.15228">
        <ele>373.8</ele>
        <time>2019-09-13T07:01:56Z</time>
      </trkpt>
      <trkpt lat="46.21893" lon="6.15228">
        <ele>374</ele>
        <time>2019-09-13T07:01:58Z</time>
      </trkpt>
      <trkpt lat="46.21897" lon="6.15228">
        <ele>374.2</ele>
        <time>2019-09-13T07:02:00Z</time>
      </trkpt>
      <trkpt lat="46.21901" lon="6.15228">
        <ele>374.5</ele>
        <time>2019-09-13T07:02:02Z</time>
      </trkpt>
      <trkpt lat="46.21906" lon="6.15228">
        <ele>374.9</ele>
        <time>2019-09-13T07:02:04Z</time>
      </trkpt>
      <trkpt lat="46.21911" lon="6.15229">
        <ele>375.3</ele>
        <time>2019-09-13T07:02:06Z</time>
      </trkpt>
      <trkpt lat="46.21916" lon="6.15229">
        <ele>375.9</ele>
        <time>2019-09-13T07:02:08Z</time>
      </trkpt>
      <trkpt lat="46.21921" lon="6.15228">
        <ele>376.4</ele>
        <time>2019-09-13T07:02:10Z</time>
      </trkpt>
      <trkpt lat="46.21924" lon="6.15227">
        <ele>376.8</ele>
        <time>2019-09-13T07:02:11Z</time>
      </trkpt>
      <trkpt lat="46.21928" lon="6.15227">
        <ele>377.3</ele>
        <time>2019-09-13T07:02:13Z</time>
      </trkpt>
      <trkpt lat="46.21933" lon="6.15229">
        <ele>377.9</ele>
        <time>2019-09-13T07:02:15Z</time>
      </trkpt>
      <trkpt lat="46.21936" lon="6.1523">
        <ele>378.3</ele>
        <time>2019-09-13T07:02:16Z</time>
      </trkpt>
      <trkpt lat="46.2194" lon="6.15233">
        <ele>376.4</ele>
        <time>2019-09-13T07:02:18Z</time>
      </trkpt>
      <trkpt lat="46.21944" lon="6.15237">
        <ele>376.7</ele>
        <time>2019-09-13T07:02:20Z</time>
      </trkpt>
      <trkpt lat="46.21948" lon="6.1524">
        <ele>377</ele>
        <time>2019-09-13T07:02:22Z</time>
      </trkpt>
      <trkpt lat="46.21951" lon="6.15242">
        <ele>377.2</ele>
        <time>2019-09-13T07:02:23Z</time>
      </trkpt>
      <trkpt lat="46.21953" lon="6.15245">
        <ele>377.3</ele>
        <time>2019-09-13T07:02:24Z</time>
      </trkpt>
      <trkpt lat="46.21955" lon="6.15248">
        <ele>377.5</ele>
        <time>2019-09-13T07:02:25Z</time>
      </trkpt>
      <trkpt lat="46.21957" lon="6.15251">
        <ele>377.4</ele>
        <time>2019-09-13T07:02:26Z</time>
      </trkpt>
      <trkpt lat="46.21961" lon="6.15256">
        <ele>377.2</ele>
        <time>2019-09-13T07:02:28Z</time>
      </trkpt>
      <trkpt lat="46.21964" lon="6.15261">
        <ele>377</ele>
        <time>2019-09-13T07:02:30Z</time>
      </trkpt>
      <trkpt lat="46.21966" lon="6.15264">
        <ele>376.9</ele>
        <time>2019-09-13T07:02:31Z</time>
      </trkpt>
      <trkpt lat="46.21969" lon="6.15266">
        <ele>376.8</ele>
        <time>2019-09-13T07:02:32Z</time>
      </trkpt>
      <trkpt lat="46.21973" lon="6.1527">
        <ele>376.6</ele>
        <time>2019-09-13T07:02:34Z</time>
      </trkpt>
      <trkpt lat="46.21977" lon="6.15274">
        <ele>376.4</ele>
        <time>2019-09-13T07:02:36Z</time>
      </trkpt>
      <trkpt lat="46.21981" lon="6.15278">
        <ele>376.2</ele>
        <time>2019-09-13T07:02:38Z</time>
      </trkpt>
      <trkpt lat="46.21985" lon="6.15282">
        <ele>375.8</ele>
        <time>2019-09-13T07:02:40Z</time>
      </trkpt>
      <trkpt lat="46.21989" lon="6.15286">
        <ele>375.5</ele>
        <time>2019-09-13T07:02:42Z</time>
      </trkpt>
      <trkpt lat="46.21993" lon="6.15291">
        <ele>375.2</ele>
        <time>2019-09-13T07:02:44Z</time>
      </trkpt>
      <trkpt lat="46.21996" lon="6.15293">
        <ele>374.9</ele>
        <time>2019-09-13T07:02:45Z</time>
      </trkpt>
      <trkpt lat="46.21999" lon="6.15295">
        <ele>374.7</ele>
        <time>2019-09-13T07:02:46Z</time>
      </trkpt>
      <trkpt lat="46.22001" lon="6.15296">
        <ele>374.6</ele>
        <time>2019-09-13T07:02:47Z</time>
      </trkpt>
      <trkpt lat="46.22006" lon="6.15299">
        <ele>374.2</ele>
        <time>2019-09-13T07:02:49Z</time>
      </trkpt>
      <trkpt lat="46.2201" lon="6.15303">
        <ele>373.9</ele>
        <time>2019-09-13T07:02:51Z</time>
      </trkpt>
      <trkpt lat="46.22013" lon="6.15304">
        <ele>373.7</ele>
        <time>2019-09-13T07:02:52Z</time>
      </trkpt>
      <trkpt lat="46.22016" lon="6.15306">
        <ele>373.8</ele>
        <time>2019-09-13T07:02:53Z</time>
      </trkpt>
      <trkpt lat="46.2202" lon="6.15307">
        <ele>373.9</ele>
        <time>2019-09-13T07:02:54Z</time>
      </trkpt>
      <trkpt lat="46.22023" lon="6.15308">
        <ele>373.9</ele>
        <time>2019-09-13T07:02:55Z</time>
      </trkpt>
      <trkpt lat="46.22025" lon="6.1531">
        <ele>374</ele>
        <time>2019-09-13T07:02:56Z</time>
      </trkpt>
      <trkpt lat="46.2203" lon="6.15313">
        <ele>374.1</ele>
        <time>2019-09-13T07:02:58Z</time>
      </trkpt>
      <trkpt lat="46.22033" lon="6.15315">
        <ele>374.2</ele>
        <time>2019-09-13T07:02:59Z</time>
      </trkpt>
      <trkpt lat="46.22036" lon="6.15317">
        <ele>374.2</ele>
        <time>2019-09-13T07:03:00Z</time>
      </trkpt>
      <trkpt lat="46.22039" lon="6.1532">
        <ele>374.3</ele>
        <time>2019-09-13T07:03:01Z</time>
      </trkpt>
      <trkpt lat="46.22042" lon="6.15323">
        <ele>374.4</ele>
        <time>2019-09-13T07:03:02Z</time>
      </trkpt>
      <trkpt lat="46.22045" lon="6.15325">
        <ele>374.4</ele>
        <time>2019-09-13T07:03:03Z</time>
      </trkpt>
      <trkpt lat="46.22047" lon="6.15326">
        <ele>374.5</ele>
        <time>2019-09-13T07:03:04Z</time>
      </trkpt>
      <trkpt lat="46.2205" lon="6.15328">
        <ele>374.5</ele>
        <time>2019-09-13T07:03:05Z</time>
      </trkpt>
      <trkpt lat="46.22052" lon="6.15329">
        <ele>374.5</ele>
        <time>2019-09-13T07:03:06Z</time>
      </trkpt>
      <trkpt lat="46.22055" lon="6.15331">
        <ele>374.6</ele>
        <time>2019-09-13T07:03:07Z</time>
      </trkpt>
      <trkpt lat="46.22059" lon="6.15334">
        <ele>374.7</ele>
        <time>2019-09-13T07:03:09Z</time>
      </trkpt>
      <trkpt lat="46.22064" lon="6.15338">
        <ele>374.8</ele>
        <time>2019-09-13T07:03:11Z</time>
      </trkpt>
      <trkpt lat="46.22067" lon="6.15339">
        <ele>374.9</ele>
        <time>2019-09-13T07:03:12Z</time>
      </trkpt>
      <trkpt lat="46.22071" lon="6.15341">
        <ele>375</ele>
        <time>2019-09-13T07:03:14Z</time>
      </trkpt>
      <trkpt lat="46.22076" lon="6.15343">
        <ele>375.1</ele>
        <time>2019-09-13T07:03:16Z</time>
      </trkpt>
      <trkpt lat="46.22079" lon="6.15343">
        <ele>375.2</ele>
        <time>2019-09-13T07:03:17Z</time>
      </trkpt>
      <trkpt lat="46.22082" lon="6.15344">
        <ele>375.4</ele>
        <time>2019-09-13T07:03:18Z</time>
      </trkpt>
      <trkpt lat="46.22085" lon="6.15344">
        <ele>375.5</ele>
        <time>2019-09-13T07:03:19Z</time>
      </trkpt>
      <trkpt lat="46.22089" lon="6.15344">
        <ele>375.6</ele>
        <time>2019-09-13T07:03:20Z</time>
      </trkpt>
      <trkpt lat="46.22092" lon="6.15344">
        <ele>375.7</ele>
        <time>2019-09-13T07:03:21Z</time>
      </trkpt>
      <trkpt lat="46.22095" lon="6.15344">
        <ele>375.9</ele>
        <time>2019-09-13T07:03:22Z</time>
      </trkpt>
      <trkpt lat="46.221" lon="6.15344">
        <ele>376.1</ele>
        <time>2019-09-13T07:03:24Z</time>
      </trkpt>
      <trkpt lat="46.22103" lon="6.15344">
        <ele>376.2</ele>
        <time>2019-09-13T07:03:25Z</time>
      </trkpt>
      <trkpt lat="46.22106" lon="6.15344">
        <ele>376.3</ele>
        <time>2019-09-13T07:03:26Z</time>
      </trkpt>
      <trkpt lat="46.22109" lon="6.15343">
        <ele>376.4</ele>
        <time>2019-09-13T07:03:27Z</time>
      </trkpt>
      <trkpt lat="46.22112" lon="6.15343">
        <ele>376.6</ele>
        <time>2019-09-13T07:03:28Z</time>
      </trkpt>
      <trkpt lat="46.22115" lon="6.15342">
        <ele>376.7</ele>
        <time>2019-09-13T07:03:29Z</time>
      </trkpt>
      <trkpt lat="46.22119" lon="6.15342">
        <ele>376.9</ele>
        <time>2019-09-13T07:03:30Z</time>
      </trkpt>
      <trkpt lat="46.22122" lon="6.15342">
        <ele>377</ele>
        <time>2019-09-13T07:03:31Z</time>
      </trkpt>
      <trkpt lat="46.22125" lon="6.15341">
        <ele>377.2</ele>
        <time>2019-09-13T07:03:32Z</time>
      </trkpt>
      <trkpt lat="46.2213" lon="6.15339">
        <ele>377.6</ele>
        <time>2019-09-13T07:03:34Z</time>
      </trkpt>
      <trkpt lat="46.22133" lon="6.15336">
        <ele>377.8</ele>
        <time>2019-09-13T07:03:35Z</time>
      </trkpt>
      <trkpt lat="46.22136" lon="6.15334">
        <ele>378.1</ele>
        <time>2019-09-13T07:03:36Z</time>
      </trkpt>
      <trkpt lat="46.22138" lon="6.15332">
        <ele>378.4</ele>
        <time>2019-09-13T07:03:37Z</time>
      </trkpt>
      <trkpt lat="46.2214" lon="6.15328">
        <ele>378.4</ele>
        <time>2019-09-13T07:03:38Z</time>
      </trkpt>
      <trkpt lat="46.22141" lon="6.15323">
        <ele>378.4</ele>
        <time>2019-09-13T07:03:39Z</time>
      </trkpt>
      <trkpt lat="46.22142" lon="6.15318">
        <ele>378.5</ele>
        <time>2019-09-13T07:03:40Z</time>
      </trkpt>
      <trkpt lat="46.22143" lon="6.15314">
        <ele>378.5</ele>
        <time>2019-09-13T07:03:41Z</time>
      </trkpt>
      <trkpt lat="46.22145" lon="6.15311">
        <ele>378.5</ele>
        <time>2019-09-13T07:03:42Z</time>
      </trkpt>
      <trkpt lat="46.22147" lon="6.15308">
        <ele>378.6</ele>
        <time>2019-09-13T07:03:43Z</time>
      </trkpt>
      <trkpt lat="46.2215" lon="6.15306">
        <ele>377.9</ele>
        <time>2019-09-13T07:03:44Z</time>
      </trkpt>
      <trkpt lat="46.22152" lon="6.15304">
        <ele>377.3</ele>
        <time>2019-09-13T07:03:45Z</time>
      </trkpt>
      <trkpt lat="46.22155" lon="6.15302">
        <ele>376.8</ele>
        <time>2019-09-13T07:03:46Z</time>
      </trkpt>
      <trkpt lat="46.22157" lon="6.153">
        <ele>376.3</ele>
        <time>2019-09-13T07:03:47Z</time>
      </trkpt>
      <trkpt lat="46.2216" lon="6.15297">
        <ele>375.9</ele>
        <time>2019-09-13T07:03:48Z</time>
      </trkpt>
      <trkpt lat="46.22163" lon="6.15296">
        <ele>375.6</ele>
        <time>2019-09-13T07:03:49Z</time>
      </trkpt>
      <trkpt lat="46.22166" lon="6.15295">
        <ele>375.2</ele>
        <time>2019-09-13T07:03:50Z</time>
      </trkpt>
      <trkpt lat="46.22168" lon="6.15294">
        <ele>374.9</ele>
        <time>2019-09-13T07:03:51Z</time>
      </trkpt>
      <trkpt lat="46.22171" lon="6.15294">
        <ele>374.6</ele>
        <time>2019-09-13T07:03:52Z</time>
      </trkpt>
      <trkpt lat="46.22174" lon="6.15295">
        <ele>374.4</ele>
        <time>2019-09-13T07:03:53Z</time>
      </trkpt>
      <trkpt lat="46.22178" lon="6.15293">
        <ele>374.2</ele>
        <time>2019-09-13T07:03:55Z</time>
      </trkpt>
      <trkpt lat="46.22181" lon="6.15291">
        <ele>374</ele>
        <time>2019-09-13T07:03:56Z</time>
      </trkpt>
      <trkpt lat="46.22183" lon="6.15288">
        <ele>373.8</ele>
        <time>2019-09-13T07:03:57Z</time>
      </trkpt>
      <trkpt lat="46.22185" lon="6.15285">
        <ele>373.6</ele>
        <time>2019-09-13T07:03:58Z</time>
      </trkpt>
      <trkpt lat="46.22187" lon="6.15282">
        <ele>373.5</ele>
        <time>2019-09-13T07:03:59Z</time>
      </trkpt>
      <trkpt lat="46.22189" lon="6.15279">
        <ele>373.2</ele>
        <time>2019-09-13T07:04:00Z</time>
      </trkpt>
      <trkpt lat="46.22191" lon="6.15276">
        <ele>373</ele>
        <time>2019-09-13T07:04:01Z</time>
      </trkpt>
      <trkpt lat="46.22194" lon="6.15273">
        <ele>372.8</ele>
        <time>2019-09-13T07:04:02Z</time>
      </trkpt>
      <trkpt lat="46.22196" lon="6.1527">
        <ele>372.5</ele>
        <time>2019-09-13T07:04:03Z</time>
      </trkpt>
      <trkpt lat="46.22198" lon="6.15267">
        <ele>372.2</ele>
        <time>2019-09-13T07:04:04Z</time>
      </trkpt>
      <trkpt lat="46.222" lon="6.15264">
        <ele>371.8</ele>
        <time>2019-09-13T07:04:05Z</time>
      </trkpt>
      <trkpt lat="46.22202" lon="6.15262">
        <ele>372</ele>
        <time>2019-09-13T07:04:06Z</time>
      </trkpt>
      <trkpt lat="46.22205" lon="6.15259">
        <ele>372.2</ele>
        <time>2019-09-13T07:04:07Z</time>
      </trkpt>
      <trkpt lat="46.22209" lon="6.15254">
        <ele>372.5</ele>
        <time>2019-09-13T07:04:09Z</time>
      </trkpt>
      <trkpt lat="46.22212" lon="6.15252">
        <ele>372.6</ele>
        <time>2019-09-13T07:04:10Z</time>
      </trkpt>
      <trkpt lat="46.22215" lon="6.15247">
        <ele>372.9</ele>
        <time>2019-09-13T07:04:12Z</time>
      </trkpt>
      <trkpt lat="46.22218" lon="6.1524">
        <ele>373.1</ele>
        <time>2019-09-13T07:04:14Z</time>
      </trkpt>
      <trkpt lat="46.2222" lon="6.15237">
        <ele>373.3</ele>
        <time>2019-09-13T07:04:15Z</time>
      </trkpt>
      <trkpt lat="46.22221" lon="6.15233">
        <ele>373.6</ele>
        <time>2019-09-13T07:04:16Z</time>
      </trkpt>
      <trkpt lat="46.22223" lon="6.1523">
        <ele>373.9</ele>
        <time>2019-09-13T07:04:17Z</time>
      </trkpt>
      <trkpt lat="46.22225" lon="6.15226">
        <ele>374.3</ele>
        <time>2019-09-13T07:04:18Z</time>
      </trkpt>
      <trkpt lat="46.22226" lon="6.15223">
        <ele>374.7</ele>
        <time>2019-09-13T07:04:19Z</time>
      </trkpt>
      <trkpt lat="46.22229" lon="6.15217">
        <ele>375.4</ele>
        <time>2019-09-13T07:04:21Z</time>
      </trkpt>
      <trkpt lat="46.22231" lon="6.1521">
        <ele>376.4</ele>
        <time>2019-09-13T07:04:23Z</time>
      </trkpt>
      <trkpt lat="46.22233" lon="6.15206">
        <ele>377.2</ele>
        <time>2019-09-13T07:04:25Z</time>
      </trkpt>
      <trkpt lat="46.22235" lon="6.15202">
        <ele>377.8</ele>
        <time>2019-09-13T07:04:28Z</time>
      </trkpt>
      <trkpt lat="46.22237" lon="6.15198">
        <ele>377.9</ele>
        <time>2019-09-13T07:04:31Z</time>
      </trkpt>
    </trkseg>
  </trk>
</gpx>